<?xml version='1.0' encoding='UTF-8'?><gpx version="1.1" creator="JPX - https://github.com/jenetics/jpx" xmlns="http://www.topografix.com/GPX/1/1"><trk><trkseg><trkpt lat="45.0105543" lon="9.3484273"><ele>246.99999999999997</ele><time>2026-05-03T10:04:39.627Z</time></trkpt><trkpt lat="45.0105045" lon="9.3483708"><ele>247.0</ele><time>2026-05-03T10:06:53.63Z</time></trkpt><trkpt lat="45.0105757" lon="9.3483442"><ele>247.0</ele><time>2026-05-03T10:06:57.629Z</time></trkpt><trkpt lat="45.0106655" lon="9.3483884"><ele>247.0</ele><time>2026-05-03T10:06:59.629Z</time></trkpt><trkpt lat="45.010761" lon="9.3484592"><ele>246.99999999999997</ele><time>2026-05-03T10:07:01.629Z</time></trkpt><trkpt lat="45.0108555" lon="9.3485356"><ele>247.0</ele><time>2026-05-03T10:07:03.629Z</time></trkpt><trkpt lat="45.010915" lon="9.3485883"><ele>247.28571428571428</ele><time>2026-05-03T10:07:04.629Z</time></trkpt><trkpt lat="45.0109767" lon="9.3486283"><ele>247.57142857142856</ele><time>2026-05-03T10:07:05.629Z</time></trkpt><trkpt lat="45.0110417" lon="9.3486633"><ele>247.85714285714283</ele><time>2026-05-03T10:07:06.629Z</time></trkpt><trkpt lat="45.0111083" lon="9.348695"><ele>248.14285714285714</ele><time>2026-05-03T10:07:07.63Z</time></trkpt><trkpt lat="45.0111717" lon="9.3487283"><ele>248.4285714285714</ele><time>2026-05-03T10:07:08.63Z</time></trkpt><trkpt lat="45.011235" lon="9.34877"><ele>248.7142857142857</ele><time>2026-05-03T10:07:09.63Z</time></trkpt><trkpt lat="45.0113" lon="9.3488183"><ele>249.0</ele><time>2026-05-03T10:07:10.629Z</time></trkpt><trkpt lat="45.0113667" lon="9.348875"><ele>249.0</ele><time>2026-05-03T10:07:11.63Z</time></trkpt><trkpt lat="45.0114367" lon="9.3489283"><ele>249.0</ele><time>2026-05-03T10:07:12.63Z</time></trkpt><trkpt lat="45.0115117" lon="9.3489817"><ele>249.0</ele><time>2026-05-03T10:07:13.63Z</time></trkpt><trkpt lat="45.01159" lon="9.3490367"><ele>249.0</ele><time>2026-05-03T10:07:14.631Z</time></trkpt><trkpt lat="45.0116733" lon="9.34909"><ele>249.0</ele><time>2026-05-03T10:07:15.63Z</time></trkpt><trkpt lat="45.0117617" lon="9.3491383"><ele>249.0</ele><time>2026-05-03T10:07:16.63Z</time></trkpt><trkpt lat="45.0118517" lon="9.3491833"><ele>249.0</ele><time>2026-05-03T10:07:17.631Z</time></trkpt><trkpt lat="45.0119467" lon="9.349225"><ele>248.99999999999997</ele><time>2026-05-03T10:07:18.631Z</time></trkpt><trkpt lat="45.0120417" lon="9.3492683"><ele>248.99999999999997</ele><time>2026-05-03T10:07:19.63Z</time></trkpt><trkpt lat="45.0121433" lon="9.34931"><ele>249.0</ele><time>2026-05-03T10:07:20.631Z</time></trkpt><trkpt lat="45.0122483" lon="9.3493517"><ele>249.0</ele><time>2026-05-03T10:07:21.63Z</time></trkpt><trkpt lat="45.0123583" lon="9.3493883"><ele>249.0</ele><time>2026-05-03T10:07:22.632Z</time></trkpt><trkpt lat="45.0124683" lon="9.349415"><ele>248.99999999999997</ele><time>2026-05-03T10:07:23.629Z</time></trkpt><trkpt lat="45.0125767" lon="9.3494333"><ele>248.99999999999997</ele><time>2026-05-03T10:07:24.63Z</time></trkpt><trkpt lat="45.0126833" lon="9.3494417"><ele>249.0</ele><time>2026-05-03T10:07:25.63Z</time></trkpt><trkpt lat="45.01279" lon="9.3494433"><ele>249.0</ele><time>2026-05-03T10:07:26.63Z</time></trkpt><trkpt lat="45.0128933" lon="9.34944"><ele>248.66666666666666</ele><time>2026-05-03T10:07:27.63Z</time></trkpt><trkpt lat="45.0129967" lon="9.34944"><ele>248.33333333333331</ele><time>2026-05-03T10:07:28.63Z</time></trkpt><trkpt lat="45.013095" lon="9.3494333"><ele>248.0</ele><time>2026-05-03T10:07:29.631Z</time></trkpt><trkpt lat="45.01318" lon="9.3494167"><ele>247.66666666666666</ele><time>2026-05-03T10:07:30.63Z</time></trkpt><trkpt lat="45.013255" lon="9.34939"><ele>247.33333333333331</ele><time>2026-05-03T10:07:31.628Z</time></trkpt><trkpt lat="45.0133233" lon="9.3493433"><ele>247.0</ele><time>2026-05-03T10:07:32.629Z</time></trkpt><trkpt lat="45.0133867" lon="9.3492683"><ele>247.99999999999997</ele><time>2026-05-03T10:07:33.629Z</time></trkpt><trkpt lat="45.0134483" lon="9.3491867"><ele>249.0</ele><time>2026-05-03T10:07:34.63Z</time></trkpt><trkpt lat="45.0135133" lon="9.3491033"><ele>250.0</ele><time>2026-05-03T10:07:35.63Z</time></trkpt><trkpt lat="45.0135833" lon="9.349025"><ele>251.0</ele><time>2026-05-03T10:07:36.63Z</time></trkpt><trkpt lat="45.01366" lon="9.3489617"><ele>251.99999999999997</ele><time>2026-05-03T10:07:37.63Z</time></trkpt><trkpt lat="45.0137433" lon="9.34891"><ele>253.0</ele><time>2026-05-03T10:07:38.631Z</time></trkpt><trkpt lat="45.01384" lon="9.3488733"><ele>250.0</ele><time>2026-05-03T10:07:39.629Z</time></trkpt><trkpt lat="45.0139417" lon="9.348845"><ele>247.0</ele><time>2026-05-03T10:07:40.629Z</time></trkpt><trkpt lat="45.0140467" lon="9.34882"><ele>244.0</ele><time>2026-05-03T10:07:41.629Z</time></trkpt><trkpt lat="45.014155" lon="9.3487917"><ele>241.0</ele><time>2026-05-03T10:07:42.629Z</time></trkpt><trkpt lat="45.0142683" lon="9.3487717"><ele>238.0</ele><time>2026-05-03T10:07:43.629Z</time></trkpt><trkpt lat="45.01438" lon="9.348755"><ele>238.0</ele><time>2026-05-03T10:07:44.629Z</time></trkpt><trkpt lat="45.0144933" lon="9.34873"><ele>238.0</ele><time>2026-05-03T10:07:45.631Z</time></trkpt><trkpt lat="45.0146117" lon="9.34869"><ele>238.0</ele><time>2026-05-03T10:07:46.63Z</time></trkpt><trkpt lat="45.0147233" lon="9.3486283"><ele>238.0</ele><time>2026-05-03T10:07:47.63Z</time></trkpt><trkpt lat="45.0148267" lon="9.3485467"><ele>238.0</ele><time>2026-05-03T10:07:48.63Z</time></trkpt><trkpt lat="45.0149283" lon="9.3484517"><ele>238.0</ele><time>2026-05-03T10:07:49.629Z</time></trkpt><trkpt lat="45.0150217" lon="9.3483433"><ele>238.0</ele><time>2026-05-03T10:07:50.63Z</time></trkpt><trkpt lat="45.0151083" lon="9.348235"><ele>238.0</ele><time>2026-05-03T10:07:51.631Z</time></trkpt><trkpt lat="45.0151967" lon="9.3481383"><ele>239.0</ele><time>2026-05-03T10:07:52.629Z</time></trkpt><trkpt lat="45.015285" lon="9.3480583"><ele>240.0</ele><time>2026-05-03T10:07:53.63Z</time></trkpt><trkpt lat="45.0153767" lon="9.3479983"><ele>241.0</ele><time>2026-05-03T10:07:54.63Z</time></trkpt><trkpt lat="45.015475" lon="9.3479717"><ele>242.0</ele><time>2026-05-03T10:07:55.63Z</time></trkpt><trkpt lat="45.0155783" lon="9.3479767"><ele>243.0</ele><time>2026-05-03T10:07:56.629Z</time></trkpt><trkpt lat="45.0156833" lon="9.34802"><ele>243.0</ele><time>2026-05-03T10:07:57.629Z</time></trkpt><trkpt lat="45.0157767" lon="9.3480933"><ele>243.0</ele><time>2026-05-03T10:07:58.63Z</time></trkpt><trkpt lat="45.0158433" lon="9.348185"><ele>243.0</ele><time>2026-05-03T10:07:59.628Z</time></trkpt><trkpt lat="45.01588" lon="9.3482967"><ele>243.0</ele><time>2026-05-03T10:08:00.629Z</time></trkpt><trkpt lat="45.0158933" lon="9.3484217"><ele>243.0</ele><time>2026-05-03T10:08:01.629Z</time></trkpt><trkpt lat="45.0158917" lon="9.348545"><ele>242.0</ele><time>2026-05-03T10:08:02.631Z</time></trkpt><trkpt lat="45.0158933" lon="9.3486667"><ele>241.0</ele><time>2026-05-03T10:08:03.63Z</time></trkpt><trkpt lat="45.0159033" lon="9.3487867"><ele>240.0</ele><time>2026-05-03T10:08:04.63Z</time></trkpt><trkpt lat="45.0159517" lon="9.3489033"><ele>239.0</ele><time>2026-05-03T10:08:05.63Z</time></trkpt><trkpt lat="45.0160483" lon="9.3490167"><ele>238.0</ele><time>2026-05-03T10:08:06.631Z</time></trkpt><trkpt lat="45.01618" lon="9.3491283"><ele>237.33333333333331</ele><time>2026-05-03T10:08:07.63Z</time></trkpt><trkpt lat="45.0163167" lon="9.349235"><ele>236.66666666666669</ele><time>2026-05-03T10:08:08.631Z</time></trkpt><trkpt lat="45.0164533" lon="9.34934"><ele>236.0</ele><time>2026-05-03T10:08:09.63Z</time></trkpt><trkpt lat="45.0165833" lon="9.349455"><ele>231.33333333333334</ele><time>2026-05-03T10:08:10.63Z</time></trkpt><trkpt lat="45.0167083" lon="9.3495817"><ele>226.66666666666669</ele><time>2026-05-03T10:08:11.63Z</time></trkpt><trkpt lat="45.0168383" lon="9.34974"><ele>222.0</ele><time>2026-05-03T10:08:12.631Z</time></trkpt><trkpt lat="45.0169783" lon="9.3499383"><ele>222.0</ele><time>2026-05-03T10:08:13.63Z</time></trkpt><trkpt lat="45.0171017" lon="9.3501517"><ele>222.0</ele><time>2026-05-03T10:08:14.632Z</time></trkpt><trkpt lat="45.0172083" lon="9.3503583"><ele>222.0</ele><time>2026-05-03T10:08:15.631Z</time></trkpt><trkpt lat="45.017295" lon="9.3505617"><ele>221.33333333333331</ele><time>2026-05-03T10:08:16.631Z</time></trkpt><trkpt lat="45.0173683" lon="9.35076"><ele>220.66666666666666</ele><time>2026-05-03T10:08:17.63Z</time></trkpt><trkpt lat="45.0174333" lon="9.3509533"><ele>220.0</ele><time>2026-05-03T10:08:18.631Z</time></trkpt><trkpt lat="45.017495" lon="9.3511333"><ele>220.0</ele><time>2026-05-03T10:08:19.631Z</time></trkpt><trkpt lat="45.01755" lon="9.3512983"><ele>220.0</ele><time>2026-05-03T10:08:20.631Z</time></trkpt><trkpt lat="45.0176033" lon="9.351455"><ele>220.0</ele><time>2026-05-03T10:08:21.63Z</time></trkpt><trkpt lat="45.0176583" lon="9.3516083"><ele>220.0</ele><time>2026-05-03T10:08:22.63Z</time></trkpt><trkpt lat="45.017725" lon="9.3517533"><ele>221.75</ele><time>2026-05-03T10:08:23.63Z</time></trkpt><trkpt lat="45.0178117" lon="9.3518783"><ele>223.5</ele><time>2026-05-03T10:08:24.631Z</time></trkpt><trkpt lat="45.0179167" lon="9.351985"><ele>225.25</ele><time>2026-05-03T10:08:25.631Z</time></trkpt><trkpt lat="45.0180317" lon="9.35208"><ele>227.0</ele><time>2026-05-03T10:08:26.631Z</time></trkpt><trkpt lat="45.0181467" lon="9.3521767"><ele>226.75</ele><time>2026-05-03T10:08:27.631Z</time></trkpt><trkpt lat="45.018255" lon="9.352275"><ele>226.5</ele><time>2026-05-03T10:08:28.63Z</time></trkpt><trkpt lat="45.0183533" lon="9.3523817"><ele>226.25</ele><time>2026-05-03T10:08:29.63Z</time></trkpt><trkpt lat="45.0184383" lon="9.3525"><ele>226.0</ele><time>2026-05-03T10:08:30.632Z</time></trkpt><trkpt lat="45.0185083" lon="9.3526317"><ele>226.0</ele><time>2026-05-03T10:08:31.629Z</time></trkpt><trkpt lat="45.018565" lon="9.3527767"><ele>226.0</ele><time>2026-05-03T10:08:32.635Z</time></trkpt><trkpt lat="45.018615" lon="9.352925"><ele>226.0</ele><time>2026-05-03T10:08:33.629Z</time></trkpt><trkpt lat="45.0186733" lon="9.3530683"><ele>226.0</ele><time>2026-05-03T10:08:34.63Z</time></trkpt><trkpt lat="45.01874" lon="9.3532067"><ele>226.5</ele><time>2026-05-03T10:08:35.629Z</time></trkpt><trkpt lat="45.0188133" lon="9.353335"><ele>227.0</ele><time>2026-05-03T10:08:36.629Z</time></trkpt><trkpt lat="45.018885" lon="9.3534633"><ele>227.5</ele><time>2026-05-03T10:08:37.629Z</time></trkpt><trkpt lat="45.018955" lon="9.353585"><ele>228.0</ele><time>2026-05-03T10:08:38.629Z</time></trkpt><trkpt lat="45.0190283" lon="9.3537033"><ele>228.0</ele><time>2026-05-03T10:08:39.629Z</time></trkpt><trkpt lat="45.0191017" lon="9.3538217"><ele>228.0</ele><time>2026-05-03T10:08:40.628Z</time></trkpt><trkpt lat="45.0191767" lon="9.3539417"><ele>228.0</ele><time>2026-05-03T10:08:41.629Z</time></trkpt><trkpt lat="45.0192517" lon="9.3540617"><ele>228.0</ele><time>2026-05-03T10:08:42.63Z</time></trkpt><trkpt lat="45.0193217" lon="9.35418"><ele>228.0</ele><time>2026-05-03T10:08:43.631Z</time></trkpt><trkpt lat="45.0193883" lon="9.3542933"><ele>226.66666666666666</ele><time>2026-05-03T10:08:44.631Z</time></trkpt><trkpt lat="45.019455" lon="9.3544017"><ele>225.33333333333331</ele><time>2026-05-03T10:08:45.629Z</time></trkpt><trkpt lat="45.01952" lon="9.3544933"><ele>224.0</ele><time>2026-05-03T10:08:46.63Z</time></trkpt><trkpt lat="45.019585" lon="9.3545633"><ele>222.66666666666666</ele><time>2026-05-03T10:08:47.63Z</time></trkpt><trkpt lat="45.019655" lon="9.3546183"><ele>221.33333333333331</ele><time>2026-05-03T10:08:48.63Z</time></trkpt><trkpt lat="45.01973" lon="9.3546633"><ele>220.0</ele><time>2026-05-03T10:08:49.63Z</time></trkpt><trkpt lat="45.0198083" lon="9.35471"><ele>220.0</ele><time>2026-05-03T10:08:50.63Z</time></trkpt><trkpt lat="45.01989" lon="9.35476"><ele>220.0</ele><time>2026-05-03T10:08:51.629Z</time></trkpt><trkpt lat="45.0199717" lon="9.3548167"><ele>220.0</ele><time>2026-05-03T10:08:52.63Z</time></trkpt><trkpt lat="45.0200517" lon="9.3548883"><ele>220.0</ele><time>2026-05-03T10:08:53.628Z</time></trkpt><trkpt lat="45.02012" lon="9.3549833"><ele>220.0</ele><time>2026-05-03T10:08:54.629Z</time></trkpt><trkpt lat="45.0201683" lon="9.355105"><ele>219.8</ele><time>2026-05-03T10:08:55.629Z</time></trkpt><trkpt lat="45.020195" lon="9.3552433"><ele>219.6</ele><time>2026-05-03T10:08:56.629Z</time></trkpt><trkpt lat="45.0202017" lon="9.3553917"><ele>219.39999999999998</ele><time>2026-05-03T10:08:57.629Z</time></trkpt><trkpt lat="45.020195" lon="9.355545"><ele>219.2</ele><time>2026-05-03T10:08:58.629Z</time></trkpt><trkpt lat="45.0202033" lon="9.3556917"><ele>219.0</ele><time>2026-05-03T10:08:59.63Z</time></trkpt><trkpt lat="45.0202333" lon="9.355835"><ele>219.5</ele><time>2026-05-03T10:09:00.63Z</time></trkpt><trkpt lat="45.0202917" lon="9.35597"><ele>220.0</ele><time>2026-05-03T10:09:01.63Z</time></trkpt><trkpt lat="45.0203683" lon="9.3560883"><ele>220.5</ele><time>2026-05-03T10:09:02.631Z</time></trkpt><trkpt lat="45.020455" lon="9.356195"><ele>221.0</ele><time>2026-05-03T10:09:03.63Z</time></trkpt><trkpt lat="45.0205417" lon="9.3563017"><ele>220.0</ele><time>2026-05-03T10:09:04.63Z</time></trkpt><trkpt lat="45.0206183" lon="9.3564183"><ele>219.00000000000003</ele><time>2026-05-03T10:09:05.631Z</time></trkpt><trkpt lat="45.0206867" lon="9.3565417"><ele>218.00000000000003</ele><time>2026-05-03T10:09:06.631Z</time></trkpt><trkpt lat="45.0207417" lon="9.3566783"><ele>217.0</ele><time>2026-05-03T10:09:07.63Z</time></trkpt><trkpt lat="45.0207833" lon="9.3568233"><ele>216.0</ele><time>2026-05-03T10:09:08.63Z</time></trkpt><trkpt lat="45.0208133" lon="9.35698"><ele>213.25</ele><time>2026-05-03T10:09:09.634Z</time></trkpt><trkpt lat="45.0208317" lon="9.3571467"><ele>210.5</ele><time>2026-05-03T10:09:10.629Z</time></trkpt><trkpt lat="45.0208383" lon="9.357325"><ele>207.75</ele><time>2026-05-03T10:09:11.629Z</time></trkpt><trkpt lat="45.0208433" lon="9.3575133"><ele>205.0</ele><time>2026-05-03T10:09:12.629Z</time></trkpt><trkpt lat="45.02086" lon="9.357705"><ele>204.75</ele><time>2026-05-03T10:09:13.628Z</time></trkpt><trkpt lat="45.0208917" lon="9.357905"><ele>204.5</ele><time>2026-05-03T10:09:14.632Z</time></trkpt><trkpt lat="45.0209283" lon="9.35811"><ele>204.25</ele><time>2026-05-03T10:09:15.627Z</time></trkpt><trkpt lat="45.0209717" lon="9.3583117"><ele>204.0</ele><time>2026-05-03T10:09:16.629Z</time></trkpt><trkpt lat="45.0210133" lon="9.3585183"><ele>202.0</ele><time>2026-05-03T10:09:17.629Z</time></trkpt><trkpt lat="45.021055" lon="9.3587283"><ele>200.0</ele><time>2026-05-03T10:09:18.629Z</time></trkpt><trkpt lat="45.0210967" lon="9.35894"><ele>198.0</ele><time>2026-05-03T10:09:19.628Z</time></trkpt><trkpt lat="45.0211433" lon="9.35915"><ele>196.66666666666669</ele><time>2026-05-03T10:09:20.629Z</time></trkpt><trkpt lat="45.0211967" lon="9.359355"><ele>195.33333333333334</ele><time>2026-05-03T10:09:21.63Z</time></trkpt><trkpt lat="45.0212583" lon="9.3595583"><ele>194.0</ele><time>2026-05-03T10:09:22.629Z</time></trkpt><trkpt lat="45.0213317" lon="9.3597567"><ele>192.0</ele><time>2026-05-03T10:09:23.629Z</time></trkpt><trkpt lat="45.0214133" lon="9.3599517"><ele>190.0</ele><time>2026-05-03T10:09:24.629Z</time></trkpt><trkpt lat="45.0215017" lon="9.3601433"><ele>188.0</ele><time>2026-05-03T10:09:25.629Z</time></trkpt><trkpt lat="45.0216" lon="9.3603283"><ele>189.66666666666666</ele><time>2026-05-03T10:09:26.63Z</time></trkpt><trkpt lat="45.021705" lon="9.3605117"><ele>191.33333333333331</ele><time>2026-05-03T10:09:27.629Z</time></trkpt><trkpt lat="45.0218083" lon="9.360695"><ele>193.0</ele><time>2026-05-03T10:09:28.629Z</time></trkpt><trkpt lat="45.0219133" lon="9.3608817"><ele>193.0</ele><time>2026-05-03T10:09:29.629Z</time></trkpt><trkpt lat="45.0220183" lon="9.36107"><ele>193.0</ele><time>2026-05-03T10:09:30.721Z</time></trkpt><trkpt lat="45.02212" lon="9.3612533"><ele>193.0</ele><time>2026-05-03T10:09:31.629Z</time></trkpt><trkpt lat="45.0222167" lon="9.361425"><ele>191.25</ele><time>2026-05-03T10:09:32.632Z</time></trkpt><trkpt lat="45.0223083" lon="9.3615867"><ele>189.5</ele><time>2026-05-03T10:09:33.629Z</time></trkpt><trkpt lat="45.0223967" lon="9.3617417"><ele>187.75</ele><time>2026-05-03T10:09:34.629Z</time></trkpt><trkpt lat="45.0224817" lon="9.361895"><ele>186.0</ele><time>2026-05-03T10:09:35.629Z</time></trkpt><trkpt lat="45.0225617" lon="9.3620467"><ele>186.0</ele><time>2026-05-03T10:09:36.63Z</time></trkpt><trkpt lat="45.0226383" lon="9.362195"><ele>186.0</ele><time>2026-05-03T10:09:37.63Z</time></trkpt><trkpt lat="45.0227117" lon="9.36234"><ele>186.0</ele><time>2026-05-03T10:09:38.632Z</time></trkpt><trkpt lat="45.022785" lon="9.3624717"><ele>186.0</ele><time>2026-05-03T10:09:39.629Z</time></trkpt><trkpt lat="45.0228533" lon="9.3625933"><ele>184.8</ele><time>2026-05-03T10:09:40.63Z</time></trkpt><trkpt lat="45.02292" lon="9.36271"><ele>183.60000000000002</ele><time>2026-05-03T10:09:41.629Z</time></trkpt><trkpt lat="45.0229833" lon="9.3628233"><ele>182.4</ele><time>2026-05-03T10:09:42.629Z</time></trkpt><trkpt lat="45.0230533" lon="9.3629233"><ele>181.2</ele><time>2026-05-03T10:09:43.629Z</time></trkpt><trkpt lat="45.0231317" lon="9.3630033"><ele>180.0</ele><time>2026-05-03T10:09:44.629Z</time></trkpt><trkpt lat="45.02322" lon="9.363055"><ele>177.8</ele><time>2026-05-03T10:09:45.629Z</time></trkpt><trkpt lat="45.0233183" lon="9.363095"><ele>175.6</ele><time>2026-05-03T10:09:46.629Z</time></trkpt><trkpt lat="45.0234167" lon="9.3631383"><ele>173.39999999999998</ele><time>2026-05-03T10:09:47.629Z</time></trkpt><trkpt lat="45.0235083" lon="9.3631983"><ele>171.2</ele><time>2026-05-03T10:09:48.629Z</time></trkpt><trkpt lat="45.0235967" lon="9.3632733"><ele>169.0</ele><time>2026-05-03T10:09:49.631Z</time></trkpt><trkpt lat="45.0236817" lon="9.3633533"><ele>169.0</ele><time>2026-05-03T10:09:50.63Z</time></trkpt><trkpt lat="45.02377" lon="9.3634233"><ele>169.0</ele><time>2026-05-03T10:09:51.631Z</time></trkpt><trkpt lat="45.02386" lon="9.363475"><ele>169.0</ele><time>2026-05-03T10:09:52.629Z</time></trkpt><trkpt lat="45.023955" lon="9.3634933"><ele>169.0</ele><time>2026-05-03T10:09:53.629Z</time></trkpt><trkpt lat="45.0240533" lon="9.3634767"><ele>169.0</ele><time>2026-05-03T10:09:54.63Z</time></trkpt><trkpt lat="45.0241467" lon="9.3634283"><ele>169.0</ele><time>2026-05-03T10:09:55.629Z</time></trkpt><trkpt lat="45.0242317" lon="9.3633483"><ele>169.0</ele><time>2026-05-03T10:09:56.63Z</time></trkpt><trkpt lat="45.0242967" lon="9.3632433"><ele>169.0</ele><time>2026-05-03T10:09:57.63Z</time></trkpt><trkpt lat="45.024345" lon="9.3631283"><ele>169.0</ele><time>2026-05-03T10:09:58.629Z</time></trkpt><trkpt lat="45.0243817" lon="9.3630083"><ele>169.0</ele><time>2026-05-03T10:09:59.629Z</time></trkpt><trkpt lat="45.0244083" lon="9.3628833"><ele>169.0</ele><time>2026-05-03T10:10:00.629Z</time></trkpt><trkpt lat="45.024435" lon="9.3627583"><ele>169.0</ele><time>2026-05-03T10:10:01.629Z</time></trkpt><trkpt lat="45.024465" lon="9.3626417"><ele>169.0</ele><time>2026-05-03T10:10:02.629Z</time></trkpt><trkpt lat="45.0245" lon="9.3625433"><ele>169.0</ele><time>2026-05-03T10:10:03.629Z</time></trkpt><trkpt lat="45.0245483" lon="9.36247"><ele>169.0</ele><time>2026-05-03T10:10:04.628Z</time></trkpt><trkpt lat="45.024615" lon="9.3624517"><ele>169.0</ele><time>2026-05-03T10:10:05.629Z</time></trkpt><trkpt lat="45.0246833" lon="9.3624833"><ele>169.0</ele><time>2026-05-03T10:10:06.629Z</time></trkpt><trkpt lat="45.0247367" lon="9.36255"><ele>169.0</ele><time>2026-05-03T10:10:07.63Z</time></trkpt><trkpt lat="45.0247667" lon="9.3626333"><ele>169.0</ele><time>2026-05-03T10:10:08.63Z</time></trkpt><trkpt lat="45.0247817" lon="9.362735"><ele>169.0</ele><time>2026-05-03T10:10:09.629Z</time></trkpt><trkpt lat="45.0247967" lon="9.362855"><ele>169.0</ele><time>2026-05-03T10:10:10.629Z</time></trkpt><trkpt lat="45.0248133" lon="9.36299"><ele>169.0</ele><time>2026-05-03T10:10:11.629Z</time></trkpt><trkpt lat="45.02483" lon="9.363125"><ele>168.5</ele><time>2026-05-03T10:10:12.629Z</time></trkpt><trkpt lat="45.0248517" lon="9.36325"><ele>168.0</ele><time>2026-05-03T10:10:13.629Z</time></trkpt><trkpt lat="45.024885" lon="9.3633633"><ele>167.5</ele><time>2026-05-03T10:10:14.629Z</time></trkpt><trkpt lat="45.0249333" lon="9.3634583"><ele>167.0</ele><time>2026-05-03T10:10:15.629Z</time></trkpt><trkpt lat="45.024995" lon="9.3635"><ele>166.5</ele><time>2026-05-03T10:10:16.629Z</time></trkpt><trkpt lat="45.0250617" lon="9.363505"><ele>166.0</ele><time>2026-05-03T10:10:17.63Z</time></trkpt><trkpt lat="45.0251283" lon="9.36346"><ele>164.4</ele><time>2026-05-03T10:10:18.629Z</time></trkpt><trkpt lat="45.0251817" lon="9.3633667"><ele>162.8</ele><time>2026-05-03T10:10:19.63Z</time></trkpt><trkpt lat="45.0252283" lon="9.3632633"><ele>161.20000000000002</ele><time>2026-05-03T10:10:20.63Z</time></trkpt><trkpt lat="45.0252467" lon="9.3631283"><ele>159.60000000000002</ele><time>2026-05-03T10:10:21.63Z</time></trkpt><trkpt lat="45.0252333" lon="9.3629733"><ele>158.0</ele><time>2026-05-03T10:10:22.63Z</time></trkpt><trkpt lat="45.0251983" lon="9.36281"><ele>156.8</ele><time>2026-05-03T10:10:23.63Z</time></trkpt><trkpt lat="45.0251733" lon="9.362665"><ele>155.60000000000002</ele><time>2026-05-03T10:10:24.629Z</time></trkpt><trkpt lat="45.02515" lon="9.3625183"><ele>154.39999999999998</ele><time>2026-05-03T10:10:25.629Z</time></trkpt><trkpt lat="45.0251217" lon="9.3623667"><ele>153.2</ele><time>2026-05-03T10:10:26.629Z</time></trkpt><trkpt lat="45.025085" lon="9.3622133"><ele>152.0</ele><time>2026-05-03T10:10:27.629Z</time></trkpt><trkpt lat="45.02504" lon="9.362055"><ele>150.5</ele><time>2026-05-03T10:10:28.629Z</time></trkpt><trkpt lat="45.0249867" lon="9.3618967"><ele>149.0</ele><time>2026-05-03T10:10:29.629Z</time></trkpt><trkpt lat="45.0249233" lon="9.3617367"><ele>147.5</ele><time>2026-05-03T10:10:30.629Z</time></trkpt><trkpt lat="45.0248583" lon="9.3615833"><ele>146.0</ele><time>2026-05-03T10:10:31.629Z</time></trkpt><trkpt lat="45.024795" lon="9.3614417"><ele>147.0</ele><time>2026-05-03T10:10:32.63Z</time></trkpt><trkpt lat="45.0247317" lon="9.36131"><ele>148.0</ele><time>2026-05-03T10:10:33.629Z</time></trkpt><trkpt lat="45.0246717" lon="9.3611833"><ele>149.0</ele><time>2026-05-03T10:10:34.63Z</time></trkpt><trkpt lat="45.024615" lon="9.3610617"><ele>150.0</ele><time>2026-05-03T10:10:35.63Z</time></trkpt><trkpt lat="45.0245617" lon="9.3609483"><ele>151.0</ele><time>2026-05-03T10:10:36.63Z</time></trkpt><trkpt lat="45.0245067" lon="9.3608433"><ele>151.0</ele><time>2026-05-03T10:10:37.63Z</time></trkpt><trkpt lat="45.0244567" lon="9.360745"><ele>151.0</ele><time>2026-05-03T10:10:38.63Z</time></trkpt><trkpt lat="45.0244167" lon="9.3606467"><ele>151.0</ele><time>2026-05-03T10:10:39.629Z</time></trkpt><trkpt lat="45.0243967" lon="9.3605467"><ele>151.0</ele><time>2026-05-03T10:10:40.629Z</time></trkpt><trkpt lat="45.0244183" lon="9.360455"><ele>151.0</ele><time>2026-05-03T10:10:41.629Z</time></trkpt><trkpt lat="45.024465" lon="9.3603883"><ele>151.0</ele><time>2026-05-03T10:10:42.628Z</time></trkpt><trkpt lat="45.0245517" lon="9.3604"><ele>151.0</ele><time>2026-05-03T10:10:43.629Z</time></trkpt><trkpt lat="45.0246433" lon="9.3604333"><ele>151.0</ele><time>2026-05-03T10:10:44.629Z</time></trkpt><trkpt lat="45.02476" lon="9.3605033"><ele>151.0</ele><time>2026-05-03T10:10:45.63Z</time></trkpt><trkpt lat="45.02492" lon="9.3606267"><ele>151.0</ele><time>2026-05-03T10:10:46.629Z</time></trkpt><trkpt lat="45.0250883" lon="9.3607633"><ele>147.33333333333334</ele><time>2026-05-03T10:10:47.629Z</time></trkpt><trkpt lat="45.02526" lon="9.3608983"><ele>143.66666666666666</ele><time>2026-05-03T10:10:48.63Z</time></trkpt><trkpt lat="45.02544" lon="9.3610383"><ele>140.0</ele><time>2026-05-03T10:10:49.629Z</time></trkpt><trkpt lat="45.0256233" lon="9.36118"><ele>138.0</ele><time>2026-05-03T10:10:50.63Z</time></trkpt><trkpt lat="45.0258133" lon="9.361325"><ele>136.0</ele><time>2026-05-03T10:10:51.629Z</time></trkpt><trkpt lat="45.025995" lon="9.3614683"><ele>134.0</ele><time>2026-05-03T10:10:52.628Z</time></trkpt><trkpt lat="45.0261717" lon="9.361605"><ele>134.0</ele><time>2026-05-03T10:10:53.63Z</time></trkpt><trkpt lat="45.0263433" lon="9.3617367"><ele>134.0</ele><time>2026-05-03T10:10:54.63Z</time></trkpt><trkpt lat="45.0265183" lon="9.3618633"><ele>134.0</ele><time>2026-05-03T10:10:55.63Z</time></trkpt><trkpt lat="45.0266917" lon="9.3619833"><ele>133.0</ele><time>2026-05-03T10:10:56.63Z</time></trkpt><trkpt lat="45.0268683" lon="9.3621"><ele>132.0</ele><time>2026-05-03T10:10:57.631Z</time></trkpt><trkpt lat="45.0270467" lon="9.3622167"><ele>131.0</ele><time>2026-05-03T10:10:58.63Z</time></trkpt><trkpt lat="45.0272283" lon="9.3623283"><ele>131.0</ele><time>2026-05-03T10:10:59.63Z</time></trkpt><trkpt lat="45.0274117" lon="9.36244"><ele>131.0</ele><time>2026-05-03T10:11:00.631Z</time></trkpt><trkpt lat="45.0275967" lon="9.3625417"><ele>131.0</ele><time>2026-05-03T10:11:01.63Z</time></trkpt><trkpt lat="45.0277817" lon="9.362645"><ele>128.66666666666666</ele><time>2026-05-03T10:11:02.63Z</time></trkpt><trkpt lat="45.0279717" lon="9.3627533"><ele>126.33333333333334</ele><time>2026-05-03T10:11:03.631Z</time></trkpt><trkpt lat="45.02817" lon="9.3628633"><ele>124.0</ele><time>2026-05-03T10:11:04.629Z</time></trkpt><trkpt lat="45.028385" lon="9.3629833"><ele>125.0</ele><time>2026-05-03T10:11:05.631Z</time></trkpt><trkpt lat="45.0286017" lon="9.3631033"><ele>126.0</ele><time>2026-05-03T10:11:06.63Z</time></trkpt><trkpt lat="45.028805" lon="9.363215"><ele>126.0</ele><time>2026-05-03T10:11:07.629Z</time></trkpt><trkpt lat="45.028995" lon="9.363325"><ele>126.0</ele><time>2026-05-03T10:11:08.63Z</time></trkpt><trkpt lat="45.0291733" lon="9.3634317"><ele>126.0</ele><time>2026-05-03T10:11:09.63Z</time></trkpt><trkpt lat="45.0293367" lon="9.3635233"><ele>124.66666666666666</ele><time>2026-05-03T10:11:10.63Z</time></trkpt><trkpt lat="45.02949" lon="9.3635917"><ele>123.33333333333333</ele><time>2026-05-03T10:11:11.63Z</time></trkpt><trkpt lat="45.02964" lon="9.3636267"><ele>122.0</ele><time>2026-05-03T10:11:12.629Z</time></trkpt><trkpt lat="45.0297833" lon="9.3636167"><ele>122.0</ele><time>2026-05-03T10:11:13.63Z</time></trkpt><trkpt lat="45.0299233" lon="9.3635667"><ele>122.0</ele><time>2026-05-03T10:11:14.63Z</time></trkpt><trkpt lat="45.0300633" lon="9.3634667"><ele>122.0</ele><time>2026-05-03T10:11:15.63Z</time></trkpt><trkpt lat="45.0302117" lon="9.3633283"><ele>121.66666666666666</ele><time>2026-05-03T10:11:16.63Z</time></trkpt><trkpt lat="45.030375" lon="9.3631667"><ele>121.33333333333334</ele><time>2026-05-03T10:11:17.63Z</time></trkpt><trkpt lat="45.0305467" lon="9.362995"><ele>121.0</ele><time>2026-05-03T10:11:18.63Z</time></trkpt><trkpt lat="45.03072" lon="9.3628183"><ele>121.0</ele><time>2026-05-03T10:11:19.63Z</time></trkpt><trkpt lat="45.0308967" lon="9.3626317"><ele>121.0</ele><time>2026-05-03T10:11:20.63Z</time></trkpt><trkpt lat="45.0310783" lon="9.36244"><ele>121.0</ele><time>2026-05-03T10:11:21.629Z</time></trkpt><trkpt lat="45.0312667" lon="9.3622433"><ele>120.5</ele><time>2026-05-03T10:11:22.629Z</time></trkpt><trkpt lat="45.03146" lon="9.3620483"><ele>120.0</ele><time>2026-05-03T10:11:23.629Z</time></trkpt><trkpt lat="45.03166" lon="9.3618433"><ele>120.0</ele><time>2026-05-03T10:11:24.631Z</time></trkpt><trkpt lat="45.0318533" lon="9.36163"><ele>120.0</ele><time>2026-05-03T10:11:25.63Z</time></trkpt><trkpt lat="45.0320317" lon="9.3614417"><ele>119.66666666666666</ele><time>2026-05-03T10:11:26.63Z</time></trkpt><trkpt lat="45.03219" lon="9.3612867"><ele>119.33333333333333</ele><time>2026-05-03T10:11:27.629Z</time></trkpt><trkpt lat="45.0323333" lon="9.36115"><ele>119.0</ele><time>2026-05-03T10:11:28.63Z</time></trkpt><trkpt lat="45.0324717" lon="9.361035"><ele>119.0</ele><time>2026-05-03T10:11:29.63Z</time></trkpt><trkpt lat="45.0326083" lon="9.3609383"><ele>119.0</ele><time>2026-05-03T10:11:30.629Z</time></trkpt><trkpt lat="45.0327433" lon="9.360875"><ele>119.0</ele><time>2026-05-03T10:11:31.63Z</time></trkpt><trkpt lat="45.03288" lon="9.3608433"><ele>119.0</ele><time>2026-05-03T10:11:32.63Z</time></trkpt><trkpt lat="45.0330217" lon="9.360835"><ele>119.0</ele><time>2026-05-03T10:11:33.63Z</time></trkpt><trkpt lat="45.0331683" lon="9.3608467"><ele>119.0</ele><time>2026-05-03T10:11:34.63Z</time></trkpt><trkpt lat="45.0333083" lon="9.36087"><ele>119.0</ele><time>2026-05-03T10:11:35.63Z</time></trkpt><trkpt lat="45.0334483" lon="9.3608983"><ele>119.0</ele><time>2026-05-03T10:11:36.631Z</time></trkpt><trkpt lat="45.0335817" lon="9.3609217"><ele>118.75</ele><time>2026-05-03T10:11:37.63Z</time></trkpt><trkpt lat="45.0337067" lon="9.360935"><ele>118.5</ele><time>2026-05-03T10:11:38.63Z</time></trkpt><trkpt lat="45.033825" lon="9.3609367"><ele>118.25</ele><time>2026-05-03T10:11:39.63Z</time></trkpt><trkpt lat="45.033945" lon="9.36093"><ele>118.0</ele><time>2026-05-03T10:11:40.63Z</time></trkpt><trkpt lat="45.0340717" lon="9.3609117"><ele>117.5</ele><time>2026-05-03T10:11:41.631Z</time></trkpt><trkpt lat="45.0342067" lon="9.3608767"><ele>117.0</ele><time>2026-05-03T10:11:42.631Z</time></trkpt><trkpt lat="45.03435" lon="9.3608217"><ele>116.5</ele><time>2026-05-03T10:11:43.63Z</time></trkpt><trkpt lat="45.0344967" lon="9.3607567"><ele>116.0</ele><time>2026-05-03T10:11:44.631Z</time></trkpt><trkpt lat="45.0346483" lon="9.3606967"><ele>116.0</ele><time>2026-05-03T10:11:45.63Z</time></trkpt><trkpt lat="45.0348017" lon="9.3606433"><ele>116.0</ele><time>2026-05-03T10:11:46.63Z</time></trkpt><trkpt lat="45.034955" lon="9.360595"><ele>116.0</ele><time>2026-05-03T10:11:47.631Z</time></trkpt><trkpt lat="45.0351017" lon="9.3605483"><ele>117.75</ele><time>2026-05-03T10:11:48.63Z</time></trkpt><trkpt lat="45.0352383" lon="9.3605033"><ele>119.5</ele><time>2026-05-03T10:11:49.631Z</time></trkpt><trkpt lat="45.035365" lon="9.3604533"><ele>121.25</ele><time>2026-05-03T10:11:50.632Z</time></trkpt><trkpt lat="45.035485" lon="9.3604017"><ele>123.0</ele><time>2026-05-03T10:11:51.635Z</time></trkpt><trkpt lat="45.0355883" lon="9.3603517"><ele>123.0</ele><time>2026-05-03T10:11:52.63Z</time></trkpt><trkpt lat="45.0356717" lon="9.3603117"><ele>123.0</ele><time>2026-05-03T10:11:53.631Z</time></trkpt><trkpt lat="45.0357433" lon="9.3602767"><ele>123.0</ele><time>2026-05-03T10:11:54.631Z</time></trkpt><trkpt lat="45.0358117" lon="9.3602383"><ele>123.0</ele><time>2026-05-03T10:11:55.63Z</time></trkpt><trkpt lat="45.0358717" lon="9.3602033"><ele>123.0</ele><time>2026-05-03T10:11:56.631Z</time></trkpt><trkpt lat="45.035975" lon="9.36014"><ele>123.0</ele><time>2026-05-03T10:11:58.63Z</time></trkpt><trkpt lat="45.03607" lon="9.3600733"><ele>122.83333333333333</ele><time>2026-05-03T10:12:00.63Z</time></trkpt><trkpt lat="45.0361683" lon="9.3599617"><ele>122.66666666666666</ele><time>2026-05-03T10:12:02.631Z</time></trkpt><trkpt lat="45.036215" lon="9.35989"><ele>122.5</ele><time>2026-05-03T10:12:03.63Z</time></trkpt><trkpt lat="45.0362633" lon="9.3598083"><ele>122.33333333333333</ele><time>2026-05-03T10:12:04.63Z</time></trkpt><trkpt lat="45.0363183" lon="9.3597167"><ele>122.16666666666666</ele><time>2026-05-03T10:12:05.631Z</time></trkpt><trkpt lat="45.036385" lon="9.3596267"><ele>122.0</ele><time>2026-05-03T10:12:06.63Z</time></trkpt><trkpt lat="45.036455" lon="9.3595383"><ele>121.99999999999999</ele><time>2026-05-03T10:12:07.63Z</time></trkpt><trkpt lat="45.0365267" lon="9.3594583"><ele>122.0</ele><time>2026-05-03T10:12:08.631Z</time></trkpt><trkpt lat="45.036595" lon="9.3593817"><ele>122.0</ele><time>2026-05-03T10:12:09.631Z</time></trkpt><trkpt lat="45.0366583" lon="9.359305"><ele>122.0</ele><time>2026-05-03T10:12:10.631Z</time></trkpt><trkpt lat="45.0367167" lon="9.3592217"><ele>121.99999999999999</ele><time>2026-05-03T10:12:11.63Z</time></trkpt><trkpt lat="45.0367617" lon="9.3591217"><ele>122.0</ele><time>2026-05-03T10:12:12.632Z</time></trkpt><trkpt lat="45.0367867" lon="9.3590017"><ele>121.8</ele><time>2026-05-03T10:12:13.631Z</time></trkpt><trkpt lat="45.0367933" lon="9.35887"><ele>121.6</ele><time>2026-05-03T10:12:14.632Z</time></trkpt><trkpt lat="45.0367767" lon="9.3587283"><ele>121.39999999999999</ele><time>2026-05-03T10:12:15.63Z</time></trkpt><trkpt lat="45.03673" lon="9.358565"><ele>121.19999999999999</ele><time>2026-05-03T10:12:16.631Z</time></trkpt><trkpt lat="45.03668" lon="9.3583983"><ele>121.0</ele><time>2026-05-03T10:12:17.63Z</time></trkpt><trkpt lat="45.0366217" lon="9.3582167"><ele>119.33333333333334</ele><time>2026-05-03T10:12:18.63Z</time></trkpt><trkpt lat="45.036555" lon="9.3580217"><ele>117.66666666666666</ele><time>2026-05-03T10:12:19.63Z</time></trkpt><trkpt lat="45.0364833" lon="9.3578133"><ele>116.0</ele><time>2026-05-03T10:12:20.631Z</time></trkpt><trkpt lat="45.0364133" lon="9.357605"><ele>116.0</ele><time>2026-05-03T10:12:21.632Z</time></trkpt><trkpt lat="45.036345" lon="9.35739"><ele>116.0</ele><time>2026-05-03T10:12:22.631Z</time></trkpt><trkpt lat="45.0362817" lon="9.3571717"><ele>116.0</ele><time>2026-05-03T10:12:23.631Z</time></trkpt><trkpt lat="45.036225" lon="9.35696"><ele>116.0</ele><time>2026-05-03T10:12:24.631Z</time></trkpt><trkpt lat="45.0361733" lon="9.3567617"><ele>116.0</ele><time>2026-05-03T10:12:25.631Z</time></trkpt><trkpt lat="45.0361283" lon="9.3565733"><ele>116.0</ele><time>2026-05-03T10:12:26.631Z</time></trkpt><trkpt lat="45.0360833" lon="9.356395"><ele>116.0</ele><time>2026-05-03T10:12:27.63Z</time></trkpt><trkpt lat="45.03605" lon="9.3562133"><ele>116.0</ele><time>2026-05-03T10:12:28.63Z</time></trkpt><trkpt lat="45.0360233" lon="9.3560283"><ele>116.0</ele><time>2026-05-03T10:12:29.631Z</time></trkpt><trkpt lat="45.036005" lon="9.3558483"><ele>116.0</ele><time>2026-05-03T10:12:30.63Z</time></trkpt><trkpt lat="45.0359933" lon="9.3556717"><ele>116.0</ele><time>2026-05-03T10:12:31.63Z</time></trkpt><trkpt lat="45.03599" lon="9.3555017"><ele>116.5</ele><time>2026-05-03T10:12:32.631Z</time></trkpt><trkpt lat="45.0359933" lon="9.3553317"><ele>117.0</ele><time>2026-05-03T10:12:33.631Z</time></trkpt><trkpt lat="45.036" lon="9.35516"><ele>117.5</ele><time>2026-05-03T10:12:34.63Z</time></trkpt><trkpt lat="45.0360083" lon="9.3549933"><ele>118.0</ele><time>2026-05-03T10:12:35.63Z</time></trkpt><trkpt lat="45.0360167" lon="9.35483"><ele>117.75</ele><time>2026-05-03T10:12:36.631Z</time></trkpt><trkpt lat="45.0360267" lon="9.35467"><ele>117.5</ele><time>2026-05-03T10:12:37.629Z</time></trkpt><trkpt lat="45.036045" lon="9.3545033"><ele>117.25</ele><time>2026-05-03T10:12:38.63Z</time></trkpt><trkpt lat="45.0360767" lon="9.3543283"><ele>117.0</ele><time>2026-05-03T10:12:39.629Z</time></trkpt><trkpt lat="45.0361183" lon="9.3541367"><ele>117.0</ele><time>2026-05-03T10:12:40.63Z</time></trkpt><trkpt lat="45.0361717" lon="9.3539333"><ele>117.0</ele><time>2026-05-03T10:12:41.629Z</time></trkpt><trkpt lat="45.03623" lon="9.3537317"><ele>117.0</ele><time>2026-05-03T10:12:42.63Z</time></trkpt><trkpt lat="45.0362967" lon="9.3535367"><ele>117.0</ele><time>2026-05-03T10:12:43.63Z</time></trkpt><trkpt lat="45.0363717" lon="9.3533467"><ele>117.0</ele><time>2026-05-03T10:12:44.63Z</time></trkpt><trkpt lat="45.0364517" lon="9.353155"><ele>117.0</ele><time>2026-05-03T10:12:45.63Z</time></trkpt><trkpt lat="45.0365383" lon="9.3529633"><ele>118.33333333333334</ele><time>2026-05-03T10:12:46.631Z</time></trkpt><trkpt lat="45.0366267" lon="9.3527767"><ele>119.66666666666667</ele><time>2026-05-03T10:12:47.63Z</time></trkpt><trkpt lat="45.036715" lon="9.3526033"><ele>121.0</ele><time>2026-05-03T10:12:48.63Z</time></trkpt><trkpt lat="45.0368" lon="9.3524433"><ele>121.0</ele><time>2026-05-03T10:12:49.63Z</time></trkpt><trkpt lat="45.0368833" lon="9.3522883"><ele>121.0</ele><time>2026-05-03T10:12:50.63Z</time></trkpt><trkpt lat="45.03696" lon="9.3521417"><ele>121.0</ele><time>2026-05-03T10:12:51.63Z</time></trkpt><trkpt lat="45.037035" lon="9.352"><ele>121.0</ele><time>2026-05-03T10:12:52.63Z</time></trkpt><trkpt lat="45.0371083" lon="9.351855"><ele>120.5</ele><time>2026-05-03T10:12:53.631Z</time></trkpt><trkpt lat="45.0371833" lon="9.35171"><ele>120.0</ele><time>2026-05-03T10:12:54.63Z</time></trkpt><trkpt lat="45.03726" lon="9.3515617"><ele>119.5</ele><time>2026-05-03T10:12:55.63Z</time></trkpt><trkpt lat="45.037335" lon="9.3514117"><ele>119.0</ele><time>2026-05-03T10:12:56.63Z</time></trkpt><trkpt lat="45.03741" lon="9.3512583"><ele>120.0</ele><time>2026-05-03T10:12:57.63Z</time></trkpt><trkpt lat="45.0374883" lon="9.351105"><ele>121.0</ele><time>2026-05-03T10:12:58.63Z</time></trkpt><trkpt lat="45.0375667" lon="9.3509483"><ele>122.0</ele><time>2026-05-03T10:12:59.63Z</time></trkpt><trkpt lat="45.0376483" lon="9.35079"><ele>123.0</ele><time>2026-05-03T10:13:00.629Z</time></trkpt><trkpt lat="45.0377283" lon="9.35063"><ele>122.75</ele><time>2026-05-03T10:13:01.63Z</time></trkpt><trkpt lat="45.0378067" lon="9.3504683"><ele>122.5</ele><time>2026-05-03T10:13:02.632Z</time></trkpt><trkpt lat="45.037885" lon="9.3503067"><ele>122.25</ele><time>2026-05-03T10:13:03.63Z</time></trkpt><trkpt lat="45.0379583" lon="9.3501433"><ele>122.0</ele><time>2026-05-03T10:13:04.629Z</time></trkpt><trkpt lat="45.0380217" lon="9.3499767"><ele>122.0</ele><time>2026-05-03T10:13:05.63Z</time></trkpt><trkpt lat="45.0380717" lon="9.3498117"><ele>122.0</ele><time>2026-05-03T10:13:06.631Z</time></trkpt><trkpt lat="45.03811" lon="9.3496533"><ele>122.0</ele><time>2026-05-03T10:13:07.63Z</time></trkpt><trkpt lat="45.0381417" lon="9.3495"><ele>122.0</ele><time>2026-05-03T10:13:08.631Z</time></trkpt><trkpt lat="45.0381733" lon="9.34935"><ele>122.6</ele><time>2026-05-03T10:13:09.63Z</time></trkpt><trkpt lat="45.03821" lon="9.3492017"><ele>123.19999999999999</ele><time>2026-05-03T10:13:10.631Z</time></trkpt><trkpt lat="45.0382467" lon="9.34905"><ele>123.8</ele><time>2026-05-03T10:13:11.63Z</time></trkpt><trkpt lat="45.038285" lon="9.3489"><ele>124.4</ele><time>2026-05-03T10:13:12.629Z</time></trkpt><trkpt lat="45.0383233" lon="9.3487533"><ele>125.0</ele><time>2026-05-03T10:13:13.63Z</time></trkpt><trkpt lat="45.03836" lon="9.34861"><ele>125.4</ele><time>2026-05-03T10:13:14.63Z</time></trkpt><trkpt lat="45.038395" lon="9.3484717"><ele>125.8</ele><time>2026-05-03T10:13:15.629Z</time></trkpt><trkpt lat="45.03843" lon="9.348335"><ele>126.19999999999999</ele><time>2026-05-03T10:13:16.629Z</time></trkpt><trkpt lat="45.0384683" lon="9.3482"><ele>126.6</ele><time>2026-05-03T10:13:17.63Z</time></trkpt><trkpt lat="45.038505" lon="9.3480633"><ele>127.0</ele><time>2026-05-03T10:13:18.631Z</time></trkpt><trkpt lat="45.03854" lon="9.3479167"><ele>127.0</ele><time>2026-05-03T10:13:19.63Z</time></trkpt><trkpt lat="45.0385767" lon="9.3477683"><ele>126.99999999999999</ele><time>2026-05-03T10:13:20.63Z</time></trkpt><trkpt lat="45.038615" lon="9.3476217"><ele>126.99999999999999</ele><time>2026-05-03T10:13:21.63Z</time></trkpt><trkpt lat="45.038655" lon="9.347485"><ele>127.0</ele><time>2026-05-03T10:13:22.63Z</time></trkpt><trkpt lat="45.0386917" lon="9.3473617"><ele>127.0</ele><time>2026-05-03T10:13:23.633Z</time></trkpt><trkpt lat="45.0387283" lon="9.3472517"><ele>127.16666666666667</ele><time>2026-05-03T10:13:24.63Z</time></trkpt><trkpt lat="45.038765" lon="9.3471517"><ele>127.33333333333334</ele><time>2026-05-03T10:13:25.63Z</time></trkpt><trkpt lat="45.0388" lon="9.3470533"><ele>127.5</ele><time>2026-05-03T10:13:26.629Z</time></trkpt><trkpt lat="45.0388383" lon="9.3469567"><ele>127.66666666666666</ele><time>2026-05-03T10:13:27.629Z</time></trkpt><trkpt lat="45.0388767" lon="9.3468567"><ele>127.83333333333333</ele><time>2026-05-03T10:13:28.629Z</time></trkpt><trkpt lat="45.0389167" lon="9.346755"><ele>128.0</ele><time>2026-05-03T10:13:29.629Z</time></trkpt><trkpt lat="45.0389617" lon="9.3466533"><ele>127.99999999999999</ele><time>2026-05-03T10:13:30.63Z</time></trkpt><trkpt lat="45.0390167" lon="9.3465667"><ele>128.0</ele><time>2026-05-03T10:13:31.63Z</time></trkpt><trkpt lat="45.03908" lon="9.34649"><ele>128.0</ele><time>2026-05-03T10:13:32.631Z</time></trkpt><trkpt lat="45.03915" lon="9.3464267"><ele>128.0</ele><time>2026-05-03T10:13:33.63Z</time></trkpt><trkpt lat="45.0392317" lon="9.3463817"><ele>127.99999999999999</ele><time>2026-05-03T10:13:34.63Z</time></trkpt><trkpt lat="45.0393183" lon="9.3463433"><ele>128.0</ele><time>2026-05-03T10:13:35.629Z</time></trkpt><trkpt lat="45.0394083" lon="9.3463117"><ele>129.0</ele><time>2026-05-03T10:13:36.629Z</time></trkpt><trkpt lat="45.0394983" lon="9.3462817"><ele>130.0</ele><time>2026-05-03T10:13:37.63Z</time></trkpt><trkpt lat="45.03959" lon="9.3462433"><ele>131.0</ele><time>2026-05-03T10:13:38.631Z</time></trkpt><trkpt lat="45.03968" lon="9.3461933"><ele>132.0</ele><time>2026-05-03T10:13:39.63Z</time></trkpt><trkpt lat="45.0397667" lon="9.346125"><ele>133.0</ele><time>2026-05-03T10:13:40.629Z</time></trkpt><trkpt lat="45.0398467" lon="9.3460433"><ele>133.0</ele><time>2026-05-03T10:13:41.629Z</time></trkpt><trkpt lat="45.039925" lon="9.3459517"><ele>133.0</ele><time>2026-05-03T10:13:42.63Z</time></trkpt><trkpt lat="45.04" lon="9.3458583"><ele>133.0</ele><time>2026-05-03T10:13:43.629Z</time></trkpt><trkpt lat="45.0400717" lon="9.3457683"><ele>133.0</ele><time>2026-05-03T10:13:44.63Z</time></trkpt><trkpt lat="45.040135" lon="9.3456733"><ele>133.0</ele><time>2026-05-03T10:13:45.63Z</time></trkpt><trkpt lat="45.0401817" lon="9.3455683"><ele>135.0</ele><time>2026-05-03T10:13:46.63Z</time></trkpt><trkpt lat="45.04021" lon="9.3454517"><ele>137.0</ele><time>2026-05-03T10:13:47.63Z</time></trkpt><trkpt lat="45.040215" lon="9.3453317"><ele>139.0</ele><time>2026-05-03T10:13:48.63Z</time></trkpt><trkpt lat="45.0401917" lon="9.345215"><ele>141.0</ele><time>2026-05-03T10:13:49.63Z</time></trkpt><trkpt lat="45.0401433" lon="9.345115"><ele>143.0</ele><time>2026-05-03T10:13:50.631Z</time></trkpt><trkpt lat="45.0400817" lon="9.345035"><ele>145.0</ele><time>2026-05-03T10:13:51.63Z</time></trkpt><trkpt lat="45.0400117" lon="9.3449683"><ele>145.0</ele><time>2026-05-03T10:13:52.63Z</time></trkpt><trkpt lat="45.0399417" lon="9.344895"><ele>145.0</ele><time>2026-05-03T10:13:53.63Z</time></trkpt><trkpt lat="45.03987" lon="9.3448033"><ele>145.0</ele><time>2026-05-03T10:13:54.63Z</time></trkpt><trkpt lat="45.0397983" lon="9.3447017"><ele>145.0</ele><time>2026-05-03T10:13:55.631Z</time></trkpt><trkpt lat="45.0397333" lon="9.3445833"><ele>145.0</ele><time>2026-05-03T10:13:56.63Z</time></trkpt><trkpt lat="45.0396733" lon="9.3444533"><ele>145.0</ele><time>2026-05-03T10:13:57.631Z</time></trkpt><trkpt lat="45.0396133" lon="9.3443167"><ele>145.0</ele><time>2026-05-03T10:13:58.63Z</time></trkpt><trkpt lat="45.039555" lon="9.3441767"><ele>145.0</ele><time>2026-05-03T10:13:59.629Z</time></trkpt><trkpt lat="45.039495" lon="9.3440383"><ele>145.0</ele><time>2026-05-03T10:14:00.63Z</time></trkpt><trkpt lat="45.0394317" lon="9.3438933"><ele>146.6</ele><time>2026-05-03T10:14:01.63Z</time></trkpt><trkpt lat="45.0393767" lon="9.3437483"><ele>148.2</ele><time>2026-05-03T10:14:02.631Z</time></trkpt><trkpt lat="45.0393283" lon="9.3436033"><ele>149.8</ele><time>2026-05-03T10:14:03.631Z</time></trkpt><trkpt lat="45.0392933" lon="9.3434567"><ele>151.4</ele><time>2026-05-03T10:14:04.63Z</time></trkpt><trkpt lat="45.03927" lon="9.3433083"><ele>153.0</ele><time>2026-05-03T10:14:05.631Z</time></trkpt><trkpt lat="45.03926" lon="9.3431533"><ele>153.75</ele><time>2026-05-03T10:14:06.63Z</time></trkpt><trkpt lat="45.03926" lon="9.3429967"><ele>154.5</ele><time>2026-05-03T10:14:07.629Z</time></trkpt><trkpt lat="45.0392717" lon="9.3428383"><ele>155.25</ele><time>2026-05-03T10:14:08.63Z</time></trkpt><trkpt lat="45.0392917" lon="9.3426817"><ele>156.0</ele><time>2026-05-03T10:14:09.63Z</time></trkpt><trkpt lat="45.0393117" lon="9.34252"><ele>156.0</ele><time>2026-05-03T10:14:10.63Z</time></trkpt><trkpt lat="45.039335" lon="9.3423533"><ele>156.0</ele><time>2026-05-03T10:14:11.631Z</time></trkpt><trkpt lat="45.0393583" lon="9.34219"><ele>156.0</ele><time>2026-05-03T10:14:12.631Z</time></trkpt><trkpt lat="45.0393733" lon="9.342025"><ele>156.0</ele><time>2026-05-03T10:14:13.63Z</time></trkpt><trkpt lat="45.0393717" lon="9.3418633"><ele>156.75</ele><time>2026-05-03T10:14:14.63Z</time></trkpt><trkpt lat="45.03935" lon="9.3417067"><ele>157.5</ele><time>2026-05-03T10:14:15.63Z</time></trkpt><trkpt lat="45.0393083" lon="9.341555"><ele>158.25</ele><time>2026-05-03T10:14:16.63Z</time></trkpt><trkpt lat="45.0392567" lon="9.34141"><ele>159.0</ele><time>2026-05-03T10:14:17.63Z</time></trkpt><trkpt lat="45.0392033" lon="9.3412633"><ele>158.0</ele><time>2026-05-03T10:14:18.629Z</time></trkpt><trkpt lat="45.0391467" lon="9.3411133"><ele>157.0</ele><time>2026-05-03T10:14:19.631Z</time></trkpt><trkpt lat="45.0390933" lon="9.3409617"><ele>156.0</ele><time>2026-05-03T10:14:20.631Z</time></trkpt><trkpt lat="45.03904" lon="9.3408133"><ele>155.0</ele><time>2026-05-03T10:14:21.63Z</time></trkpt><trkpt lat="45.0389867" lon="9.3406683"><ele>156.6</ele><time>2026-05-03T10:14:22.63Z</time></trkpt><trkpt lat="45.038935" lon="9.3405267"><ele>158.2</ele><time>2026-05-03T10:14:23.63Z</time></trkpt><trkpt lat="45.038885" lon="9.340385"><ele>159.8</ele><time>2026-05-03T10:14:24.63Z</time></trkpt><trkpt lat="45.038835" lon="9.340245"><ele>161.4</ele><time>2026-05-03T10:14:25.629Z</time></trkpt><trkpt lat="45.0387867" lon="9.3401067"><ele>163.0</ele><time>2026-05-03T10:14:26.63Z</time></trkpt><trkpt lat="45.038735" lon="9.3399667"><ele>163.0</ele><time>2026-05-03T10:14:27.63Z</time></trkpt><trkpt lat="45.0386817" lon="9.3398283"><ele>163.0</ele><time>2026-05-03T10:14:28.629Z</time></trkpt><trkpt lat="45.0386283" lon="9.3396867"><ele>163.0</ele><time>2026-05-03T10:14:29.629Z</time></trkpt><trkpt lat="45.038575" lon="9.33955"><ele>163.0</ele><time>2026-05-03T10:14:30.63Z</time></trkpt><trkpt lat="45.0385267" lon="9.3394167"><ele>163.0</ele><time>2026-05-03T10:14:31.63Z</time></trkpt><trkpt lat="45.0384967" lon="9.3392767"><ele>164.0</ele><time>2026-05-03T10:14:32.632Z</time></trkpt><trkpt lat="45.0384833" lon="9.3391317"><ele>165.0</ele><time>2026-05-03T10:14:33.63Z</time></trkpt><trkpt lat="45.0384867" lon="9.33899"><ele>166.0</ele><time>2026-05-03T10:14:34.63Z</time></trkpt><trkpt lat="45.0384967" lon="9.3388467"><ele>167.0</ele><time>2026-05-03T10:14:35.63Z</time></trkpt><trkpt lat="45.038515" lon="9.338705"><ele>168.0</ele><time>2026-05-03T10:14:36.631Z</time></trkpt><trkpt lat="45.0385433" lon="9.338565"><ele>168.8</ele><time>2026-05-03T10:14:37.63Z</time></trkpt><trkpt lat="45.0385733" lon="9.33842"><ele>169.60000000000002</ele><time>2026-05-03T10:14:38.631Z</time></trkpt><trkpt lat="45.0386017" lon="9.3382733"><ele>170.39999999999998</ele><time>2026-05-03T10:14:39.631Z</time></trkpt><trkpt lat="45.0386183" lon="9.33812"><ele>171.2</ele><time>2026-05-03T10:14:40.63Z</time></trkpt><trkpt lat="45.038625" lon="9.3379683"><ele>172.0</ele><time>2026-05-03T10:14:41.631Z</time></trkpt><trkpt lat="45.0386283" lon="9.337825"><ele>172.66666666666669</ele><time>2026-05-03T10:14:42.631Z</time></trkpt><trkpt lat="45.0386283" lon="9.3376867"><ele>173.33333333333334</ele><time>2026-05-03T10:14:43.63Z</time></trkpt><trkpt lat="45.0386283" lon="9.33756"><ele>174.0</ele><time>2026-05-03T10:14:44.63Z</time></trkpt><trkpt lat="45.0386267" lon="9.33745"><ele>174.66666666666666</ele><time>2026-05-03T10:14:45.631Z</time></trkpt><trkpt lat="45.03862" lon="9.3373517"><ele>175.33333333333331</ele><time>2026-05-03T10:14:46.63Z</time></trkpt><trkpt lat="45.03862" lon="9.33719"><ele>176.0</ele><time>2026-05-03T10:14:48.63Z</time></trkpt><trkpt lat="45.038615" lon="9.33703"><ele>176.0</ele><time>2026-05-03T10:14:50.631Z</time></trkpt><trkpt lat="45.0385983" lon="9.3369383"><ele>176.0</ele><time>2026-05-03T10:14:51.63Z</time></trkpt><trkpt lat="45.03857" lon="9.336835"><ele>176.0</ele><time>2026-05-03T10:14:52.63Z</time></trkpt><trkpt lat="45.0385267" lon="9.3367183"><ele>176.0</ele><time>2026-05-03T10:14:53.63Z</time></trkpt><trkpt lat="45.0384783" lon="9.3365883"><ele>176.0</ele><time>2026-05-03T10:14:54.632Z</time></trkpt><trkpt lat="45.0384217" lon="9.3364433"><ele>175.0</ele><time>2026-05-03T10:14:55.631Z</time></trkpt><trkpt lat="45.0383617" lon="9.3362883"><ele>174.0</ele><time>2026-05-03T10:14:56.631Z</time></trkpt><trkpt lat="45.0382983" lon="9.3361217"><ele>173.0</ele><time>2026-05-03T10:14:57.63Z</time></trkpt><trkpt lat="45.0382317" lon="9.3359483"><ele>172.0</ele><time>2026-05-03T10:14:58.63Z</time></trkpt><trkpt lat="45.0381633" lon="9.3357767"><ele>172.0</ele><time>2026-05-03T10:14:59.63Z</time></trkpt><trkpt lat="45.038095" lon="9.3356083"><ele>172.0</ele><time>2026-05-03T10:15:00.63Z</time></trkpt><trkpt lat="45.03803" lon="9.3354467"><ele>172.0</ele><time>2026-05-03T10:15:01.63Z</time></trkpt><trkpt lat="45.0379683" lon="9.3352917"><ele>172.0</ele><time>2026-05-03T10:15:02.63Z</time></trkpt><trkpt lat="45.03791" lon="9.3351467"><ele>172.0</ele><time>2026-05-03T10:15:03.629Z</time></trkpt><trkpt lat="45.037855" lon="9.3350133"><ele>172.0</ele><time>2026-05-03T10:15:04.629Z</time></trkpt><trkpt lat="45.0378033" lon="9.3348817"><ele>172.0</ele><time>2026-05-03T10:15:05.63Z</time></trkpt><trkpt lat="45.037755" lon="9.3347383"><ele>172.0</ele><time>2026-05-03T10:15:06.629Z</time></trkpt><trkpt lat="45.0377167" lon="9.3345817"><ele>172.0</ele><time>2026-05-03T10:15:07.63Z</time></trkpt><trkpt lat="45.03769" lon="9.3344133"><ele>173.0</ele><time>2026-05-03T10:15:08.63Z</time></trkpt><trkpt lat="45.0376817" lon="9.3342367"><ele>174.0</ele><time>2026-05-03T10:15:09.629Z</time></trkpt><trkpt lat="45.0376833" lon="9.3340533"><ele>175.0</ele><time>2026-05-03T10:15:10.63Z</time></trkpt><trkpt lat="45.0376917" lon="9.3338667"><ele>176.0</ele><time>2026-05-03T10:15:11.63Z</time></trkpt><trkpt lat="45.0377017" lon="9.333685"><ele>177.0</ele><time>2026-05-03T10:15:12.63Z</time></trkpt><trkpt lat="45.0377083" lon="9.3335217"><ele>178.0</ele><time>2026-05-03T10:15:13.63Z</time></trkpt><trkpt lat="45.0377133" lon="9.333375"><ele>179.0</ele><time>2026-05-03T10:15:14.63Z</time></trkpt><trkpt lat="45.0377183" lon="9.3332367"><ele>180.0</ele><time>2026-05-03T10:15:15.63Z</time></trkpt><trkpt lat="45.037725" lon="9.3331017"><ele>181.0</ele><time>2026-05-03T10:15:16.63Z</time></trkpt><trkpt lat="45.0377283" lon="9.3329783"><ele>182.16666666666669</ele><time>2026-05-03T10:15:17.63Z</time></trkpt><trkpt lat="45.0377283" lon="9.3328683"><ele>183.33333333333334</ele><time>2026-05-03T10:15:18.63Z</time></trkpt><trkpt lat="45.0377167" lon="9.3327683"><ele>184.5</ele><time>2026-05-03T10:15:19.63Z</time></trkpt><trkpt lat="45.037695" lon="9.3326767"><ele>185.66666666666666</ele><time>2026-05-03T10:15:20.631Z</time></trkpt><trkpt lat="45.0376533" lon="9.33259"><ele>186.83333333333331</ele><time>2026-05-03T10:15:21.631Z</time></trkpt><trkpt lat="45.037595" lon="9.3325167"><ele>188.0</ele><time>2026-05-03T10:15:22.631Z</time></trkpt><trkpt lat="45.0375233" lon="9.3324583"><ele>188.0</ele><time>2026-05-03T10:15:23.631Z</time></trkpt><trkpt lat="45.0374417" lon="9.3324133"><ele>188.0</ele><time>2026-05-03T10:15:24.631Z</time></trkpt><trkpt lat="45.0373517" lon="9.332375"><ele>188.0</ele><time>2026-05-03T10:15:25.631Z</time></trkpt><trkpt lat="45.0372617" lon="9.3323317"><ele>188.0</ele><time>2026-05-03T10:15:26.631Z</time></trkpt><trkpt lat="45.03717" lon="9.3322783"><ele>188.0</ele><time>2026-05-03T10:15:27.63Z</time></trkpt><trkpt lat="45.037075" lon="9.33222"><ele>191.0</ele><time>2026-05-03T10:15:28.63Z</time></trkpt><trkpt lat="45.03698" lon="9.3321583"><ele>194.0</ele><time>2026-05-03T10:15:29.63Z</time></trkpt><trkpt lat="45.0368767" lon="9.3320933"><ele>197.0</ele><time>2026-05-03T10:15:30.63Z</time></trkpt><trkpt lat="45.03677" lon="9.332025"><ele>200.0</ele><time>2026-05-03T10:15:31.63Z</time></trkpt><trkpt lat="45.03666" lon="9.3319533"><ele>200.0</ele><time>2026-05-03T10:15:32.631Z</time></trkpt><trkpt lat="45.0365467" lon="9.33188"><ele>200.0</ele><time>2026-05-03T10:15:33.63Z</time></trkpt><trkpt lat="45.0364283" lon="9.3318033"><ele>200.0</ele><time>2026-05-03T10:15:34.63Z</time></trkpt><trkpt lat="45.0363067" lon="9.33173"><ele>200.0</ele><time>2026-05-03T10:15:35.631Z</time></trkpt><trkpt lat="45.0361833" lon="9.3316633"><ele>200.0</ele><time>2026-05-03T10:15:36.63Z</time></trkpt><trkpt lat="45.0360633" lon="9.331605"><ele>200.0</ele><time>2026-05-03T10:15:37.631Z</time></trkpt><trkpt lat="45.0359517" lon="9.331555"><ele>200.0</ele><time>2026-05-03T10:15:38.631Z</time></trkpt><trkpt lat="45.0358567" lon="9.3315133"><ele>200.0</ele><time>2026-05-03T10:15:39.63Z</time></trkpt><trkpt lat="45.0357717" lon="9.3314733"><ele>200.0</ele><time>2026-05-03T10:15:40.63Z</time></trkpt><trkpt lat="45.0356917" lon="9.3314367"><ele>199.66666666666669</ele><time>2026-05-03T10:15:41.63Z</time></trkpt><trkpt lat="45.035615" lon="9.3313933"><ele>199.33333333333334</ele><time>2026-05-03T10:15:42.629Z</time></trkpt><trkpt lat="45.0355467" lon="9.3313367"><ele>199.0</ele><time>2026-05-03T10:15:43.63Z</time></trkpt><trkpt lat="45.0354933" lon="9.3312567"><ele>198.66666666666669</ele><time>2026-05-03T10:15:44.631Z</time></trkpt><trkpt lat="45.03546" lon="9.3311567"><ele>198.33333333333334</ele><time>2026-05-03T10:15:45.63Z</time></trkpt><trkpt lat="45.0354517" lon="9.3310367"><ele>198.0</ele><time>2026-05-03T10:15:46.629Z</time></trkpt><trkpt lat="45.035465" lon="9.330895"><ele>197.75</ele><time>2026-05-03T10:15:47.629Z</time></trkpt><trkpt lat="45.0354933" lon="9.3307383"><ele>197.5</ele><time>2026-05-03T10:15:48.631Z</time></trkpt><trkpt lat="45.0355183" lon="9.33058"><ele>197.25</ele><time>2026-05-03T10:15:49.63Z</time></trkpt><trkpt lat="45.035545" lon="9.3304233"><ele>197.0</ele><time>2026-05-03T10:15:50.63Z</time></trkpt><trkpt lat="45.0355717" lon="9.3302717"><ele>197.0</ele><time>2026-05-03T10:15:51.63Z</time></trkpt><trkpt lat="45.0355933" lon="9.33013"><ele>197.0</ele><time>2026-05-03T10:15:52.63Z</time></trkpt><trkpt lat="45.035615" lon="9.329995"><ele>197.0</ele><time>2026-05-03T10:15:53.63Z</time></trkpt><trkpt lat="45.0356383" lon="9.3298633"><ele>197.0</ele><time>2026-05-03T10:15:54.63Z</time></trkpt><trkpt lat="45.0356583" lon="9.3297317"><ele>197.0</ele><time>2026-05-03T10:15:55.631Z</time></trkpt><trkpt lat="45.03566" lon="9.3295967"><ele>198.0</ele><time>2026-05-03T10:15:56.631Z</time></trkpt><trkpt lat="45.0356383" lon="9.3294633"><ele>199.0</ele><time>2026-05-03T10:15:57.631Z</time></trkpt><trkpt lat="45.03559" lon="9.329325"><ele>200.0</ele><time>2026-05-03T10:15:58.63Z</time></trkpt><trkpt lat="45.0355283" lon="9.32918"><ele>201.0</ele><time>2026-05-03T10:15:59.631Z</time></trkpt><trkpt lat="45.035455" lon="9.3290167"><ele>203.25</ele><time>2026-05-03T10:16:00.631Z</time></trkpt><trkpt lat="45.0353783" lon="9.328845"><ele>205.5</ele><time>2026-05-03T10:16:01.63Z</time></trkpt><trkpt lat="45.0353033" lon="9.32867"><ele>207.75</ele><time>2026-05-03T10:16:02.63Z</time></trkpt><trkpt lat="45.0352283" lon="9.3284933"><ele>210.0</ele><time>2026-05-03T10:16:03.629Z</time></trkpt><trkpt lat="45.0351533" lon="9.3283183"><ele>210.0</ele><time>2026-05-03T10:16:04.63Z</time></trkpt><trkpt lat="45.0350833" lon="9.3281467"><ele>210.0</ele><time>2026-05-03T10:16:05.63Z</time></trkpt><trkpt lat="45.0350133" lon="9.3279717"><ele>210.0</ele><time>2026-05-03T10:16:06.63Z</time></trkpt><trkpt lat="45.034945" lon="9.327795"><ele>210.0</ele><time>2026-05-03T10:16:07.63Z</time></trkpt><trkpt lat="45.0348733" lon="9.3276233"><ele>211.0</ele><time>2026-05-03T10:16:08.63Z</time></trkpt><trkpt lat="45.0348" lon="9.3274533"><ele>212.0</ele><time>2026-05-03T10:16:09.631Z</time></trkpt><trkpt lat="45.0347267" lon="9.3272833"><ele>213.0</ele><time>2026-05-03T10:16:10.63Z</time></trkpt><trkpt lat="45.0346583" lon="9.3271117"><ele>214.0</ele><time>2026-05-03T10:16:11.629Z</time></trkpt><trkpt lat="45.0345933" lon="9.3269517"><ele>215.0</ele><time>2026-05-03T10:16:12.629Z</time></trkpt><trkpt lat="45.0345333" lon="9.3268017"><ele>216.0</ele><time>2026-05-03T10:16:13.63Z</time></trkpt><trkpt lat="45.034475" lon="9.3266583"><ele>217.0</ele><time>2026-05-03T10:16:14.63Z</time></trkpt><trkpt lat="45.034415" lon="9.326525"><ele>218.0</ele><time>2026-05-03T10:16:15.63Z</time></trkpt><trkpt lat="45.0343567" lon="9.3264017"><ele>217.4</ele><time>2026-05-03T10:16:16.63Z</time></trkpt><trkpt lat="45.0343" lon="9.32628"><ele>216.8</ele><time>2026-05-03T10:16:17.63Z</time></trkpt><trkpt lat="45.0342533" lon="9.326155"><ele>216.2</ele><time>2026-05-03T10:16:18.629Z</time></trkpt><trkpt lat="45.0342033" lon="9.32602"><ele>215.6</ele><time>2026-05-03T10:16:19.63Z</time></trkpt><trkpt lat="45.0341617" lon="9.3258667"><ele>215.0</ele><time>2026-05-03T10:16:20.63Z</time></trkpt><trkpt lat="45.0341283" lon="9.325695"><ele>213.75</ele><time>2026-05-03T10:16:21.63Z</time></trkpt><trkpt lat="45.0341017" lon="9.325515"><ele>212.5</ele><time>2026-05-03T10:16:22.63Z</time></trkpt><trkpt lat="45.0340767" lon="9.325325"><ele>211.25</ele><time>2026-05-03T10:16:23.631Z</time></trkpt><trkpt lat="45.0340533" lon="9.3251417"><ele>210.0</ele><time>2026-05-03T10:16:24.631Z</time></trkpt><trkpt lat="45.03403" lon="9.32496"><ele>210.0</ele><time>2026-05-03T10:16:25.63Z</time></trkpt><trkpt lat="45.0340117" lon="9.324775"><ele>210.0</ele><time>2026-05-03T10:16:26.631Z</time></trkpt><trkpt lat="45.034" lon="9.32459"><ele>210.0</ele><time>2026-05-03T10:16:27.63Z</time></trkpt><trkpt lat="45.033995" lon="9.3244"><ele>210.0</ele><time>2026-05-03T10:16:28.63Z</time></trkpt><trkpt lat="45.034" lon="9.32421"><ele>211.75</ele><time>2026-05-03T10:16:29.63Z</time></trkpt><trkpt lat="45.0340117" lon="9.32402"><ele>213.5</ele><time>2026-05-03T10:16:30.63Z</time></trkpt><trkpt lat="45.0340317" lon="9.3238283"><ele>215.25</ele><time>2026-05-03T10:16:31.631Z</time></trkpt><trkpt lat="45.0340583" lon="9.3236367"><ele>217.0</ele><time>2026-05-03T10:16:32.63Z</time></trkpt><trkpt lat="45.0340883" lon="9.323445"><ele>217.25</ele><time>2026-05-03T10:16:33.63Z</time></trkpt><trkpt lat="45.0341183" lon="9.323255"><ele>217.5</ele><time>2026-05-03T10:16:34.629Z</time></trkpt><trkpt lat="45.0341467" lon="9.323065"><ele>217.75</ele><time>2026-05-03T10:16:35.631Z</time></trkpt><trkpt lat="45.034175" lon="9.3228767"><ele>218.0</ele><time>2026-05-03T10:16:36.63Z</time></trkpt><trkpt lat="45.0342033" lon="9.3226883"><ele>219.75</ele><time>2026-05-03T10:16:37.63Z</time></trkpt><trkpt lat="45.03423" lon="9.3225033"><ele>221.5</ele><time>2026-05-03T10:16:38.63Z</time></trkpt><trkpt lat="45.034255" lon="9.3223233"><ele>223.25</ele><time>2026-05-03T10:16:39.629Z</time></trkpt><trkpt lat="45.0342767" lon="9.3221533"><ele>225.0</ele><time>2026-05-03T10:16:40.63Z</time></trkpt><trkpt lat="45.0342967" lon="9.3219933"><ele>226.0</ele><time>2026-05-03T10:16:41.63Z</time></trkpt><trkpt lat="45.0343133" lon="9.3218283"><ele>227.0</ele><time>2026-05-03T10:16:42.629Z</time></trkpt><trkpt lat="45.0343217" lon="9.32166"><ele>228.0</ele><time>2026-05-03T10:16:43.63Z</time></trkpt><trkpt lat="45.03432" lon="9.3214867"><ele>229.0</ele><time>2026-05-03T10:16:44.63Z</time></trkpt><trkpt lat="45.034305" lon="9.3213033"><ele>230.0</ele><time>2026-05-03T10:16:45.63Z</time></trkpt><trkpt lat="45.0342783" lon="9.3211167"><ele>231.0</ele><time>2026-05-03T10:16:46.63Z</time></trkpt><trkpt lat="45.034245" lon="9.320925"><ele>232.0</ele><time>2026-05-03T10:16:47.63Z</time></trkpt><trkpt lat="45.0342117" lon="9.3207283"><ele>233.0</ele><time>2026-05-03T10:16:48.631Z</time></trkpt><trkpt lat="45.0341733" lon="9.3205333"><ele>234.5</ele><time>2026-05-03T10:16:49.63Z</time></trkpt><trkpt lat="45.0341317" lon="9.32034"><ele>236.0</ele><time>2026-05-03T10:16:50.631Z</time></trkpt><trkpt lat="45.034085" lon="9.3201517"><ele>237.5</ele><time>2026-05-03T10:16:51.63Z</time></trkpt><trkpt lat="45.0340417" lon="9.3199683"><ele>239.0</ele><time>2026-05-03T10:16:52.63Z</time></trkpt><trkpt lat="45.03401" lon="9.3197917"><ele>242.0</ele><time>2026-05-03T10:16:53.631Z</time></trkpt><trkpt lat="45.033985" lon="9.3196133"><ele>245.0</ele><time>2026-05-03T10:16:54.63Z</time></trkpt><trkpt lat="45.03397" lon="9.3194333"><ele>248.0</ele><time>2026-05-03T10:16:55.631Z</time></trkpt><trkpt lat="45.0339583" lon="9.3192533"><ele>251.0</ele><time>2026-05-03T10:16:56.63Z</time></trkpt><trkpt lat="45.0339533" lon="9.3190733"><ele>250.75</ele><time>2026-05-03T10:16:57.63Z</time></trkpt><trkpt lat="45.033945" lon="9.3188983"><ele>250.5</ele><time>2026-05-03T10:16:58.631Z</time></trkpt><trkpt lat="45.0339467" lon="9.3187333"><ele>250.25</ele><time>2026-05-03T10:16:59.63Z</time></trkpt><trkpt lat="45.0339583" lon="9.31857"><ele>250.0</ele><time>2026-05-03T10:17:00.63Z</time></trkpt><trkpt lat="45.0339917" lon="9.318395"><ele>250.0</ele><time>2026-05-03T10:17:01.629Z</time></trkpt><trkpt lat="45.0340517" lon="9.3182083"><ele>250.0</ele><time>2026-05-03T10:17:02.63Z</time></trkpt><trkpt lat="45.03412" lon="9.31802"><ele>250.0</ele><time>2026-05-03T10:17:03.63Z</time></trkpt><trkpt lat="45.03418" lon="9.3178217"><ele>250.0</ele><time>2026-05-03T10:17:04.63Z</time></trkpt><trkpt lat="45.0342133" lon="9.3176317"><ele>249.25</ele><time>2026-05-03T10:17:05.629Z</time></trkpt><trkpt lat="45.0342117" lon="9.3174433"><ele>248.5</ele><time>2026-05-03T10:17:06.63Z</time></trkpt><trkpt lat="45.0341833" lon="9.317245"><ele>247.75</ele><time>2026-05-03T10:17:07.632Z</time></trkpt><trkpt lat="45.034145" lon="9.317055"><ele>247.0</ele><time>2026-05-03T10:17:08.63Z</time></trkpt><trkpt lat="45.0341167" lon="9.316875"><ele>247.0</ele><time>2026-05-03T10:17:09.631Z</time></trkpt><trkpt lat="45.0341033" lon="9.3167"><ele>247.0</ele><time>2026-05-03T10:17:10.63Z</time></trkpt><trkpt lat="45.0341233" lon="9.31653"><ele>247.0</ele><time>2026-05-03T10:17:11.63Z</time></trkpt><trkpt lat="45.0341683" lon="9.31637"><ele>247.0</ele><time>2026-05-03T10:17:12.63Z</time></trkpt><trkpt lat="45.0342383" lon="9.3162367"><ele>247.6</ele><time>2026-05-03T10:17:13.629Z</time></trkpt><trkpt lat="45.0343233" lon="9.3161317"><ele>248.2</ele><time>2026-05-03T10:17:14.63Z</time></trkpt><trkpt lat="45.034415" lon="9.316045"><ele>248.8</ele><time>2026-05-03T10:17:15.629Z</time></trkpt><trkpt lat="45.0345083" lon="9.3159617"><ele>249.4</ele><time>2026-05-03T10:17:16.63Z</time></trkpt><trkpt lat="45.0346017" lon="9.3158767"><ele>250.0</ele><time>2026-05-03T10:17:17.631Z</time></trkpt><trkpt lat="45.0346917" lon="9.31579"><ele>250.0</ele><time>2026-05-03T10:17:18.63Z</time></trkpt><trkpt lat="45.0347783" lon="9.3157017"><ele>250.0</ele><time>2026-05-03T10:17:19.631Z</time></trkpt><trkpt lat="45.0348617" lon="9.3156117"><ele>250.0</ele><time>2026-05-03T10:17:20.63Z</time></trkpt><trkpt lat="45.03494" lon="9.3155183"><ele>250.0</ele><time>2026-05-03T10:17:21.63Z</time></trkpt><trkpt lat="45.0350083" lon="9.3154067"><ele>250.0</ele><time>2026-05-03T10:17:22.63Z</time></trkpt><trkpt lat="45.03507" lon="9.3152833"><ele>248.4</ele><time>2026-05-03T10:17:23.629Z</time></trkpt><trkpt lat="45.0351267" lon="9.3151583"><ele>246.8</ele><time>2026-05-03T10:17:24.631Z</time></trkpt><trkpt lat="45.0351783" lon="9.315035"><ele>245.2</ele><time>2026-05-03T10:17:25.631Z</time></trkpt><trkpt lat="45.0352217" lon="9.3149217"><ele>243.6</ele><time>2026-05-03T10:17:26.63Z</time></trkpt><trkpt lat="45.0352483" lon="9.3148067"><ele>242.0</ele><time>2026-05-03T10:17:27.63Z</time></trkpt><trkpt lat="45.0352633" lon="9.314685"><ele>241.39999999999998</ele><time>2026-05-03T10:17:28.63Z</time></trkpt><trkpt lat="45.0352483" lon="9.3145617"><ele>240.79999999999998</ele><time>2026-05-03T10:17:29.63Z</time></trkpt><trkpt lat="45.035215" lon="9.3144267"><ele>240.2</ele><time>2026-05-03T10:17:30.631Z</time></trkpt><trkpt lat="45.035175" lon="9.314285"><ele>239.6</ele><time>2026-05-03T10:17:31.631Z</time></trkpt><trkpt lat="45.03512" lon="9.3141317"><ele>239.0</ele><time>2026-05-03T10:17:32.631Z</time></trkpt><trkpt lat="45.0350733" lon="9.3139733"><ele>240.75</ele><time>2026-05-03T10:17:33.63Z</time></trkpt><trkpt lat="45.035005" lon="9.3138217"><ele>242.5</ele><time>2026-05-03T10:17:34.629Z</time></trkpt><trkpt lat="45.0349367" lon="9.313665"><ele>244.25</ele><time>2026-05-03T10:17:35.63Z</time></trkpt><trkpt lat="45.034855" lon="9.31352"><ele>246.0</ele><time>2026-05-03T10:17:36.629Z</time></trkpt><trkpt lat="45.0347767" lon="9.31338"><ele>246.0</ele><time>2026-05-03T10:17:37.629Z</time></trkpt><trkpt lat="45.0346983" lon="9.3132367"><ele>246.0</ele><time>2026-05-03T10:17:38.63Z</time></trkpt><trkpt lat="45.03462" lon="9.3131017"><ele>246.0</ele><time>2026-05-03T10:17:39.629Z</time></trkpt><trkpt lat="45.034545" lon="9.31296"><ele>246.0</ele><time>2026-05-03T10:17:40.63Z</time></trkpt><trkpt lat="45.034475" lon="9.312815"><ele>242.5</ele><time>2026-05-03T10:17:41.63Z</time></trkpt><trkpt lat="45.0344017" lon="9.3126683"><ele>239.0</ele><time>2026-05-03T10:17:42.629Z</time></trkpt><trkpt lat="45.0343317" lon="9.3125233"><ele>235.5</ele><time>2026-05-03T10:17:43.628Z</time></trkpt><trkpt lat="45.0342733" lon="9.3123783"><ele>232.0</ele><time>2026-05-03T10:17:44.63Z</time></trkpt><trkpt lat="45.0342183" lon="9.3122333"><ele>229.39999999999998</ele><time>2026-05-03T10:17:45.629Z</time></trkpt><trkpt lat="45.034165" lon="9.3120933"><ele>226.79999999999998</ele><time>2026-05-03T10:17:46.629Z</time></trkpt><trkpt lat="45.03412" lon="9.311955"><ele>224.2</ele><time>2026-05-03T10:17:47.631Z</time></trkpt><trkpt lat="45.0340917" lon="9.3118233"><ele>221.6</ele><time>2026-05-03T10:17:48.63Z</time></trkpt><trkpt lat="45.0340917" lon="9.3116933"><ele>219.0</ele><time>2026-05-03T10:17:49.63Z</time></trkpt><trkpt lat="45.034115" lon="9.311565"><ele>219.0</ele><time>2026-05-03T10:17:50.63Z</time></trkpt><trkpt lat="45.034165" lon="9.31145"><ele>218.99999999999997</ele><time>2026-05-03T10:17:51.63Z</time></trkpt><trkpt lat="45.0342317" lon="9.3113633"><ele>218.99999999999997</ele><time>2026-05-03T10:17:52.629Z</time></trkpt><trkpt lat="45.0343233" lon="9.3113217"><ele>219.0</ele><time>2026-05-03T10:17:53.63Z</time></trkpt><trkpt lat="45.034425" lon="9.311315"><ele>219.0</ele><time>2026-05-03T10:17:54.63Z</time></trkpt><trkpt lat="45.0345217" lon="9.311345"><ele>219.0</ele><time>2026-05-03T10:17:55.629Z</time></trkpt><trkpt lat="45.0346117" lon="9.3114183"><ele>218.99999999999997</ele><time>2026-05-03T10:17:56.63Z</time></trkpt><trkpt lat="45.0346917" lon="9.31152"><ele>218.99999999999997</ele><time>2026-05-03T10:17:57.629Z</time></trkpt><trkpt lat="45.0347583" lon="9.3116267"><ele>219.0</ele><time>2026-05-03T10:17:58.629Z</time></trkpt><trkpt lat="45.034815" lon="9.3117233"><ele>219.0</ele><time>2026-05-03T10:17:59.63Z</time></trkpt><trkpt lat="45.03486" lon="9.31181"><ele>219.0</ele><time>2026-05-03T10:18:00.628Z</time></trkpt><trkpt lat="45.0349067" lon="9.3118917"><ele>219.0</ele><time>2026-05-03T10:18:01.629Z</time></trkpt><trkpt lat="45.03495" lon="9.3119767"><ele>219.0</ele><time>2026-05-03T10:18:02.63Z</time></trkpt><trkpt lat="45.0349933" lon="9.3120633"><ele>219.0</ele><time>2026-05-03T10:18:03.63Z</time></trkpt><trkpt lat="45.0350367" lon="9.312155"><ele>219.0</ele><time>2026-05-03T10:18:04.63Z</time></trkpt><trkpt lat="45.03508" lon="9.3122517"><ele>219.0</ele><time>2026-05-03T10:18:05.63Z</time></trkpt><trkpt lat="45.035125" lon="9.31235"><ele>217.66666666666666</ele><time>2026-05-03T10:18:06.631Z</time></trkpt><trkpt lat="45.03517" lon="9.31245"><ele>216.33333333333331</ele><time>2026-05-03T10:18:07.63Z</time></trkpt><trkpt lat="45.03522" lon="9.3125483"><ele>215.0</ele><time>2026-05-03T10:18:08.631Z</time></trkpt><trkpt lat="45.0352717" lon="9.3126417"><ele>213.66666666666666</ele><time>2026-05-03T10:18:09.629Z</time></trkpt><trkpt lat="45.03533" lon="9.3127217"><ele>212.33333333333331</ele><time>2026-05-03T10:18:10.629Z</time></trkpt><trkpt lat="45.0353867" lon="9.3127833"><ele>211.0</ele><time>2026-05-03T10:18:11.629Z</time></trkpt><trkpt lat="45.0354583" lon="9.3128067"><ele>211.0</ele><time>2026-05-03T10:18:12.629Z</time></trkpt><trkpt lat="45.0355417" lon="9.3127967"><ele>211.0</ele><time>2026-05-03T10:18:13.63Z</time></trkpt><trkpt lat="45.035635" lon="9.3127533"><ele>211.0</ele><time>2026-05-03T10:18:14.631Z</time></trkpt><trkpt lat="45.035725" lon="9.3126983"><ele>211.0</ele><time>2026-05-03T10:18:15.628Z</time></trkpt><trkpt lat="45.03581" lon="9.31263"><ele>211.0</ele><time>2026-05-03T10:18:16.63Z</time></trkpt><trkpt lat="45.035885" lon="9.3125417"><ele>209.4</ele><time>2026-05-03T10:18:17.629Z</time></trkpt><trkpt lat="45.0359467" lon="9.3124233"><ele>207.8</ele><time>2026-05-03T10:18:18.63Z</time></trkpt><trkpt lat="45.0359967" lon="9.3122967"><ele>206.20000000000002</ele><time>2026-05-03T10:18:19.629Z</time></trkpt><trkpt lat="45.036045" lon="9.3121667"><ele>204.60000000000002</ele><time>2026-05-03T10:18:20.631Z</time></trkpt><trkpt lat="45.0360933" lon="9.3120383"><ele>203.0</ele><time>2026-05-03T10:18:21.629Z</time></trkpt><trkpt lat="45.0361433" lon="9.311915"><ele>201.60000000000002</ele><time>2026-05-03T10:18:22.63Z</time></trkpt><trkpt lat="45.0361917" lon="9.3117917"><ele>200.20000000000002</ele><time>2026-05-03T10:18:23.629Z</time></trkpt><trkpt lat="45.03624" lon="9.3116717"><ele>198.8</ele><time>2026-05-03T10:18:24.629Z</time></trkpt><trkpt lat="45.0363" lon="9.3115667"><ele>197.4</ele><time>2026-05-03T10:18:25.63Z</time></trkpt><trkpt lat="45.0363733" lon="9.3114767"><ele>196.0</ele><time>2026-05-03T10:18:26.631Z</time></trkpt><trkpt lat="45.0364533" lon="9.3113967"><ele>195.60000000000002</ele><time>2026-05-03T10:18:27.629Z</time></trkpt><trkpt lat="45.0365333" lon="9.3113167"><ele>195.2</ele><time>2026-05-03T10:18:28.629Z</time></trkpt><trkpt lat="45.0366117" lon="9.3112317"><ele>194.8</ele><time>2026-05-03T10:18:29.629Z</time></trkpt><trkpt lat="45.0366817" lon="9.3111333"><ele>194.39999999999998</ele><time>2026-05-03T10:18:30.63Z</time></trkpt><trkpt lat="45.0367383" lon="9.31102"><ele>194.0</ele><time>2026-05-03T10:18:31.629Z</time></trkpt><trkpt lat="45.0367833" lon="9.31089"><ele>194.0</ele><time>2026-05-03T10:18:32.63Z</time></trkpt><trkpt lat="45.036815" lon="9.3107483"><ele>194.0</ele><time>2026-05-03T10:18:33.629Z</time></trkpt><trkpt lat="45.0368433" lon="9.3106017"><ele>194.0</ele><time>2026-05-03T10:18:34.629Z</time></trkpt><trkpt lat="45.0368717" lon="9.310455"><ele>194.0</ele><time>2026-05-03T10:18:35.629Z</time></trkpt><trkpt lat="45.0368983" lon="9.3103117"><ele>194.0</ele><time>2026-05-03T10:18:36.628Z</time></trkpt><trkpt lat="45.036925" lon="9.3101633"><ele>191.75</ele><time>2026-05-03T10:18:37.629Z</time></trkpt><trkpt lat="45.0369467" lon="9.3100133"><ele>189.5</ele><time>2026-05-03T10:18:38.63Z</time></trkpt><trkpt lat="45.0369733" lon="9.3098583"><ele>187.25</ele><time>2026-05-03T10:18:39.629Z</time></trkpt><trkpt lat="45.0370017" lon="9.3096983"><ele>185.0</ele><time>2026-05-03T10:18:40.63Z</time></trkpt><trkpt lat="45.03703" lon="9.3095383"><ele>183.25</ele><time>2026-05-03T10:18:41.629Z</time></trkpt><trkpt lat="45.03706" lon="9.3093733"><ele>181.5</ele><time>2026-05-03T10:18:42.628Z</time></trkpt><trkpt lat="45.0370883" lon="9.3092083"><ele>179.75</ele><time>2026-05-03T10:18:43.63Z</time></trkpt><trkpt lat="45.0371167" lon="9.3090483"><ele>178.0</ele><time>2026-05-03T10:18:44.629Z</time></trkpt><trkpt lat="45.0371467" lon="9.308895"><ele>177.4</ele><time>2026-05-03T10:18:45.629Z</time></trkpt><trkpt lat="45.0371717" lon="9.3087517"><ele>176.8</ele><time>2026-05-03T10:18:46.63Z</time></trkpt><trkpt lat="45.0371967" lon="9.3086167"><ele>176.2</ele><time>2026-05-03T10:18:47.629Z</time></trkpt><trkpt lat="45.03722" lon="9.3084867"><ele>175.6</ele><time>2026-05-03T10:18:48.629Z</time></trkpt><trkpt lat="45.03724" lon="9.3083633"><ele>175.0</ele><time>2026-05-03T10:18:49.629Z</time></trkpt><trkpt lat="45.0372667" lon="9.3082417"><ele>175.0</ele><time>2026-05-03T10:18:50.629Z</time></trkpt><trkpt lat="45.037295" lon="9.3081217"><ele>175.0</ele><time>2026-05-03T10:18:51.628Z</time></trkpt><trkpt lat="45.0373283" lon="9.3080017"><ele>175.0</ele><time>2026-05-03T10:18:52.631Z</time></trkpt><trkpt lat="45.037365" lon="9.307885"><ele>175.0</ele><time>2026-05-03T10:18:53.63Z</time></trkpt><trkpt lat="45.0374083" lon="9.3077767"><ele>175.0</ele><time>2026-05-03T10:18:54.629Z</time></trkpt><trkpt lat="45.0374533" lon="9.3076783"><ele>175.0</ele><time>2026-05-03T10:18:55.629Z</time></trkpt><trkpt lat="45.0375" lon="9.30759"><ele>175.66666666666669</ele><time>2026-05-03T10:18:56.629Z</time></trkpt><trkpt lat="45.0375317" lon="9.3074967"><ele>176.33333333333334</ele><time>2026-05-03T10:18:57.629Z</time></trkpt><trkpt lat="45.037545" lon="9.3074033"><ele>177.0</ele><time>2026-05-03T10:18:58.63Z</time></trkpt><trkpt lat="45.037535" lon="9.307315"><ele>177.66666666666666</ele><time>2026-05-03T10:18:59.63Z</time></trkpt><trkpt lat="45.0374917" lon="9.307245"><ele>178.33333333333331</ele><time>2026-05-03T10:19:00.63Z</time></trkpt><trkpt lat="45.0373933" lon="9.307225"><ele>179.0</ele><time>2026-05-03T10:19:01.63Z</time></trkpt><trkpt lat="45.0373017" lon="9.307225"><ele>177.2</ele><time>2026-05-03T10:19:02.63Z</time></trkpt><trkpt lat="45.03721" lon="9.3072317"><ele>175.39999999999998</ele><time>2026-05-03T10:19:03.63Z</time></trkpt><trkpt lat="45.03712" lon="9.3072333"><ele>173.6</ele><time>2026-05-03T10:19:04.629Z</time></trkpt><trkpt lat="45.03703" lon="9.3072383"><ele>171.8</ele><time>2026-05-03T10:19:05.629Z</time></trkpt><trkpt lat="45.036935" lon="9.30725"><ele>170.0</ele><time>2026-05-03T10:19:06.63Z</time></trkpt><trkpt lat="45.0368367" lon="9.3072717"><ele>170.0</ele><time>2026-05-03T10:19:07.629Z</time></trkpt><trkpt lat="45.0367367" lon="9.3072983"><ele>170.0</ele><time>2026-05-03T10:19:08.63Z</time></trkpt><trkpt lat="45.0366367" lon="9.3073333"><ele>170.0</ele><time>2026-05-03T10:19:09.629Z</time></trkpt><trkpt lat="45.03654" lon="9.3073683"><ele>170.0</ele><time>2026-05-03T10:19:10.629Z</time></trkpt><trkpt lat="45.0364533" lon="9.3073983"><ele>170.0</ele><time>2026-05-03T10:19:11.629Z</time></trkpt><trkpt lat="45.0363667" lon="9.3074233"><ele>169.5</ele><time>2026-05-03T10:19:12.63Z</time></trkpt><trkpt lat="45.0362867" lon="9.3074467"><ele>169.0</ele><time>2026-05-03T10:19:13.629Z</time></trkpt><trkpt lat="45.0362083" lon="9.3074667"><ele>168.5</ele><time>2026-05-03T10:19:14.63Z</time></trkpt><trkpt lat="45.0361317" lon="9.3074783"><ele>168.0</ele><time>2026-05-03T10:19:15.629Z</time></trkpt><trkpt lat="45.036055" lon="9.30747"><ele>167.5</ele><time>2026-05-03T10:19:16.629Z</time></trkpt><trkpt lat="45.0359867" lon="9.3074333"><ele>167.0</ele><time>2026-05-03T10:19:17.63Z</time></trkpt><trkpt lat="45.0359367" lon="9.3073633"><ele>167.0</ele><time>2026-05-03T10:19:18.629Z</time></trkpt><trkpt lat="45.0359" lon="9.30726"><ele>167.0</ele><time>2026-05-03T10:19:19.629Z</time></trkpt><trkpt lat="45.03589" lon="9.30714"><ele>167.0</ele><time>2026-05-03T10:19:20.629Z</time></trkpt><trkpt lat="45.0358933" lon="9.3070067"><ele>167.0</ele><time>2026-05-03T10:19:21.63Z</time></trkpt><trkpt lat="45.035905" lon="9.30687"><ele>167.0</ele><time>2026-05-03T10:19:22.629Z</time></trkpt><trkpt lat="45.035915" lon="9.3067317"><ele>165.8</ele><time>2026-05-03T10:19:23.629Z</time></trkpt><trkpt lat="45.0359167" lon="9.3065917"><ele>164.6</ele><time>2026-05-03T10:19:24.63Z</time></trkpt><trkpt lat="45.035895" lon="9.30646"><ele>163.4</ele><time>2026-05-03T10:19:25.63Z</time></trkpt><trkpt lat="45.0358567" lon="9.30634"><ele>162.20000000000002</ele><time>2026-05-03T10:19:26.631Z</time></trkpt><trkpt lat="45.0358133" lon="9.3062267"><ele>161.0</ele><time>2026-05-03T10:19:27.628Z</time></trkpt><trkpt lat="45.0357633" lon="9.3061183"><ele>159.5</ele><time>2026-05-03T10:19:28.629Z</time></trkpt><trkpt lat="45.0357133" lon="9.3060117"><ele>158.0</ele><time>2026-05-03T10:19:29.629Z</time></trkpt><trkpt lat="45.0356667" lon="9.3059033"><ele>156.5</ele><time>2026-05-03T10:19:30.629Z</time></trkpt><trkpt lat="45.0356267" lon="9.3057883"><ele>155.0</ele><time>2026-05-03T10:19:31.629Z</time></trkpt><trkpt lat="45.0356083" lon="9.3056683"><ele>153.5</ele><time>2026-05-03T10:19:32.63Z</time></trkpt><trkpt lat="45.035615" lon="9.30555"><ele>152.0</ele><time>2026-05-03T10:19:33.629Z</time></trkpt><trkpt lat="45.035655" lon="9.3054417"><ele>151.33333333333331</ele><time>2026-05-03T10:19:34.631Z</time></trkpt><trkpt lat="45.0357217" lon="9.3053567"><ele>150.66666666666666</ele><time>2026-05-03T10:19:35.629Z</time></trkpt><trkpt lat="45.0357983" lon="9.3052933"><ele>150.0</ele><time>2026-05-03T10:19:36.63Z</time></trkpt><trkpt lat="45.0358833" lon="9.305245"><ele>149.33333333333334</ele><time>2026-05-03T10:19:37.629Z</time></trkpt><trkpt lat="45.03597" lon="9.3051983"><ele>148.66666666666669</ele><time>2026-05-03T10:19:38.63Z</time></trkpt><trkpt lat="45.0360483" lon="9.3051467"><ele>148.0</ele><time>2026-05-03T10:19:39.631Z</time></trkpt><trkpt lat="45.0361167" lon="9.3050817"><ele>148.0</ele><time>2026-05-03T10:19:40.629Z</time></trkpt><trkpt lat="45.03618" lon="9.305015"><ele>148.0</ele><time>2026-05-03T10:19:41.629Z</time></trkpt><trkpt lat="45.0362283" lon="9.3049367"><ele>148.0</ele><time>2026-05-03T10:19:42.628Z</time></trkpt><trkpt lat="45.036265" lon="9.304835"><ele>148.0</ele><time>2026-05-03T10:19:43.629Z</time></trkpt><trkpt lat="45.0362883" lon="9.3047083"><ele>148.0</ele><time>2026-05-03T10:19:44.63Z</time></trkpt><trkpt lat="45.03629" lon="9.3045917"><ele>148.0</ele><time>2026-05-03T10:19:45.63Z</time></trkpt><trkpt lat="45.0362767" lon="9.3044833"><ele>147.0</ele><time>2026-05-03T10:19:46.63Z</time></trkpt><trkpt lat="45.03625" lon="9.3043867"><ele>146.0</ele><time>2026-05-03T10:19:47.628Z</time></trkpt><trkpt lat="45.0362083" lon="9.304305"><ele>145.0</ele><time>2026-05-03T10:19:48.629Z</time></trkpt><trkpt lat="45.0361517" lon="9.3042367"><ele>144.0</ele><time>2026-05-03T10:19:49.629Z</time></trkpt><trkpt lat="45.0360867" lon="9.304185"><ele>143.0</ele><time>2026-05-03T10:19:50.63Z</time></trkpt><trkpt lat="45.0360083" lon="9.3041517"><ele>142.0</ele><time>2026-05-03T10:19:51.63Z</time></trkpt><trkpt lat="45.0359183" lon="9.30413"><ele>142.0</ele><time>2026-05-03T10:19:52.63Z</time></trkpt><trkpt lat="45.03584" lon="9.3041083"><ele>142.0</ele><time>2026-05-03T10:19:53.63Z</time></trkpt><trkpt lat="45.035765" lon="9.3040833"><ele>142.0</ele><time>2026-05-03T10:19:54.631Z</time></trkpt><trkpt lat="45.0356933" lon="9.3040567"><ele>142.0</ele><time>2026-05-03T10:19:55.63Z</time></trkpt><trkpt lat="45.035625" lon="9.3040183"><ele>142.0</ele><time>2026-05-03T10:19:56.63Z</time></trkpt><trkpt lat="45.0355733" lon="9.3039633"><ele>142.0</ele><time>2026-05-03T10:19:57.63Z</time></trkpt><trkpt lat="45.0355383" lon="9.3038883"><ele>142.0</ele><time>2026-05-03T10:19:58.631Z</time></trkpt><trkpt lat="45.035525" lon="9.3037967"><ele>140.66666666666669</ele><time>2026-05-03T10:19:59.63Z</time></trkpt><trkpt lat="45.0355317" lon="9.3037017"><ele>139.33333333333334</ele><time>2026-05-03T10:20:00.629Z</time></trkpt><trkpt lat="45.03556" lon="9.3036083"><ele>138.0</ele><time>2026-05-03T10:20:01.629Z</time></trkpt><trkpt lat="45.03561" lon="9.3035217"><ele>136.66666666666666</ele><time>2026-05-03T10:20:02.63Z</time></trkpt><trkpt lat="45.0356767" lon="9.303445"><ele>135.33333333333331</ele><time>2026-05-03T10:20:03.629Z</time></trkpt><trkpt lat="45.0357567" lon="9.3033867"><ele>134.0</ele><time>2026-05-03T10:20:04.629Z</time></trkpt><trkpt lat="45.0358467" lon="9.3033517"><ele>134.0</ele><time>2026-05-03T10:20:05.63Z</time></trkpt><trkpt lat="45.03594" lon="9.3033283"><ele>134.0</ele><time>2026-05-03T10:20:06.63Z</time></trkpt><trkpt lat="45.03603" lon="9.3032967"><ele>134.0</ele><time>2026-05-03T10:20:07.629Z</time></trkpt><trkpt lat="45.0361167" lon="9.3032633"><ele>134.0</ele><time>2026-05-03T10:20:08.629Z</time></trkpt><trkpt lat="45.0361933" lon="9.303235"><ele>134.0</ele><time>2026-05-03T10:20:09.629Z</time></trkpt><trkpt lat="45.0362967" lon="9.3031983"><ele>134.0</ele><time>2026-05-03T10:20:11.629Z</time></trkpt><trkpt lat="45.0363683" lon="9.3031667"><ele>134.0</ele><time>2026-05-03T10:20:13.629Z</time></trkpt><trkpt lat="45.0364317" lon="9.3031317"><ele>134.0</ele><time>2026-05-03T10:20:15.629Z</time></trkpt><trkpt lat="45.03649" lon="9.3030933"><ele>134.0</ele><time>2026-05-03T10:20:17.629Z</time></trkpt><trkpt lat="45.0365483" lon="9.3030383"><ele>134.0</ele><time>2026-05-03T10:20:20.63Z</time></trkpt><trkpt lat="45.03661" lon="9.30296"><ele>134.0</ele><time>2026-05-03T10:20:23.629Z</time></trkpt><trkpt lat="45.03664" lon="9.3028417"><ele>134.0</ele><time>2026-05-03T10:20:26.629Z</time></trkpt><trkpt lat="45.0366" lon="9.3027283"><ele>133.0</ele><time>2026-05-03T10:20:29.63Z</time></trkpt><trkpt lat="45.0365533" lon="9.3026583"><ele>132.0</ele><time>2026-05-03T10:20:32.63Z</time></trkpt><trkpt lat="45.0365017" lon="9.3026067"><ele>131.0</ele><time>2026-05-03T10:20:34.631Z</time></trkpt><trkpt lat="45.036445" lon="9.3025317"><ele>130.0</ele><time>2026-05-03T10:20:36.63Z</time></trkpt><trkpt lat="45.0364" lon="9.30244"><ele>129.0</ele><time>2026-05-03T10:20:38.63Z</time></trkpt><trkpt lat="45.03637" lon="9.3023517"><ele>128.0</ele><time>2026-05-03T10:20:40.629Z</time></trkpt><trkpt lat="45.0363367" lon="9.3022633"><ele>127.0</ele><time>2026-05-03T10:20:42.629Z</time></trkpt><trkpt lat="45.0362933" lon="9.3021917"><ele>125.71428571428572</ele><time>2026-05-03T10:20:44.63Z</time></trkpt><trkpt lat="45.03622" lon="9.30212"><ele>124.42857142857142</ele><time>2026-05-03T10:20:46.629Z</time></trkpt><trkpt lat="45.03616" lon="9.30208"><ele>123.14285714285714</ele><time>2026-05-03T10:20:47.63Z</time></trkpt><trkpt lat="45.0360917" lon="9.3020467"><ele>121.85714285714286</ele><time>2026-05-03T10:20:48.629Z</time></trkpt><trkpt lat="45.0360217" lon="9.3020217"><ele>120.57142857142858</ele><time>2026-05-03T10:20:49.63Z</time></trkpt><trkpt lat="45.0359533" lon="9.3020033"><ele>119.28571428571428</ele><time>2026-05-03T10:20:50.63Z</time></trkpt><trkpt lat="45.0358883" lon="9.30199"><ele>118.0</ele><time>2026-05-03T10:20:51.63Z</time></trkpt><trkpt lat="45.035765" lon="9.30197"><ele>117.5</ele><time>2026-05-03T10:20:53.63Z</time></trkpt><trkpt lat="45.03565" lon="9.30194"><ele>117.0</ele><time>2026-05-03T10:20:55.631Z</time></trkpt><trkpt lat="45.0355483" lon="9.301855"><ele>116.5</ele><time>2026-05-03T10:20:57.629Z</time></trkpt><trkpt lat="45.03548" lon="9.3017167"><ele>116.0</ele><time>2026-05-03T10:20:59.63Z</time></trkpt><trkpt lat="45.0354517" lon="9.301555"><ele>115.99999999999999</ele><time>2026-05-03T10:21:01.629Z</time></trkpt><trkpt lat="45.035445" lon="9.301435"><ele>116.0</ele><time>2026-05-03T10:21:03.63Z</time></trkpt><trkpt lat="45.0354333" lon="9.3013333"><ele>116.0</ele><time>2026-05-03T10:21:06.63Z</time></trkpt><trkpt lat="45.0354367" lon="9.3011933"><ele>116.0</ele><time>2026-05-03T10:21:18.629Z</time></trkpt><trkpt lat="45.0354283" lon="9.3010883"><ele>115.99999999999999</ele><time>2026-05-03T10:21:20.63Z</time></trkpt><trkpt lat="45.0354183" lon="9.300935"><ele>116.0</ele><time>2026-05-03T10:21:22.629Z</time></trkpt><trkpt lat="45.0353983" lon="9.3007717"><ele>115.66666666666666</ele><time>2026-05-03T10:21:24.63Z</time></trkpt><trkpt lat="45.035385" lon="9.3006683"><ele>115.33333333333333</ele><time>2026-05-03T10:21:26.63Z</time></trkpt><trkpt lat="45.0353767" lon="9.3005633"><ele>115.0</ele><time>2026-05-03T10:21:29.63Z</time></trkpt><trkpt lat="45.0353667" lon="9.3004717"><ele>114.66666666666666</ele><time>2026-05-03T10:21:32.63Z</time></trkpt><trkpt lat="45.035375" lon="9.3003617"><ele>114.33333333333333</ele><time>2026-05-03T10:22:07.631Z</time></trkpt><trkpt lat="45.035355" lon="9.300185"><ele>114.0</ele><time>2026-05-03T10:22:09.631Z</time></trkpt><trkpt lat="45.0353433" lon="9.3000567"><ele>114.0</ele><time>2026-05-03T10:22:10.629Z</time></trkpt><trkpt lat="45.0353217" lon="9.2999017"><ele>114.0</ele><time>2026-05-03T10:22:11.628Z</time></trkpt><trkpt lat="45.0353" lon="9.2997633"><ele>114.0</ele><time>2026-05-03T10:22:12.629Z</time></trkpt><trkpt lat="45.0352733" lon="9.2996533"><ele>114.0</ele><time>2026-05-03T10:22:13.629Z</time></trkpt><trkpt lat="45.035195" lon="9.2995467"><ele>114.0</ele><time>2026-05-03T10:22:15.628Z</time></trkpt><trkpt lat="45.0350867" lon="9.2995367"><ele>114.83333333333333</ele><time>2026-05-03T10:22:17.63Z</time></trkpt><trkpt lat="45.0350133" lon="9.29954"><ele>115.66666666666666</ele><time>2026-05-03T10:22:18.63Z</time></trkpt><trkpt lat="45.0349317" lon="9.29954"><ele>116.5</ele><time>2026-05-03T10:22:19.63Z</time></trkpt><trkpt lat="45.034855" lon="9.29954"><ele>117.33333333333333</ele><time>2026-05-03T10:22:20.63Z</time></trkpt><trkpt lat="45.03479" lon="9.29954"><ele>118.16666666666666</ele><time>2026-05-03T10:22:21.63Z</time></trkpt><trkpt lat="45.0346767" lon="9.29952"><ele>119.0</ele><time>2026-05-03T10:22:23.63Z</time></trkpt><trkpt lat="45.0345633" lon="9.2994433"><ele>118.99999999999999</ele><time>2026-05-03T10:22:25.629Z</time></trkpt><trkpt lat="45.034515" lon="9.29938"><ele>119.0</ele><time>2026-05-03T10:22:26.631Z</time></trkpt><trkpt lat="45.034475" lon="9.2992933"><ele>119.0</ele><time>2026-05-03T10:22:27.631Z</time></trkpt><trkpt lat="45.034445" lon="9.2991867"><ele>119.0</ele><time>2026-05-03T10:22:28.631Z</time></trkpt><trkpt lat="45.0344183" lon="9.29907"><ele>118.99999999999999</ele><time>2026-05-03T10:22:29.629Z</time></trkpt><trkpt lat="45.0343933" lon="9.2989483"><ele>119.0</ele><time>2026-05-03T10:22:30.629Z</time></trkpt><trkpt lat="45.0343717" lon="9.2988283"><ele>119.66666666666666</ele><time>2026-05-03T10:22:31.63Z</time></trkpt><trkpt lat="45.034345" lon="9.29871"><ele>120.33333333333333</ele><time>2026-05-03T10:22:32.629Z</time></trkpt><trkpt lat="45.03432" lon="9.2986017"><ele>121.0</ele><time>2026-05-03T10:22:33.629Z</time></trkpt><trkpt lat="45.034285" lon="9.2985017"><ele>121.66666666666666</ele><time>2026-05-03T10:22:34.629Z</time></trkpt><trkpt lat="45.03424" lon="9.2984167"><ele>122.33333333333333</ele><time>2026-05-03T10:22:35.629Z</time></trkpt><trkpt lat="45.034185" lon="9.29835"><ele>123.0</ele><time>2026-05-03T10:22:36.629Z</time></trkpt><trkpt lat="45.0341167" lon="9.2983"><ele>123.0</ele><time>2026-05-03T10:22:37.629Z</time></trkpt><trkpt lat="45.0340433" lon="9.2982633"><ele>123.0</ele><time>2026-05-03T10:22:38.631Z</time></trkpt><trkpt lat="45.0339667" lon="9.2982283"><ele>123.0</ele><time>2026-05-03T10:22:39.629Z</time></trkpt><trkpt lat="45.0338833" lon="9.298195"><ele>123.0</ele><time>2026-05-03T10:22:40.63Z</time></trkpt><trkpt lat="45.0337933" lon="9.2981583"><ele>123.0</ele><time>2026-05-03T10:22:41.63Z</time></trkpt><trkpt lat="45.0337067" lon="9.29812"><ele>123.0</ele><time>2026-05-03T10:22:42.63Z</time></trkpt><trkpt lat="45.03362" lon="9.2980817"><ele>123.33333333333333</ele><time>2026-05-03T10:22:43.629Z</time></trkpt><trkpt lat="45.0335333" lon="9.29804"><ele>123.66666666666666</ele><time>2026-05-03T10:22:44.63Z</time></trkpt><trkpt lat="45.0334467" lon="9.297995"><ele>124.0</ele><time>2026-05-03T10:22:45.63Z</time></trkpt><trkpt lat="45.0333583" lon="9.29795"><ele>124.33333333333333</ele><time>2026-05-03T10:22:46.629Z</time></trkpt><trkpt lat="45.033275" lon="9.2979083"><ele>124.66666666666666</ele><time>2026-05-03T10:22:47.63Z</time></trkpt><trkpt lat="45.0332" lon="9.2978717"><ele>125.0</ele><time>2026-05-03T10:22:48.631Z</time></trkpt><trkpt lat="45.0331283" lon="9.2978333"><ele>124.99999999999999</ele><time>2026-05-03T10:22:49.631Z</time></trkpt><trkpt lat="45.03306" lon="9.297795"><ele>125.0</ele><time>2026-05-03T10:22:50.63Z</time></trkpt><trkpt lat="45.03299" lon="9.2977567"><ele>125.0</ele><time>2026-05-03T10:22:51.63Z</time></trkpt><trkpt lat="45.03292" lon="9.2977183"><ele>125.0</ele><time>2026-05-03T10:22:52.63Z</time></trkpt><trkpt lat="45.03285" lon="9.2976717"><ele>124.99999999999999</ele><time>2026-05-03T10:22:53.631Z</time></trkpt><trkpt lat="45.03278" lon="9.2976133"><ele>125.0</ele><time>2026-05-03T10:22:54.63Z</time></trkpt><trkpt lat="45.032715" lon="9.2975433"><ele>124.99999999999999</ele><time>2026-05-03T10:22:55.629Z</time></trkpt><trkpt lat="45.0326517" lon="9.2974617"><ele>125.0</ele><time>2026-05-03T10:22:56.63Z</time></trkpt><trkpt lat="45.0325883" lon="9.2973733"><ele>125.0</ele><time>2026-05-03T10:22:57.629Z</time></trkpt><trkpt lat="45.03253" lon="9.2972833"><ele>125.0</ele><time>2026-05-03T10:22:58.629Z</time></trkpt><trkpt lat="45.0324733" lon="9.2971983"><ele>124.99999999999999</ele><time>2026-05-03T10:22:59.63Z</time></trkpt><trkpt lat="45.0324267" lon="9.2971167"><ele>125.0</ele><time>2026-05-03T10:23:00.628Z</time></trkpt><trkpt lat="45.0323867" lon="9.2970417"><ele>125.66666666666666</ele><time>2026-05-03T10:23:01.63Z</time></trkpt><trkpt lat="45.032345" lon="9.2969733"><ele>126.33333333333333</ele><time>2026-05-03T10:23:02.63Z</time></trkpt><trkpt lat="45.0322633" lon="9.2968417"><ele>127.0</ele><time>2026-05-03T10:23:04.63Z</time></trkpt><trkpt lat="45.0322217" lon="9.2967717"><ele>127.66666666666666</ele><time>2026-05-03T10:23:05.632Z</time></trkpt><trkpt lat="45.03218" lon="9.2967"><ele>128.33333333333334</ele><time>2026-05-03T10:23:06.63Z</time></trkpt><trkpt lat="45.032135" lon="9.2966317"><ele>129.0</ele><time>2026-05-03T10:23:07.63Z</time></trkpt><trkpt lat="45.0320833" lon="9.2965633"><ele>129.0</ele><time>2026-05-03T10:23:08.63Z</time></trkpt><trkpt lat="45.0320317" lon="9.2964833"><ele>129.0</ele><time>2026-05-03T10:23:09.631Z</time></trkpt><trkpt lat="45.0319767" lon="9.2963983"><ele>129.0</ele><time>2026-05-03T10:23:10.629Z</time></trkpt><trkpt lat="45.0319233" lon="9.2963083"><ele>129.0</ele><time>2026-05-03T10:23:11.63Z</time></trkpt><trkpt lat="45.0318833" lon="9.2962083"><ele>129.0</ele><time>2026-05-03T10:23:12.629Z</time></trkpt><trkpt lat="45.03185" lon="9.29611"><ele>129.0</ele><time>2026-05-03T10:23:13.629Z</time></trkpt><trkpt lat="45.031825" lon="9.2960117"><ele>129.83333333333334</ele><time>2026-05-03T10:23:14.631Z</time></trkpt><trkpt lat="45.0318083" lon="9.2959133"><ele>130.66666666666666</ele><time>2026-05-03T10:23:15.63Z</time></trkpt><trkpt lat="45.0317933" lon="9.2958233"><ele>131.5</ele><time>2026-05-03T10:23:16.629Z</time></trkpt><trkpt lat="45.0317867" lon="9.2956817"><ele>132.33333333333331</ele><time>2026-05-03T10:23:18.631Z</time></trkpt><trkpt lat="45.0318" lon="9.295575"><ele>133.16666666666666</ele><time>2026-05-03T10:23:20.63Z</time></trkpt><trkpt lat="45.0317967" lon="9.2954767"><ele>134.0</ele><time>2026-05-03T10:23:22.632Z</time></trkpt><trkpt lat="45.031755" lon="9.2954033"><ele>134.66666666666666</ele><time>2026-05-03T10:23:24.63Z</time></trkpt><trkpt lat="45.0316717" lon="9.29538"><ele>135.33333333333331</ele><time>2026-05-03T10:23:26.631Z</time></trkpt><trkpt lat="45.031555" lon="9.2954117"><ele>136.0</ele><time>2026-05-03T10:23:28.629Z</time></trkpt><trkpt lat="45.0314833" lon="9.2954433"><ele>136.66666666666666</ele><time>2026-05-03T10:23:29.629Z</time></trkpt><trkpt lat="45.0314133" lon="9.29548"><ele>137.33333333333334</ele><time>2026-05-03T10:23:30.629Z</time></trkpt><trkpt lat="45.0313433" lon="9.29552"><ele>138.0</ele><time>2026-05-03T10:23:31.629Z</time></trkpt><trkpt lat="45.0312733" lon="9.29557"><ele>137.85714285714286</ele><time>2026-05-03T10:23:32.63Z</time></trkpt><trkpt lat="45.031205" lon="9.2956167"><ele>137.71428571428572</ele><time>2026-05-03T10:23:33.629Z</time></trkpt><trkpt lat="45.03114" lon="9.2956633"><ele>137.57142857142858</ele><time>2026-05-03T10:23:34.629Z</time></trkpt><trkpt lat="45.031075" lon="9.295715"><ele>137.42857142857144</ele><time>2026-05-03T10:23:35.629Z</time></trkpt><trkpt lat="45.0310117" lon="9.2957667"><ele>137.28571428571428</ele><time>2026-05-03T10:23:36.63Z</time></trkpt><trkpt lat="45.03095" lon="9.2958233"><ele>137.14285714285717</ele><time>2026-05-03T10:23:37.629Z</time></trkpt><trkpt lat="45.0308833" lon="9.295875"><ele>137.0</ele><time>2026-05-03T10:23:38.63Z</time></trkpt><trkpt lat="45.030815" lon="9.2959233"><ele>138.57142857142858</ele><time>2026-05-03T10:23:39.629Z</time></trkpt><trkpt lat="45.0307467" lon="9.2959633"><ele>140.14285714285714</ele><time>2026-05-03T10:23:40.629Z</time></trkpt><trkpt lat="45.0306767" lon="9.295995"><ele>141.71428571428572</ele><time>2026-05-03T10:23:41.629Z</time></trkpt><trkpt lat="45.03061" lon="9.2960233"><ele>143.28571428571428</ele><time>2026-05-03T10:23:42.629Z</time></trkpt><trkpt lat="45.0305467" lon="9.2960517"><ele>144.85714285714286</ele><time>2026-05-03T10:23:43.629Z</time></trkpt><trkpt lat="45.0304783" lon="9.29608"><ele>146.42857142857144</ele><time>2026-05-03T10:23:44.63Z</time></trkpt><trkpt lat="45.0304067" lon="9.296115"><ele>148.0</ele><time>2026-05-03T10:23:45.629Z</time></trkpt><trkpt lat="45.03033" lon="9.29615"><ele>148.0</ele><time>2026-05-03T10:23:46.629Z</time></trkpt><trkpt lat="45.0302517" lon="9.2961867"><ele>148.0</ele><time>2026-05-03T10:23:47.63Z</time></trkpt><trkpt lat="45.0301717" lon="9.2962217"><ele>148.0</ele><time>2026-05-03T10:23:48.63Z</time></trkpt><trkpt lat="45.0300917" lon="9.2962583"><ele>148.0</ele><time>2026-05-03T10:23:49.629Z</time></trkpt><trkpt lat="45.0300083" lon="9.2962967"><ele>148.0</ele><time>2026-05-03T10:23:50.63Z</time></trkpt><trkpt lat="45.0299283" lon="9.296335"><ele>148.0</ele><time>2026-05-03T10:23:51.629Z</time></trkpt><trkpt lat="45.0298517" lon="9.2963667"><ele>148.0</ele><time>2026-05-03T10:23:52.63Z</time></trkpt><trkpt lat="45.0297733" lon="9.2963967"><ele>148.0</ele><time>2026-05-03T10:23:53.629Z</time></trkpt><trkpt lat="45.029695" lon="9.2964167"><ele>148.0</ele><time>2026-05-03T10:23:54.63Z</time></trkpt><trkpt lat="45.029615" lon="9.2964283"><ele>148.0</ele><time>2026-05-03T10:23:55.63Z</time></trkpt><trkpt lat="45.029535" lon="9.2964317"><ele>148.0</ele><time>2026-05-03T10:23:56.63Z</time></trkpt><trkpt lat="45.0294583" lon="9.2964333"><ele>148.0</ele><time>2026-05-03T10:23:57.629Z</time></trkpt><trkpt lat="45.029385" lon="9.2964317"><ele>148.0</ele><time>2026-05-03T10:23:58.63Z</time></trkpt><trkpt lat="45.02931" lon="9.2964267"><ele>148.0</ele><time>2026-05-03T10:23:59.629Z</time></trkpt><trkpt lat="45.029235" lon="9.2964183"><ele>148.0</ele><time>2026-05-03T10:24:00.629Z</time></trkpt><trkpt lat="45.029165" lon="9.2963883"><ele>148.0</ele><time>2026-05-03T10:24:01.629Z</time></trkpt><trkpt lat="45.0291083" lon="9.2963233"><ele>148.0</ele><time>2026-05-03T10:24:02.63Z</time></trkpt><trkpt lat="45.0290733" lon="9.2962267"><ele>148.0</ele><time>2026-05-03T10:24:03.629Z</time></trkpt><trkpt lat="45.0290717" lon="9.2961233"><ele>148.0</ele><time>2026-05-03T10:24:04.629Z</time></trkpt><trkpt lat="45.0291017" lon="9.2960267"><ele>149.0</ele><time>2026-05-03T10:24:05.629Z</time></trkpt><trkpt lat="45.0291533" lon="9.2959417"><ele>150.0</ele><time>2026-05-03T10:24:06.629Z</time></trkpt><trkpt lat="45.02921" lon="9.2958583"><ele>151.0</ele><time>2026-05-03T10:24:07.629Z</time></trkpt><trkpt lat="45.0292667" lon="9.2957733"><ele>152.0</ele><time>2026-05-03T10:24:08.63Z</time></trkpt><trkpt lat="45.0293217" lon="9.2956867"><ele>153.0</ele><time>2026-05-03T10:24:09.629Z</time></trkpt><trkpt lat="45.02938" lon="9.2956033"><ele>154.0</ele><time>2026-05-03T10:24:10.629Z</time></trkpt><trkpt lat="45.02944" lon="9.2955183"><ele>155.2</ele><time>2026-05-03T10:24:11.629Z</time></trkpt><trkpt lat="45.0294983" lon="9.295425"><ele>156.4</ele><time>2026-05-03T10:24:12.63Z</time></trkpt><trkpt lat="45.0295517" lon="9.2953217"><ele>157.6</ele><time>2026-05-03T10:24:13.629Z</time></trkpt><trkpt lat="45.0295933" lon="9.2952033"><ele>158.8</ele><time>2026-05-03T10:24:14.631Z</time></trkpt><trkpt lat="45.029615" lon="9.295075"><ele>160.0</ele><time>2026-05-03T10:24:15.628Z</time></trkpt><trkpt lat="45.0296117" lon="9.2949383"><ele>160.0</ele><time>2026-05-03T10:24:16.63Z</time></trkpt><trkpt lat="45.0295817" lon="9.2948"><ele>160.0</ele><time>2026-05-03T10:24:17.629Z</time></trkpt><trkpt lat="45.029535" lon="9.2946667"><ele>160.0</ele><time>2026-05-03T10:24:18.631Z</time></trkpt><trkpt lat="45.0294783" lon="9.2945467"><ele>160.0</ele><time>2026-05-03T10:24:19.631Z</time></trkpt><trkpt lat="45.029415" lon="9.2944367"><ele>160.0</ele><time>2026-05-03T10:24:20.63Z</time></trkpt><trkpt lat="45.029345" lon="9.2943417"><ele>161.2</ele><time>2026-05-03T10:24:21.63Z</time></trkpt><trkpt lat="45.0292667" lon="9.2942733"><ele>162.4</ele><time>2026-05-03T10:24:22.63Z</time></trkpt><trkpt lat="45.029175" lon="9.2942333"><ele>163.60000000000002</ele><time>2026-05-03T10:24:23.63Z</time></trkpt><trkpt lat="45.0290683" lon="9.29425"><ele>164.8</ele><time>2026-05-03T10:24:24.63Z</time></trkpt><trkpt lat="45.0289583" lon="9.2943033"><ele>166.0</ele><time>2026-05-03T10:24:25.629Z</time></trkpt><trkpt lat="45.0288567" lon="9.29437"><ele>167.60000000000002</ele><time>2026-05-03T10:24:26.63Z</time></trkpt><trkpt lat="45.0287567" lon="9.29443"><ele>169.2</ele><time>2026-05-03T10:24:27.629Z</time></trkpt><trkpt lat="45.0286583" lon="9.2944833"><ele>170.8</ele><time>2026-05-03T10:24:28.629Z</time></trkpt><trkpt lat="45.02856" lon="9.29453"><ele>172.39999999999998</ele><time>2026-05-03T10:24:29.632Z</time></trkpt><trkpt lat="45.028465" lon="9.2945767"><ele>174.0</ele><time>2026-05-03T10:24:30.631Z</time></trkpt><trkpt lat="45.02837" lon="9.2946183"><ele>175.0</ele><time>2026-05-03T10:24:31.629Z</time></trkpt><trkpt lat="45.028275" lon="9.294645"><ele>176.0</ele><time>2026-05-03T10:24:32.631Z</time></trkpt><trkpt lat="45.0281817" lon="9.2946567"><ele>177.0</ele><time>2026-05-03T10:24:33.631Z</time></trkpt><trkpt lat="45.028085" lon="9.2946533"><ele>178.0</ele><time>2026-05-03T10:24:34.631Z</time></trkpt><trkpt lat="45.02799" lon="9.2946317"><ele>179.0</ele><time>2026-05-03T10:24:35.631Z</time></trkpt><trkpt lat="45.0279" lon="9.29458"><ele>179.0</ele><time>2026-05-03T10:24:36.631Z</time></trkpt><trkpt lat="45.0278217" lon="9.2945017"><ele>179.0</ele><time>2026-05-03T10:24:37.631Z</time></trkpt><trkpt lat="45.0277533" lon="9.294405"><ele>179.0</ele><time>2026-05-03T10:24:38.63Z</time></trkpt><trkpt lat="45.027685" lon="9.294305"><ele>179.0</ele><time>2026-05-03T10:24:39.631Z</time></trkpt><trkpt lat="45.027605" lon="9.2942217"><ele>179.0</ele><time>2026-05-03T10:24:40.63Z</time></trkpt><trkpt lat="45.0275167" lon="9.2941583"><ele>179.0</ele><time>2026-05-03T10:24:41.631Z</time></trkpt><trkpt lat="45.0274183" lon="9.29412"><ele>179.0</ele><time>2026-05-03T10:24:42.631Z</time></trkpt><trkpt lat="45.02732" lon="9.2940917"><ele>179.0</ele><time>2026-05-03T10:24:43.63Z</time></trkpt><trkpt lat="45.0272233" lon="9.294065"><ele>179.0</ele><time>2026-05-03T10:24:44.631Z</time></trkpt><trkpt lat="45.0271283" lon="9.2940433"><ele>179.0</ele><time>2026-05-03T10:24:45.629Z</time></trkpt><trkpt lat="45.0270367" lon="9.2940183"><ele>179.0</ele><time>2026-05-03T10:24:46.629Z</time></trkpt><trkpt lat="45.02695" lon="9.293995"><ele>179.0</ele><time>2026-05-03T10:24:47.63Z</time></trkpt><trkpt lat="45.0268667" lon="9.293985"><ele>179.0</ele><time>2026-05-03T10:24:48.63Z</time></trkpt><trkpt lat="45.0267867" lon="9.2939983"><ele>179.0</ele><time>2026-05-03T10:24:49.63Z</time></trkpt><trkpt lat="45.0267133" lon="9.294045"><ele>179.0</ele><time>2026-05-03T10:24:50.631Z</time></trkpt><trkpt lat="45.0266483" lon="9.294115"><ele>179.0</ele><time>2026-05-03T10:24:51.631Z</time></trkpt><trkpt lat="45.02659" lon="9.2941933"><ele>179.33333333333331</ele><time>2026-05-03T10:24:52.63Z</time></trkpt><trkpt lat="45.0265333" lon="9.294265"><ele>179.66666666666666</ele><time>2026-05-03T10:24:53.631Z</time></trkpt><trkpt lat="45.0264717" lon="9.2943267"><ele>180.0</ele><time>2026-05-03T10:24:54.63Z</time></trkpt><trkpt lat="45.0264" lon="9.2943683"><ele>180.33333333333334</ele><time>2026-05-03T10:24:55.631Z</time></trkpt><trkpt lat="45.0263233" lon="9.2943917"><ele>180.66666666666669</ele><time>2026-05-03T10:24:56.63Z</time></trkpt><trkpt lat="45.0262467" lon="9.29439"><ele>181.0</ele><time>2026-05-03T10:24:57.629Z</time></trkpt><trkpt lat="45.0261667" lon="9.2943533"><ele>181.0</ele><time>2026-05-03T10:24:58.63Z</time></trkpt><trkpt lat="45.0260883" lon="9.294305"><ele>181.0</ele><time>2026-05-03T10:24:59.629Z</time></trkpt><trkpt lat="45.02601" lon="9.2942317"><ele>181.0</ele><time>2026-05-03T10:25:00.63Z</time></trkpt><trkpt lat="45.0259233" lon="9.29415"><ele>181.0</ele><time>2026-05-03T10:25:01.63Z</time></trkpt><trkpt lat="45.025835" lon="9.2940733"><ele>181.0</ele><time>2026-05-03T10:25:02.629Z</time></trkpt><trkpt lat="45.0257467" lon="9.293995"><ele>182.8</ele><time>2026-05-03T10:25:03.63Z</time></trkpt><trkpt lat="45.0256617" lon="9.2939167"><ele>184.60000000000002</ele><time>2026-05-03T10:25:04.629Z</time></trkpt><trkpt lat="45.0255767" lon="9.2938417"><ele>186.4</ele><time>2026-05-03T10:25:05.628Z</time></trkpt><trkpt lat="45.0254917" lon="9.2937683"><ele>188.2</ele><time>2026-05-03T10:25:06.629Z</time></trkpt><trkpt lat="45.02541" lon="9.2936933"><ele>190.0</ele><time>2026-05-03T10:25:07.63Z</time></trkpt><trkpt lat="45.0253267" lon="9.29362"><ele>190.0</ele><time>2026-05-03T10:25:08.629Z</time></trkpt><trkpt lat="45.02525" lon="9.2935433"><ele>190.0</ele><time>2026-05-03T10:25:09.629Z</time></trkpt><trkpt lat="45.0251783" lon="9.2934667"><ele>190.0</ele><time>2026-05-03T10:25:10.629Z</time></trkpt><trkpt lat="45.0251233" lon="9.29337"><ele>190.0</ele><time>2026-05-03T10:25:11.628Z</time></trkpt><trkpt lat="45.0250983" lon="9.2932583"><ele>190.0</ele><time>2026-05-03T10:25:12.629Z</time></trkpt><trkpt lat="45.025105" lon="9.2931483"><ele>190.0</ele><time>2026-05-03T10:25:13.629Z</time></trkpt><trkpt lat="45.0251517" lon="9.2930583"><ele>191.8</ele><time>2026-05-03T10:25:14.63Z</time></trkpt><trkpt lat="45.0252317" lon="9.2930033"><ele>193.6</ele><time>2026-05-03T10:25:15.629Z</time></trkpt><trkpt lat="45.025345" lon="9.2929767"><ele>195.39999999999998</ele><time>2026-05-03T10:25:16.629Z</time></trkpt><trkpt lat="45.0254583" lon="9.29296"><ele>197.2</ele><time>2026-05-03T10:25:17.629Z</time></trkpt><trkpt lat="45.0255683" lon="9.2929567"><ele>199.0</ele><time>2026-05-03T10:25:18.63Z</time></trkpt><trkpt lat="45.0256767" lon="9.2929533"><ele>199.0</ele><time>2026-05-03T10:25:19.63Z</time></trkpt><trkpt lat="45.0257833" lon="9.29294"><ele>199.0</ele><time>2026-05-03T10:25:20.631Z</time></trkpt><trkpt lat="45.0258867" lon="9.29291"><ele>199.0</ele><time>2026-05-03T10:25:21.63Z</time></trkpt><trkpt lat="45.0259917" lon="9.29287"><ele>199.0</ele><time>2026-05-03T10:25:22.63Z</time></trkpt><trkpt lat="45.0260967" lon="9.292825"><ele>199.0</ele><time>2026-05-03T10:25:23.63Z</time></trkpt><trkpt lat="45.0262017" lon="9.2927817"><ele>199.0</ele><time>2026-05-03T10:25:24.63Z</time></trkpt><trkpt lat="45.0263067" lon="9.2927417"><ele>199.0</ele><time>2026-05-03T10:25:25.629Z</time></trkpt><trkpt lat="45.0264083" lon="9.2926967"><ele>199.0</ele><time>2026-05-03T10:25:26.63Z</time></trkpt><trkpt lat="45.0265083" lon="9.2926467"><ele>199.0</ele><time>2026-05-03T10:25:27.629Z</time></trkpt><trkpt lat="45.026605" lon="9.2925833"><ele>199.0</ele><time>2026-05-03T10:25:28.632Z</time></trkpt><trkpt lat="45.0266933" lon="9.292515"><ele>199.6</ele><time>2026-05-03T10:25:29.628Z</time></trkpt><trkpt lat="45.02678" lon="9.2924417"><ele>200.2</ele><time>2026-05-03T10:25:30.628Z</time></trkpt><trkpt lat="45.026855" lon="9.292335"><ele>200.79999999999998</ele><time>2026-05-03T10:25:31.629Z</time></trkpt><trkpt lat="45.0269467" lon="9.2922467"><ele>201.39999999999998</ele><time>2026-05-03T10:25:32.629Z</time></trkpt><trkpt lat="45.0270183" lon="9.2921767"><ele>202.0</ele><time>2026-05-03T10:25:33.631Z</time></trkpt><trkpt lat="45.02707" lon="9.2920917"><ele>203.49999999999997</ele><time>2026-05-03T10:25:34.629Z</time></trkpt><trkpt lat="45.0270983" lon="9.2920017"><ele>205.0</ele><time>2026-05-03T10:25:35.629Z</time></trkpt><trkpt lat="45.0271017" lon="9.2919117"><ele>206.5</ele><time>2026-05-03T10:25:36.629Z</time></trkpt><trkpt lat="45.0270833" lon="9.29182"><ele>208.0</ele><time>2026-05-03T10:25:37.63Z</time></trkpt><trkpt lat="45.027045" lon="9.2917467"><ele>209.49999999999997</ele><time>2026-05-03T10:25:38.632Z</time></trkpt><trkpt lat="45.02692" lon="9.2916667"><ele>211.0</ele><time>2026-05-03T10:25:40.63Z</time></trkpt><trkpt lat="45.02683" lon="9.2916767"><ele>210.99999999999997</ele><time>2026-05-03T10:25:41.628Z</time></trkpt><trkpt lat="45.0267417" lon="9.2917133"><ele>211.0</ele><time>2026-05-03T10:25:42.629Z</time></trkpt><trkpt lat="45.026655" lon="9.2917467"><ele>211.0</ele><time>2026-05-03T10:25:43.628Z</time></trkpt><trkpt lat="45.02657" lon="9.291745"><ele>211.0</ele><time>2026-05-03T10:25:44.629Z</time></trkpt><trkpt lat="45.0264883" lon="9.29172"><ele>210.99999999999997</ele><time>2026-05-03T10:25:45.629Z</time></trkpt><trkpt lat="45.0264217" lon="9.2916533"><ele>211.0</ele><time>2026-05-03T10:25:46.628Z</time></trkpt><trkpt lat="45.0263633" lon="9.2915683"><ele>210.49999999999997</ele><time>2026-05-03T10:25:47.629Z</time></trkpt><trkpt lat="45.0263333" lon="9.29144"><ele>210.0</ele><time>2026-05-03T10:25:48.629Z</time></trkpt><trkpt lat="45.02634" lon="9.2913183"><ele>209.5</ele><time>2026-05-03T10:25:49.628Z</time></trkpt><trkpt lat="45.0263617" lon="9.2912217"><ele>209.0</ele><time>2026-05-03T10:25:50.63Z</time></trkpt><trkpt lat="45.02642" lon="9.2911333"><ele>208.49999999999997</ele><time>2026-05-03T10:25:51.629Z</time></trkpt><trkpt lat="45.0264883" lon="9.29105"><ele>208.0</ele><time>2026-05-03T10:25:52.63Z</time></trkpt><trkpt lat="45.0265533" lon="9.2909617"><ele>209.66666666666666</ele><time>2026-05-03T10:25:53.631Z</time></trkpt><trkpt lat="45.0266067" lon="9.2908633"><ele>211.33333333333331</ele><time>2026-05-03T10:25:54.631Z</time></trkpt><trkpt lat="45.0266367" lon="9.290745"><ele>213.0</ele><time>2026-05-03T10:25:55.631Z</time></trkpt><trkpt lat="45.0266383" lon="9.2906167"><ele>214.66666666666669</ele><time>2026-05-03T10:25:56.631Z</time></trkpt><trkpt lat="45.0266217" lon="9.2904883"><ele>216.33333333333334</ele><time>2026-05-03T10:25:57.629Z</time></trkpt><trkpt lat="45.0265983" lon="9.2903667"><ele>218.0</ele><time>2026-05-03T10:25:58.629Z</time></trkpt><trkpt lat="45.0265767" lon="9.2902467"><ele>220.2</ele><time>2026-05-03T10:25:59.629Z</time></trkpt><trkpt lat="45.0265567" lon="9.2901333"><ele>222.4</ele><time>2026-05-03T10:26:00.629Z</time></trkpt><trkpt lat="45.026535" lon="9.2900317"><ele>224.59999999999997</ele><time>2026-05-03T10:26:01.629Z</time></trkpt><trkpt lat="45.026505" lon="9.289885"><ele>226.79999999999998</ele><time>2026-05-03T10:26:03.63Z</time></trkpt><trkpt lat="45.0264633" lon="9.28976"><ele>229.0</ele><time>2026-05-03T10:26:05.629Z</time></trkpt><trkpt lat="45.0263733" lon="9.2896633"><ele>229.0</ele><time>2026-05-03T10:26:07.629Z</time></trkpt><trkpt lat="45.0262517" lon="9.2896683"><ele>228.99999999999997</ele><time>2026-05-03T10:26:09.629Z</time></trkpt><trkpt lat="45.0261833" lon="9.2897267"><ele>228.99999999999997</ele><time>2026-05-03T10:26:10.629Z</time></trkpt><trkpt lat="45.0261183" lon="9.2897967"><ele>229.0</ele><time>2026-05-03T10:26:11.629Z</time></trkpt><trkpt lat="45.0260483" lon="9.2898767"><ele>229.0</ele><time>2026-05-03T10:26:12.628Z</time></trkpt><trkpt lat="45.025975" lon="9.2899467"><ele>228.99999999999997</ele><time>2026-05-03T10:26:13.629Z</time></trkpt><trkpt lat="45.0258917" lon="9.2899933"><ele>229.0</ele><time>2026-05-03T10:26:14.63Z</time></trkpt><trkpt lat="45.0257983" lon="9.29"><ele>229.0</ele><time>2026-05-03T10:26:15.629Z</time></trkpt><trkpt lat="45.025715" lon="9.289955"><ele>229.0</ele><time>2026-05-03T10:26:16.629Z</time></trkpt><trkpt lat="45.0256533" lon="9.2898983"><ele>228.99999999999997</ele><time>2026-05-03T10:26:17.629Z</time></trkpt><trkpt lat="45.0256033" lon="9.2898417"><ele>229.0</ele><time>2026-05-03T10:26:18.632Z</time></trkpt><trkpt lat="45.0255167" lon="9.2897517"><ele>230.39999999999998</ele><time>2026-05-03T10:26:20.629Z</time></trkpt><trkpt lat="45.025435" lon="9.28966"><ele>231.79999999999998</ele><time>2026-05-03T10:26:22.63Z</time></trkpt><trkpt lat="45.025345" lon="9.2895583"><ele>233.20000000000002</ele><time>2026-05-03T10:26:24.629Z</time></trkpt><trkpt lat="45.025295" lon="9.2895017"><ele>234.60000000000002</ele><time>2026-05-03T10:26:25.629Z</time></trkpt><trkpt lat="45.0251967" lon="9.2894"><ele>236.0</ele><time>2026-05-03T10:26:27.629Z</time></trkpt><trkpt lat="45.0250983" lon="9.289305"><ele>236.00000000000003</ele><time>2026-05-03T10:26:29.631Z</time></trkpt><trkpt lat="45.025" lon="9.2892017"><ele>236.0</ele><time>2026-05-03T10:26:31.629Z</time></trkpt><trkpt lat="45.02495" lon="9.2891433"><ele>236.0</ele><time>2026-05-03T10:26:32.63Z</time></trkpt><trkpt lat="45.0249033" lon="9.289075"><ele>236.0</ele><time>2026-05-03T10:26:33.629Z</time></trkpt><trkpt lat="45.0248633" lon="9.288995"><ele>236.00000000000003</ele><time>2026-05-03T10:26:34.631Z</time></trkpt><trkpt lat="45.02483" lon="9.288905"><ele>236.0</ele><time>2026-05-03T10:26:35.629Z</time></trkpt><trkpt lat="45.0248033" lon="9.2888033"><ele>236.50000000000003</ele><time>2026-05-03T10:26:36.629Z</time></trkpt><trkpt lat="45.024785" lon="9.2887"><ele>237.0</ele><time>2026-05-03T10:26:37.629Z</time></trkpt><trkpt lat="45.0247633" lon="9.288595"><ele>237.5</ele><time>2026-05-03T10:26:38.629Z</time></trkpt><trkpt lat="45.0247417" lon="9.28849"><ele>238.0</ele><time>2026-05-03T10:26:39.63Z</time></trkpt><trkpt lat="45.0247217" lon="9.2883867"><ele>238.50000000000003</ele><time>2026-05-03T10:26:40.629Z</time></trkpt><trkpt lat="45.024705" lon="9.2882817"><ele>239.0</ele><time>2026-05-03T10:26:41.628Z</time></trkpt><trkpt lat="45.024685" lon="9.28818"><ele>240.39999999999998</ele><time>2026-05-03T10:26:42.629Z</time></trkpt><trkpt lat="45.0246583" lon="9.28809"><ele>241.79999999999998</ele><time>2026-05-03T10:26:43.629Z</time></trkpt><trkpt lat="45.0246167" lon="9.28794"><ele>243.20000000000002</ele><time>2026-05-03T10:26:45.629Z</time></trkpt><trkpt lat="45.0245983" lon="9.2877917"><ele>244.60000000000002</ele><time>2026-05-03T10:26:47.629Z</time></trkpt><trkpt lat="45.0245767" lon="9.2876617"><ele>246.0</ele><time>2026-05-03T10:26:49.629Z</time></trkpt><trkpt lat="45.0245683" lon="9.287565"><ele>246.0</ele><time>2026-05-03T10:26:51.629Z</time></trkpt><trkpt lat="45.0245367" lon="9.28743"><ele>246.00000000000003</ele><time>2026-05-03T10:26:53.63Z</time></trkpt><trkpt lat="45.0244633" lon="9.287275"><ele>246.00000000000003</ele><time>2026-05-03T10:26:55.63Z</time></trkpt><trkpt lat="45.0244217" lon="9.2871867"><ele>246.0</ele><time>2026-05-03T10:26:56.63Z</time></trkpt><trkpt lat="45.0243833" lon="9.2870917"><ele>246.0</ele><time>2026-05-03T10:26:57.63Z</time></trkpt><trkpt lat="45.0243467" lon="9.2869883"><ele>245.66666666666666</ele><time>2026-05-03T10:26:58.629Z</time></trkpt><trkpt lat="45.0243067" lon="9.2868867"><ele>245.33333333333331</ele><time>2026-05-03T10:26:59.629Z</time></trkpt><trkpt lat="45.0242717" lon="9.28679"><ele>245.0</ele><time>2026-05-03T10:27:00.631Z</time></trkpt><trkpt lat="45.0242317" lon="9.2867"><ele>244.66666666666666</ele><time>2026-05-03T10:27:01.63Z</time></trkpt><trkpt lat="45.024185" lon="9.2866217"><ele>244.33333333333331</ele><time>2026-05-03T10:27:02.63Z</time></trkpt><trkpt lat="45.0241383" lon="9.2865533"><ele>244.0</ele><time>2026-05-03T10:27:03.631Z</time></trkpt><trkpt lat="45.0240667" lon="9.2864233"><ele>245.2</ele><time>2026-05-03T10:27:05.63Z</time></trkpt><trkpt lat="45.024025" lon="9.2862867"><ele>246.39999999999998</ele><time>2026-05-03T10:27:07.63Z</time></trkpt><trkpt lat="45.0239683" lon="9.2861533"><ele>247.6</ele><time>2026-05-03T10:27:09.629Z</time></trkpt><trkpt lat="45.0239283" lon="9.2859917"><ele>248.8</ele><time>2026-05-03T10:27:11.629Z</time></trkpt><trkpt lat="45.0239117" lon="9.2859"><ele>250.0</ele><time>2026-05-03T10:27:12.629Z</time></trkpt><trkpt lat="45.0239017" lon="9.285805"><ele>250.0</ele><time>2026-05-03T10:27:13.63Z</time></trkpt><trkpt lat="45.0239" lon="9.2857067"><ele>250.0</ele><time>2026-05-03T10:27:14.629Z</time></trkpt><trkpt lat="45.0238983" lon="9.2856067"><ele>250.0</ele><time>2026-05-03T10:27:15.628Z</time></trkpt><trkpt lat="45.0239" lon="9.28551"><ele>250.0</ele><time>2026-05-03T10:27:16.63Z</time></trkpt><trkpt lat="45.0239017" lon="9.2854133"><ele>250.0</ele><time>2026-05-03T10:27:17.631Z</time></trkpt><trkpt lat="45.0239067" lon="9.28532"><ele>250.0</ele><time>2026-05-03T10:27:18.63Z</time></trkpt><trkpt lat="45.0239083" lon="9.2852217"><ele>250.0</ele><time>2026-05-03T10:27:19.629Z</time></trkpt><trkpt lat="45.0239167" lon="9.285115"><ele>250.71428571428572</ele><time>2026-05-03T10:27:20.631Z</time></trkpt><trkpt lat="45.0239233" lon="9.2850067"><ele>251.42857142857144</ele><time>2026-05-03T10:27:21.63Z</time></trkpt><trkpt lat="45.02393" lon="9.2849167"><ele>252.14285714285717</ele><time>2026-05-03T10:27:22.63Z</time></trkpt><trkpt lat="45.0239483" lon="9.2848267"><ele>252.85714285714286</ele><time>2026-05-03T10:27:23.631Z</time></trkpt><trkpt lat="45.023965" lon="9.2847217"><ele>253.5714285714286</ele><time>2026-05-03T10:27:24.631Z</time></trkpt><trkpt lat="45.0239817" lon="9.28461"><ele>254.2857142857143</ele><time>2026-05-03T10:27:25.631Z</time></trkpt><trkpt lat="45.024" lon="9.2844933"><ele>255.0</ele><time>2026-05-03T10:27:26.631Z</time></trkpt><trkpt lat="45.0240167" lon="9.2843667"><ele>256.6</ele><time>2026-05-03T10:27:27.629Z</time></trkpt><trkpt lat="45.0240333" lon="9.2842367"><ele>258.2</ele><time>2026-05-03T10:27:28.629Z</time></trkpt><trkpt lat="45.0240517" lon="9.2841083"><ele>259.8</ele><time>2026-05-03T10:27:29.63Z</time></trkpt><trkpt lat="45.0240733" lon="9.28397"><ele>261.4</ele><time>2026-05-03T10:27:30.629Z</time></trkpt><trkpt lat="45.0240917" lon="9.2838233"><ele>263.0</ele><time>2026-05-03T10:27:31.629Z</time></trkpt><trkpt lat="45.0241117" lon="9.2836767"><ele>263.6</ele><time>2026-05-03T10:27:32.63Z</time></trkpt><trkpt lat="45.0241317" lon="9.2835333"><ele>264.20000000000005</ele><time>2026-05-03T10:27:33.628Z</time></trkpt><trkpt lat="45.0241567" lon="9.2833917"><ele>264.8</ele><time>2026-05-03T10:27:34.629Z</time></trkpt><trkpt lat="45.024185" lon="9.2832467"><ele>265.40000000000003</ele><time>2026-05-03T10:27:35.629Z</time></trkpt><trkpt lat="45.0242183" lon="9.2830967"><ele>266.0</ele><time>2026-05-03T10:27:36.629Z</time></trkpt><trkpt lat="45.024255" lon="9.2829417"><ele>265.0</ele><time>2026-05-03T10:27:37.628Z</time></trkpt><trkpt lat="45.0242883" lon="9.2827917"><ele>264.0</ele><time>2026-05-03T10:27:38.629Z</time></trkpt><trkpt lat="45.0243217" lon="9.2826417"><ele>263.0</ele><time>2026-05-03T10:27:39.629Z</time></trkpt><trkpt lat="45.0243533" lon="9.2824983"><ele>262.0</ele><time>2026-05-03T10:27:40.629Z</time></trkpt><trkpt lat="45.02438" lon="9.2823617"><ele>261.0</ele><time>2026-05-03T10:27:41.629Z</time></trkpt><trkpt lat="45.0244" lon="9.2822367"><ele>261.0</ele><time>2026-05-03T10:27:42.628Z</time></trkpt><trkpt lat="45.024425" lon="9.28212"><ele>261.0</ele><time>2026-05-03T10:27:43.628Z</time></trkpt><trkpt lat="45.0244533" lon="9.282005"><ele>261.0</ele><time>2026-05-03T10:27:44.63Z</time></trkpt><trkpt lat="45.0244867" lon="9.2818917"><ele>261.0</ele><time>2026-05-03T10:27:45.63Z</time></trkpt><trkpt lat="45.02453" lon="9.2817783"><ele>261.0</ele><time>2026-05-03T10:27:46.63Z</time></trkpt><trkpt lat="45.0245783" lon="9.2816617"><ele>261.0</ele><time>2026-05-03T10:27:47.63Z</time></trkpt><trkpt lat="45.0246167" lon="9.2815317"><ele>262.2</ele><time>2026-05-03T10:27:48.629Z</time></trkpt><trkpt lat="45.024635" lon="9.28139"><ele>263.40000000000003</ele><time>2026-05-03T10:27:49.63Z</time></trkpt><trkpt lat="45.0246383" lon="9.2812383"><ele>264.6</ele><time>2026-05-03T10:27:50.631Z</time></trkpt><trkpt lat="45.0246483" lon="9.28109"><ele>265.8</ele><time>2026-05-03T10:27:51.63Z</time></trkpt><trkpt lat="45.0246683" lon="9.280945"><ele>267.0</ele><time>2026-05-03T10:27:52.63Z</time></trkpt><trkpt lat="45.0246967" lon="9.2808067"><ele>267.0</ele><time>2026-05-03T10:27:53.629Z</time></trkpt><trkpt lat="45.02473" lon="9.2806683"><ele>267.0</ele><time>2026-05-03T10:27:54.63Z</time></trkpt><trkpt lat="45.0247683" lon="9.2805367"><ele>267.0</ele><time>2026-05-03T10:27:55.63Z</time></trkpt><trkpt lat="45.0248067" lon="9.2804017"><ele>267.0</ele><time>2026-05-03T10:27:56.63Z</time></trkpt><trkpt lat="45.02485" lon="9.2802733"><ele>267.0</ele><time>2026-05-03T10:27:57.63Z</time></trkpt><trkpt lat="45.0248967" lon="9.2801517"><ele>267.2</ele><time>2026-05-03T10:27:58.629Z</time></trkpt><trkpt lat="45.0249517" lon="9.2800367"><ele>267.4</ele><time>2026-05-03T10:27:59.629Z</time></trkpt><trkpt lat="45.0250133" lon="9.279925"><ele>267.6</ele><time>2026-05-03T10:28:00.628Z</time></trkpt><trkpt lat="45.0250767" lon="9.2798133"><ele>267.8</ele><time>2026-05-03T10:28:01.629Z</time></trkpt><trkpt lat="45.0251383" lon="9.2796967"><ele>268.0</ele><time>2026-05-03T10:28:02.63Z</time></trkpt><trkpt lat="45.0251967" lon="9.279575"><ele>269.0</ele><time>2026-05-03T10:28:03.63Z</time></trkpt><trkpt lat="45.0252483" lon="9.279445"><ele>270.0</ele><time>2026-05-03T10:28:04.631Z</time></trkpt><trkpt lat="45.0252883" lon="9.279305"><ele>271.0</ele><time>2026-05-03T10:28:05.631Z</time></trkpt><trkpt lat="45.0253267" lon="9.2791583"><ele>272.0</ele><time>2026-05-03T10:28:06.631Z</time></trkpt><trkpt lat="45.025365" lon="9.27901"><ele>273.0</ele><time>2026-05-03T10:28:07.631Z</time></trkpt><trkpt lat="45.0254017" lon="9.2788567"><ele>274.0</ele><time>2026-05-03T10:28:08.631Z</time></trkpt><trkpt lat="45.0254417" lon="9.2787067"><ele>275.0</ele><time>2026-05-03T10:28:09.631Z</time></trkpt><trkpt lat="45.0254817" lon="9.2785583"><ele>276.0</ele><time>2026-05-03T10:28:10.631Z</time></trkpt><trkpt lat="45.0255217" lon="9.2784117"><ele>277.0</ele><time>2026-05-03T10:28:11.63Z</time></trkpt><trkpt lat="45.0255567" lon="9.2782617"><ele>278.0</ele><time>2026-05-03T10:28:12.629Z</time></trkpt><trkpt lat="45.0255917" lon="9.2781167"><ele>278.8</ele><time>2026-05-03T10:28:13.629Z</time></trkpt><trkpt lat="45.02563" lon="9.277975"><ele>279.6</ele><time>2026-05-03T10:28:14.631Z</time></trkpt><trkpt lat="45.0256717" lon="9.2778317"><ele>280.4</ele><time>2026-05-03T10:28:15.629Z</time></trkpt><trkpt lat="45.0257183" lon="9.277685"><ele>281.2</ele><time>2026-05-03T10:28:16.629Z</time></trkpt><trkpt lat="45.0257667" lon="9.2775417"><ele>282.0</ele><time>2026-05-03T10:28:17.629Z</time></trkpt><trkpt lat="45.0258233" lon="9.2774017"><ele>282.0</ele><time>2026-05-03T10:28:18.63Z</time></trkpt><trkpt lat="45.025885" lon="9.277265"><ele>282.0</ele><time>2026-05-03T10:28:19.629Z</time></trkpt><trkpt lat="45.0259483" lon="9.2771317"><ele>282.0</ele><time>2026-05-03T10:28:20.63Z</time></trkpt><trkpt lat="45.0260117" lon="9.277"><ele>282.0</ele><time>2026-05-03T10:28:21.631Z</time></trkpt><trkpt lat="45.02607" lon="9.2768633"><ele>282.0</ele><time>2026-05-03T10:28:22.63Z</time></trkpt><trkpt lat="45.0261133" lon="9.27672"><ele>282.0</ele><time>2026-05-03T10:28:23.63Z</time></trkpt><trkpt lat="45.026145" lon="9.276565"><ele>282.0</ele><time>2026-05-03T10:28:24.631Z</time></trkpt><trkpt lat="45.02617" lon="9.2764067"><ele>282.0</ele><time>2026-05-03T10:28:25.63Z</time></trkpt><trkpt lat="45.0261917" lon="9.2762433"><ele>282.25</ele><time>2026-05-03T10:28:26.63Z</time></trkpt><trkpt lat="45.0261983" lon="9.2760783"><ele>282.5</ele><time>2026-05-03T10:28:27.63Z</time></trkpt><trkpt lat="45.0261867" lon="9.2759167"><ele>282.75</ele><time>2026-05-03T10:28:28.629Z</time></trkpt><trkpt lat="45.0261567" lon="9.2757617"><ele>283.0</ele><time>2026-05-03T10:28:29.63Z</time></trkpt><trkpt lat="45.0261167" lon="9.2756233"><ele>282.4</ele><time>2026-05-03T10:28:30.629Z</time></trkpt><trkpt lat="45.0260817" lon="9.2754967"><ele>281.8</ele><time>2026-05-03T10:28:31.63Z</time></trkpt><trkpt lat="45.0260467" lon="9.27538"><ele>281.2</ele><time>2026-05-03T10:28:32.63Z</time></trkpt><trkpt lat="45.026015" lon="9.275275"><ele>280.6</ele><time>2026-05-03T10:28:33.631Z</time></trkpt><trkpt lat="45.02599" lon="9.2751833"><ele>280.0</ele><time>2026-05-03T10:28:34.629Z</time></trkpt><trkpt lat="45.025965" lon="9.2750117"><ele>280.0</ele><time>2026-05-03T10:28:36.629Z</time></trkpt><trkpt lat="45.0259683" lon="9.2749033"><ele>280.0</ele><time>2026-05-03T10:28:37.629Z</time></trkpt><trkpt lat="45.02598" lon="9.2747767"><ele>280.0</ele><time>2026-05-03T10:28:38.629Z</time></trkpt><trkpt lat="45.0259967" lon="9.2746383"><ele>280.0</ele><time>2026-05-03T10:28:39.63Z</time></trkpt><trkpt lat="45.0260183" lon="9.2744917"><ele>280.0</ele><time>2026-05-03T10:28:40.629Z</time></trkpt><trkpt lat="45.0260367" lon="9.2743483"><ele>279.8</ele><time>2026-05-03T10:28:41.629Z</time></trkpt><trkpt lat="45.02606" lon="9.27421"><ele>279.6</ele><time>2026-05-03T10:28:42.629Z</time></trkpt><trkpt lat="45.0260833" lon="9.2740733"><ele>279.4</ele><time>2026-05-03T10:28:43.629Z</time></trkpt><trkpt lat="45.0261083" lon="9.27394"><ele>279.2</ele><time>2026-05-03T10:28:44.63Z</time></trkpt><trkpt lat="45.0261333" lon="9.2738083"><ele>279.0</ele><time>2026-05-03T10:28:45.629Z</time></trkpt><trkpt lat="45.02616" lon="9.273675"><ele>279.0</ele><time>2026-05-03T10:28:46.63Z</time></trkpt><trkpt lat="45.02619" lon="9.2735417"><ele>279.0</ele><time>2026-05-03T10:28:47.629Z</time></trkpt><trkpt lat="45.0262167" lon="9.2734067"><ele>279.0</ele><time>2026-05-03T10:28:48.63Z</time></trkpt><trkpt lat="45.026245" lon="9.2732767"><ele>279.0</ele><time>2026-05-03T10:28:49.629Z</time></trkpt><trkpt lat="45.0262767" lon="9.2731467"><ele>279.0</ele><time>2026-05-03T10:28:50.631Z</time></trkpt><trkpt lat="45.0263217" lon="9.2730233"><ele>280.4</ele><time>2026-05-03T10:28:51.63Z</time></trkpt><trkpt lat="45.02638" lon="9.27291"><ele>281.79999999999995</ele><time>2026-05-03T10:28:52.629Z</time></trkpt><trkpt lat="45.0264417" lon="9.2728033"><ele>283.20000000000005</ele><time>2026-05-03T10:28:53.629Z</time></trkpt><trkpt lat="45.0265117" lon="9.2727083"><ele>284.6</ele><time>2026-05-03T10:28:54.629Z</time></trkpt><trkpt lat="45.0265733" lon="9.272615"><ele>286.0</ele><time>2026-05-03T10:28:55.63Z</time></trkpt><trkpt lat="45.0266283" lon="9.2725183"><ele>286.8</ele><time>2026-05-03T10:28:56.63Z</time></trkpt><trkpt lat="45.0266883" lon="9.272425"><ele>287.6</ele><time>2026-05-03T10:28:57.629Z</time></trkpt><trkpt lat="45.02675" lon="9.27233"><ele>288.4</ele><time>2026-05-03T10:28:58.629Z</time></trkpt><trkpt lat="45.026805" lon="9.2722233"><ele>289.2</ele><time>2026-05-03T10:28:59.629Z</time></trkpt><trkpt lat="45.0268617" lon="9.27211"><ele>290.0</ele><time>2026-05-03T10:29:00.629Z</time></trkpt><trkpt lat="45.0269" lon="9.27198"><ele>290.0</ele><time>2026-05-03T10:29:01.63Z</time></trkpt><trkpt lat="45.026935" lon="9.27185"><ele>290.0</ele><time>2026-05-03T10:29:02.63Z</time></trkpt><trkpt lat="45.02696" lon="9.2717217"><ele>290.0</ele><time>2026-05-03T10:29:03.631Z</time></trkpt><trkpt lat="45.026985" lon="9.2715983"><ele>290.0</ele><time>2026-05-03T10:29:04.628Z</time></trkpt><trkpt lat="45.027005" lon="9.2714917"><ele>290.0</ele><time>2026-05-03T10:29:05.629Z</time></trkpt><trkpt lat="45.027035" lon="9.271405"><ele>290.0</ele><time>2026-05-03T10:29:06.629Z</time></trkpt><trkpt lat="45.0270783" lon="9.2713367"><ele>288.83333333333337</ele><time>2026-05-03T10:29:07.629Z</time></trkpt><trkpt lat="45.0271267" lon="9.271275"><ele>287.6666666666667</ele><time>2026-05-03T10:29:08.63Z</time></trkpt><trkpt lat="45.0271917" lon="9.2712533"><ele>286.5</ele><time>2026-05-03T10:29:09.628Z</time></trkpt><trkpt lat="45.02727" lon="9.2712567"><ele>285.3333333333333</ele><time>2026-05-03T10:29:10.629Z</time></trkpt><trkpt lat="45.0273517" lon="9.27125"><ele>284.16666666666663</ele><time>2026-05-03T10:29:11.628Z</time></trkpt><trkpt lat="45.0274383" lon="9.271225"><ele>283.0</ele><time>2026-05-03T10:29:12.629Z</time></trkpt><trkpt lat="45.027525" lon="9.2712"><ele>283.0</ele><time>2026-05-03T10:29:13.629Z</time></trkpt><trkpt lat="45.027615" lon="9.2712017"><ele>283.0</ele><time>2026-05-03T10:29:14.63Z</time></trkpt><trkpt lat="45.02771" lon="9.2712217"><ele>283.0</ele><time>2026-05-03T10:29:15.629Z</time></trkpt><trkpt lat="45.0278033" lon="9.2712333"><ele>283.0</ele><time>2026-05-03T10:29:16.629Z</time></trkpt><trkpt lat="45.0279" lon="9.271225"><ele>283.0</ele><time>2026-05-03T10:29:17.629Z</time></trkpt><trkpt lat="45.028" lon="9.2711917"><ele>283.0</ele><time>2026-05-03T10:29:18.63Z</time></trkpt><trkpt lat="45.0280983" lon="9.271135"><ele>283.0</ele><time>2026-05-03T10:29:19.631Z</time></trkpt><trkpt lat="45.0281883" lon="9.2710617"><ele>283.0</ele><time>2026-05-03T10:29:20.631Z</time></trkpt><trkpt lat="45.028265" lon="9.27096"><ele>283.0</ele><time>2026-05-03T10:29:21.63Z</time></trkpt><trkpt lat="45.02834" lon="9.27084"><ele>283.0</ele><time>2026-05-03T10:29:22.63Z</time></trkpt><trkpt lat="45.028405" lon="9.2707067"><ele>282.0</ele><time>2026-05-03T10:29:23.631Z</time></trkpt><trkpt lat="45.0284667" lon="9.27057"><ele>281.0</ele><time>2026-05-03T10:29:24.629Z</time></trkpt><trkpt lat="45.0285183" lon="9.27043"><ele>280.0</ele><time>2026-05-03T10:29:25.629Z</time></trkpt><trkpt lat="45.0285633" lon="9.2702917"><ele>279.0</ele><time>2026-05-03T10:29:26.63Z</time></trkpt><trkpt lat="45.0286033" lon="9.2701517"><ele>278.0</ele><time>2026-05-03T10:29:27.63Z</time></trkpt><trkpt lat="45.0286383" lon="9.270015"><ele>278.0</ele><time>2026-05-03T10:29:28.63Z</time></trkpt><trkpt lat="45.0286583" lon="9.2698767"><ele>278.0</ele><time>2026-05-03T10:29:29.629Z</time></trkpt><trkpt lat="45.02867" lon="9.2697317"><ele>278.0</ele><time>2026-05-03T10:29:30.629Z</time></trkpt><trkpt lat="45.02866" lon="9.2695917"><ele>278.0</ele><time>2026-05-03T10:29:31.629Z</time></trkpt><trkpt lat="45.0286267" lon="9.2694633"><ele>278.0</ele><time>2026-05-03T10:29:32.63Z</time></trkpt><trkpt lat="45.0285817" lon="9.269345"><ele>276.4</ele><time>2026-05-03T10:29:33.629Z</time></trkpt><trkpt lat="45.0285333" lon="9.2692317"><ele>274.8</ele><time>2026-05-03T10:29:34.629Z</time></trkpt><trkpt lat="45.0284633" lon="9.2691333"><ele>273.2</ele><time>2026-05-03T10:29:35.63Z</time></trkpt><trkpt lat="45.0283883" lon="9.269055"><ele>271.6</ele><time>2026-05-03T10:29:36.63Z</time></trkpt><trkpt lat="45.028305" lon="9.2689967"><ele>270.0</ele><time>2026-05-03T10:29:37.629Z</time></trkpt><trkpt lat="45.02823" lon="9.2689367"><ele>268.8333333333333</ele><time>2026-05-03T10:29:38.63Z</time></trkpt><trkpt lat="45.028165" lon="9.2688583"><ele>267.6666666666667</ele><time>2026-05-03T10:29:39.63Z</time></trkpt><trkpt lat="45.0281317" lon="9.2687567"><ele>266.5</ele><time>2026-05-03T10:29:40.629Z</time></trkpt><trkpt lat="45.0281317" lon="9.2686483"><ele>265.33333333333337</ele><time>2026-05-03T10:29:41.629Z</time></trkpt><trkpt lat="45.0281717" lon="9.2685433"><ele>264.1666666666667</ele><time>2026-05-03T10:29:42.628Z</time></trkpt><trkpt lat="45.0282317" lon="9.2684633"><ele>263.0</ele><time>2026-05-03T10:29:43.629Z</time></trkpt><trkpt lat="45.02831" lon="9.2684183"><ele>263.0</ele><time>2026-05-03T10:29:44.63Z</time></trkpt><trkpt lat="45.0284017" lon="9.2683883"><ele>263.0</ele><time>2026-05-03T10:29:45.629Z</time></trkpt><trkpt lat="45.028495" lon="9.268355"><ele>263.0</ele><time>2026-05-03T10:29:46.629Z</time></trkpt><trkpt lat="45.02859" lon="9.268325"><ele>263.0</ele><time>2026-05-03T10:29:47.629Z</time></trkpt><trkpt lat="45.0286817" lon="9.2682967"><ele>263.0</ele><time>2026-05-03T10:29:48.63Z</time></trkpt><trkpt lat="45.02877" lon="9.2682733"><ele>263.0</ele><time>2026-05-03T10:29:49.63Z</time></trkpt><trkpt lat="45.0288567" lon="9.2682517"><ele>263.0</ele><time>2026-05-03T10:29:50.63Z</time></trkpt><trkpt lat="45.0289417" lon="9.2682367"><ele>263.0</ele><time>2026-05-03T10:29:51.63Z</time></trkpt><trkpt lat="45.0290217" lon="9.268245"><ele>263.0</ele><time>2026-05-03T10:29:52.63Z</time></trkpt><trkpt lat="45.029095" lon="9.2682817"><ele>263.0</ele><time>2026-05-03T10:29:53.631Z</time></trkpt><trkpt lat="45.029165" lon="9.2683317"><ele>263.0</ele><time>2026-05-03T10:29:54.631Z</time></trkpt><trkpt lat="45.02924" lon="9.2683867"><ele>262.83333333333337</ele><time>2026-05-03T10:29:55.633Z</time></trkpt><trkpt lat="45.0293183" lon="9.2684417"><ele>262.6666666666667</ele><time>2026-05-03T10:29:56.631Z</time></trkpt><trkpt lat="45.029395" lon="9.2685033"><ele>262.5</ele><time>2026-05-03T10:29:57.629Z</time></trkpt><trkpt lat="45.0294667" lon="9.2685683"><ele>262.3333333333333</ele><time>2026-05-03T10:29:58.629Z</time></trkpt><trkpt lat="45.0295367" lon="9.268635"><ele>262.16666666666663</ele><time>2026-05-03T10:29:59.629Z</time></trkpt><trkpt lat="45.029605" lon="9.2687033"><ele>262.0</ele><time>2026-05-03T10:30:00.631Z</time></trkpt><trkpt lat="45.029675" lon="9.26877"><ele>262.0</ele><time>2026-05-03T10:30:01.63Z</time></trkpt><trkpt lat="45.029745" lon="9.2688383"><ele>262.0</ele><time>2026-05-03T10:30:02.63Z</time></trkpt><trkpt lat="45.0298133" lon="9.2689083"><ele>262.0</ele><time>2026-05-03T10:30:03.63Z</time></trkpt><trkpt lat="45.0298867" lon="9.2689683"><ele>262.0</ele><time>2026-05-03T10:30:04.63Z</time></trkpt><trkpt lat="45.0299583" lon="9.269025"><ele>262.0</ele><time>2026-05-03T10:30:05.63Z</time></trkpt><trkpt lat="45.03003" lon="9.2690683"><ele>262.0</ele><time>2026-05-03T10:30:06.63Z</time></trkpt><trkpt lat="45.030105" lon="9.2691"><ele>262.66666666666663</ele><time>2026-05-03T10:30:07.629Z</time></trkpt><trkpt lat="45.0301817" lon="9.2691267"><ele>263.3333333333333</ele><time>2026-05-03T10:30:08.63Z</time></trkpt><trkpt lat="45.0302533" lon="9.26915"><ele>264.0</ele><time>2026-05-03T10:30:09.63Z</time></trkpt><trkpt lat="45.0303283" lon="9.2691833"><ele>264.6666666666667</ele><time>2026-05-03T10:30:10.629Z</time></trkpt><trkpt lat="45.0304033" lon="9.2691967"><ele>265.33333333333337</ele><time>2026-05-03T10:30:11.629Z</time></trkpt><trkpt lat="45.0304767" lon="9.269205"><ele>266.0</ele><time>2026-05-03T10:30:12.631Z</time></trkpt><trkpt lat="45.0305467" lon="9.269235"><ele>266.0</ele><time>2026-05-03T10:30:13.629Z</time></trkpt><trkpt lat="45.0306733" lon="9.269175"><ele>266.0</ele><time>2026-05-03T10:30:14.628Z</time></trkpt><trkpt lat="45.0307433" lon="9.26902"><ele>266.0</ele><time>2026-05-03T10:30:15.629Z</time></trkpt><trkpt lat="45.03077" lon="9.2689117"><ele>266.0</ele><time>2026-05-03T10:30:16.628Z</time></trkpt><trkpt lat="45.0308517" lon="9.2688967"><ele>266.0</ele><time>2026-05-03T10:30:17.631Z</time></trkpt><trkpt lat="45.03093" lon="9.268875"><ele>264.0</ele><time>2026-05-03T10:30:18.628Z</time></trkpt><trkpt lat="45.0310183" lon="9.2688617"><ele>262.0</ele><time>2026-05-03T10:30:19.628Z</time></trkpt><trkpt lat="45.031115" lon="9.2688617"><ele>260.0</ele><time>2026-05-03T10:30:20.652Z</time></trkpt><trkpt lat="45.03121" lon="9.2688567"><ele>258.0</ele><time>2026-05-03T10:30:21.628Z</time></trkpt><trkpt lat="45.0312983" lon="9.268845"><ele>256.0</ele><time>2026-05-03T10:30:22.627Z</time></trkpt><trkpt lat="45.0313867" lon="9.2688017"><ele>256.0</ele><time>2026-05-03T10:30:23.629Z</time></trkpt><trkpt lat="45.0314733" lon="9.2687433"><ele>256.0</ele><time>2026-05-03T10:30:24.629Z</time></trkpt><trkpt lat="45.03156" lon="9.2686783"><ele>256.0</ele><time>2026-05-03T10:30:25.631Z</time></trkpt><trkpt lat="45.0316367" lon="9.2686"><ele>256.0</ele><time>2026-05-03T10:30:26.629Z</time></trkpt><trkpt lat="45.0317183" lon="9.2685183"><ele>256.0</ele><time>2026-05-03T10:30:27.628Z</time></trkpt><trkpt lat="45.0318033" lon="9.2684367"><ele>254.60000000000002</ele><time>2026-05-03T10:30:28.628Z</time></trkpt><trkpt lat="45.03189" lon="9.268345"><ele>253.20000000000002</ele><time>2026-05-03T10:30:29.629Z</time></trkpt><trkpt lat="45.03197" lon="9.2682433"><ele>251.79999999999998</ele><time>2026-05-03T10:30:30.629Z</time></trkpt><trkpt lat="45.0320533" lon="9.2681433"><ele>250.39999999999998</ele><time>2026-05-03T10:30:31.628Z</time></trkpt><trkpt lat="45.032135" lon="9.26804"><ele>249.0</ele><time>2026-05-03T10:30:32.631Z</time></trkpt><trkpt lat="45.03222" lon="9.2679317"><ele>249.0</ele><time>2026-05-03T10:30:33.629Z</time></trkpt><trkpt lat="45.0323" lon="9.2678383"><ele>248.99999999999997</ele><time>2026-05-03T10:30:34.629Z</time></trkpt><trkpt lat="45.0323783" lon="9.2677683"><ele>248.99999999999997</ele><time>2026-05-03T10:30:35.629Z</time></trkpt><trkpt lat="45.032455" lon="9.2676967"><ele>249.0</ele><time>2026-05-03T10:30:36.63Z</time></trkpt><trkpt lat="45.032535" lon="9.2676283"><ele>249.0</ele><time>2026-05-03T10:30:37.629Z</time></trkpt><trkpt lat="45.0326167" lon="9.26756"><ele>251.6</ele><time>2026-05-03T10:30:38.63Z</time></trkpt><trkpt lat="45.0326917" lon="9.2674733"><ele>254.2</ele><time>2026-05-03T10:30:39.63Z</time></trkpt><trkpt lat="45.0327483" lon="9.2673633"><ele>256.79999999999995</ele><time>2026-05-03T10:30:40.629Z</time></trkpt><trkpt lat="45.032795" lon="9.26723"><ele>259.4</ele><time>2026-05-03T10:30:41.628Z</time></trkpt><trkpt lat="45.032825" lon="9.2670833"><ele>262.0</ele><time>2026-05-03T10:30:42.629Z</time></trkpt><trkpt lat="45.0328533" lon="9.2669417"><ele>262.0</ele><time>2026-05-03T10:30:43.629Z</time></trkpt><trkpt lat="45.0328817" lon="9.2668083"><ele>262.0</ele><time>2026-05-03T10:30:44.629Z</time></trkpt><trkpt lat="45.032915" lon="9.2666817"><ele>262.0</ele><time>2026-05-03T10:30:45.629Z</time></trkpt><trkpt lat="45.0329583" lon="9.266575"><ele>262.0</ele><time>2026-05-03T10:30:46.628Z</time></trkpt><trkpt lat="45.033015" lon="9.2664883"><ele>262.0</ele><time>2026-05-03T10:30:47.628Z</time></trkpt><trkpt lat="45.0330767" lon="9.26642"><ele>262.0</ele><time>2026-05-03T10:30:48.628Z</time></trkpt><trkpt lat="45.033145" lon="9.266375"><ele>259.3333333333333</ele><time>2026-05-03T10:30:49.628Z</time></trkpt><trkpt lat="45.0332233" lon="9.266355"><ele>256.66666666666663</ele><time>2026-05-03T10:30:50.63Z</time></trkpt><trkpt lat="45.0333083" lon="9.2663433"><ele>254.0</ele><time>2026-05-03T10:30:51.63Z</time></trkpt><trkpt lat="45.0333967" lon="9.26635"><ele>251.33333333333331</ele><time>2026-05-03T10:30:52.63Z</time></trkpt><trkpt lat="45.0334883" lon="9.2663667"><ele>248.66666666666666</ele><time>2026-05-03T10:30:53.632Z</time></trkpt><trkpt lat="45.033585" lon="9.2664017"><ele>246.0</ele><time>2026-05-03T10:30:54.63Z</time></trkpt><trkpt lat="45.0336783" lon="9.2664383"><ele>251.0</ele><time>2026-05-03T10:30:55.631Z</time></trkpt><trkpt lat="45.0337717" lon="9.2664817"><ele>256.0</ele><time>2026-05-03T10:30:56.631Z</time></trkpt><trkpt lat="45.0338617" lon="9.2665183"><ele>261.0</ele><time>2026-05-03T10:30:57.628Z</time></trkpt><trkpt lat="45.0339483" lon="9.2665583"><ele>266.0</ele><time>2026-05-03T10:30:58.629Z</time></trkpt><trkpt lat="45.03403" lon="9.2666"><ele>271.0</ele><time>2026-05-03T10:30:59.63Z</time></trkpt><trkpt lat="45.0340983" lon="9.2666617"><ele>268.66666666666663</ele><time>2026-05-03T10:31:00.63Z</time></trkpt><trkpt lat="45.034155" lon="9.26675"><ele>266.3333333333333</ele><time>2026-05-03T10:31:01.63Z</time></trkpt><trkpt lat="45.0342067" lon="9.26684"><ele>264.0</ele><time>2026-05-03T10:31:02.631Z</time></trkpt><trkpt lat="45.0342533" lon="9.266935"><ele>261.6666666666667</ele><time>2026-05-03T10:31:03.631Z</time></trkpt><trkpt lat="45.0342983" lon="9.26703"><ele>259.33333333333337</ele><time>2026-05-03T10:31:04.631Z</time></trkpt><trkpt lat="45.0343467" lon="9.267125"><ele>257.0</ele><time>2026-05-03T10:31:05.631Z</time></trkpt><trkpt lat="45.0343933" lon="9.2672183"><ele>258.85714285714283</ele><time>2026-05-03T10:31:06.631Z</time></trkpt><trkpt lat="45.03444" lon="9.2673117"><ele>260.7142857142857</ele><time>2026-05-03T10:31:07.631Z</time></trkpt><trkpt lat="45.0344833" lon="9.2674067"><ele>262.57142857142856</ele><time>2026-05-03T10:31:08.632Z</time></trkpt><trkpt lat="45.034525" lon="9.2674933"><ele>264.42857142857144</ele><time>2026-05-03T10:31:09.63Z</time></trkpt><trkpt lat="45.0345667" lon="9.2675717"><ele>266.2857142857143</ele><time>2026-05-03T10:31:10.63Z</time></trkpt><trkpt lat="45.0346117" lon="9.267645"><ele>268.1428571428571</ele><time>2026-05-03T10:31:11.629Z</time></trkpt><trkpt lat="45.034665" lon="9.2677167"><ele>270.0</ele><time>2026-05-03T10:31:12.63Z</time></trkpt><trkpt lat="45.034725" lon="9.2677883"><ele>270.0</ele><time>2026-05-03T10:31:13.63Z</time></trkpt><trkpt lat="45.0347883" lon="9.2678583"><ele>270.0</ele><time>2026-05-03T10:31:14.629Z</time></trkpt><trkpt lat="45.0348517" lon="9.2679233"><ele>270.0</ele><time>2026-05-03T10:31:15.63Z</time></trkpt><trkpt lat="45.0349133" lon="9.2679867"><ele>270.0</ele><time>2026-05-03T10:31:16.631Z</time></trkpt><trkpt lat="45.0349733" lon="9.2680617"><ele>270.0</ele><time>2026-05-03T10:31:17.63Z</time></trkpt><trkpt lat="45.0350317" lon="9.2681433"><ele>270.0</ele><time>2026-05-03T10:31:18.628Z</time></trkpt><trkpt lat="45.0350883" lon="9.2682367"><ele>267.8333333333333</ele><time>2026-05-03T10:31:19.629Z</time></trkpt><trkpt lat="45.035145" lon="9.2683333"><ele>265.6666666666667</ele><time>2026-05-03T10:31:20.629Z</time></trkpt><trkpt lat="45.0352017" lon="9.2684283"><ele>263.5</ele><time>2026-05-03T10:31:21.63Z</time></trkpt><trkpt lat="45.03526" lon="9.2685133"><ele>261.33333333333337</ele><time>2026-05-03T10:31:22.629Z</time></trkpt><trkpt lat="45.0353283" lon="9.268585"><ele>259.1666666666667</ele><time>2026-05-03T10:31:23.629Z</time></trkpt><trkpt lat="45.0354017" lon="9.2686433"><ele>257.0</ele><time>2026-05-03T10:31:24.629Z</time></trkpt><trkpt lat="45.0354817" lon="9.26869"><ele>257.0</ele><time>2026-05-03T10:31:25.63Z</time></trkpt><trkpt lat="45.0355683" lon="9.2687317"><ele>257.0</ele><time>2026-05-03T10:31:26.629Z</time></trkpt><trkpt lat="45.035655" lon="9.2687767"><ele>257.0</ele><time>2026-05-03T10:31:27.629Z</time></trkpt><trkpt lat="45.0357433" lon="9.2688233"><ele>257.0</ele><time>2026-05-03T10:31:28.629Z</time></trkpt><trkpt lat="45.0358367" lon="9.2688667"><ele>257.0</ele><time>2026-05-03T10:31:29.629Z</time></trkpt><trkpt lat="45.0359267" lon="9.2689117"><ele>255.8</ele><time>2026-05-03T10:31:30.63Z</time></trkpt><trkpt lat="45.0360217" lon="9.2689533"><ele>254.6</ele><time>2026-05-03T10:31:31.629Z</time></trkpt><trkpt lat="45.0361217" lon="9.268985"><ele>253.40000000000003</ele><time>2026-05-03T10:31:32.63Z</time></trkpt><trkpt lat="45.03623" lon="9.269005"><ele>252.20000000000002</ele><time>2026-05-03T10:31:33.63Z</time></trkpt><trkpt lat="45.0363433" lon="9.2690083"><ele>251.0</ele><time>2026-05-03T10:31:34.629Z</time></trkpt><trkpt lat="45.0364567" lon="9.269005"><ele>251.0</ele><time>2026-05-03T10:31:35.629Z</time></trkpt><trkpt lat="45.0365717" lon="9.269"><ele>251.00000000000003</ele><time>2026-05-03T10:31:36.629Z</time></trkpt><trkpt lat="45.036685" lon="9.2689967"><ele>251.00000000000003</ele><time>2026-05-03T10:31:37.629Z</time></trkpt><trkpt lat="45.0367883" lon="9.2690083"><ele>251.0</ele><time>2026-05-03T10:31:38.63Z</time></trkpt><trkpt lat="45.036885" lon="9.2690367"><ele>251.0</ele><time>2026-05-03T10:31:39.63Z</time></trkpt><trkpt lat="45.0369667" lon="9.2690883"><ele>248.83333333333334</ele><time>2026-05-03T10:31:40.63Z</time></trkpt><trkpt lat="45.0370367" lon="9.2691683"><ele>246.66666666666669</ele><time>2026-05-03T10:31:41.63Z</time></trkpt><trkpt lat="45.0370933" lon="9.2692633"><ele>244.5</ele><time>2026-05-03T10:31:42.629Z</time></trkpt><trkpt lat="45.037145" lon="9.2693717"><ele>242.33333333333331</ele><time>2026-05-03T10:31:43.629Z</time></trkpt><trkpt lat="45.037195" lon="9.2694783"><ele>240.16666666666666</ele><time>2026-05-03T10:31:44.629Z</time></trkpt><trkpt lat="45.0372433" lon="9.26958"><ele>238.0</ele><time>2026-05-03T10:31:45.629Z</time></trkpt><trkpt lat="45.0372933" lon="9.2696767"><ele>237.99999999999997</ele><time>2026-05-03T10:31:46.629Z</time></trkpt><trkpt lat="45.03735" lon="9.269765"><ele>238.0</ele><time>2026-05-03T10:31:47.63Z</time></trkpt><trkpt lat="45.0374167" lon="9.2698383"><ele>238.0</ele><time>2026-05-03T10:31:48.628Z</time></trkpt><trkpt lat="45.0374833" lon="9.2699067"><ele>238.0</ele><time>2026-05-03T10:31:49.629Z</time></trkpt><trkpt lat="45.0375533" lon="9.2699717"><ele>237.99999999999997</ele><time>2026-05-03T10:31:50.63Z</time></trkpt><trkpt lat="45.0376233" lon="9.2700367"><ele>238.0</ele><time>2026-05-03T10:31:51.63Z</time></trkpt><trkpt lat="45.03769" lon="9.2701033"><ele>236.49999999999997</ele><time>2026-05-03T10:31:52.629Z</time></trkpt><trkpt lat="45.03776" lon="9.2701683"><ele>235.0</ele><time>2026-05-03T10:31:53.63Z</time></trkpt><trkpt lat="45.03783" lon="9.2702233"><ele>233.5</ele><time>2026-05-03T10:31:54.63Z</time></trkpt><trkpt lat="45.0379033" lon="9.2702633"><ele>232.0</ele><time>2026-05-03T10:31:55.629Z</time></trkpt><trkpt lat="45.0379783" lon="9.270295"><ele>230.49999999999997</ele><time>2026-05-03T10:31:56.63Z</time></trkpt><trkpt lat="45.0380533" lon="9.2703183"><ele>229.0</ele><time>2026-05-03T10:31:57.63Z</time></trkpt><trkpt lat="45.0381333" lon="9.2703367"><ele>228.99999999999997</ele><time>2026-05-03T10:31:58.63Z</time></trkpt><trkpt lat="45.0382117" lon="9.2703567"><ele>229.0</ele><time>2026-05-03T10:31:59.63Z</time></trkpt><trkpt lat="45.038295" lon="9.2703767"><ele>229.0</ele><time>2026-05-03T10:32:00.631Z</time></trkpt><trkpt lat="45.03838" lon="9.2703983"><ele>229.0</ele><time>2026-05-03T10:32:01.631Z</time></trkpt><trkpt lat="45.0384667" lon="9.2704233"><ele>228.99999999999997</ele><time>2026-05-03T10:32:02.631Z</time></trkpt><trkpt lat="45.03855" lon="9.2704417"><ele>229.0</ele><time>2026-05-03T10:32:03.63Z</time></trkpt><trkpt lat="45.038635" lon="9.27046"><ele>226.99999999999997</ele><time>2026-05-03T10:32:04.63Z</time></trkpt><trkpt lat="45.0387167" lon="9.27047"><ele>225.0</ele><time>2026-05-03T10:32:05.631Z</time></trkpt><trkpt lat="45.0388" lon="9.270475"><ele>223.0</ele><time>2026-05-03T10:32:06.631Z</time></trkpt><trkpt lat="45.0388833" lon="9.2704783"><ele>221.0</ele><time>2026-05-03T10:32:07.631Z</time></trkpt><trkpt lat="45.0389667" lon="9.27047"><ele>218.99999999999997</ele><time>2026-05-03T10:32:08.631Z</time></trkpt><trkpt lat="45.039055" lon="9.27046"><ele>217.0</ele><time>2026-05-03T10:32:09.631Z</time></trkpt><trkpt lat="45.0391433" lon="9.270435"><ele>215.6</ele><time>2026-05-03T10:32:10.631Z</time></trkpt><trkpt lat="45.039235" lon="9.2704017"><ele>214.2</ele><time>2026-05-03T10:32:11.629Z</time></trkpt><trkpt lat="45.0393233" lon="9.2703583"><ele>212.8</ele><time>2026-05-03T10:32:12.629Z</time></trkpt><trkpt lat="45.039415" lon="9.2703067"><ele>211.4</ele><time>2026-05-03T10:32:13.629Z</time></trkpt><trkpt lat="45.0395083" lon="9.2702517"><ele>210.0</ele><time>2026-05-03T10:32:14.631Z</time></trkpt><trkpt lat="45.039595" lon="9.2701917"><ele>210.0</ele><time>2026-05-03T10:32:15.63Z</time></trkpt><trkpt lat="45.0396817" lon="9.2701317"><ele>210.0</ele><time>2026-05-03T10:32:16.63Z</time></trkpt><trkpt lat="45.0397683" lon="9.2700783"><ele>210.0</ele><time>2026-05-03T10:32:17.628Z</time></trkpt><trkpt lat="45.039855" lon="9.2700267"><ele>210.0</ele><time>2026-05-03T10:32:18.628Z</time></trkpt><trkpt lat="45.0399433" lon="9.26998"><ele>210.0</ele><time>2026-05-03T10:32:19.629Z</time></trkpt><trkpt lat="45.0400367" lon="9.2699433"><ele>211.6</ele><time>2026-05-03T10:32:20.63Z</time></trkpt><trkpt lat="45.04013" lon="9.2699233"><ele>213.2</ele><time>2026-05-03T10:32:21.63Z</time></trkpt><trkpt lat="45.040225" lon="9.2699233"><ele>214.8</ele><time>2026-05-03T10:32:22.631Z</time></trkpt><trkpt lat="45.0403217" lon="9.2699317"><ele>216.4</ele><time>2026-05-03T10:32:23.631Z</time></trkpt><trkpt lat="45.0404183" lon="9.269955"><ele>218.0</ele><time>2026-05-03T10:32:24.631Z</time></trkpt><trkpt lat="45.0405183" lon="9.269985"><ele>218.0</ele><time>2026-05-03T10:32:25.631Z</time></trkpt><trkpt lat="45.040615" lon="9.27002"><ele>218.0</ele><time>2026-05-03T10:32:26.631Z</time></trkpt><trkpt lat="45.0407117" lon="9.2700583"><ele>218.0</ele><time>2026-05-03T10:32:27.629Z</time></trkpt><trkpt lat="45.0408117" lon="9.2700967"><ele>218.0</ele><time>2026-05-03T10:32:28.629Z</time></trkpt><trkpt lat="45.0409117" lon="9.2701383"><ele>218.0</ele><time>2026-05-03T10:32:29.63Z</time></trkpt><trkpt lat="45.041015" lon="9.2701817"><ele>218.0</ele><time>2026-05-03T10:32:30.63Z</time></trkpt><trkpt lat="45.04112" lon="9.2702217"><ele>218.0</ele><time>2026-05-03T10:32:31.63Z</time></trkpt><trkpt lat="45.0412267" lon="9.2702567"><ele>218.0</ele><time>2026-05-03T10:32:32.629Z</time></trkpt><trkpt lat="45.0413333" lon="9.270285"><ele>218.0</ele><time>2026-05-03T10:32:33.631Z</time></trkpt><trkpt lat="45.0414367" lon="9.2703067"><ele>218.0</ele><time>2026-05-03T10:32:34.631Z</time></trkpt><trkpt lat="45.0415333" lon="9.2703233"><ele>218.00000000000003</ele><time>2026-05-03T10:32:35.629Z</time></trkpt><trkpt lat="45.0416233" lon="9.2703317"><ele>218.0</ele><time>2026-05-03T10:32:36.63Z</time></trkpt><trkpt lat="45.041705" lon="9.2703383"><ele>218.0</ele><time>2026-05-03T10:32:37.631Z</time></trkpt><trkpt lat="45.041785" lon="9.27034"><ele>218.0</ele><time>2026-05-03T10:32:38.631Z</time></trkpt><trkpt lat="45.041865" lon="9.270335"><ele>218.00000000000003</ele><time>2026-05-03T10:32:39.63Z</time></trkpt><trkpt lat="45.0419467" lon="9.270325"><ele>218.0</ele><time>2026-05-03T10:32:40.631Z</time></trkpt><trkpt lat="45.04203" lon="9.270305"><ele>218.00000000000003</ele><time>2026-05-03T10:32:41.629Z</time></trkpt><trkpt lat="45.042115" lon="9.27028"><ele>218.0</ele><time>2026-05-03T10:32:42.629Z</time></trkpt><trkpt lat="45.0422" lon="9.2702467"><ele>218.0</ele><time>2026-05-03T10:32:43.628Z</time></trkpt><trkpt lat="45.0422833" lon="9.2702133"><ele>218.0</ele><time>2026-05-03T10:32:44.629Z</time></trkpt><trkpt lat="45.0423667" lon="9.270185"><ele>218.00000000000003</ele><time>2026-05-03T10:32:45.629Z</time></trkpt><trkpt lat="45.0424517" lon="9.27015"><ele>218.0</ele><time>2026-05-03T10:32:46.63Z</time></trkpt><trkpt lat="45.0425383" lon="9.2701167"><ele>219.16666666666669</ele><time>2026-05-03T10:32:47.629Z</time></trkpt><trkpt lat="45.0426267" lon="9.2700817"><ele>220.33333333333334</ele><time>2026-05-03T10:32:48.63Z</time></trkpt><trkpt lat="45.0427133" lon="9.2700483"><ele>221.5</ele><time>2026-05-03T10:32:49.629Z</time></trkpt><trkpt lat="45.0427983" lon="9.2700167"><ele>222.66666666666669</ele><time>2026-05-03T10:32:50.63Z</time></trkpt><trkpt lat="45.0428817" lon="9.269985"><ele>223.83333333333334</ele><time>2026-05-03T10:32:51.63Z</time></trkpt><trkpt lat="45.0429717" lon="9.2699567"><ele>225.0</ele><time>2026-05-03T10:32:52.629Z</time></trkpt><trkpt lat="45.043065" lon="9.269935"><ele>225.0</ele><time>2026-05-03T10:32:53.63Z</time></trkpt><trkpt lat="45.0431667" lon="9.2699267"><ele>225.0</ele><time>2026-05-03T10:32:54.629Z</time></trkpt><trkpt lat="45.04327" lon="9.2699317"><ele>225.0</ele><time>2026-05-03T10:32:55.63Z</time></trkpt><trkpt lat="45.0433717" lon="9.269935"><ele>225.0</ele><time>2026-05-03T10:32:56.63Z</time></trkpt><trkpt lat="45.043475" lon="9.2699333"><ele>225.0</ele><time>2026-05-03T10:32:57.629Z</time></trkpt><trkpt lat="45.0435767" lon="9.2699283"><ele>225.2</ele><time>2026-05-03T10:32:58.63Z</time></trkpt><trkpt lat="45.0436783" lon="9.269925"><ele>225.4</ele><time>2026-05-03T10:32:59.631Z</time></trkpt><trkpt lat="45.0437767" lon="9.2699317"><ele>225.60000000000002</ele><time>2026-05-03T10:33:00.63Z</time></trkpt><trkpt lat="45.0438783" lon="9.26995"><ele>225.8</ele><time>2026-05-03T10:33:01.629Z</time></trkpt><trkpt lat="45.0439833" lon="9.2699683"><ele>226.0</ele><time>2026-05-03T10:33:02.63Z</time></trkpt><trkpt lat="45.0440867" lon="9.269975"><ele>227.0</ele><time>2026-05-03T10:33:03.63Z</time></trkpt><trkpt lat="45.0441883" lon="9.26998"><ele>228.00000000000003</ele><time>2026-05-03T10:33:04.63Z</time></trkpt><trkpt lat="45.0442933" lon="9.2699767"><ele>229.00000000000003</ele><time>2026-05-03T10:33:05.63Z</time></trkpt><trkpt lat="45.0443967" lon="9.2699583"><ele>230.0</ele><time>2026-05-03T10:33:06.629Z</time></trkpt><trkpt lat="45.0444983" lon="9.26993"><ele>231.0</ele><time>2026-05-03T10:33:07.63Z</time></trkpt><trkpt lat="45.0446" lon="9.2698917"><ele>231.0</ele><time>2026-05-03T10:33:08.63Z</time></trkpt><trkpt lat="45.0447033" lon="9.2698467"><ele>231.00000000000003</ele><time>2026-05-03T10:33:09.631Z</time></trkpt><trkpt lat="45.0448083" lon="9.2698033"><ele>231.00000000000003</ele><time>2026-05-03T10:33:10.629Z</time></trkpt><trkpt lat="45.044915" lon="9.26977"><ele>231.0</ele><time>2026-05-03T10:33:11.629Z</time></trkpt><trkpt lat="45.045025" lon="9.2697533"><ele>231.0</ele><time>2026-05-03T10:33:12.63Z</time></trkpt><trkpt lat="45.0451317" lon="9.2697567"><ele>231.8</ele><time>2026-05-03T10:33:13.629Z</time></trkpt><trkpt lat="45.0452367" lon="9.2697883"><ele>232.60000000000002</ele><time>2026-05-03T10:33:14.63Z</time></trkpt><trkpt lat="45.0453383" lon="9.26984"><ele>233.4</ele><time>2026-05-03T10:33:15.63Z</time></trkpt><trkpt lat="45.045445" lon="9.269895"><ele>234.2</ele><time>2026-05-03T10:33:16.63Z</time></trkpt><trkpt lat="45.04555" lon="9.26995"><ele>235.0</ele><time>2026-05-03T10:33:17.629Z</time></trkpt><trkpt lat="45.04566" lon="9.270005"><ele>235.0</ele><time>2026-05-03T10:33:18.63Z</time></trkpt><trkpt lat="45.04577" lon="9.2700667"><ele>235.0</ele><time>2026-05-03T10:33:19.629Z</time></trkpt><trkpt lat="45.045875" lon="9.2701233"><ele>235.0</ele><time>2026-05-03T10:33:20.63Z</time></trkpt><trkpt lat="45.0459767" lon="9.2701783"><ele>235.0</ele><time>2026-05-03T10:33:21.63Z</time></trkpt><trkpt lat="45.046075" lon="9.27023"><ele>235.0</ele><time>2026-05-03T10:33:22.63Z</time></trkpt><trkpt lat="45.0461617" lon="9.27028"><ele>234.16666666666666</ele><time>2026-05-03T10:33:23.63Z</time></trkpt><trkpt lat="45.0462333" lon="9.27032"><ele>233.33333333333331</ele><time>2026-05-03T10:33:24.63Z</time></trkpt><trkpt lat="45.0463417" lon="9.270385"><ele>232.5</ele><time>2026-05-03T10:33:26.629Z</time></trkpt><trkpt lat="45.04643" lon="9.2704317"><ele>231.66666666666669</ele><time>2026-05-03T10:33:28.629Z</time></trkpt><trkpt lat="45.0465083" lon="9.270475"><ele>230.83333333333334</ele><time>2026-05-03T10:33:30.629Z</time></trkpt><trkpt lat="45.046575" lon="9.2705033"><ele>230.0</ele><time>2026-05-03T10:33:32.63Z</time></trkpt><trkpt lat="45.0466417" lon="9.27054"><ele>228.6</ele><time>2026-05-03T10:33:34.629Z</time></trkpt><trkpt lat="45.04673" lon="9.2705783"><ele>227.2</ele><time>2026-05-03T10:33:36.629Z</time></trkpt><trkpt lat="45.0468283" lon="9.2706183"><ele>225.8</ele><time>2026-05-03T10:33:38.63Z</time></trkpt><trkpt lat="45.0469383" lon="9.2706483"><ele>224.4</ele><time>2026-05-03T10:33:40.629Z</time></trkpt><trkpt lat="45.0470517" lon="9.2706583"><ele>223.0</ele><time>2026-05-03T10:33:42.631Z</time></trkpt><trkpt lat="45.0471667" lon="9.2706567"><ele>225.49999999999997</ele><time>2026-05-03T10:33:44.631Z</time></trkpt><trkpt lat="45.04729" lon="9.2706483"><ele>228.0</ele><time>2026-05-03T10:33:46.63Z</time></trkpt><trkpt lat="45.047355" lon="9.27064"><ele>230.5</ele><time>2026-05-03T10:33:47.629Z</time></trkpt><trkpt lat="45.0474183" lon="9.27063"><ele>233.0</ele><time>2026-05-03T10:33:48.629Z</time></trkpt><trkpt lat="45.0474817" lon="9.2706233"><ele>235.49999999999997</ele><time>2026-05-03T10:33:49.63Z</time></trkpt><trkpt lat="45.0476067" lon="9.2706133"><ele>238.0</ele><time>2026-05-03T10:33:51.63Z</time></trkpt><trkpt lat="45.0477233" lon="9.2706617"><ele>238.28571428571428</ele><time>2026-05-03T10:33:53.631Z</time></trkpt><trkpt lat="45.0477783" lon="9.2707117"><ele>238.57142857142856</ele><time>2026-05-03T10:33:54.632Z</time></trkpt><trkpt lat="45.0478283" lon="9.2707717"><ele>238.85714285714286</ele><time>2026-05-03T10:33:55.63Z</time></trkpt><trkpt lat="45.047875" lon="9.2708433"><ele>239.14285714285714</ele><time>2026-05-03T10:33:56.632Z</time></trkpt><trkpt lat="45.04791" lon="9.27093"><ele>239.42857142857142</ele><time>2026-05-03T10:33:57.63Z</time></trkpt><trkpt lat="45.0479317" lon="9.2710317"><ele>239.71428571428572</ele><time>2026-05-03T10:33:58.631Z</time></trkpt><trkpt lat="45.0479383" lon="9.2711433"><ele>240.0</ele><time>2026-05-03T10:33:59.63Z</time></trkpt><trkpt lat="45.0479333" lon="9.2712617"><ele>240.0</ele><time>2026-05-03T10:34:00.629Z</time></trkpt><trkpt lat="45.0479283" lon="9.271385"><ele>240.0</ele><time>2026-05-03T10:34:01.631Z</time></trkpt><trkpt lat="45.0479233" lon="9.2715117"><ele>240.0</ele><time>2026-05-03T10:34:02.631Z</time></trkpt><trkpt lat="45.0479217" lon="9.27164"><ele>240.0</ele><time>2026-05-03T10:34:03.63Z</time></trkpt><trkpt lat="45.0479217" lon="9.2717717"><ele>240.0</ele><time>2026-05-03T10:34:04.63Z</time></trkpt><trkpt lat="45.047925" lon="9.2719083"><ele>239.4</ele><time>2026-05-03T10:34:05.63Z</time></trkpt><trkpt lat="45.047935" lon="9.2720483"><ele>238.8</ele><time>2026-05-03T10:34:06.63Z</time></trkpt><trkpt lat="45.0479583" lon="9.2721833"><ele>238.2</ele><time>2026-05-03T10:34:07.63Z</time></trkpt><trkpt lat="45.0479967" lon="9.2723117"><ele>237.6</ele><time>2026-05-03T10:34:08.631Z</time></trkpt><trkpt lat="45.0480483" lon="9.272435"><ele>237.0</ele><time>2026-05-03T10:34:09.629Z</time></trkpt><trkpt lat="45.048115" lon="9.2725467"><ele>236.0</ele><time>2026-05-03T10:34:10.629Z</time></trkpt><trkpt lat="45.0481867" lon="9.27265"><ele>235.0</ele><time>2026-05-03T10:34:11.629Z</time></trkpt><trkpt lat="45.0482567" lon="9.2727483"><ele>234.0</ele><time>2026-05-03T10:34:12.629Z</time></trkpt><trkpt lat="45.0483267" lon="9.2728483"><ele>233.0</ele><time>2026-05-03T10:34:13.629Z</time></trkpt><trkpt lat="45.0484033" lon="9.2729417"><ele>232.0</ele><time>2026-05-03T10:34:14.63Z</time></trkpt><trkpt lat="45.0484867" lon="9.2730367"><ele>231.8</ele><time>2026-05-03T10:34:15.629Z</time></trkpt><trkpt lat="45.0485717" lon="9.2731333"><ele>231.6</ele><time>2026-05-03T10:34:16.629Z</time></trkpt><trkpt lat="45.0486567" lon="9.2732283"><ele>231.40000000000003</ele><time>2026-05-03T10:34:17.63Z</time></trkpt><trkpt lat="45.0487433" lon="9.27333"><ele>231.20000000000002</ele><time>2026-05-03T10:34:18.631Z</time></trkpt><trkpt lat="45.0488233" lon="9.27343"><ele>231.0</ele><time>2026-05-03T10:34:19.631Z</time></trkpt><trkpt lat="45.0488967" lon="9.273525"><ele>231.0</ele><time>2026-05-03T10:34:20.633Z</time></trkpt><trkpt lat="45.0489667" lon="9.2736167"><ele>231.00000000000003</ele><time>2026-05-03T10:34:21.629Z</time></trkpt><trkpt lat="45.04903" lon="9.27371"><ele>231.00000000000003</ele><time>2026-05-03T10:34:22.631Z</time></trkpt><trkpt lat="45.0490917" lon="9.2738033"><ele>231.0</ele><time>2026-05-03T10:34:23.63Z</time></trkpt><trkpt lat="45.049155" lon="9.2738967"><ele>231.0</ele><time>2026-05-03T10:34:24.63Z</time></trkpt><trkpt lat="45.0492117" lon="9.2740017"><ele>230.8</ele><time>2026-05-03T10:34:25.629Z</time></trkpt><trkpt lat="45.0492733" lon="9.2741033"><ele>230.60000000000002</ele><time>2026-05-03T10:34:26.63Z</time></trkpt><trkpt lat="45.0493317" lon="9.274215"><ele>230.4</ele><time>2026-05-03T10:34:27.63Z</time></trkpt><trkpt lat="45.0493883" lon="9.2743367"><ele>230.2</ele><time>2026-05-03T10:34:28.63Z</time></trkpt><trkpt lat="45.0494383" lon="9.2744633"><ele>230.0</ele><time>2026-05-03T10:34:29.63Z</time></trkpt><trkpt lat="45.0494833" lon="9.274595"><ele>230.0</ele><time>2026-05-03T10:34:30.63Z</time></trkpt><trkpt lat="45.0495267" lon="9.2747317"><ele>230.0</ele><time>2026-05-03T10:34:31.63Z</time></trkpt><trkpt lat="45.0495683" lon="9.2748633"><ele>230.0</ele><time>2026-05-03T10:34:32.63Z</time></trkpt><trkpt lat="45.0496067" lon="9.27499"><ele>230.0</ele><time>2026-05-03T10:34:33.631Z</time></trkpt><trkpt lat="45.049645" lon="9.2751167"><ele>230.0</ele><time>2026-05-03T10:34:34.63Z</time></trkpt><trkpt lat="45.04968" lon="9.275245"><ele>228.8</ele><time>2026-05-03T10:34:35.631Z</time></trkpt><trkpt lat="45.0497167" lon="9.275375"><ele>227.6</ele><time>2026-05-03T10:34:36.631Z</time></trkpt><trkpt lat="45.0497533" lon="9.2755083"><ele>226.39999999999998</ele><time>2026-05-03T10:34:37.63Z</time></trkpt><trkpt lat="45.0497933" lon="9.2756433"><ele>225.2</ele><time>2026-05-03T10:34:38.631Z</time></trkpt><trkpt lat="45.0498367" lon="9.27578"><ele>224.0</ele><time>2026-05-03T10:34:39.63Z</time></trkpt><trkpt lat="45.049885" lon="9.2759133"><ele>222.6</ele><time>2026-05-03T10:34:40.63Z</time></trkpt><trkpt lat="45.04994" lon="9.2760383"><ele>221.2</ele><time>2026-05-03T10:34:41.63Z</time></trkpt><trkpt lat="45.049995" lon="9.2761583"><ele>219.79999999999998</ele><time>2026-05-03T10:34:42.63Z</time></trkpt><trkpt lat="45.0500567" lon="9.2762783"><ele>218.39999999999998</ele><time>2026-05-03T10:34:43.628Z</time></trkpt><trkpt lat="45.0501167" lon="9.2763967"><ele>217.0</ele><time>2026-05-03T10:34:44.63Z</time></trkpt><trkpt lat="45.0501683" lon="9.2765267"><ele>219.6</ele><time>2026-05-03T10:34:45.629Z</time></trkpt><trkpt lat="45.0502067" lon="9.27667"><ele>222.2</ele><time>2026-05-03T10:34:46.629Z</time></trkpt><trkpt lat="45.050225" lon="9.27682"><ele>224.8</ele><time>2026-05-03T10:34:47.631Z</time></trkpt><trkpt lat="45.0502283" lon="9.2769717"><ele>227.4</ele><time>2026-05-03T10:34:48.631Z</time></trkpt><trkpt lat="45.05023" lon="9.2771233"><ele>230.0</ele><time>2026-05-03T10:34:49.629Z</time></trkpt><trkpt lat="45.0502317" lon="9.277275"><ele>230.0</ele><time>2026-05-03T10:34:50.63Z</time></trkpt><trkpt lat="45.0502383" lon="9.2774233"><ele>230.0</ele><time>2026-05-03T10:34:51.63Z</time></trkpt><trkpt lat="45.050245" lon="9.2775683"><ele>230.0</ele><time>2026-05-03T10:34:52.63Z</time></trkpt><trkpt lat="45.0502517" lon="9.2777117"><ele>230.0</ele><time>2026-05-03T10:34:53.63Z</time></trkpt><trkpt lat="45.0502633" lon="9.2778533"><ele>230.0</ele><time>2026-05-03T10:34:54.63Z</time></trkpt><trkpt lat="45.0502867" lon="9.2779867"><ele>230.00000000000003</ele><time>2026-05-03T10:34:55.63Z</time></trkpt><trkpt lat="45.0503333" lon="9.2780983"><ele>230.0</ele><time>2026-05-03T10:34:56.63Z</time></trkpt><trkpt lat="45.0503983" lon="9.27819"><ele>230.0</ele><time>2026-05-03T10:34:57.63Z</time></trkpt><trkpt lat="45.0504733" lon="9.27826"><ele>230.0</ele><time>2026-05-03T10:34:58.63Z</time></trkpt><trkpt lat="45.050555" lon="9.2783083"><ele>230.00000000000003</ele><time>2026-05-03T10:34:59.63Z</time></trkpt><trkpt lat="45.0506383" lon="9.2783467"><ele>230.0</ele><time>2026-05-03T10:35:00.63Z</time></trkpt><trkpt lat="45.050725" lon="9.27838"><ele>232.16666666666669</ele><time>2026-05-03T10:35:01.632Z</time></trkpt><trkpt lat="45.0508083" lon="9.278415"><ele>234.33333333333334</ele><time>2026-05-03T10:35:02.629Z</time></trkpt><trkpt lat="45.0508917" lon="9.2784567"><ele>236.5</ele><time>2026-05-03T10:35:03.63Z</time></trkpt><trkpt lat="45.0509683" lon="9.278515"><ele>238.66666666666669</ele><time>2026-05-03T10:35:04.629Z</time></trkpt><trkpt lat="45.051035" lon="9.2785967"><ele>240.83333333333334</ele><time>2026-05-03T10:35:05.629Z</time></trkpt><trkpt lat="45.0510917" lon="9.2786967"><ele>243.0</ele><time>2026-05-03T10:35:06.631Z</time></trkpt><trkpt lat="45.0511467" lon="9.2788"><ele>243.0</ele><time>2026-05-03T10:35:07.629Z</time></trkpt><trkpt lat="45.0512" lon="9.2788933"><ele>243.0</ele><time>2026-05-03T10:35:08.63Z</time></trkpt><trkpt lat="45.051245" lon="9.278985"><ele>243.0</ele><time>2026-05-03T10:35:09.63Z</time></trkpt><trkpt lat="45.05128" lon="9.27908"><ele>243.0</ele><time>2026-05-03T10:35:10.629Z</time></trkpt><trkpt lat="45.0513167" lon="9.2791633"><ele>243.0</ele><time>2026-05-03T10:35:11.629Z</time></trkpt><trkpt lat="45.051365" lon="9.2793033"><ele>243.0</ele><time>2026-05-03T10:35:13.631Z</time></trkpt><trkpt lat="45.05142" lon="9.279395"><ele>243.0</ele><time>2026-05-03T10:35:15.629Z</time></trkpt><trkpt lat="45.0515217" lon="9.2794517"><ele>243.0</ele><time>2026-05-03T10:35:17.63Z</time></trkpt><trkpt lat="45.0515917" lon="9.2794583"><ele>243.0</ele><time>2026-05-03T10:35:18.633Z</time></trkpt><trkpt lat="45.0516683" lon="9.2794717"><ele>243.0</ele><time>2026-05-03T10:35:19.631Z</time></trkpt><trkpt lat="45.051745" lon="9.2794967"><ele>243.0</ele><time>2026-05-03T10:35:20.631Z</time></trkpt><trkpt lat="45.0518267" lon="9.2795217"><ele>243.0</ele><time>2026-05-03T10:35:21.631Z</time></trkpt><trkpt lat="45.05191" lon="9.27955"><ele>243.0</ele><time>2026-05-03T10:35:22.631Z</time></trkpt><trkpt lat="45.051995" lon="9.2795783"><ele>243.0</ele><time>2026-05-03T10:35:23.632Z</time></trkpt><trkpt lat="45.0520767" lon="9.2796117"><ele>243.0</ele><time>2026-05-03T10:35:24.63Z</time></trkpt><trkpt lat="45.0521567" lon="9.27964"><ele>243.0</ele><time>2026-05-03T10:35:25.629Z</time></trkpt><trkpt lat="45.0522333" lon="9.2796567"><ele>243.0</ele><time>2026-05-03T10:35:26.63Z</time></trkpt><trkpt lat="45.0523083" lon="9.27965"><ele>243.0</ele><time>2026-05-03T10:35:27.629Z</time></trkpt><trkpt lat="45.0523967" lon="9.2796283"><ele>242.2</ele><time>2026-05-03T10:35:28.63Z</time></trkpt><trkpt lat="45.052485" lon="9.2795883"><ele>241.4</ele><time>2026-05-03T10:35:29.63Z</time></trkpt><trkpt lat="45.05257" lon="9.2795483"><ele>240.59999999999997</ele><time>2026-05-03T10:35:30.63Z</time></trkpt><trkpt lat="45.052655" lon="9.2795033"><ele>239.79999999999998</ele><time>2026-05-03T10:35:31.63Z</time></trkpt><trkpt lat="45.05274" lon="9.2794583"><ele>239.0</ele><time>2026-05-03T10:35:32.63Z</time></trkpt><trkpt lat="45.0528267" lon="9.27942"><ele>239.00000000000003</ele><time>2026-05-03T10:35:33.629Z</time></trkpt><trkpt lat="45.052915" lon="9.2793867"><ele>239.0</ele><time>2026-05-03T10:35:34.629Z</time></trkpt><trkpt lat="45.0530017" lon="9.27936"><ele>239.0</ele><time>2026-05-03T10:35:35.63Z</time></trkpt><trkpt lat="45.053085" lon="9.279335"><ele>239.0</ele><time>2026-05-03T10:35:36.63Z</time></trkpt><trkpt lat="45.0531717" lon="9.279315"><ele>239.00000000000003</ele><time>2026-05-03T10:35:37.63Z</time></trkpt><trkpt lat="45.0532567" lon="9.279305"><ele>239.0</ele><time>2026-05-03T10:35:38.63Z</time></trkpt><trkpt lat="45.0533283" lon="9.2793017"><ele>238.00000000000003</ele><time>2026-05-03T10:35:39.631Z</time></trkpt><trkpt lat="45.05342" lon="9.2793017"><ele>237.0</ele><time>2026-05-03T10:35:41.629Z</time></trkpt><trkpt lat="45.0534933" lon="9.2793"><ele>236.0</ele><time>2026-05-03T10:35:43.628Z</time></trkpt><trkpt lat="45.053565" lon="9.279305"><ele>235.0</ele><time>2026-05-03T10:35:45.629Z</time></trkpt><trkpt lat="45.0536433" lon="9.2793083"><ele>234.00000000000003</ele><time>2026-05-03T10:35:47.631Z</time></trkpt><trkpt lat="45.0537433" lon="9.27931"><ele>233.0</ele><time>2026-05-03T10:35:49.63Z</time></trkpt><trkpt lat="45.053855" lon="9.2793083"><ele>233.0</ele><time>2026-05-03T10:35:51.629Z</time></trkpt><trkpt lat="45.0539533" lon="9.2792983"><ele>233.0</ele><time>2026-05-03T10:35:53.63Z</time></trkpt><trkpt lat="45.0540517" lon="9.2792983"><ele>233.0</ele><time>2026-05-03T10:35:55.629Z</time></trkpt><trkpt lat="45.0541683" lon="9.2792883"><ele>233.0</ele><time>2026-05-03T10:35:57.628Z</time></trkpt><trkpt lat="45.0542817" lon="9.2792817"><ele>233.0</ele><time>2026-05-03T10:35:59.631Z</time></trkpt><trkpt lat="45.0544" lon="9.27927"><ele>233.25</ele><time>2026-05-03T10:36:01.631Z</time></trkpt><trkpt lat="45.0545233" lon="9.2792583"><ele>233.5</ele><time>2026-05-03T10:36:03.63Z</time></trkpt><trkpt lat="45.054645" lon="9.2792517"><ele>233.75</ele><time>2026-05-03T10:36:05.631Z</time></trkpt><trkpt lat="45.0547567" lon="9.2792483"><ele>234.0</ele><time>2026-05-03T10:36:07.629Z</time></trkpt><trkpt lat="45.0548683" lon="9.27923"><ele>235.66666666666666</ele><time>2026-05-03T10:36:09.63Z</time></trkpt><trkpt lat="45.0549883" lon="9.279235"><ele>237.33333333333331</ele><time>2026-05-03T10:36:11.629Z</time></trkpt><trkpt lat="45.0550517" lon="9.279235"><ele>239.0</ele><time>2026-05-03T10:36:12.629Z</time></trkpt><trkpt lat="45.055115" lon="9.2792367"><ele>240.66666666666666</ele><time>2026-05-03T10:36:13.63Z</time></trkpt><trkpt lat="45.0551817" lon="9.2792433"><ele>242.33333333333331</ele><time>2026-05-03T10:36:14.63Z</time></trkpt><trkpt lat="45.0552567" lon="9.2792583"><ele>244.0</ele><time>2026-05-03T10:36:15.629Z</time></trkpt><trkpt lat="45.0553333" lon="9.27928"><ele>243.99999999999997</ele><time>2026-05-03T10:36:16.629Z</time></trkpt><trkpt lat="45.0554067" lon="9.2792967"><ele>244.0</ele><time>2026-05-03T10:36:17.63Z</time></trkpt><trkpt lat="45.0554867" lon="9.2793183"><ele>244.0</ele><time>2026-05-03T10:36:18.631Z</time></trkpt><trkpt lat="45.0555683" lon="9.2793367"><ele>244.0</ele><time>2026-05-03T10:36:19.63Z</time></trkpt><trkpt lat="45.0556533" lon="9.2793517"><ele>243.99999999999997</ele><time>2026-05-03T10:36:20.63Z</time></trkpt><trkpt lat="45.05574" lon="9.2793683"><ele>244.0</ele><time>2026-05-03T10:36:21.631Z</time></trkpt><trkpt lat="45.05583" lon="9.2793883"><ele>244.39999999999998</ele><time>2026-05-03T10:36:22.63Z</time></trkpt><trkpt lat="45.0559233" lon="9.2794133"><ele>244.79999999999998</ele><time>2026-05-03T10:36:23.631Z</time></trkpt><trkpt lat="45.0560167" lon="9.2794433"><ele>245.20000000000002</ele><time>2026-05-03T10:36:24.63Z</time></trkpt><trkpt lat="45.0561067" lon="9.2794767"><ele>245.60000000000002</ele><time>2026-05-03T10:36:25.629Z</time></trkpt><trkpt lat="45.056195" lon="9.2795067"><ele>246.0</ele><time>2026-05-03T10:36:26.63Z</time></trkpt><trkpt lat="45.05628" lon="9.2795333"><ele>246.0</ele><time>2026-05-03T10:36:27.631Z</time></trkpt><trkpt lat="45.0563683" lon="9.2795683"><ele>246.0</ele><time>2026-05-03T10:36:28.629Z</time></trkpt><trkpt lat="45.0564567" lon="9.2796"><ele>246.0</ele><time>2026-05-03T10:36:29.63Z</time></trkpt><trkpt lat="45.0565433" lon="9.2796233"><ele>246.0</ele><time>2026-05-03T10:36:30.629Z</time></trkpt><trkpt lat="45.0566283" lon="9.279635"><ele>246.0</ele><time>2026-05-03T10:36:31.629Z</time></trkpt><trkpt lat="45.0567167" lon="9.2796333"><ele>246.0</ele><time>2026-05-03T10:36:32.63Z</time></trkpt><trkpt lat="45.056805" lon="9.27963"><ele>245.33333333333334</ele><time>2026-05-03T10:36:33.63Z</time></trkpt><trkpt lat="45.05689" lon="9.2796183"><ele>244.66666666666669</ele><time>2026-05-03T10:36:34.646Z</time></trkpt><trkpt lat="45.0569767" lon="9.279605"><ele>244.0</ele><time>2026-05-03T10:36:35.628Z</time></trkpt><trkpt lat="45.057055" lon="9.2795933"><ele>243.33333333333334</ele><time>2026-05-03T10:36:36.629Z</time></trkpt><trkpt lat="45.0571417" lon="9.2795833"><ele>242.66666666666669</ele><time>2026-05-03T10:36:37.629Z</time></trkpt><trkpt lat="45.0572233" lon="9.279585"><ele>242.0</ele><time>2026-05-03T10:36:38.629Z</time></trkpt><trkpt lat="45.05731" lon="9.2796017"><ele>242.00000000000003</ele><time>2026-05-03T10:36:39.629Z</time></trkpt><trkpt lat="45.0574" lon="9.2796267"><ele>242.0</ele><time>2026-05-03T10:36:40.63Z</time></trkpt><trkpt lat="45.0574867" lon="9.279665"><ele>242.0</ele><time>2026-05-03T10:36:41.629Z</time></trkpt><trkpt lat="45.0575683" lon="9.2797017"><ele>242.0</ele><time>2026-05-03T10:36:42.629Z</time></trkpt><trkpt lat="45.0576483" lon="9.27974"><ele>242.00000000000003</ele><time>2026-05-03T10:36:43.628Z</time></trkpt><trkpt lat="45.0577217" lon="9.27979"><ele>242.0</ele><time>2026-05-03T10:36:44.63Z</time></trkpt><trkpt lat="45.0577833" lon="9.27986"><ele>242.83333333333334</ele><time>2026-05-03T10:36:45.63Z</time></trkpt><trkpt lat="45.0578417" lon="9.279945"><ele>243.66666666666669</ele><time>2026-05-03T10:36:46.63Z</time></trkpt><trkpt lat="45.0578967" lon="9.2800383"><ele>244.5</ele><time>2026-05-03T10:36:47.63Z</time></trkpt><trkpt lat="45.0579517" lon="9.2801317"><ele>245.33333333333331</ele><time>2026-05-03T10:36:48.63Z</time></trkpt><trkpt lat="45.0580033" lon="9.2802267"><ele>246.16666666666666</ele><time>2026-05-03T10:36:49.631Z</time></trkpt><trkpt lat="45.0580567" lon="9.2803183"><ele>247.0</ele><time>2026-05-03T10:36:50.631Z</time></trkpt><trkpt lat="45.0581167" lon="9.2804083"><ele>246.99999999999997</ele><time>2026-05-03T10:36:51.631Z</time></trkpt><trkpt lat="45.0581783" lon="9.280505"><ele>247.0</ele><time>2026-05-03T10:36:52.63Z</time></trkpt><trkpt lat="45.0582433" lon="9.2805967"><ele>247.0</ele><time>2026-05-03T10:36:53.631Z</time></trkpt><trkpt lat="45.0583017" lon="9.2806883"><ele>247.0</ele><time>2026-05-03T10:36:54.63Z</time></trkpt><trkpt lat="45.0583617" lon="9.2807767"><ele>246.99999999999997</ele><time>2026-05-03T10:36:55.629Z</time></trkpt><trkpt lat="45.058415" lon="9.2808733"><ele>247.0</ele><time>2026-05-03T10:36:56.63Z</time></trkpt><trkpt lat="45.0584617" lon="9.2809783"><ele>247.16666666666666</ele><time>2026-05-03T10:36:57.629Z</time></trkpt><trkpt lat="45.05851" lon="9.281085"><ele>247.33333333333331</ele><time>2026-05-03T10:36:58.63Z</time></trkpt><trkpt lat="45.0585617" lon="9.28119"><ele>247.5</ele><time>2026-05-03T10:36:59.629Z</time></trkpt><trkpt lat="45.0586133" lon="9.2812867"><ele>247.66666666666669</ele><time>2026-05-03T10:37:00.63Z</time></trkpt><trkpt lat="45.05867" lon="9.2813783"><ele>247.83333333333334</ele><time>2026-05-03T10:37:01.629Z</time></trkpt><trkpt lat="45.05873" lon="9.2814633"><ele>248.0</ele><time>2026-05-03T10:37:02.63Z</time></trkpt><trkpt lat="45.0587967" lon="9.2815467"><ele>248.0</ele><time>2026-05-03T10:37:03.629Z</time></trkpt><trkpt lat="45.058865" lon="9.2816267"><ele>248.0</ele><time>2026-05-03T10:37:04.63Z</time></trkpt><trkpt lat="45.05894" lon="9.2817017"><ele>248.0</ele><time>2026-05-03T10:37:05.629Z</time></trkpt><trkpt lat="45.0590133" lon="9.2817767"><ele>248.0</ele><time>2026-05-03T10:37:06.63Z</time></trkpt><trkpt lat="45.05909" lon="9.28185"><ele>248.0</ele><time>2026-05-03T10:37:07.631Z</time></trkpt><trkpt lat="45.0591633" lon="9.2819217"><ele>249.60000000000002</ele><time>2026-05-03T10:37:08.629Z</time></trkpt><trkpt lat="45.0592383" lon="9.2819917"><ele>251.20000000000002</ele><time>2026-05-03T10:37:09.63Z</time></trkpt><trkpt lat="45.0593167" lon="9.282055"><ele>252.8</ele><time>2026-05-03T10:37:10.63Z</time></trkpt><trkpt lat="45.0593983" lon="9.2821117"><ele>254.4</ele><time>2026-05-03T10:37:11.631Z</time></trkpt><trkpt lat="45.0594833" lon="9.282165"><ele>256.0</ele><time>2026-05-03T10:37:12.63Z</time></trkpt><trkpt lat="45.0595683" lon="9.282215"><ele>256.0</ele><time>2026-05-03T10:37:13.631Z</time></trkpt><trkpt lat="45.0596567" lon="9.2822633"><ele>256.0</ele><time>2026-05-03T10:37:14.63Z</time></trkpt><trkpt lat="45.0597433" lon="9.2823117"><ele>256.0</ele><time>2026-05-03T10:37:15.629Z</time></trkpt><trkpt lat="45.059835" lon="9.28234"><ele>256.0</ele><time>2026-05-03T10:37:16.631Z</time></trkpt><trkpt lat="45.0599267" lon="9.28235"><ele>256.0</ele><time>2026-05-03T10:37:17.629Z</time></trkpt><trkpt lat="45.0600183" lon="9.2823317"><ele>254.4</ele><time>2026-05-03T10:37:18.631Z</time></trkpt><trkpt lat="45.0601133" lon="9.2822933"><ele>252.8</ele><time>2026-05-03T10:37:19.63Z</time></trkpt><trkpt lat="45.0602033" lon="9.282255"><ele>251.20000000000002</ele><time>2026-05-03T10:37:20.63Z</time></trkpt><trkpt lat="45.0603" lon="9.2822267"><ele>249.60000000000002</ele><time>2026-05-03T10:37:21.631Z</time></trkpt><trkpt lat="45.0604" lon="9.282215"><ele>248.0</ele><time>2026-05-03T10:37:22.63Z</time></trkpt><trkpt lat="45.060495" lon="9.282225"><ele>248.0</ele><time>2026-05-03T10:37:23.631Z</time></trkpt><trkpt lat="45.0605883" lon="9.2822483"><ele>248.0</ele><time>2026-05-03T10:37:24.63Z</time></trkpt><trkpt lat="45.06068" lon="9.282275"><ele>248.0</ele><time>2026-05-03T10:37:25.63Z</time></trkpt><trkpt lat="45.060765" lon="9.2822867"><ele>248.0</ele><time>2026-05-03T10:37:26.631Z</time></trkpt><trkpt lat="45.060855" lon="9.28227"><ele>248.0</ele><time>2026-05-03T10:37:27.63Z</time></trkpt><trkpt lat="45.06094" lon="9.2822267"><ele>251.0</ele><time>2026-05-03T10:37:28.629Z</time></trkpt><trkpt lat="45.0610267" lon="9.2821683"><ele>254.0</ele><time>2026-05-03T10:37:29.63Z</time></trkpt><trkpt lat="45.0611083" lon="9.282105"><ele>257.0</ele><time>2026-05-03T10:37:30.629Z</time></trkpt><trkpt lat="45.06119" lon="9.2820417"><ele>260.0</ele><time>2026-05-03T10:37:31.63Z</time></trkpt><trkpt lat="45.0612667" lon="9.2819633"><ele>263.0</ele><time>2026-05-03T10:37:32.63Z</time></trkpt><trkpt lat="45.061345" lon="9.2818833"><ele>263.0</ele><time>2026-05-03T10:37:33.631Z</time></trkpt><trkpt lat="45.061425" lon="9.2818"><ele>263.0</ele><time>2026-05-03T10:37:34.63Z</time></trkpt><trkpt lat="45.0615017" lon="9.2817067"><ele>263.0</ele><time>2026-05-03T10:37:35.63Z</time></trkpt><trkpt lat="45.06158" lon="9.2816117"><ele>263.0</ele><time>2026-05-03T10:37:36.631Z</time></trkpt><trkpt lat="45.0616567" lon="9.281525"><ele>263.0</ele><time>2026-05-03T10:37:37.629Z</time></trkpt><trkpt lat="45.061735" lon="9.2814517"><ele>262.4</ele><time>2026-05-03T10:37:38.63Z</time></trkpt><trkpt lat="45.0618167" lon="9.281375"><ele>261.8</ele><time>2026-05-03T10:37:39.629Z</time></trkpt><trkpt lat="45.06191" lon="9.2813183"><ele>261.2</ele><time>2026-05-03T10:37:40.629Z</time></trkpt><trkpt lat="45.06201" lon="9.2812733"><ele>260.6</ele><time>2026-05-03T10:37:41.629Z</time></trkpt><trkpt lat="45.0621133" lon="9.28125"><ele>260.0</ele><time>2026-05-03T10:37:42.629Z</time></trkpt><trkpt lat="45.0622167" lon="9.2812267"><ele>260.0</ele><time>2026-05-03T10:37:43.628Z</time></trkpt><trkpt lat="45.06232" lon="9.2812067"><ele>260.0</ele><time>2026-05-03T10:37:44.63Z</time></trkpt><trkpt lat="45.0624183" lon="9.28119"><ele>260.0</ele><time>2026-05-03T10:37:45.629Z</time></trkpt><trkpt lat="45.0625167" lon="9.281185"><ele>260.0</ele><time>2026-05-03T10:37:46.63Z</time></trkpt><trkpt lat="45.0626133" lon="9.281185"><ele>260.0</ele><time>2026-05-03T10:37:47.629Z</time></trkpt><trkpt lat="45.0627067" lon="9.2811983"><ele>260.2</ele><time>2026-05-03T10:37:48.629Z</time></trkpt><trkpt lat="45.0627983" lon="9.281235"><ele>260.4</ele><time>2026-05-03T10:37:49.629Z</time></trkpt><trkpt lat="45.0628867" lon="9.2812883"><ele>260.6</ele><time>2026-05-03T10:37:50.629Z</time></trkpt><trkpt lat="45.062975" lon="9.2813467"><ele>260.8</ele><time>2026-05-03T10:37:51.629Z</time></trkpt><trkpt lat="45.0630633" lon="9.2814067"><ele>261.0</ele><time>2026-05-03T10:37:52.63Z</time></trkpt><trkpt lat="45.0631517" lon="9.2814667"><ele>261.40000000000003</ele><time>2026-05-03T10:37:53.631Z</time></trkpt><trkpt lat="45.06324" lon="9.2815267"><ele>261.8</ele><time>2026-05-03T10:37:54.629Z</time></trkpt><trkpt lat="45.0633283" lon="9.2815833"><ele>262.20000000000005</ele><time>2026-05-03T10:37:55.629Z</time></trkpt><trkpt lat="45.063415" lon="9.2816433"><ele>262.6</ele><time>2026-05-03T10:37:56.629Z</time></trkpt><trkpt lat="45.0635" lon="9.281705"><ele>263.0</ele><time>2026-05-03T10:37:57.629Z</time></trkpt><trkpt lat="45.06359" lon="9.2817683"><ele>263.0</ele><time>2026-05-03T10:37:58.629Z</time></trkpt><trkpt lat="45.0636817" lon="9.28183"><ele>263.0</ele><time>2026-05-03T10:37:59.63Z</time></trkpt><trkpt lat="45.0637717" lon="9.2818933"><ele>263.0</ele><time>2026-05-03T10:38:00.633Z</time></trkpt><trkpt lat="45.063865" lon="9.2819583"><ele>263.0</ele><time>2026-05-03T10:38:01.628Z</time></trkpt><trkpt lat="45.063955" lon="9.282025"><ele>263.0</ele><time>2026-05-03T10:38:02.63Z</time></trkpt><trkpt lat="45.0640417" lon="9.2820983"><ele>263.8</ele><time>2026-05-03T10:38:03.629Z</time></trkpt><trkpt lat="45.064115" lon="9.2821917"><ele>264.6</ele><time>2026-05-03T10:38:04.63Z</time></trkpt><trkpt lat="45.0641833" lon="9.282295"><ele>265.4</ele><time>2026-05-03T10:38:05.631Z</time></trkpt><trkpt lat="45.0642517" lon="9.2823917"><ele>266.2</ele><time>2026-05-03T10:38:06.63Z</time></trkpt><trkpt lat="45.06433" lon="9.2824683"><ele>267.0</ele><time>2026-05-03T10:38:07.631Z</time></trkpt><trkpt lat="45.0644183" lon="9.28251"><ele>263.4</ele><time>2026-05-03T10:38:08.63Z</time></trkpt><trkpt lat="45.0645133" lon="9.2825217"><ele>259.79999999999995</ele><time>2026-05-03T10:38:09.629Z</time></trkpt><trkpt lat="45.0646083" lon="9.2825183"><ele>256.2</ele><time>2026-05-03T10:38:10.629Z</time></trkpt><trkpt lat="45.0647017" lon="9.2825083"><ele>252.6</ele><time>2026-05-03T10:38:11.629Z</time></trkpt><trkpt lat="45.0647967" lon="9.282495"><ele>249.0</ele><time>2026-05-03T10:38:12.63Z</time></trkpt><trkpt lat="45.064895" lon="9.2824867"><ele>248.6</ele><time>2026-05-03T10:38:13.631Z</time></trkpt><trkpt lat="45.064995" lon="9.2824783"><ele>248.2</ele><time>2026-05-03T10:38:14.629Z</time></trkpt><trkpt lat="45.0650933" lon="9.2824733"><ele>247.79999999999998</ele><time>2026-05-03T10:38:15.629Z</time></trkpt><trkpt lat="45.06519" lon="9.2824667"><ele>247.39999999999998</ele><time>2026-05-03T10:38:16.629Z</time></trkpt><trkpt lat="45.06529" lon="9.28246"><ele>247.0</ele><time>2026-05-03T10:38:17.629Z</time></trkpt><trkpt lat="45.0653917" lon="9.2824533"><ele>247.0</ele><time>2026-05-03T10:38:18.629Z</time></trkpt><trkpt lat="45.0654933" lon="9.28245"><ele>247.0</ele><time>2026-05-03T10:38:19.631Z</time></trkpt><trkpt lat="45.0655917" lon="9.2824533"><ele>247.0</ele><time>2026-05-03T10:38:20.63Z</time></trkpt><trkpt lat="45.0656833" lon="9.2824633"><ele>247.0</ele><time>2026-05-03T10:38:21.629Z</time></trkpt><trkpt lat="45.06577" lon="9.2824783"><ele>247.0</ele><time>2026-05-03T10:38:22.629Z</time></trkpt><trkpt lat="45.0658517" lon="9.2825083"><ele>248.6</ele><time>2026-05-03T10:38:23.629Z</time></trkpt><trkpt lat="45.0659283" lon="9.2825533"><ele>250.2</ele><time>2026-05-03T10:38:24.629Z</time></trkpt><trkpt lat="45.0659983" lon="9.28262"><ele>251.8</ele><time>2026-05-03T10:38:25.629Z</time></trkpt><trkpt lat="45.0660567" lon="9.2827117"><ele>253.4</ele><time>2026-05-03T10:38:26.63Z</time></trkpt><trkpt lat="45.06611" lon="9.2828267"><ele>255.0</ele><time>2026-05-03T10:38:27.629Z</time></trkpt><trkpt lat="45.0661567" lon="9.2829567"><ele>255.0</ele><time>2026-05-03T10:38:28.629Z</time></trkpt><trkpt lat="45.0661967" lon="9.2830867"><ele>255.0</ele><time>2026-05-03T10:38:29.629Z</time></trkpt><trkpt lat="45.0662333" lon="9.2832167"><ele>255.0</ele><time>2026-05-03T10:38:30.63Z</time></trkpt><trkpt lat="45.066275" lon="9.2833433"><ele>255.0</ele><time>2026-05-03T10:38:31.629Z</time></trkpt><trkpt lat="45.06633" lon="9.2834533"><ele>255.0</ele><time>2026-05-03T10:38:32.63Z</time></trkpt><trkpt lat="45.0663967" lon="9.2835383"><ele>253.6</ele><time>2026-05-03T10:38:33.629Z</time></trkpt><trkpt lat="45.066475" lon="9.2835917"><ele>252.2</ele><time>2026-05-03T10:38:34.63Z</time></trkpt><trkpt lat="45.06656" lon="9.2836233"><ele>250.8</ele><time>2026-05-03T10:38:35.629Z</time></trkpt><trkpt lat="45.0666667" lon="9.283615"><ele>249.4</ele><time>2026-05-03T10:38:36.631Z</time></trkpt><trkpt lat="45.066775" lon="9.2836217"><ele>248.0</ele><time>2026-05-03T10:38:37.631Z</time></trkpt><trkpt lat="45.0668833" lon="9.2836433"><ele>248.0</ele><time>2026-05-03T10:38:38.631Z</time></trkpt><trkpt lat="45.06699" lon="9.2836783"><ele>248.0</ele><time>2026-05-03T10:38:39.629Z</time></trkpt><trkpt lat="45.0670933" lon="9.2837217"><ele>248.0</ele><time>2026-05-03T10:38:40.63Z</time></trkpt><trkpt lat="45.0671933" lon="9.28377"><ele>248.0</ele><time>2026-05-03T10:38:41.629Z</time></trkpt><trkpt lat="45.0672817" lon="9.2838233"><ele>248.0</ele><time>2026-05-03T10:38:42.629Z</time></trkpt><trkpt lat="45.0673717" lon="9.28387"><ele>247.16666666666669</ele><time>2026-05-03T10:38:43.63Z</time></trkpt><trkpt lat="45.0674583" lon="9.2839067"><ele>246.33333333333334</ele><time>2026-05-03T10:38:44.629Z</time></trkpt><trkpt lat="45.06755" lon="9.2839017"><ele>245.5</ele><time>2026-05-03T10:38:45.629Z</time></trkpt><trkpt lat="45.0676333" lon="9.28387"><ele>244.66666666666669</ele><time>2026-05-03T10:38:46.629Z</time></trkpt><trkpt lat="45.067715" lon="9.2838117"><ele>243.83333333333334</ele><time>2026-05-03T10:38:47.629Z</time></trkpt><trkpt lat="45.0677883" lon="9.2837417"><ele>243.0</ele><time>2026-05-03T10:38:48.629Z</time></trkpt><trkpt lat="45.0678567" lon="9.28366"><ele>243.0</ele><time>2026-05-03T10:38:49.629Z</time></trkpt><trkpt lat="45.067915" lon="9.2835717"><ele>243.0</ele><time>2026-05-03T10:38:50.63Z</time></trkpt><trkpt lat="45.0679633" lon="9.2834833"><ele>243.0</ele><time>2026-05-03T10:38:51.628Z</time></trkpt><trkpt lat="45.0680067" lon="9.2834"><ele>243.0</ele><time>2026-05-03T10:38:52.629Z</time></trkpt><trkpt lat="45.0680517" lon="9.2833217"><ele>243.0</ele><time>2026-05-03T10:38:53.629Z</time></trkpt><trkpt lat="45.068095" lon="9.2832467"><ele>243.0</ele><time>2026-05-03T10:38:54.629Z</time></trkpt><trkpt lat="45.068145" lon="9.2831883"><ele>243.0</ele><time>2026-05-03T10:38:55.629Z</time></trkpt><trkpt lat="45.068205" lon="9.28315"><ele>243.0</ele><time>2026-05-03T10:38:56.63Z</time></trkpt><trkpt lat="45.0682683" lon="9.2831633"><ele>243.0</ele><time>2026-05-03T10:38:57.629Z</time></trkpt><trkpt lat="45.06833" lon="9.2832083"><ele>243.0</ele><time>2026-05-03T10:38:58.629Z</time></trkpt><trkpt lat="45.0683867" lon="9.283275"><ele>243.0</ele><time>2026-05-03T10:38:59.63Z</time></trkpt><trkpt lat="45.06843" lon="9.2833667"><ele>243.0</ele><time>2026-05-03T10:39:00.632Z</time></trkpt><trkpt lat="45.06846" lon="9.2834717"><ele>243.0</ele><time>2026-05-03T10:39:01.63Z</time></trkpt><trkpt lat="45.068475" lon="9.2835833"><ele>243.0</ele><time>2026-05-03T10:39:02.63Z</time></trkpt><trkpt lat="45.06847" lon="9.2837083"><ele>240.0</ele><time>2026-05-03T10:39:03.629Z</time></trkpt><trkpt lat="45.0684483" lon="9.2838417"><ele>237.0</ele><time>2026-05-03T10:39:04.629Z</time></trkpt><trkpt lat="45.0684183" lon="9.2839767"><ele>234.0</ele><time>2026-05-03T10:39:05.63Z</time></trkpt><trkpt lat="45.0683867" lon="9.2841133"><ele>231.0</ele><time>2026-05-03T10:39:06.63Z</time></trkpt><trkpt lat="45.06835" lon="9.28425"><ele>228.0</ele><time>2026-05-03T10:39:07.63Z</time></trkpt><trkpt lat="45.068315" lon="9.284385"><ele>228.2</ele><time>2026-05-03T10:39:08.63Z</time></trkpt><trkpt lat="45.06828" lon="9.2845217"><ele>228.4</ele><time>2026-05-03T10:39:09.63Z</time></trkpt><trkpt lat="45.0682467" lon="9.2846533"><ele>228.59999999999997</ele><time>2026-05-03T10:39:10.63Z</time></trkpt><trkpt lat="45.06821" lon="9.2847883"><ele>228.79999999999998</ele><time>2026-05-03T10:39:11.629Z</time></trkpt><trkpt lat="45.0681733" lon="9.284925"><ele>229.0</ele><time>2026-05-03T10:39:12.63Z</time></trkpt><trkpt lat="45.068135" lon="9.28506"><ele>229.0</ele><time>2026-05-03T10:39:13.629Z</time></trkpt><trkpt lat="45.0680933" lon="9.2851967"><ele>228.99999999999997</ele><time>2026-05-03T10:39:14.63Z</time></trkpt><trkpt lat="45.0680517" lon="9.2853317"><ele>228.99999999999997</ele><time>2026-05-03T10:39:15.629Z</time></trkpt><trkpt lat="45.0680133" lon="9.2854633"><ele>229.0</ele><time>2026-05-03T10:39:16.629Z</time></trkpt><trkpt lat="45.0679833" lon="9.2855933"><ele>229.0</ele><time>2026-05-03T10:39:17.629Z</time></trkpt><trkpt lat="45.0679517" lon="9.2857217"><ele>228.16666666666666</ele><time>2026-05-03T10:39:18.629Z</time></trkpt><trkpt lat="45.0679283" lon="9.2858417"><ele>227.33333333333331</ele><time>2026-05-03T10:39:19.63Z</time></trkpt><trkpt lat="45.067925" lon="9.2859567"><ele>226.5</ele><time>2026-05-03T10:39:20.631Z</time></trkpt><trkpt lat="45.0679433" lon="9.2860583"><ele>225.66666666666669</ele><time>2026-05-03T10:39:21.63Z</time></trkpt><trkpt lat="45.0679883" lon="9.286135"><ele>224.83333333333334</ele><time>2026-05-03T10:39:22.63Z</time></trkpt><trkpt lat="45.0680533" lon="9.286175"><ele>224.0</ele><time>2026-05-03T10:39:23.631Z</time></trkpt><trkpt lat="45.0681317" lon="9.2861517"><ele>224.0</ele><time>2026-05-03T10:39:24.63Z</time></trkpt><trkpt lat="45.06821" lon="9.2860917"><ele>223.99999999999997</ele><time>2026-05-03T10:39:25.63Z</time></trkpt><trkpt lat="45.068285" lon="9.2860217"><ele>223.99999999999997</ele><time>2026-05-03T10:39:26.631Z</time></trkpt><trkpt lat="45.0683667" lon="9.2859417"><ele>224.0</ele><time>2026-05-03T10:39:27.63Z</time></trkpt><trkpt lat="45.068445" lon="9.2858667"><ele>224.0</ele><time>2026-05-03T10:39:28.63Z</time></trkpt><trkpt lat="45.0685217" lon="9.2857833"><ele>222.83333333333334</ele><time>2026-05-03T10:39:29.63Z</time></trkpt><trkpt lat="45.0685917" lon="9.2857017"><ele>221.66666666666669</ele><time>2026-05-03T10:39:30.631Z</time></trkpt><trkpt lat="45.0686567" lon="9.2856233"><ele>220.5</ele><time>2026-05-03T10:39:31.631Z</time></trkpt><trkpt lat="45.06872" lon="9.2855517"><ele>219.33333333333331</ele><time>2026-05-03T10:39:32.63Z</time></trkpt><trkpt lat="45.0687833" lon="9.2854833"><ele>218.16666666666666</ele><time>2026-05-03T10:39:33.63Z</time></trkpt><trkpt lat="45.0688517" lon="9.28542"><ele>217.0</ele><time>2026-05-03T10:39:34.63Z</time></trkpt><trkpt lat="45.06892" lon="9.285365"><ele>216.99999999999997</ele><time>2026-05-03T10:39:35.63Z</time></trkpt><trkpt lat="45.0689967" lon="9.285325"><ele>217.0</ele><time>2026-05-03T10:39:36.63Z</time></trkpt><trkpt lat="45.0690767" lon="9.2853"><ele>217.0</ele><time>2026-05-03T10:39:37.63Z</time></trkpt><trkpt lat="45.06916" lon="9.2852867"><ele>217.0</ele><time>2026-05-03T10:39:38.629Z</time></trkpt><trkpt lat="45.0692483" lon="9.2852833"><ele>216.99999999999997</ele><time>2026-05-03T10:39:39.629Z</time></trkpt><trkpt lat="45.069335" lon="9.2852883"><ele>217.0</ele><time>2026-05-03T10:39:40.629Z</time></trkpt><trkpt lat="45.0694233" lon="9.285285"><ele>215.49999999999997</ele><time>2026-05-03T10:39:41.629Z</time></trkpt><trkpt lat="45.0695117" lon="9.28528"><ele>214.0</ele><time>2026-05-03T10:39:42.629Z</time></trkpt><trkpt lat="45.0696" lon="9.2852733"><ele>212.5</ele><time>2026-05-03T10:39:43.629Z</time></trkpt><trkpt lat="45.0696867" lon="9.2852733"><ele>211.0</ele><time>2026-05-03T10:39:44.63Z</time></trkpt><trkpt lat="45.0697717" lon="9.2852817"><ele>209.49999999999997</ele><time>2026-05-03T10:39:45.629Z</time></trkpt><trkpt lat="45.0698567" lon="9.285305"><ele>208.0</ele><time>2026-05-03T10:39:46.629Z</time></trkpt><trkpt lat="45.06994" lon="9.28534"><ele>206.99999999999997</ele><time>2026-05-03T10:39:47.629Z</time></trkpt><trkpt lat="45.070025" lon="9.2853783"><ele>206.0</ele><time>2026-05-03T10:39:48.63Z</time></trkpt><trkpt lat="45.07011" lon="9.2854167"><ele>205.0</ele><time>2026-05-03T10:39:49.63Z</time></trkpt><trkpt lat="45.0701967" lon="9.2854533"><ele>204.0</ele><time>2026-05-03T10:39:50.631Z</time></trkpt><trkpt lat="45.0702817" lon="9.28549"><ele>202.99999999999997</ele><time>2026-05-03T10:39:51.631Z</time></trkpt><trkpt lat="45.070365" lon="9.285525"><ele>202.0</ele><time>2026-05-03T10:39:52.63Z</time></trkpt><trkpt lat="45.0704467" lon="9.2855667"><ele>201.66666666666666</ele><time>2026-05-03T10:39:53.63Z</time></trkpt><trkpt lat="45.07052" lon="9.2856167"><ele>201.33333333333331</ele><time>2026-05-03T10:39:54.631Z</time></trkpt><trkpt lat="45.0705883" lon="9.2856767"><ele>201.0</ele><time>2026-05-03T10:39:55.63Z</time></trkpt><trkpt lat="45.0706533" lon="9.285745"><ele>200.66666666666669</ele><time>2026-05-03T10:39:56.631Z</time></trkpt><trkpt lat="45.0707067" lon="9.2858217"><ele>200.33333333333334</ele><time>2026-05-03T10:39:57.63Z</time></trkpt><trkpt lat="45.070755" lon="9.28591"><ele>200.0</ele><time>2026-05-03T10:39:58.631Z</time></trkpt><trkpt lat="45.0708" lon="9.2859983"><ele>198.66666666666669</ele><time>2026-05-03T10:39:59.631Z</time></trkpt><trkpt lat="45.0708483" lon="9.286085"><ele>197.33333333333334</ele><time>2026-05-03T10:40:00.629Z</time></trkpt><trkpt lat="45.070905" lon="9.2861583"><ele>196.0</ele><time>2026-05-03T10:40:01.629Z</time></trkpt><trkpt lat="45.0709717" lon="9.2862083"><ele>194.66666666666669</ele><time>2026-05-03T10:40:02.63Z</time></trkpt><trkpt lat="45.0710467" lon="9.286235"><ele>193.33333333333334</ele><time>2026-05-03T10:40:03.629Z</time></trkpt><trkpt lat="45.0711217" lon="9.2862583"><ele>192.0</ele><time>2026-05-03T10:40:04.629Z</time></trkpt><trkpt lat="45.0711983" lon="9.2862733"><ele>192.0</ele><time>2026-05-03T10:40:05.629Z</time></trkpt><trkpt lat="45.0712817" lon="9.2862883"><ele>192.0</ele><time>2026-05-03T10:40:06.629Z</time></trkpt><trkpt lat="45.0713667" lon="9.2863083"><ele>192.0</ele><time>2026-05-03T10:40:07.628Z</time></trkpt><trkpt lat="45.07146" lon="9.2863217"><ele>192.0</ele><time>2026-05-03T10:40:08.63Z</time></trkpt><trkpt lat="45.0715533" lon="9.2863333"><ele>192.0</ele><time>2026-05-03T10:40:09.629Z</time></trkpt><trkpt lat="45.0716433" lon="9.2863367"><ele>192.0</ele><time>2026-05-03T10:40:10.629Z</time></trkpt><trkpt lat="45.0717333" lon="9.2863283"><ele>190.2</ele><time>2026-05-03T10:40:11.628Z</time></trkpt><trkpt lat="45.0718233" lon="9.2863117"><ele>188.39999999999998</ele><time>2026-05-03T10:40:12.646Z</time></trkpt><trkpt lat="45.0719167" lon="9.2862917"><ele>186.60000000000002</ele><time>2026-05-03T10:40:13.629Z</time></trkpt><trkpt lat="45.0720117" lon="9.2862717"><ele>184.8</ele><time>2026-05-03T10:40:14.629Z</time></trkpt><trkpt lat="45.0721" lon="9.2862617"><ele>183.0</ele><time>2026-05-03T10:40:15.629Z</time></trkpt><trkpt lat="45.0721833" lon="9.2862733"><ele>183.0</ele><time>2026-05-03T10:40:16.63Z</time></trkpt><trkpt lat="45.0722567" lon="9.2863217"><ele>183.0</ele><time>2026-05-03T10:40:17.629Z</time></trkpt><trkpt lat="45.0723167" lon="9.2864167"><ele>183.0</ele><time>2026-05-03T10:40:18.63Z</time></trkpt><trkpt lat="45.0723633" lon="9.286565"><ele>183.0</ele><time>2026-05-03T10:40:19.63Z</time></trkpt><trkpt lat="45.0724017" lon="9.2867317"><ele>183.0</ele><time>2026-05-03T10:40:20.631Z</time></trkpt><trkpt lat="45.072445" lon="9.2868883"><ele>182.2</ele><time>2026-05-03T10:40:21.631Z</time></trkpt><trkpt lat="45.0724933" lon="9.2870267"><ele>181.4</ele><time>2026-05-03T10:40:22.631Z</time></trkpt><trkpt lat="45.072545" lon="9.28715"><ele>180.6</ele><time>2026-05-03T10:40:23.63Z</time></trkpt><trkpt lat="45.0725983" lon="9.2872633"><ele>179.79999999999998</ele><time>2026-05-03T10:40:24.631Z</time></trkpt><trkpt lat="45.072655" lon="9.28737"><ele>179.0</ele><time>2026-05-03T10:40:25.63Z</time></trkpt><trkpt lat="45.0727133" lon="9.28747"><ele>178.66666666666666</ele><time>2026-05-03T10:40:26.63Z</time></trkpt><trkpt lat="45.07277" lon="9.287565"><ele>178.33333333333331</ele><time>2026-05-03T10:40:27.63Z</time></trkpt><trkpt lat="45.072825" lon="9.2876583"><ele>178.0</ele><time>2026-05-03T10:40:28.63Z</time></trkpt><trkpt lat="45.0728717" lon="9.2877517"><ele>177.66666666666666</ele><time>2026-05-03T10:40:29.63Z</time></trkpt><trkpt lat="45.07291" lon="9.2878483"><ele>177.33333333333334</ele><time>2026-05-03T10:40:30.629Z</time></trkpt><trkpt lat="45.0729467" lon="9.2879433"><ele>177.0</ele><time>2026-05-03T10:40:31.63Z</time></trkpt><trkpt lat="45.07298" lon="9.288035"><ele>175.57142857142858</ele><time>2026-05-03T10:40:32.63Z</time></trkpt><trkpt lat="45.0729967" lon="9.2881333"><ele>174.14285714285714</ele><time>2026-05-03T10:40:33.629Z</time></trkpt><trkpt lat="45.0729933" lon="9.2882317"><ele>172.71428571428572</ele><time>2026-05-03T10:40:34.629Z</time></trkpt><trkpt lat="45.07297" lon="9.288325"><ele>171.28571428571428</ele><time>2026-05-03T10:40:35.63Z</time></trkpt><trkpt lat="45.0729133" lon="9.2883833"><ele>169.85714285714286</ele><time>2026-05-03T10:40:36.63Z</time></trkpt><trkpt lat="45.07283" lon="9.2883917"><ele>168.42857142857142</ele><time>2026-05-03T10:40:37.629Z</time></trkpt><trkpt lat="45.07275" lon="9.2883983"><ele>167.0</ele><time>2026-05-03T10:40:38.63Z</time></trkpt><trkpt lat="45.072675" lon="9.28841"><ele>167.0</ele><time>2026-05-03T10:40:39.629Z</time></trkpt><trkpt lat="45.0726033" lon="9.2884217"><ele>167.0</ele><time>2026-05-03T10:40:40.629Z</time></trkpt><trkpt lat="45.072485" lon="9.2884433"><ele>167.0</ele><time>2026-05-03T10:40:42.629Z</time></trkpt><trkpt lat="45.0723767" lon="9.2884617"><ele>167.0</ele><time>2026-05-03T10:40:44.63Z</time></trkpt><trkpt lat="45.072265" lon="9.28848"><ele>167.0</ele><time>2026-05-03T10:40:46.628Z</time></trkpt><trkpt lat="45.07215" lon="9.2885033"><ele>166.8</ele><time>2026-05-03T10:40:48.63Z</time></trkpt><trkpt lat="45.072035" lon="9.2885283"><ele>166.6</ele><time>2026-05-03T10:40:50.63Z</time></trkpt><trkpt lat="45.0719083" lon="9.288555"><ele>166.4</ele><time>2026-05-03T10:40:52.629Z</time></trkpt><trkpt lat="45.0718383" lon="9.2885733"><ele>166.20000000000002</ele><time>2026-05-03T10:40:53.629Z</time></trkpt><trkpt lat="45.071765" lon="9.2885917"><ele>166.0</ele><time>2026-05-03T10:40:54.63Z</time></trkpt><trkpt lat="45.0716917" lon="9.28861"><ele>166.0</ele><time>2026-05-03T10:40:55.63Z</time></trkpt><trkpt lat="45.0716183" lon="9.2886333"><ele>166.0</ele><time>2026-05-03T10:40:56.63Z</time></trkpt><trkpt lat="45.0715467" lon="9.2886717"><ele>166.0</ele><time>2026-05-03T10:40:57.63Z</time></trkpt><trkpt lat="45.0714833" lon="9.2887267"><ele>166.0</ele><time>2026-05-03T10:40:58.629Z</time></trkpt><trkpt lat="45.0714317" lon="9.2887983"><ele>166.0</ele><time>2026-05-03T10:40:59.629Z</time></trkpt><trkpt lat="45.071405" lon="9.288895"><ele>166.0</ele><time>2026-05-03T10:41:00.628Z</time></trkpt><trkpt lat="45.0714083" lon="9.2890067"><ele>165.5</ele><time>2026-05-03T10:41:01.629Z</time></trkpt><trkpt lat="45.0714183" lon="9.289125"><ele>165.0</ele><time>2026-05-03T10:41:02.63Z</time></trkpt><trkpt lat="45.071425" lon="9.2892483"><ele>164.5</ele><time>2026-05-03T10:41:03.631Z</time></trkpt><trkpt lat="45.0714283" lon="9.2893717"><ele>164.0</ele><time>2026-05-03T10:41:04.629Z</time></trkpt><trkpt lat="45.0714283" lon="9.2895"><ele>163.5</ele><time>2026-05-03T10:41:05.629Z</time></trkpt><trkpt lat="45.0714217" lon="9.28963"><ele>163.0</ele><time>2026-05-03T10:41:06.629Z</time></trkpt><trkpt lat="45.07141" lon="9.2897567"><ele>161.5</ele><time>2026-05-03T10:41:07.629Z</time></trkpt><trkpt lat="45.0713917" lon="9.2898767"><ele>160.0</ele><time>2026-05-03T10:41:08.63Z</time></trkpt><trkpt lat="45.0713783" lon="9.289995"><ele>158.5</ele><time>2026-05-03T10:41:09.629Z</time></trkpt><trkpt lat="45.0713667" lon="9.2901133"><ele>157.0</ele><time>2026-05-03T10:41:10.629Z</time></trkpt><trkpt lat="45.0713633" lon="9.29023"><ele>155.5</ele><time>2026-05-03T10:41:11.629Z</time></trkpt><trkpt lat="45.07136" lon="9.2903467"><ele>154.0</ele><time>2026-05-03T10:41:12.629Z</time></trkpt><trkpt lat="45.0713383" lon="9.2904583"><ele>154.0</ele><time>2026-05-03T10:41:13.629Z</time></trkpt><trkpt lat="45.0713" lon="9.2905533"><ele>154.0</ele><time>2026-05-03T10:41:14.629Z</time></trkpt><trkpt lat="45.0712217" lon="9.2906017"><ele>154.0</ele><time>2026-05-03T10:41:15.63Z</time></trkpt><trkpt lat="45.0711417" lon="9.2906233"><ele>154.0</ele><time>2026-05-03T10:41:16.629Z</time></trkpt><trkpt lat="45.07107" lon="9.290625"><ele>154.0</ele><time>2026-05-03T10:41:17.629Z</time></trkpt><trkpt lat="45.0709683" lon="9.2906083"><ele>154.0</ele><time>2026-05-03T10:41:19.63Z</time></trkpt><trkpt lat="45.0708983" lon="9.2906067"><ele>152.83333333333334</ele><time>2026-05-03T10:41:21.629Z</time></trkpt><trkpt lat="45.0708283" lon="9.290605"><ele>151.66666666666669</ele><time>2026-05-03T10:41:23.629Z</time></trkpt><trkpt lat="45.070755" lon="9.2906433"><ele>150.5</ele><time>2026-05-03T10:41:25.63Z</time></trkpt><trkpt lat="45.070705" lon="9.2907217"><ele>149.33333333333334</ele><time>2026-05-03T10:41:27.629Z</time></trkpt><trkpt lat="45.0706783" lon="9.29083"><ele>148.16666666666666</ele><time>2026-05-03T10:41:30.629Z</time></trkpt><trkpt lat="45.070695" lon="9.2909217"><ele>147.0</ele><time>2026-05-03T10:41:32.63Z</time></trkpt><trkpt lat="45.07074" lon="9.2910367"><ele>147.0</ele><time>2026-05-03T10:41:35.629Z</time></trkpt><trkpt lat="45.070795" lon="9.291115"><ele>147.0</ele><time>2026-05-03T10:41:37.629Z</time></trkpt><trkpt lat="45.0708633" lon="9.2912"><ele>147.0</ele><time>2026-05-03T10:41:39.628Z</time></trkpt><trkpt lat="45.07094" lon="9.2912867"><ele>147.0</ele><time>2026-05-03T10:41:41.628Z</time></trkpt><trkpt lat="45.0710133" lon="9.291385"><ele>147.0</ele><time>2026-05-03T10:41:43.629Z</time></trkpt><trkpt lat="45.0710933" lon="9.2915"><ele>145.2</ele><time>2026-05-03T10:41:45.628Z</time></trkpt><trkpt lat="45.0711583" lon="9.2916333"><ele>143.39999999999998</ele><time>2026-05-03T10:41:47.63Z</time></trkpt><trkpt lat="45.0712133" lon="9.29175"><ele>141.60000000000002</ele><time>2026-05-03T10:41:49.63Z</time></trkpt><trkpt lat="45.0712617" lon="9.291845"><ele>139.8</ele><time>2026-05-03T10:41:51.63Z</time></trkpt><trkpt lat="45.07131" lon="9.2919483"><ele>138.0</ele><time>2026-05-03T10:41:53.631Z</time></trkpt><trkpt lat="45.0713633" lon="9.2920617"><ele>138.0</ele><time>2026-05-03T10:41:55.629Z</time></trkpt><trkpt lat="45.0714283" lon="9.2921933"><ele>138.0</ele><time>2026-05-03T10:41:57.628Z</time></trkpt><trkpt lat="45.0714733" lon="9.2922583"><ele>138.0</ele><time>2026-05-03T10:41:58.629Z</time></trkpt><trkpt lat="45.0715267" lon="9.292315"><ele>138.0</ele><time>2026-05-03T10:41:59.629Z</time></trkpt><trkpt lat="45.0715867" lon="9.2923667"><ele>138.0</ele><time>2026-05-03T10:42:00.629Z</time></trkpt><trkpt lat="45.0716517" lon="9.2924183"><ele>138.0</ele><time>2026-05-03T10:42:01.629Z</time></trkpt><trkpt lat="45.0717183" lon="9.2924683"><ele>137.0</ele><time>2026-05-03T10:42:02.63Z</time></trkpt><trkpt lat="45.0717817" lon="9.2925183"><ele>136.0</ele><time>2026-05-03T10:42:03.629Z</time></trkpt><trkpt lat="45.0718467" lon="9.292565"><ele>135.0</ele><time>2026-05-03T10:42:04.629Z</time></trkpt><trkpt lat="45.0719183" lon="9.292605"><ele>134.0</ele><time>2026-05-03T10:42:05.628Z</time></trkpt><trkpt lat="45.0719917" lon="9.2926283"><ele>133.0</ele><time>2026-05-03T10:42:06.628Z</time></trkpt><trkpt lat="45.0720717" lon="9.2926183"><ele>132.0</ele><time>2026-05-03T10:42:07.628Z</time></trkpt><trkpt lat="45.0721583" lon="9.29257"><ele>132.0</ele><time>2026-05-03T10:42:08.646Z</time></trkpt><trkpt lat="45.0722483" lon="9.29249"><ele>132.0</ele><time>2026-05-03T10:42:09.629Z</time></trkpt><trkpt lat="45.0723417" lon="9.2923967"><ele>132.0</ele><time>2026-05-03T10:42:10.629Z</time></trkpt><trkpt lat="45.0724367" lon="9.2923017"><ele>132.0</ele><time>2026-05-03T10:42:11.629Z</time></trkpt><trkpt lat="45.0725367" lon="9.2921983"><ele>132.0</ele><time>2026-05-03T10:42:12.629Z</time></trkpt><trkpt lat="45.0726367" lon="9.2920883"><ele>132.0</ele><time>2026-05-03T10:42:13.628Z</time></trkpt><trkpt lat="45.0727367" lon="9.2919617"><ele>132.0</ele><time>2026-05-03T10:42:14.629Z</time></trkpt><trkpt lat="45.07284" lon="9.29182"><ele>132.0</ele><time>2026-05-03T10:42:15.628Z</time></trkpt><trkpt lat="45.072945" lon="9.291655"><ele>132.0</ele><time>2026-05-03T10:42:16.629Z</time></trkpt><trkpt lat="45.073045" lon="9.2914833"><ele>132.0</ele><time>2026-05-03T10:42:17.628Z</time></trkpt><trkpt lat="45.073145" lon="9.2913233"><ele>132.0</ele><time>2026-05-03T10:42:18.628Z</time></trkpt><trkpt lat="45.073245" lon="9.2911883"><ele>132.0</ele><time>2026-05-03T10:42:19.63Z</time></trkpt><trkpt lat="45.07335" lon="9.2910833"><ele>131.4</ele><time>2026-05-03T10:42:20.63Z</time></trkpt><trkpt lat="45.0734567" lon="9.2909983"><ele>130.79999999999998</ele><time>2026-05-03T10:42:21.629Z</time></trkpt><trkpt lat="45.073555" lon="9.2909233"><ele>130.2</ele><time>2026-05-03T10:42:22.629Z</time></trkpt><trkpt lat="45.0736467" lon="9.2908467"><ele>129.6</ele><time>2026-05-03T10:42:23.63Z</time></trkpt><trkpt lat="45.0737383" lon="9.29077"><ele>129.0</ele><time>2026-05-03T10:42:24.628Z</time></trkpt><trkpt lat="45.073835" lon="9.2906867"><ele>129.0</ele><time>2026-05-03T10:42:25.628Z</time></trkpt><trkpt lat="45.0739317" lon="9.2906017"><ele>129.0</ele><time>2026-05-03T10:42:26.629Z</time></trkpt><trkpt lat="45.0740217" lon="9.2904983"><ele>129.0</ele><time>2026-05-03T10:42:27.63Z</time></trkpt><trkpt lat="45.0741083" lon="9.2903783"><ele>129.0</ele><time>2026-05-03T10:42:28.629Z</time></trkpt><trkpt lat="45.074185" lon="9.2902417"><ele>128.5</ele><time>2026-05-03T10:42:29.629Z</time></trkpt><trkpt lat="45.0742433" lon="9.29009"><ele>128.0</ele><time>2026-05-03T10:42:30.629Z</time></trkpt><trkpt lat="45.0742933" lon="9.2899333"><ele>127.5</ele><time>2026-05-03T10:42:31.629Z</time></trkpt><trkpt lat="45.07433" lon="9.289775"><ele>127.0</ele><time>2026-05-03T10:42:32.63Z</time></trkpt><trkpt lat="45.0743533" lon="9.2896117"><ele>127.0</ele><time>2026-05-03T10:42:33.629Z</time></trkpt><trkpt lat="45.0743667" lon="9.2894417"><ele>127.0</ele><time>2026-05-03T10:42:34.628Z</time></trkpt><trkpt lat="45.0743783" lon="9.289265"><ele>127.0</ele><time>2026-05-03T10:42:35.629Z</time></trkpt><trkpt lat="45.0743917" lon="9.2890883"><ele>127.0</ele><time>2026-05-03T10:42:36.629Z</time></trkpt><trkpt lat="45.0744067" lon="9.2889133"><ele>126.0</ele><time>2026-05-03T10:42:37.629Z</time></trkpt><trkpt lat="45.07442" lon="9.2887383"><ele>125.0</ele><time>2026-05-03T10:42:38.629Z</time></trkpt><trkpt lat="45.0744333" lon="9.288565"><ele>124.0</ele><time>2026-05-03T10:42:39.628Z</time></trkpt><trkpt lat="45.0744467" lon="9.2883933"><ele>123.0</ele><time>2026-05-03T10:42:40.629Z</time></trkpt><trkpt lat="45.0744583" lon="9.28822"><ele>122.25</ele><time>2026-05-03T10:42:41.628Z</time></trkpt><trkpt lat="45.0744683" lon="9.2880417"><ele>121.5</ele><time>2026-05-03T10:42:42.628Z</time></trkpt><trkpt lat="45.0744817" lon="9.2878667"><ele>120.75</ele><time>2026-05-03T10:42:43.629Z</time></trkpt><trkpt lat="45.0745" lon="9.2876933"><ele>120.0</ele><time>2026-05-03T10:42:44.629Z</time></trkpt><trkpt lat="45.0745217" lon="9.2875183"><ele>120.0</ele><time>2026-05-03T10:42:45.629Z</time></trkpt><trkpt lat="45.07455" lon="9.2873467"><ele>120.0</ele><time>2026-05-03T10:42:46.628Z</time></trkpt><trkpt lat="45.0745883" lon="9.2871817"><ele>120.0</ele><time>2026-05-03T10:42:47.63Z</time></trkpt><trkpt lat="45.0746283" lon="9.28702"><ele>120.0</ele><time>2026-05-03T10:42:48.628Z</time></trkpt><trkpt lat="45.0746683" lon="9.28686"><ele>119.0</ele><time>2026-05-03T10:42:49.628Z</time></trkpt><trkpt lat="45.0747117" lon="9.2866983"><ele>118.0</ele><time>2026-05-03T10:42:50.629Z</time></trkpt><trkpt lat="45.074755" lon="9.2865367"><ele>117.0</ele><time>2026-05-03T10:42:51.629Z</time></trkpt><trkpt lat="45.0747967" lon="9.286375"><ele>116.0</ele><time>2026-05-03T10:42:52.628Z</time></trkpt><trkpt lat="45.07484" lon="9.28621"><ele>116.0</ele><time>2026-05-03T10:42:53.628Z</time></trkpt><trkpt lat="45.0748833" lon="9.286045"><ele>116.0</ele><time>2026-05-03T10:42:54.629Z</time></trkpt><trkpt lat="45.0749283" lon="9.2858817"><ele>116.0</ele><time>2026-05-03T10:42:55.628Z</time></trkpt><trkpt lat="45.074975" lon="9.2857183"><ele>116.0</ele><time>2026-05-03T10:42:56.629Z</time></trkpt><trkpt lat="45.0750233" lon="9.2855567"><ele>113.0</ele><time>2026-05-03T10:42:57.628Z</time></trkpt><trkpt lat="45.075065" lon="9.2854017"><ele>110.0</ele><time>2026-05-03T10:42:58.629Z</time></trkpt><trkpt lat="45.0751033" lon="9.2852567"><ele>107.0</ele><time>2026-05-03T10:42:59.629Z</time></trkpt><trkpt lat="45.0751383" lon="9.285115"><ele>104.0</ele><time>2026-05-03T10:43:00.628Z</time></trkpt><trkpt lat="45.0751733" lon="9.2849817"><ele>101.0</ele><time>2026-05-03T10:43:01.628Z</time></trkpt><trkpt lat="45.0752083" lon="9.2848517"><ele>100.6</ele><time>2026-05-03T10:43:02.629Z</time></trkpt><trkpt lat="45.0752433" lon="9.2847317"><ele>100.19999999999999</ele><time>2026-05-03T10:43:03.628Z</time></trkpt><trkpt lat="45.0752783" lon="9.2846083"><ele>99.80000000000001</ele><time>2026-05-03T10:43:04.629Z</time></trkpt><trkpt lat="45.07531" lon="9.2844867"><ele>99.4</ele><time>2026-05-03T10:43:05.628Z</time></trkpt><trkpt lat="45.0753433" lon="9.2843567"><ele>99.0</ele><time>2026-05-03T10:43:06.629Z</time></trkpt><trkpt lat="45.0753767" lon="9.284235"><ele>99.0</ele><time>2026-05-03T10:43:07.628Z</time></trkpt><trkpt lat="45.07541" lon="9.284115"><ele>99.0</ele><time>2026-05-03T10:43:08.629Z</time></trkpt><trkpt lat="45.0754433" lon="9.2839967"><ele>99.0</ele><time>2026-05-03T10:43:09.629Z</time></trkpt><trkpt lat="45.0754767" lon="9.28388"><ele>99.0</ele><time>2026-05-03T10:43:10.629Z</time></trkpt><trkpt lat="45.0755117" lon="9.28376"><ele>99.0</ele><time>2026-05-03T10:43:11.628Z</time></trkpt><trkpt lat="45.0755467" lon="9.2836367"><ele>98.83333333333333</ele><time>2026-05-03T10:43:12.629Z</time></trkpt><trkpt lat="45.0755817" lon="9.28351"><ele>98.66666666666666</ele><time>2026-05-03T10:43:13.631Z</time></trkpt><trkpt lat="45.0756183" lon="9.2833883"><ele>98.5</ele><time>2026-05-03T10:43:14.631Z</time></trkpt><trkpt lat="45.0756533" lon="9.283285"><ele>98.33333333333333</ele><time>2026-05-03T10:43:15.629Z</time></trkpt><trkpt lat="45.0756867" lon="9.2832083"><ele>98.16666666666666</ele><time>2026-05-03T10:43:16.629Z</time></trkpt><trkpt lat="45.0757583" lon="9.283145"><ele>98.0</ele><time>2026-05-03T10:43:18.628Z</time></trkpt><trkpt lat="45.075835" lon="9.2831483"><ele>97.33333333333333</ele><time>2026-05-03T10:43:20.63Z</time></trkpt><trkpt lat="45.0758917" lon="9.2832517"><ele>96.66666666666666</ele><time>2026-05-03T10:43:22.629Z</time></trkpt><trkpt lat="45.0759083" lon="9.2833383"><ele>96.0</ele><time>2026-05-03T10:43:23.629Z</time></trkpt><trkpt lat="45.0759183" lon="9.28344"><ele>95.33333333333333</ele><time>2026-05-03T10:43:24.63Z</time></trkpt><trkpt lat="45.075925" lon="9.2835517"><ele>94.66666666666666</ele><time>2026-05-03T10:43:25.628Z</time></trkpt><trkpt lat="45.075935" lon="9.2836717"><ele>94.0</ele><time>2026-05-03T10:43:26.63Z</time></trkpt><trkpt lat="45.0759467" lon="9.283805"><ele>94.25</ele><time>2026-05-03T10:43:27.629Z</time></trkpt><trkpt lat="45.075965" lon="9.2839533"><ele>94.5</ele><time>2026-05-03T10:43:28.628Z</time></trkpt><trkpt lat="45.0759783" lon="9.2841133"><ele>94.75</ele><time>2026-05-03T10:43:29.629Z</time></trkpt><trkpt lat="45.076" lon="9.2842767"><ele>95.0</ele><time>2026-05-03T10:43:30.63Z</time></trkpt><trkpt lat="45.0760217" lon="9.2844433"><ele>95.0</ele><time>2026-05-03T10:43:31.629Z</time></trkpt><trkpt lat="45.076045" lon="9.2846217"><ele>95.0</ele><time>2026-05-03T10:43:32.629Z</time></trkpt><trkpt lat="45.076065" lon="9.2847967"><ele>95.0</ele><time>2026-05-03T10:43:33.63Z</time></trkpt><trkpt lat="45.07608" lon="9.2849683"><ele>95.0</ele><time>2026-05-03T10:43:34.628Z</time></trkpt><trkpt lat="45.0761" lon="9.285135"><ele>95.0</ele><time>2026-05-03T10:43:35.629Z</time></trkpt><trkpt lat="45.07612" lon="9.285295"><ele>95.0</ele><time>2026-05-03T10:43:36.632Z</time></trkpt><trkpt lat="45.0761317" lon="9.28545"><ele>95.0</ele><time>2026-05-03T10:43:37.629Z</time></trkpt><trkpt lat="45.0761417" lon="9.2855933"><ele>95.0</ele><time>2026-05-03T10:43:38.63Z</time></trkpt><trkpt lat="45.0761567" lon="9.2857283"><ele>95.0</ele><time>2026-05-03T10:43:39.63Z</time></trkpt><trkpt lat="45.07616" lon="9.285855"><ele>94.8</ele><time>2026-05-03T10:43:40.63Z</time></trkpt><trkpt lat="45.0761667" lon="9.2859867"><ele>94.6</ele><time>2026-05-03T10:43:41.63Z</time></trkpt><trkpt lat="45.0761683" lon="9.2861133"><ele>94.4</ele><time>2026-05-03T10:43:42.629Z</time></trkpt><trkpt lat="45.076175" lon="9.2862417"><ele>94.2</ele><time>2026-05-03T10:43:43.629Z</time></trkpt><trkpt lat="45.076175" lon="9.2863717"><ele>94.0</ele><time>2026-05-03T10:43:44.629Z</time></trkpt><trkpt lat="45.076175" lon="9.2865017"><ele>94.0</ele><time>2026-05-03T10:43:45.629Z</time></trkpt><trkpt lat="45.0761733" lon="9.28663"><ele>94.0</ele><time>2026-05-03T10:43:46.629Z</time></trkpt><trkpt lat="45.07617" lon="9.28675"><ele>94.0</ele><time>2026-05-03T10:43:47.629Z</time></trkpt><trkpt lat="45.0761617" lon="9.286865"><ele>94.0</ele><time>2026-05-03T10:43:48.629Z</time></trkpt><trkpt lat="45.0761517" lon="9.2869783"><ele>94.0</ele><time>2026-05-03T10:43:49.629Z</time></trkpt><trkpt lat="45.0761467" lon="9.287095"><ele>94.0</ele><time>2026-05-03T10:43:50.629Z</time></trkpt><trkpt lat="45.0761383" lon="9.2872083"><ele>94.33333333333333</ele><time>2026-05-03T10:43:51.629Z</time></trkpt><trkpt lat="45.0761283" lon="9.287325"><ele>94.66666666666666</ele><time>2026-05-03T10:43:52.629Z</time></trkpt><trkpt lat="45.076115" lon="9.2874317"><ele>95.0</ele><time>2026-05-03T10:43:53.629Z</time></trkpt><trkpt lat="45.0761083" lon="9.287535"><ele>95.33333333333333</ele><time>2026-05-03T10:43:54.63Z</time></trkpt><trkpt lat="45.0761" lon="9.2876367"><ele>95.66666666666667</ele><time>2026-05-03T10:43:55.63Z</time></trkpt><trkpt lat="45.0760983" lon="9.2877417"><ele>96.0</ele><time>2026-05-03T10:43:56.63Z</time></trkpt><trkpt lat="45.0761183" lon="9.2878417"><ele>96.0</ele><time>2026-05-03T10:43:57.629Z</time></trkpt><trkpt lat="45.0761583" lon="9.2879183"><ele>96.0</ele><time>2026-05-03T10:43:58.629Z</time></trkpt><trkpt lat="45.076215" lon="9.28797"><ele>96.0</ele><time>2026-05-03T10:43:59.629Z</time></trkpt><trkpt lat="45.0762883" lon="9.2879833"><ele>96.0</ele><time>2026-05-03T10:44:00.629Z</time></trkpt><trkpt lat="45.07638" lon="9.2879567"><ele>96.0</ele><time>2026-05-03T10:44:01.628Z</time></trkpt><trkpt lat="45.0764767" lon="9.2879133"><ele>96.0</ele><time>2026-05-03T10:44:02.63Z</time></trkpt><trkpt lat="45.0765733" lon="9.28786"><ele>94.6</ele><time>2026-05-03T10:44:03.63Z</time></trkpt><trkpt lat="45.0766767" lon="9.2878083"><ele>93.19999999999999</ele><time>2026-05-03T10:44:04.629Z</time></trkpt><trkpt lat="45.076785" lon="9.287765"><ele>91.80000000000001</ele><time>2026-05-03T10:44:05.629Z</time></trkpt><trkpt lat="45.0768917" lon="9.2877217"><ele>90.4</ele><time>2026-05-03T10:44:06.629Z</time></trkpt><trkpt lat="45.0769983" lon="9.2876783"><ele>89.0</ele><time>2026-05-03T10:44:07.629Z</time></trkpt><trkpt lat="45.0771067" lon="9.28764"><ele>89.0</ele><time>2026-05-03T10:44:08.63Z</time></trkpt><trkpt lat="45.0772133" lon="9.2875933"><ele>89.0</ele><time>2026-05-03T10:44:09.629Z</time></trkpt><trkpt lat="45.07732" lon="9.287535"><ele>89.0</ele><time>2026-05-03T10:44:10.63Z</time></trkpt><trkpt lat="45.0774217" lon="9.2874617"><ele>89.0</ele><time>2026-05-03T10:44:11.629Z</time></trkpt><trkpt lat="45.07752" lon="9.2873767"><ele>87.0</ele><time>2026-05-03T10:44:12.629Z</time></trkpt><trkpt lat="45.0776183" lon="9.2872817"><ele>85.0</ele><time>2026-05-03T10:44:13.63Z</time></trkpt><trkpt lat="45.0777133" lon="9.2871867"><ele>83.0</ele><time>2026-05-03T10:44:14.629Z</time></trkpt><trkpt lat="45.07781" lon="9.2870917"><ele>81.0</ele><time>2026-05-03T10:44:15.631Z</time></trkpt><trkpt lat="45.0779083" lon="9.286995"><ele>80.25</ele><time>2026-05-03T10:44:16.63Z</time></trkpt><trkpt lat="45.07801" lon="9.2868983"><ele>79.5</ele><time>2026-05-03T10:44:17.629Z</time></trkpt><trkpt lat="45.0781117" lon="9.2867983"><ele>78.75</ele><time>2026-05-03T10:44:18.629Z</time></trkpt><trkpt lat="45.0782167" lon="9.2867083"><ele>78.0</ele><time>2026-05-03T10:44:19.629Z</time></trkpt><trkpt lat="45.078325" lon="9.2866383"><ele>77.5</ele><time>2026-05-03T10:44:20.629Z</time></trkpt><trkpt lat="45.07844" lon="9.2865933"><ele>77.0</ele><time>2026-05-03T10:44:21.629Z</time></trkpt><trkpt lat="45.0785617" lon="9.2865733"><ele>76.5</ele><time>2026-05-03T10:44:22.629Z</time></trkpt><trkpt lat="45.078685" lon="9.2865683"><ele>76.0</ele><time>2026-05-03T10:44:23.629Z</time></trkpt><trkpt lat="45.0788083" lon="9.2865683"><ele>76.0</ele><time>2026-05-03T10:44:24.629Z</time></trkpt><trkpt lat="45.078935" lon="9.2865633"><ele>76.0</ele><time>2026-05-03T10:44:25.629Z</time></trkpt><trkpt lat="45.0790617" lon="9.2865583"><ele>76.0</ele><time>2026-05-03T10:44:26.63Z</time></trkpt><trkpt lat="45.079185" lon="9.286555"><ele>76.0</ele><time>2026-05-03T10:44:27.629Z</time></trkpt><trkpt lat="45.0793033" lon="9.2865617"><ele>75.25</ele><time>2026-05-03T10:44:28.631Z</time></trkpt><trkpt lat="45.079425" lon="9.2865833"><ele>74.5</ele><time>2026-05-03T10:44:29.629Z</time></trkpt><trkpt lat="45.07955" lon="9.286635"><ele>73.75</ele><time>2026-05-03T10:44:30.628Z</time></trkpt><trkpt lat="45.079665" lon="9.2867183"><ele>73.0</ele><time>2026-05-03T10:44:31.63Z</time></trkpt><trkpt lat="45.0797683" lon="9.2868317"><ele>73.0</ele><time>2026-05-03T10:44:32.63Z</time></trkpt><trkpt lat="45.0798583" lon="9.286965"><ele>73.0</ele><time>2026-05-03T10:44:33.629Z</time></trkpt><trkpt lat="45.0799317" lon="9.2871217"><ele>73.0</ele><time>2026-05-03T10:44:34.629Z</time></trkpt><trkpt lat="45.0799767" lon="9.2873017"><ele>73.0</ele><time>2026-05-03T10:44:35.628Z</time></trkpt><trkpt lat="45.0799967" lon="9.28749"><ele>72.75</ele><time>2026-05-03T10:44:36.629Z</time></trkpt><trkpt lat="45.08" lon="9.287685"><ele>72.5</ele><time>2026-05-03T10:44:37.63Z</time></trkpt><trkpt lat="45.0799867" lon="9.2878783"><ele>72.25</ele><time>2026-05-03T10:44:38.63Z</time></trkpt><trkpt lat="45.07996" lon="9.2880633"><ele>72.0</ele><time>2026-05-03T10:44:39.63Z</time></trkpt><trkpt lat="45.0799333" lon="9.2882383"><ele>72.0</ele><time>2026-05-03T10:44:40.631Z</time></trkpt><trkpt lat="45.0799083" lon="9.2884017"><ele>72.0</ele><time>2026-05-03T10:44:41.63Z</time></trkpt><trkpt lat="45.079885" lon="9.2885567"><ele>72.0</ele><time>2026-05-03T10:44:42.629Z</time></trkpt><trkpt lat="45.0798633" lon="9.2886967"><ele>72.0</ele><time>2026-05-03T10:44:43.629Z</time></trkpt><trkpt lat="45.0798417" lon="9.2888267"><ele>72.0</ele><time>2026-05-03T10:44:44.63Z</time></trkpt><trkpt lat="45.0798217" lon="9.2889467"><ele>72.33333333333333</ele><time>2026-05-03T10:44:45.629Z</time></trkpt><trkpt lat="45.0798033" lon="9.2890583"><ele>72.66666666666667</ele><time>2026-05-03T10:44:46.629Z</time></trkpt><trkpt lat="45.0797883" lon="9.2891567"><ele>73.0</ele><time>2026-05-03T10:44:47.629Z</time></trkpt><trkpt lat="45.0797683" lon="9.2893033"><ele>73.33333333333334</ele><time>2026-05-03T10:44:49.629Z</time></trkpt><trkpt lat="45.07975" lon="9.289445"><ele>73.66666666666667</ele><time>2026-05-03T10:44:51.63Z</time></trkpt><trkpt lat="45.0797367" lon="9.289535"><ele>74.0</ele><time>2026-05-03T10:44:52.63Z</time></trkpt><trkpt lat="45.07972" lon="9.2896383"><ele>74.0</ele><time>2026-05-03T10:44:53.629Z</time></trkpt><trkpt lat="45.0797017" lon="9.2897517"><ele>74.0</ele><time>2026-05-03T10:44:54.63Z</time></trkpt><trkpt lat="45.0796833" lon="9.2898733"><ele>74.0</ele><time>2026-05-03T10:44:55.629Z</time></trkpt><trkpt lat="45.0796667" lon="9.290005"><ele>74.0</ele><time>2026-05-03T10:44:56.63Z</time></trkpt><trkpt lat="45.07965" lon="9.2901417"><ele>74.0</ele><time>2026-05-03T10:44:57.629Z</time></trkpt><trkpt lat="45.0796317" lon="9.290275"><ele>74.16666666666667</ele><time>2026-05-03T10:44:58.629Z</time></trkpt><trkpt lat="45.0796167" lon="9.2904017"><ele>74.33333333333334</ele><time>2026-05-03T10:44:59.629Z</time></trkpt><trkpt lat="45.0796017" lon="9.29052"><ele>74.5</ele><time>2026-05-03T10:45:00.629Z</time></trkpt><trkpt lat="45.0795867" lon="9.29064"><ele>74.66666666666667</ele><time>2026-05-03T10:45:01.629Z</time></trkpt><trkpt lat="45.0795733" lon="9.2907667"><ele>74.83333333333333</ele><time>2026-05-03T10:45:02.63Z</time></trkpt><trkpt lat="45.07956" lon="9.2908983"><ele>75.0</ele><time>2026-05-03T10:45:03.629Z</time></trkpt><trkpt lat="45.07955" lon="9.2910317"><ele>75.0</ele><time>2026-05-03T10:45:04.629Z</time></trkpt><trkpt lat="45.0795433" lon="9.2911567"><ele>75.0</ele><time>2026-05-03T10:45:05.629Z</time></trkpt><trkpt lat="45.0795367" lon="9.2912783"><ele>75.0</ele><time>2026-05-03T10:45:06.629Z</time></trkpt><trkpt lat="45.07953" lon="9.2913933"><ele>75.0</ele><time>2026-05-03T10:45:07.629Z</time></trkpt><trkpt lat="45.079525" lon="9.291505"><ele>75.0</ele><time>2026-05-03T10:45:08.628Z</time></trkpt><trkpt lat="45.0795167" lon="9.2916117"><ele>75.0</ele><time>2026-05-03T10:45:09.629Z</time></trkpt><trkpt lat="45.079505" lon="9.291715"><ele>76.0</ele><time>2026-05-03T10:45:10.629Z</time></trkpt></trkseg><trkseg><trkpt lat="45.0813483" lon="9.29462"><ele>72.0</ele><time>2026-05-03T12:43:17.631Z</time></trkpt><trkpt lat="45.0813983" lon="9.2945633"><ele>72.0</ele><time>2026-05-03T12:43:21.628Z</time></trkpt><trkpt lat="45.08138" lon="9.2944667"><ele>72.0</ele><time>2026-05-03T12:43:23.63Z</time></trkpt><trkpt lat="45.081335" lon="9.2943667"><ele>72.0</ele><time>2026-05-03T12:43:25.629Z</time></trkpt><trkpt lat="45.0812967" lon="9.2942883"><ele>72.0</ele><time>2026-05-03T12:43:27.628Z</time></trkpt><trkpt lat="45.0812317" lon="9.2942383"><ele>72.0</ele><time>2026-05-03T12:43:29.632Z</time></trkpt><trkpt lat="45.0811283" lon="9.2942"><ele>72.0</ele><time>2026-05-03T12:43:31.631Z</time></trkpt><trkpt lat="45.0810267" lon="9.2941467"><ele>72.0</ele><time>2026-05-03T12:43:33.631Z</time></trkpt><trkpt lat="45.0809517" lon="9.2940317"><ele>72.0</ele><time>2026-05-03T12:43:35.631Z</time></trkpt><trkpt lat="45.0809333" lon="9.2939367"><ele>72.0</ele><time>2026-05-03T12:43:36.629Z</time></trkpt><trkpt lat="45.0809233" lon="9.293815"><ele>72.0</ele><time>2026-05-03T12:43:37.63Z</time></trkpt><trkpt lat="45.080925" lon="9.2936783"><ele>72.0</ele><time>2026-05-03T12:43:38.629Z</time></trkpt><trkpt lat="45.0809267" lon="9.2935317"><ele>72.0</ele><time>2026-05-03T12:43:39.63Z</time></trkpt><trkpt lat="45.080935" lon="9.2933817"><ele>72.0</ele><time>2026-05-03T12:43:40.628Z</time></trkpt><trkpt lat="45.0809467" lon="9.29324"><ele>72.0</ele><time>2026-05-03T12:43:41.629Z</time></trkpt><trkpt lat="45.0809617" lon="9.2931133"><ele>72.0</ele><time>2026-05-03T12:43:42.628Z</time></trkpt><trkpt lat="45.0809783" lon="9.293"><ele>72.0</ele><time>2026-05-03T12:43:43.63Z</time></trkpt><trkpt lat="45.0809933" lon="9.2929083"><ele>72.0</ele><time>2026-05-03T12:43:44.63Z</time></trkpt><trkpt lat="45.0810067" lon="9.2927633"><ele>72.0</ele><time>2026-05-03T12:43:46.63Z</time></trkpt><trkpt lat="45.0810133" lon="9.2926467"><ele>72.0</ele><time>2026-05-03T12:43:48.63Z</time></trkpt><trkpt lat="45.081025" lon="9.2925233"><ele>72.0</ele><time>2026-05-03T12:43:50.63Z</time></trkpt><trkpt lat="45.08106" lon="9.2923483"><ele>72.0</ele><time>2026-05-03T12:43:52.63Z</time></trkpt><trkpt lat="45.0810767" lon="9.29224"><ele>72.0</ele><time>2026-05-03T12:43:53.63Z</time></trkpt><trkpt lat="45.0810933" lon="9.2921167"><ele>72.0</ele><time>2026-05-03T12:43:54.63Z</time></trkpt><trkpt lat="45.0811133" lon="9.2919767"><ele>72.0</ele><time>2026-05-03T12:43:55.631Z</time></trkpt><trkpt lat="45.081135" lon="9.29184"><ele>72.0</ele><time>2026-05-03T12:43:56.63Z</time></trkpt><trkpt lat="45.08115" lon="9.2917267"><ele>72.0</ele><time>2026-05-03T12:43:57.629Z</time></trkpt><trkpt lat="45.0811617" lon="9.2916267"><ele>72.0</ele><time>2026-05-03T12:43:58.629Z</time></trkpt><trkpt lat="45.081175" lon="9.2915217"><ele>72.0</ele><time>2026-05-03T12:43:59.629Z</time></trkpt><trkpt lat="45.0811917" lon="9.2914067"><ele>72.0</ele><time>2026-05-03T12:44:00.63Z</time></trkpt><trkpt lat="45.0812083" lon="9.2912917"><ele>72.0</ele><time>2026-05-03T12:44:01.629Z</time></trkpt><trkpt lat="45.0812283" lon="9.2911783"><ele>72.0</ele><time>2026-05-03T12:44:02.631Z</time></trkpt><trkpt lat="45.08125" lon="9.29107"><ele>72.0</ele><time>2026-05-03T12:44:03.631Z</time></trkpt><trkpt lat="45.0812717" lon="9.2909683"><ele>71.6</ele><time>2026-05-03T12:44:04.629Z</time></trkpt><trkpt lat="45.081285" lon="9.29088"><ele>71.2</ele><time>2026-05-03T12:44:05.629Z</time></trkpt><trkpt lat="45.0812633" lon="9.2907383"><ele>70.8</ele><time>2026-05-03T12:44:07.631Z</time></trkpt><trkpt lat="45.0811817" lon="9.2906917"><ele>70.4</ele><time>2026-05-03T12:44:09.629Z</time></trkpt><trkpt lat="45.0810533" lon="9.2906717"><ele>70.0</ele><time>2026-05-03T12:44:11.629Z</time></trkpt><trkpt lat="45.080975" lon="9.2906583"><ele>70.0</ele><time>2026-05-03T12:44:12.629Z</time></trkpt><trkpt lat="45.080895" lon="9.290645"><ele>70.0</ele><time>2026-05-03T12:44:13.63Z</time></trkpt><trkpt lat="45.0808117" lon="9.29063"><ele>70.0</ele><time>2026-05-03T12:44:14.631Z</time></trkpt><trkpt lat="45.080725" lon="9.2906083"><ele>70.0</ele><time>2026-05-03T12:44:15.63Z</time></trkpt><trkpt lat="45.080635" lon="9.2905867"><ele>70.0</ele><time>2026-05-03T12:44:16.632Z</time></trkpt><trkpt lat="45.0805417" lon="9.290565"><ele>70.0</ele><time>2026-05-03T12:44:17.631Z</time></trkpt><trkpt lat="45.0804433" lon="9.29054"><ele>70.6</ele><time>2026-05-03T12:44:18.631Z</time></trkpt><trkpt lat="45.0803433" lon="9.29052"><ele>71.2</ele><time>2026-05-03T12:44:19.631Z</time></trkpt><trkpt lat="45.0802417" lon="9.2905"><ele>71.8</ele><time>2026-05-03T12:44:20.632Z</time></trkpt><trkpt lat="45.0801467" lon="9.2904783"><ele>72.4</ele><time>2026-05-03T12:44:21.631Z</time></trkpt><trkpt lat="45.0800667" lon="9.2904533"><ele>73.0</ele><time>2026-05-03T12:44:22.63Z</time></trkpt><trkpt lat="45.079995" lon="9.2904333"><ele>73.33333333333333</ele><time>2026-05-03T12:44:23.631Z</time></trkpt><trkpt lat="45.0798917" lon="9.29041"><ele>73.66666666666666</ele><time>2026-05-03T12:44:25.63Z</time></trkpt><trkpt lat="45.0798133" lon="9.2903883"><ele>74.0</ele><time>2026-05-03T12:44:27.629Z</time></trkpt><trkpt lat="45.0797467" lon="9.290375"><ele>74.33333333333333</ele><time>2026-05-03T12:44:29.629Z</time></trkpt><trkpt lat="45.0796883" lon="9.2903333"><ele>74.66666666666667</ele><time>2026-05-03T12:44:31.631Z</time></trkpt><trkpt lat="45.07965" lon="9.29024"><ele>75.0</ele><time>2026-05-03T12:44:33.629Z</time></trkpt><trkpt lat="45.07966" lon="9.2900817"><ele>75.0</ele><time>2026-05-03T12:44:35.63Z</time></trkpt><trkpt lat="45.079675" lon="9.2899783"><ele>75.0</ele><time>2026-05-03T12:44:36.631Z</time></trkpt><trkpt lat="45.0796967" lon="9.289865"><ele>75.0</ele><time>2026-05-03T12:44:37.631Z</time></trkpt><trkpt lat="45.0797217" lon="9.2897383"><ele>75.0</ele><time>2026-05-03T12:44:38.631Z</time></trkpt><trkpt lat="45.079745" lon="9.2896033"><ele>75.0</ele><time>2026-05-03T12:44:39.629Z</time></trkpt><trkpt lat="45.0797683" lon="9.289475"><ele>75.0</ele><time>2026-05-03T12:44:40.629Z</time></trkpt><trkpt lat="45.0797867" lon="9.2893667"><ele>74.8</ele><time>2026-05-03T12:44:41.631Z</time></trkpt><trkpt lat="45.0798067" lon="9.2892367"><ele>74.6</ele><time>2026-05-03T12:44:43.63Z</time></trkpt><trkpt lat="45.0798283" lon="9.2890767"><ele>74.4</ele><time>2026-05-03T12:44:45.632Z</time></trkpt><trkpt lat="45.07984" lon="9.288965"><ele>74.2</ele><time>2026-05-03T12:44:46.631Z</time></trkpt><trkpt lat="45.0798567" lon="9.28884"><ele>74.0</ele><time>2026-05-03T12:44:47.631Z</time></trkpt><trkpt lat="45.0798767" lon="9.2887017"><ele>73.5</ele><time>2026-05-03T12:44:48.631Z</time></trkpt><trkpt lat="45.0799" lon="9.2885483"><ele>73.0</ele><time>2026-05-03T12:44:49.632Z</time></trkpt><trkpt lat="45.079925" lon="9.288385"><ele>72.5</ele><time>2026-05-03T12:44:50.632Z</time></trkpt><trkpt lat="45.0799517" lon="9.288215"><ele>72.0</ele><time>2026-05-03T12:44:51.63Z</time></trkpt><trkpt lat="45.0799767" lon="9.288045"><ele>72.0</ele><time>2026-05-03T12:44:52.631Z</time></trkpt><trkpt lat="45.0800017" lon="9.28787"><ele>72.0</ele><time>2026-05-03T12:44:53.63Z</time></trkpt><trkpt lat="45.08002" lon="9.2876933"><ele>72.0</ele><time>2026-05-03T12:44:54.63Z</time></trkpt><trkpt lat="45.08002" lon="9.2875117"><ele>72.0</ele><time>2026-05-03T12:44:55.629Z</time></trkpt><trkpt lat="45.0800017" lon="9.2873333"><ele>72.25</ele><time>2026-05-03T12:44:56.631Z</time></trkpt><trkpt lat="45.0799633" lon="9.2871617"><ele>72.5</ele><time>2026-05-03T12:44:57.631Z</time></trkpt><trkpt lat="45.0799067" lon="9.2870017"><ele>72.75</ele><time>2026-05-03T12:44:58.631Z</time></trkpt><trkpt lat="45.0798383" lon="9.2868517"><ele>73.0</ele><time>2026-05-03T12:44:59.63Z</time></trkpt><trkpt lat="45.0797517" lon="9.28671"><ele>73.0</ele><time>2026-05-03T12:45:00.631Z</time></trkpt><trkpt lat="45.07965" lon="9.2866017"><ele>73.0</ele><time>2026-05-03T12:45:01.631Z</time></trkpt><trkpt lat="45.079535" lon="9.2865383"><ele>73.0</ele><time>2026-05-03T12:45:02.631Z</time></trkpt><trkpt lat="45.0794233" lon="9.2864917"><ele>73.0</ele><time>2026-05-03T12:45:03.631Z</time></trkpt><trkpt lat="45.0793083" lon="9.2864733"><ele>73.0</ele><time>2026-05-03T12:45:04.629Z</time></trkpt><trkpt lat="45.0791967" lon="9.28647"><ele>73.0</ele><time>2026-05-03T12:45:05.629Z</time></trkpt><trkpt lat="45.0790833" lon="9.2864817"><ele>73.0</ele><time>2026-05-03T12:45:06.63Z</time></trkpt><trkpt lat="45.078975" lon="9.2864883"><ele>73.0</ele><time>2026-05-03T12:45:07.63Z</time></trkpt><trkpt lat="45.0788633" lon="9.286495"><ele>73.0</ele><time>2026-05-03T12:45:08.631Z</time></trkpt><trkpt lat="45.0787533" lon="9.2864967"><ele>73.6</ele><time>2026-05-03T12:45:09.629Z</time></trkpt><trkpt lat="45.07865" lon="9.2864983"><ele>74.19999999999999</ele><time>2026-05-03T12:45:10.631Z</time></trkpt><trkpt lat="45.0785517" lon="9.2865"><ele>74.8</ele><time>2026-05-03T12:45:11.631Z</time></trkpt><trkpt lat="45.0784617" lon="9.2865133"><ele>75.39999999999999</ele><time>2026-05-03T12:45:12.63Z</time></trkpt><trkpt lat="45.07838" lon="9.286535"><ele>76.0</ele><time>2026-05-03T12:45:13.63Z</time></trkpt><trkpt lat="45.0783083" lon="9.2865633"><ele>76.33333333333333</ele><time>2026-05-03T12:45:14.63Z</time></trkpt><trkpt lat="45.0782367" lon="9.2866017"><ele>76.66666666666666</ele><time>2026-05-03T12:45:15.63Z</time></trkpt><trkpt lat="45.0781717" lon="9.2866483"><ele>77.0</ele><time>2026-05-03T12:45:16.63Z</time></trkpt><trkpt lat="45.0780767" lon="9.286725"><ele>77.33333333333333</ele><time>2026-05-03T12:45:18.629Z</time></trkpt><trkpt lat="45.0780233" lon="9.2867833"><ele>77.66666666666667</ele><time>2026-05-03T12:45:20.63Z</time></trkpt><trkpt lat="45.0779367" lon="9.2868183"><ele>78.0</ele><time>2026-05-03T12:45:23.631Z</time></trkpt><trkpt lat="45.0778667" lon="9.28677"><ele>78.0</ele><time>2026-05-03T12:45:25.631Z</time></trkpt><trkpt lat="45.0778333" lon="9.2866533"><ele>78.0</ele><time>2026-05-03T12:45:27.632Z</time></trkpt><trkpt lat="45.0777717" lon="9.2865283"><ele>78.0</ele><time>2026-05-03T12:45:29.629Z</time></trkpt><trkpt lat="45.077745" lon="9.2864283"><ele>78.0</ele><time>2026-05-03T12:45:30.629Z</time></trkpt><trkpt lat="45.0777233" lon="9.2863217"><ele>78.0</ele><time>2026-05-03T12:45:31.629Z</time></trkpt><trkpt lat="45.0777" lon="9.286195"><ele>78.0</ele><time>2026-05-03T12:45:32.63Z</time></trkpt><trkpt lat="45.07768" lon="9.2860767"><ele>78.28571428571429</ele><time>2026-05-03T12:45:33.629Z</time></trkpt><trkpt lat="45.0776583" lon="9.2859667"><ele>78.57142857142857</ele><time>2026-05-03T12:45:34.629Z</time></trkpt><trkpt lat="45.0776517" lon="9.2858683"><ele>78.85714285714286</ele><time>2026-05-03T12:45:35.628Z</time></trkpt><trkpt lat="45.07767" lon="9.285775"><ele>79.14285714285714</ele><time>2026-05-03T12:45:36.629Z</time></trkpt><trkpt lat="45.077705" lon="9.2856933"><ele>79.42857142857143</ele><time>2026-05-03T12:45:37.63Z</time></trkpt><trkpt lat="45.077755" lon="9.2856267"><ele>79.71428571428571</ele><time>2026-05-03T12:45:38.629Z</time></trkpt><trkpt lat="45.07782" lon="9.2855733"><ele>80.0</ele><time>2026-05-03T12:45:39.629Z</time></trkpt><trkpt lat="45.0778967" lon="9.2855333"><ele>80.0</ele><time>2026-05-03T12:45:40.63Z</time></trkpt><trkpt lat="45.0779817" lon="9.2854917"><ele>80.0</ele><time>2026-05-03T12:45:41.629Z</time></trkpt><trkpt lat="45.0780633" lon="9.2854417"><ele>80.0</ele><time>2026-05-03T12:45:42.629Z</time></trkpt><trkpt lat="45.078135" lon="9.285385"><ele>80.0</ele><time>2026-05-03T12:45:43.63Z</time></trkpt><trkpt lat="45.078195" lon="9.2853417"><ele>80.0</ele><time>2026-05-03T12:45:44.631Z</time></trkpt><trkpt lat="45.0782967" lon="9.28528"><ele>80.0</ele><time>2026-05-03T12:45:46.629Z</time></trkpt><trkpt lat="45.0784" lon="9.28526"><ele>79.0</ele><time>2026-05-03T12:45:48.629Z</time></trkpt><trkpt lat="45.0784933" lon="9.285375"><ele>78.0</ele><time>2026-05-03T12:45:50.63Z</time></trkpt><trkpt lat="45.07853" lon="9.2854833"><ele>77.0</ele><time>2026-05-03T12:45:51.629Z</time></trkpt><trkpt lat="45.0785667" lon="9.2856133"><ele>76.0</ele><time>2026-05-03T12:45:52.63Z</time></trkpt><trkpt lat="45.0786017" lon="9.28576"><ele>75.0</ele><time>2026-05-03T12:45:53.63Z</time></trkpt><trkpt lat="45.07864" lon="9.2859233"><ele>75.0</ele><time>2026-05-03T12:45:54.63Z</time></trkpt><trkpt lat="45.0786833" lon="9.2860983"><ele>75.0</ele><time>2026-05-03T12:45:55.63Z</time></trkpt><trkpt lat="45.07873" lon="9.2862783"><ele>75.0</ele><time>2026-05-03T12:45:56.629Z</time></trkpt><trkpt lat="45.0787733" lon="9.2864633"><ele>75.0</ele><time>2026-05-03T12:45:57.629Z</time></trkpt><trkpt lat="45.0788133" lon="9.28666"><ele>75.0</ele><time>2026-05-03T12:45:58.63Z</time></trkpt><trkpt lat="45.078845" lon="9.2868683"><ele>75.0</ele><time>2026-05-03T12:45:59.629Z</time></trkpt><trkpt lat="45.07887" lon="9.287085"><ele>75.0</ele><time>2026-05-03T12:46:00.631Z</time></trkpt><trkpt lat="45.0788783" lon="9.28731"><ele>75.0</ele><time>2026-05-03T12:46:01.63Z</time></trkpt><trkpt lat="45.078875" lon="9.2875367"><ele>75.0</ele><time>2026-05-03T12:46:02.63Z</time></trkpt><trkpt lat="45.0788767" lon="9.287765"><ele>75.0</ele><time>2026-05-03T12:46:03.629Z</time></trkpt><trkpt lat="45.07888" lon="9.2879933"><ele>74.33333333333333</ele><time>2026-05-03T12:46:04.628Z</time></trkpt><trkpt lat="45.0788817" lon="9.288225"><ele>73.66666666666666</ele><time>2026-05-03T12:46:05.629Z</time></trkpt><trkpt lat="45.0788833" lon="9.28846"><ele>73.0</ele><time>2026-05-03T12:46:06.63Z</time></trkpt><trkpt lat="45.078885" lon="9.2887017"><ele>73.66666666666666</ele><time>2026-05-03T12:46:07.629Z</time></trkpt><trkpt lat="45.0788867" lon="9.288945"><ele>74.33333333333333</ele><time>2026-05-03T12:46:08.63Z</time></trkpt><trkpt lat="45.0788883" lon="9.28919"><ele>75.0</ele><time>2026-05-03T12:46:09.629Z</time></trkpt><trkpt lat="45.07889" lon="9.2894367"><ele>75.0</ele><time>2026-05-03T12:46:10.63Z</time></trkpt><trkpt lat="45.0788917" lon="9.28968"><ele>75.0</ele><time>2026-05-03T12:46:11.629Z</time></trkpt><trkpt lat="45.0788933" lon="9.2899183"><ele>75.0</ele><time>2026-05-03T12:46:12.629Z</time></trkpt><trkpt lat="45.0788967" lon="9.2901467"><ele>75.25</ele><time>2026-05-03T12:46:13.63Z</time></trkpt><trkpt lat="45.0788967" lon="9.2903567"><ele>75.5</ele><time>2026-05-03T12:46:14.63Z</time></trkpt><trkpt lat="45.0788983" lon="9.2905517"><ele>75.75</ele><time>2026-05-03T12:46:15.629Z</time></trkpt><trkpt lat="45.0788983" lon="9.2907283"><ele>76.0</ele><time>2026-05-03T12:46:16.628Z</time></trkpt><trkpt lat="45.0788983" lon="9.29089"><ele>76.0</ele><time>2026-05-03T12:46:17.629Z</time></trkpt><trkpt lat="45.0788983" lon="9.2910317"><ele>76.0</ele><time>2026-05-03T12:46:18.63Z</time></trkpt><trkpt lat="45.0788983" lon="9.2911567"><ele>76.0</ele><time>2026-05-03T12:46:19.629Z</time></trkpt><trkpt lat="45.0788983" lon="9.2912583"><ele>76.0</ele><time>2026-05-03T12:46:20.63Z</time></trkpt><trkpt lat="45.0789017" lon="9.2913817"><ele>76.0</ele><time>2026-05-03T12:46:22.629Z</time></trkpt><trkpt lat="45.07891" lon="9.291485"><ele>76.0</ele><time>2026-05-03T12:46:28.63Z</time></trkpt><trkpt lat="45.0789094" lon="9.2915937"><ele>76.33333333333333</ele><time>2026-05-03T12:46:31.536Z</time></trkpt><trkpt lat="45.078904" lon="9.2917153"><ele>76.66666666666666</ele><time>2026-05-03T12:46:33.63Z</time></trkpt><trkpt lat="45.0789076" lon="9.2918891"><ele>77.0</ele><time>2026-05-03T12:46:35.63Z</time></trkpt><trkpt lat="45.0789067" lon="9.2919898"><ele>77.33333333333333</ele><time>2026-05-03T12:46:36.63Z</time></trkpt><trkpt lat="45.078907" lon="9.2920979"><ele>77.66666666666667</ele><time>2026-05-03T12:46:37.63Z</time></trkpt><trkpt lat="45.0789086" lon="9.2922087"><ele>78.0</ele><time>2026-05-03T12:46:38.63Z</time></trkpt><trkpt lat="45.0789103" lon="9.2923248"><ele>78.2</ele><time>2026-05-03T12:46:39.629Z</time></trkpt><trkpt lat="45.0789131" lon="9.2924506"><ele>78.4</ele><time>2026-05-03T12:46:40.629Z</time></trkpt><trkpt lat="45.0789153" lon="9.2925853"><ele>78.60000000000001</ele><time>2026-05-03T12:46:41.63Z</time></trkpt><trkpt lat="45.0789155" lon="9.292723"><ele>78.8</ele><time>2026-05-03T12:46:42.63Z</time></trkpt><trkpt lat="45.0789155" lon="9.2928648"><ele>79.0</ele><time>2026-05-03T12:46:43.63Z</time></trkpt><trkpt lat="45.0789172" lon="9.2930115"><ele>79.2</ele><time>2026-05-03T12:46:44.63Z</time></trkpt><trkpt lat="45.0789169" lon="9.2931605"><ele>79.4</ele><time>2026-05-03T12:46:45.63Z</time></trkpt><trkpt lat="45.0789155" lon="9.2933164"><ele>79.6</ele><time>2026-05-03T12:46:46.63Z</time></trkpt><trkpt lat="45.0789139" lon="9.2934771"><ele>79.8</ele><time>2026-05-03T12:46:47.63Z</time></trkpt><trkpt lat="45.0789123" lon="9.2936436"><ele>80.0</ele><time>2026-05-03T12:46:48.629Z</time></trkpt><trkpt lat="45.0789119" lon="9.2938139"><ele>79.25</ele><time>2026-05-03T12:46:49.63Z</time></trkpt><trkpt lat="45.0789107" lon="9.2939887"><ele>78.5</ele><time>2026-05-03T12:46:50.63Z</time></trkpt><trkpt lat="45.0789125" lon="9.2941699"><ele>77.75</ele><time>2026-05-03T12:46:51.63Z</time></trkpt><trkpt lat="45.0789138" lon="9.2943591"><ele>77.0</ele><time>2026-05-03T12:46:52.629Z</time></trkpt><trkpt lat="45.0789183" lon="9.2945522"><ele>77.0</ele><time>2026-05-03T12:46:53.63Z</time></trkpt><trkpt lat="45.0789221" lon="9.294749"><ele>77.0</ele><time>2026-05-03T12:46:54.63Z</time></trkpt><trkpt lat="45.0789256" lon="9.2949507"><ele>77.0</ele><time>2026-05-03T12:46:55.629Z</time></trkpt><trkpt lat="45.0789277" lon="9.2951587"><ele>77.0</ele><time>2026-05-03T12:46:56.63Z</time></trkpt><trkpt lat="45.0789252" lon="9.2953731"><ele>77.33333333333334</ele><time>2026-05-03T12:46:57.629Z</time></trkpt><trkpt lat="45.0789184" lon="9.2955917"><ele>77.66666666666667</ele><time>2026-05-03T12:46:58.63Z</time></trkpt><trkpt lat="45.0789053" lon="9.2958138"><ele>78.0</ele><time>2026-05-03T12:46:59.629Z</time></trkpt><trkpt lat="45.0788908" lon="9.2960364"><ele>78.0</ele><time>2026-05-03T12:47:00.629Z</time></trkpt><trkpt lat="45.0788775" lon="9.2962598"><ele>78.0</ele><time>2026-05-03T12:47:01.629Z</time></trkpt><trkpt lat="45.0788642" lon="9.296482"><ele>78.0</ele><time>2026-05-03T12:47:02.629Z</time></trkpt><trkpt lat="45.078852" lon="9.296701"><ele>77.66666666666667</ele><time>2026-05-03T12:47:03.629Z</time></trkpt><trkpt lat="45.0788399" lon="9.2969204"><ele>77.33333333333334</ele><time>2026-05-03T12:47:04.629Z</time></trkpt><trkpt lat="45.0788313" lon="9.2971403"><ele>77.0</ele><time>2026-05-03T12:47:05.629Z</time></trkpt><trkpt lat="45.0788293" lon="9.2973619"><ele>76.66666666666667</ele><time>2026-05-03T12:47:06.629Z</time></trkpt><trkpt lat="45.0788273" lon="9.297589"><ele>76.33333333333333</ele><time>2026-05-03T12:47:07.629Z</time></trkpt><trkpt lat="45.07883" lon="9.2978096"><ele>76.0</ele><time>2026-05-03T12:47:08.629Z</time></trkpt><trkpt lat="45.0788376" lon="9.2980306"><ele>75.33333333333333</ele><time>2026-05-03T12:47:09.63Z</time></trkpt><trkpt lat="45.0788483" lon="9.2982517"><ele>74.66666666666667</ele><time>2026-05-03T12:47:10.63Z</time></trkpt><trkpt lat="45.0788583" lon="9.298475"><ele>74.0</ele><time>2026-05-03T12:47:11.629Z</time></trkpt><trkpt lat="45.0788717" lon="9.2986983"><ele>74.66666666666667</ele><time>2026-05-03T12:47:12.63Z</time></trkpt><trkpt lat="45.07888" lon="9.29892"><ele>75.33333333333333</ele><time>2026-05-03T12:47:13.631Z</time></trkpt><trkpt lat="45.07889" lon="9.2991333"><ele>76.0</ele><time>2026-05-03T12:47:14.631Z</time></trkpt><trkpt lat="45.0788983" lon="9.2993483"><ele>76.0</ele><time>2026-05-03T12:47:15.629Z</time></trkpt><trkpt lat="45.0789083" lon="9.2995567"><ele>76.0</ele><time>2026-05-03T12:47:16.629Z</time></trkpt><trkpt lat="45.0789183" lon="9.2997533"><ele>76.0</ele><time>2026-05-03T12:47:17.631Z</time></trkpt><trkpt lat="45.0789283" lon="9.2999433"><ele>76.0</ele><time>2026-05-03T12:47:18.63Z</time></trkpt><trkpt lat="45.0789383" lon="9.3001217"><ele>76.39999999999999</ele><time>2026-05-03T12:47:19.631Z</time></trkpt><trkpt lat="45.0789483" lon="9.3002833"><ele>76.8</ele><time>2026-05-03T12:47:20.631Z</time></trkpt><trkpt lat="45.0789583" lon="9.30043"><ele>77.19999999999999</ele><time>2026-05-03T12:47:21.631Z</time></trkpt><trkpt lat="45.078965" lon="9.300565"><ele>77.6</ele><time>2026-05-03T12:47:22.63Z</time></trkpt><trkpt lat="45.0789683" lon="9.3006883"><ele>78.0</ele><time>2026-05-03T12:47:23.631Z</time></trkpt><trkpt lat="45.0789683" lon="9.3008017"><ele>78.2</ele><time>2026-05-03T12:47:24.631Z</time></trkpt><trkpt lat="45.07897" lon="9.3009033"><ele>78.4</ele><time>2026-05-03T12:47:25.629Z</time></trkpt><trkpt lat="45.0789667" lon="9.3010683"><ele>78.60000000000001</ele><time>2026-05-03T12:47:27.63Z</time></trkpt><trkpt lat="45.07896" lon="9.30121"><ele>78.8</ele><time>2026-05-03T12:47:29.63Z</time></trkpt><trkpt lat="45.0789517" lon="9.3013467"><ele>79.0</ele><time>2026-05-03T12:47:31.629Z</time></trkpt><trkpt lat="45.0789383" lon="9.3015233"><ele>79.0</ele><time>2026-05-03T12:47:33.629Z</time></trkpt><trkpt lat="45.0789317" lon="9.3016333"><ele>79.0</ele><time>2026-05-03T12:47:34.629Z</time></trkpt><trkpt lat="45.0789233" lon="9.301755"><ele>79.0</ele><time>2026-05-03T12:47:35.629Z</time></trkpt><trkpt lat="45.078915" lon="9.30188"><ele>79.0</ele><time>2026-05-03T12:47:36.628Z</time></trkpt><trkpt lat="45.078905" lon="9.30201"><ele>79.0</ele><time>2026-05-03T12:47:37.629Z</time></trkpt><trkpt lat="45.0788983" lon="9.3021417"><ele>79.0</ele><time>2026-05-03T12:47:38.631Z</time></trkpt><trkpt lat="45.07889" lon="9.3022817"><ele>78.8</ele><time>2026-05-03T12:47:39.631Z</time></trkpt><trkpt lat="45.0788817" lon="9.30243"><ele>78.60000000000001</ele><time>2026-05-03T12:47:40.63Z</time></trkpt><trkpt lat="45.07887" lon="9.3025867"><ele>78.4</ele><time>2026-05-03T12:47:41.63Z</time></trkpt><trkpt lat="45.07886" lon="9.3027383"><ele>78.2</ele><time>2026-05-03T12:47:42.63Z</time></trkpt><trkpt lat="45.07885" lon="9.302895"><ele>78.0</ele><time>2026-05-03T12:47:43.629Z</time></trkpt><trkpt lat="45.0788417" lon="9.3030483"><ele>78.0</ele><time>2026-05-03T12:47:44.63Z</time></trkpt><trkpt lat="45.0788317" lon="9.3032"><ele>78.0</ele><time>2026-05-03T12:47:45.629Z</time></trkpt><trkpt lat="45.0788183" lon="9.303355"><ele>78.0</ele><time>2026-05-03T12:47:46.631Z</time></trkpt><trkpt lat="45.0788" lon="9.3035083"><ele>78.0</ele><time>2026-05-03T12:47:47.63Z</time></trkpt><trkpt lat="45.078775" lon="9.3036617"><ele>78.0</ele><time>2026-05-03T12:47:48.63Z</time></trkpt><trkpt lat="45.0787383" lon="9.303815"><ele>78.25</ele><time>2026-05-03T12:47:49.629Z</time></trkpt><trkpt lat="45.0786933" lon="9.3039617"><ele>78.5</ele><time>2026-05-03T12:47:50.629Z</time></trkpt><trkpt lat="45.078645" lon="9.3041083"><ele>78.75</ele><time>2026-05-03T12:47:51.63Z</time></trkpt><trkpt lat="45.07859" lon="9.3042483"><ele>79.0</ele><time>2026-05-03T12:47:52.63Z</time></trkpt><trkpt lat="45.0785267" lon="9.304385"><ele>79.0</ele><time>2026-05-03T12:47:53.63Z</time></trkpt><trkpt lat="45.07846" lon="9.3045167"><ele>79.0</ele><time>2026-05-03T12:47:54.629Z</time></trkpt><trkpt lat="45.078385" lon="9.30464"><ele>79.0</ele><time>2026-05-03T12:47:55.629Z</time></trkpt><trkpt lat="45.0783083" lon="9.3047567"><ele>79.0</ele><time>2026-05-03T12:47:56.63Z</time></trkpt><trkpt lat="45.0782283" lon="9.3048617"><ele>79.0</ele><time>2026-05-03T12:47:57.629Z</time></trkpt><trkpt lat="45.078145" lon="9.3049583"><ele>79.0</ele><time>2026-05-03T12:47:58.629Z</time></trkpt><trkpt lat="45.0780583" lon="9.3050517"><ele>79.0</ele><time>2026-05-03T12:47:59.629Z</time></trkpt><trkpt lat="45.0779683" lon="9.305135"><ele>79.0</ele><time>2026-05-03T12:48:00.629Z</time></trkpt><trkpt lat="45.0778717" lon="9.3052167"><ele>79.0</ele><time>2026-05-03T12:48:01.629Z</time></trkpt><trkpt lat="45.0777783" lon="9.3052933"><ele>79.0</ele><time>2026-05-03T12:48:02.63Z</time></trkpt><trkpt lat="45.0776867" lon="9.305365"><ele>79.0</ele><time>2026-05-03T12:48:03.629Z</time></trkpt><trkpt lat="45.0776" lon="9.3054333"><ele>79.0</ele><time>2026-05-03T12:48:04.63Z</time></trkpt><trkpt lat="45.0775183" lon="9.3054983"><ele>79.0</ele><time>2026-05-03T12:48:05.629Z</time></trkpt><trkpt lat="45.0774383" lon="9.3055633"><ele>79.0</ele><time>2026-05-03T12:48:06.628Z</time></trkpt><trkpt lat="45.0773567" lon="9.3056317"><ele>79.2</ele><time>2026-05-03T12:48:07.629Z</time></trkpt><trkpt lat="45.0772717" lon="9.3057"><ele>79.4</ele><time>2026-05-03T12:48:08.63Z</time></trkpt><trkpt lat="45.077185" lon="9.3057717"><ele>79.6</ele><time>2026-05-03T12:48:09.629Z</time></trkpt><trkpt lat="45.0770967" lon="9.305845"><ele>79.8</ele><time>2026-05-03T12:48:10.629Z</time></trkpt><trkpt lat="45.0770083" lon="9.3059167"><ele>80.0</ele><time>2026-05-03T12:48:11.63Z</time></trkpt><trkpt lat="45.0769183" lon="9.3059917"><ele>80.0</ele><time>2026-05-03T12:48:12.629Z</time></trkpt><trkpt lat="45.0768283" lon="9.306065"><ele>80.0</ele><time>2026-05-03T12:48:13.629Z</time></trkpt><trkpt lat="45.0767367" lon="9.3061417"><ele>80.0</ele><time>2026-05-03T12:48:14.629Z</time></trkpt><trkpt lat="45.0766467" lon="9.306215"><ele>80.0</ele><time>2026-05-03T12:48:15.628Z</time></trkpt><trkpt lat="45.0765533" lon="9.3062883"><ele>80.0</ele><time>2026-05-03T12:48:16.629Z</time></trkpt><trkpt lat="45.0764633" lon="9.3063617"><ele>79.83333333333334</ele><time>2026-05-03T12:48:17.629Z</time></trkpt><trkpt lat="45.0763767" lon="9.3064267"><ele>79.66666666666667</ele><time>2026-05-03T12:48:18.63Z</time></trkpt><trkpt lat="45.076295" lon="9.30649"><ele>79.5</ele><time>2026-05-03T12:48:19.63Z</time></trkpt><trkpt lat="45.0762217" lon="9.3065483"><ele>79.33333333333333</ele><time>2026-05-03T12:48:20.63Z</time></trkpt><trkpt lat="45.0761517" lon="9.30661"><ele>79.16666666666666</ele><time>2026-05-03T12:48:21.631Z</time></trkpt><trkpt lat="45.0760883" lon="9.30667"><ele>79.0</ele><time>2026-05-03T12:48:22.629Z</time></trkpt><trkpt lat="45.076035" lon="9.3067233"><ele>79.0</ele><time>2026-05-03T12:48:23.629Z</time></trkpt><trkpt lat="45.07596" lon="9.306805"><ele>79.0</ele><time>2026-05-03T12:48:25.629Z</time></trkpt><trkpt lat="45.0759067" lon="9.30687"><ele>79.0</ele><time>2026-05-03T12:48:30.628Z</time></trkpt><trkpt lat="45.0758433" lon="9.3069567"><ele>79.0</ele><time>2026-05-03T12:48:34.629Z</time></trkpt><trkpt lat="45.0757833" lon="9.30703"><ele>79.0</ele><time>2026-05-03T12:48:37.628Z</time></trkpt><trkpt lat="45.0756933" lon="9.3070717"><ele>79.0</ele><time>2026-05-03T12:48:39.629Z</time></trkpt><trkpt lat="45.075575" lon="9.307095"><ele>79.28571428571429</ele><time>2026-05-03T12:48:41.629Z</time></trkpt><trkpt lat="45.0755183" lon="9.3071367"><ele>79.57142857142857</ele><time>2026-05-03T12:48:42.63Z</time></trkpt><trkpt lat="45.075475" lon="9.3072033"><ele>79.85714285714286</ele><time>2026-05-03T12:48:43.629Z</time></trkpt><trkpt lat="45.07545" lon="9.307295"><ele>80.14285714285714</ele><time>2026-05-03T12:48:44.629Z</time></trkpt><trkpt lat="45.0754533" lon="9.3074033"><ele>80.42857142857143</ele><time>2026-05-03T12:48:45.629Z</time></trkpt><trkpt lat="45.0754683" lon="9.3075133"><ele>80.71428571428572</ele><time>2026-05-03T12:48:46.629Z</time></trkpt><trkpt lat="45.07547" lon="9.3076333"><ele>81.0</ele><time>2026-05-03T12:48:47.629Z</time></trkpt><trkpt lat="45.075455" lon="9.3077617"><ele>80.2</ele><time>2026-05-03T12:48:48.63Z</time></trkpt><trkpt lat="45.0754283" lon="9.3078967"><ele>79.39999999999999</ele><time>2026-05-03T12:48:49.63Z</time></trkpt><trkpt lat="45.0753983" lon="9.308035"><ele>78.6</ele><time>2026-05-03T12:48:50.629Z</time></trkpt><trkpt lat="45.0753633" lon="9.30818"><ele>77.8</ele><time>2026-05-03T12:48:51.63Z</time></trkpt><trkpt lat="45.0753267" lon="9.3083317"><ele>77.0</ele><time>2026-05-03T12:48:52.629Z</time></trkpt><trkpt lat="45.075285" lon="9.3084917"><ele>77.0</ele><time>2026-05-03T12:48:53.63Z</time></trkpt><trkpt lat="45.075245" lon="9.3086533"><ele>77.0</ele><time>2026-05-03T12:48:54.63Z</time></trkpt><trkpt lat="45.0752083" lon="9.308805"><ele>77.0</ele><time>2026-05-03T12:48:55.629Z</time></trkpt><trkpt lat="45.0751733" lon="9.3089417"><ele>77.0</ele><time>2026-05-03T12:48:56.631Z</time></trkpt><trkpt lat="45.0751467" lon="9.30907"><ele>77.0</ele><time>2026-05-03T12:48:57.63Z</time></trkpt><trkpt lat="45.075135" lon="9.3091883"><ele>77.0</ele><time>2026-05-03T12:48:58.629Z</time></trkpt><trkpt lat="45.07514" lon="9.3092983"><ele>77.0</ele><time>2026-05-03T12:48:59.629Z</time></trkpt><trkpt lat="45.0751617" lon="9.3093967"><ele>77.0</ele><time>2026-05-03T12:49:00.629Z</time></trkpt><trkpt lat="45.07522" lon="9.3094817"><ele>77.0</ele><time>2026-05-03T12:49:01.63Z</time></trkpt><trkpt lat="45.0752983" lon="9.3095583"><ele>77.0</ele><time>2026-05-03T12:49:02.63Z</time></trkpt><trkpt lat="45.07539" lon="9.3096283"><ele>77.0</ele><time>2026-05-03T12:49:03.629Z</time></trkpt><trkpt lat="45.0754983" lon="9.3096983"><ele>77.5</ele><time>2026-05-03T12:49:04.63Z</time></trkpt><trkpt lat="45.075615" lon="9.3097767"><ele>78.0</ele><time>2026-05-03T12:49:05.63Z</time></trkpt><trkpt lat="45.075735" lon="9.3098617"><ele>78.5</ele><time>2026-05-03T12:49:06.628Z</time></trkpt><trkpt lat="45.0758583" lon="9.3099533"><ele>79.0</ele><time>2026-05-03T12:49:07.63Z</time></trkpt><trkpt lat="45.0759867" lon="9.310045"><ele>79.66666666666666</ele><time>2026-05-03T12:49:08.63Z</time></trkpt><trkpt lat="45.07612" lon="9.3101383"><ele>80.33333333333333</ele><time>2026-05-03T12:49:09.629Z</time></trkpt><trkpt lat="45.0762583" lon="9.31023"><ele>81.0</ele><time>2026-05-03T12:49:10.63Z</time></trkpt><trkpt lat="45.0763983" lon="9.3103283"><ele>81.0</ele><time>2026-05-03T12:49:11.629Z</time></trkpt><trkpt lat="45.0765367" lon="9.31043"><ele>81.0</ele><time>2026-05-03T12:49:12.629Z</time></trkpt><trkpt lat="45.0766683" lon="9.3105317"><ele>81.0</ele><time>2026-05-03T12:49:13.63Z</time></trkpt><trkpt lat="45.0767917" lon="9.3106283"><ele>81.0</ele><time>2026-05-03T12:49:14.63Z</time></trkpt><trkpt lat="45.0769033" lon="9.3107183"><ele>81.4</ele><time>2026-05-03T12:49:15.629Z</time></trkpt><trkpt lat="45.0770017" lon="9.3108"><ele>81.8</ele><time>2026-05-03T12:49:16.629Z</time></trkpt><trkpt lat="45.0770817" lon="9.3108683"><ele>82.2</ele><time>2026-05-03T12:49:17.629Z</time></trkpt><trkpt lat="45.0771467" lon="9.3109217"><ele>82.60000000000001</ele><time>2026-05-03T12:49:18.629Z</time></trkpt><trkpt lat="45.0772017" lon="9.3109683"><ele>83.0</ele><time>2026-05-03T12:49:20.63Z</time></trkpt><trkpt lat="45.0772933" lon="9.3110533"><ele>83.0</ele><time>2026-05-03T12:49:23.63Z</time></trkpt><trkpt lat="45.07735" lon="9.3111033"><ele>83.0</ele><time>2026-05-03T12:49:24.63Z</time></trkpt><trkpt lat="45.0774183" lon="9.3111717"><ele>83.0</ele><time>2026-05-03T12:49:25.629Z</time></trkpt><trkpt lat="45.0775" lon="9.3112517"><ele>83.0</ele><time>2026-05-03T12:49:26.63Z</time></trkpt><trkpt lat="45.0775917" lon="9.3113367"><ele>83.0</ele><time>2026-05-03T12:49:27.629Z</time></trkpt><trkpt lat="45.0776933" lon="9.31143"><ele>82.75</ele><time>2026-05-03T12:49:28.629Z</time></trkpt><trkpt lat="45.0778017" lon="9.3115333"><ele>82.5</ele><time>2026-05-03T12:49:29.629Z</time></trkpt><trkpt lat="45.077915" lon="9.3116417"><ele>82.25</ele><time>2026-05-03T12:49:30.629Z</time></trkpt><trkpt lat="45.07803" lon="9.3117517"><ele>82.0</ele><time>2026-05-03T12:49:31.629Z</time></trkpt><trkpt lat="45.07815" lon="9.3118667"><ele>81.0</ele><time>2026-05-03T12:49:32.63Z</time></trkpt><trkpt lat="45.0782733" lon="9.3119833"><ele>80.0</ele><time>2026-05-03T12:49:33.629Z</time></trkpt><trkpt lat="45.0783917" lon="9.3120933"><ele>79.0</ele><time>2026-05-03T12:49:34.629Z</time></trkpt><trkpt lat="45.0785033" lon="9.3121983"><ele>78.0</ele><time>2026-05-03T12:49:35.629Z</time></trkpt><trkpt lat="45.0785983" lon="9.3123067"><ele>77.5</ele><time>2026-05-03T12:49:36.629Z</time></trkpt><trkpt lat="45.0786717" lon="9.31244"><ele>77.0</ele><time>2026-05-03T12:49:37.629Z</time></trkpt><trkpt lat="45.078725" lon="9.3126067"><ele>76.5</ele><time>2026-05-03T12:49:38.629Z</time></trkpt><trkpt lat="45.0787633" lon="9.312795"><ele>76.0</ele><time>2026-05-03T12:49:39.629Z</time></trkpt><trkpt lat="45.0787917" lon="9.313"><ele>75.33333333333333</ele><time>2026-05-03T12:49:40.63Z</time></trkpt><trkpt lat="45.078815" lon="9.3132133"><ele>74.66666666666667</ele><time>2026-05-03T12:49:41.629Z</time></trkpt><trkpt lat="45.0788433" lon="9.3134383"><ele>74.0</ele><time>2026-05-03T12:49:42.628Z</time></trkpt><trkpt lat="45.0788717" lon="9.3136683"><ele>74.33333333333334</ele><time>2026-05-03T12:49:43.629Z</time></trkpt><trkpt lat="45.078905" lon="9.3139083"><ele>74.66666666666667</ele><time>2026-05-03T12:49:44.629Z</time></trkpt><trkpt lat="45.0789383" lon="9.314155"><ele>75.0</ele><time>2026-05-03T12:49:45.629Z</time></trkpt><trkpt lat="45.0789767" lon="9.3144067"><ele>75.0</ele><time>2026-05-03T12:49:46.629Z</time></trkpt><trkpt lat="45.079015" lon="9.3146633"><ele>75.0</ele><time>2026-05-03T12:49:47.629Z</time></trkpt><trkpt lat="45.0790533" lon="9.314925"><ele>75.0</ele><time>2026-05-03T12:49:48.629Z</time></trkpt><trkpt lat="45.07909" lon="9.3151867"><ele>74.0</ele><time>2026-05-03T12:49:49.629Z</time></trkpt><trkpt lat="45.0791183" lon="9.315455"><ele>73.0</ele><time>2026-05-03T12:49:50.63Z</time></trkpt><trkpt lat="45.0791317" lon="9.31573"><ele>72.0</ele><time>2026-05-03T12:49:51.629Z</time></trkpt><trkpt lat="45.0791383" lon="9.31601"><ele>72.0</ele><time>2026-05-03T12:49:52.629Z</time></trkpt><trkpt lat="45.07915" lon="9.316295"><ele>72.0</ele><time>2026-05-03T12:49:53.629Z</time></trkpt><trkpt lat="45.07917" lon="9.3165817"><ele>72.0</ele><time>2026-05-03T12:49:54.63Z</time></trkpt><trkpt lat="45.0791917" lon="9.3168733"><ele>72.33333333333333</ele><time>2026-05-03T12:49:55.629Z</time></trkpt><trkpt lat="45.0792183" lon="9.3171717"><ele>72.66666666666666</ele><time>2026-05-03T12:49:56.63Z</time></trkpt><trkpt lat="45.0792483" lon="9.3174733"><ele>73.0</ele><time>2026-05-03T12:49:57.63Z</time></trkpt><trkpt lat="45.079285" lon="9.3177733"><ele>73.33333333333333</ele><time>2026-05-03T12:49:58.629Z</time></trkpt><trkpt lat="45.0793333" lon="9.31807"><ele>73.66666666666667</ele><time>2026-05-03T12:49:59.629Z</time></trkpt><trkpt lat="45.0793933" lon="9.3183533"><ele>74.0</ele><time>2026-05-03T12:50:00.629Z</time></trkpt><trkpt lat="45.0794617" lon="9.318615"><ele>74.0</ele><time>2026-05-03T12:50:01.629Z</time></trkpt><trkpt lat="45.079525" lon="9.3188583"><ele>74.0</ele><time>2026-05-03T12:50:02.63Z</time></trkpt><trkpt lat="45.079575" lon="9.3190867"><ele>74.0</ele><time>2026-05-03T12:50:03.63Z</time></trkpt><trkpt lat="45.0796083" lon="9.3193017"><ele>74.0</ele><time>2026-05-03T12:50:04.629Z</time></trkpt><trkpt lat="45.0796233" lon="9.3195067"><ele>74.0</ele><time>2026-05-03T12:50:05.63Z</time></trkpt><trkpt lat="45.0796117" lon="9.3197017"><ele>74.0</ele><time>2026-05-03T12:50:06.63Z</time></trkpt><trkpt lat="45.0795867" lon="9.31989"><ele>74.0</ele><time>2026-05-03T12:50:07.629Z</time></trkpt><trkpt lat="45.0795567" lon="9.32007"><ele>73.8</ele><time>2026-05-03T12:50:08.629Z</time></trkpt><trkpt lat="45.0795283" lon="9.3202367"><ele>73.60000000000001</ele><time>2026-05-03T12:50:09.628Z</time></trkpt><trkpt lat="45.0794867" lon="9.3203883"><ele>73.4</ele><time>2026-05-03T12:50:10.629Z</time></trkpt><trkpt lat="45.07943" lon="9.3205183"><ele>73.2</ele><time>2026-05-03T12:50:11.629Z</time></trkpt><trkpt lat="45.0793717" lon="9.3206"><ele>73.0</ele><time>2026-05-03T12:50:12.629Z</time></trkpt><trkpt lat="45.0793033" lon="9.320655"><ele>72.8</ele><time>2026-05-03T12:50:14.629Z</time></trkpt><trkpt lat="45.0792217" lon="9.32077"><ele>72.6</ele><time>2026-05-03T12:50:17.629Z</time></trkpt><trkpt lat="45.0791633" lon="9.3208517"><ele>72.4</ele><time>2026-05-03T12:50:18.629Z</time></trkpt><trkpt lat="45.0790883" lon="9.3209433"><ele>72.2</ele><time>2026-05-03T12:50:19.629Z</time></trkpt><trkpt lat="45.0790167" lon="9.3210483"><ele>72.0</ele><time>2026-05-03T12:50:20.629Z</time></trkpt><trkpt lat="45.0789633" lon="9.3211683"><ele>72.16666666666667</ele><time>2026-05-03T12:50:21.629Z</time></trkpt><trkpt lat="45.0789333" lon="9.3212917"><ele>72.33333333333333</ele><time>2026-05-03T12:50:22.629Z</time></trkpt><trkpt lat="45.07891" lon="9.3214067"><ele>72.5</ele><time>2026-05-03T12:50:23.629Z</time></trkpt><trkpt lat="45.0788683" lon="9.3215117"><ele>72.66666666666666</ele><time>2026-05-03T12:50:24.629Z</time></trkpt><trkpt lat="45.0788133" lon="9.3216067"><ele>72.83333333333333</ele><time>2026-05-03T12:50:25.629Z</time></trkpt><trkpt lat="45.0787667" lon="9.3217133"><ele>73.0</ele><time>2026-05-03T12:50:26.63Z</time></trkpt><trkpt lat="45.078745" lon="9.3218217"><ele>73.0</ele><time>2026-05-03T12:50:27.629Z</time></trkpt><trkpt lat="45.0787617" lon="9.321935"><ele>73.0</ele><time>2026-05-03T12:50:28.63Z</time></trkpt><trkpt lat="45.0788167" lon="9.32202"><ele>73.0</ele><time>2026-05-03T12:50:29.629Z</time></trkpt><trkpt lat="45.07889" lon="9.3220683"><ele>73.0</ele><time>2026-05-03T12:50:30.629Z</time></trkpt><trkpt lat="45.0789833" lon="9.3220633"><ele>73.0</ele><time>2026-05-03T12:50:31.629Z</time></trkpt><trkpt lat="45.0790733" lon="9.3220117"><ele>73.0</ele><time>2026-05-03T12:50:32.629Z</time></trkpt><trkpt lat="45.0791633" lon="9.3219667"><ele>72.75</ele><time>2026-05-03T12:50:33.629Z</time></trkpt><trkpt lat="45.0792633" lon="9.321945"><ele>72.5</ele><time>2026-05-03T12:50:34.629Z</time></trkpt><trkpt lat="45.07937" lon="9.3219467"><ele>72.25</ele><time>2026-05-03T12:50:35.63Z</time></trkpt><trkpt lat="45.0794867" lon="9.321955"><ele>72.0</ele><time>2026-05-03T12:50:36.628Z</time></trkpt><trkpt lat="45.0796133" lon="9.321955"><ele>72.0</ele><time>2026-05-03T12:50:37.629Z</time></trkpt><trkpt lat="45.0797483" lon="9.3219533"><ele>72.0</ele><time>2026-05-03T12:50:38.63Z</time></trkpt><trkpt lat="45.0798917" lon="9.3219517"><ele>72.0</ele><time>2026-05-03T12:50:39.629Z</time></trkpt><trkpt lat="45.0800367" lon="9.321945"><ele>72.0</ele><time>2026-05-03T12:50:40.629Z</time></trkpt><trkpt lat="45.0801817" lon="9.32193"><ele>71.0</ele><time>2026-05-03T12:50:41.629Z</time></trkpt><trkpt lat="45.08033" lon="9.3219067"><ele>70.0</ele><time>2026-05-03T12:50:42.629Z</time></trkpt><trkpt lat="45.0804817" lon="9.3218833"><ele>69.0</ele><time>2026-05-03T12:50:43.629Z</time></trkpt><trkpt lat="45.0806383" lon="9.3218617"><ele>69.0</ele><time>2026-05-03T12:50:44.63Z</time></trkpt><trkpt lat="45.0808017" lon="9.3218383"><ele>69.0</ele><time>2026-05-03T12:50:45.629Z</time></trkpt><trkpt lat="45.080975" lon="9.3218167"><ele>69.0</ele><time>2026-05-03T12:50:46.629Z</time></trkpt><trkpt lat="45.0811567" lon="9.3217883"><ele>69.0</ele><time>2026-05-03T12:50:47.63Z</time></trkpt><trkpt lat="45.0813433" lon="9.3217633"><ele>69.0</ele><time>2026-05-03T12:50:48.629Z</time></trkpt><trkpt lat="45.0815367" lon="9.3217383"><ele>69.0</ele><time>2026-05-03T12:50:49.629Z</time></trkpt><trkpt lat="45.081735" lon="9.3217133"><ele>68.33333333333333</ele><time>2026-05-03T12:50:50.629Z</time></trkpt><trkpt lat="45.08194" lon="9.3216867"><ele>67.66666666666666</ele><time>2026-05-03T12:50:51.628Z</time></trkpt><trkpt lat="45.0821483" lon="9.321655"><ele>67.0</ele><time>2026-05-03T12:50:52.629Z</time></trkpt><trkpt lat="45.0823583" lon="9.321625"><ele>67.66666666666666</ele><time>2026-05-03T12:50:53.629Z</time></trkpt><trkpt lat="45.0825683" lon="9.3215983"><ele>68.33333333333333</ele><time>2026-05-03T12:50:54.63Z</time></trkpt><trkpt lat="45.0827767" lon="9.3215717"><ele>69.0</ele><time>2026-05-03T12:50:55.629Z</time></trkpt><trkpt lat="45.082985" lon="9.32156"><ele>69.0</ele><time>2026-05-03T12:50:56.63Z</time></trkpt><trkpt lat="45.0831917" lon="9.3215733"><ele>69.0</ele><time>2026-05-03T12:50:57.629Z</time></trkpt><trkpt lat="45.0833967" lon="9.321615"><ele>69.0</ele><time>2026-05-03T12:50:58.629Z</time></trkpt><trkpt lat="45.0836" lon="9.3216683"><ele>69.33333333333333</ele><time>2026-05-03T12:50:59.63Z</time></trkpt><trkpt lat="45.0838017" lon="9.3217333"><ele>69.66666666666666</ele><time>2026-05-03T12:51:00.629Z</time></trkpt><trkpt lat="45.0840117" lon="9.3218283"><ele>70.0</ele><time>2026-05-03T12:51:01.629Z</time></trkpt><trkpt lat="45.084225" lon="9.321965"><ele>70.5</ele><time>2026-05-03T12:51:02.629Z</time></trkpt><trkpt lat="45.08444" lon="9.3221333"><ele>71.0</ele><time>2026-05-03T12:51:03.63Z</time></trkpt><trkpt lat="45.0846583" lon="9.3223183"><ele>69.5</ele><time>2026-05-03T12:51:04.629Z</time></trkpt><trkpt lat="45.0848867" lon="9.32251"><ele>68.0</ele><time>2026-05-03T12:51:05.629Z</time></trkpt><trkpt lat="45.0851283" lon="9.322705"><ele>68.0</ele><time>2026-05-03T12:51:06.628Z</time></trkpt><trkpt lat="45.0853767" lon="9.3229117"><ele>68.0</ele><time>2026-05-03T12:51:07.629Z</time></trkpt><trkpt lat="45.0856267" lon="9.323125"><ele>68.0</ele><time>2026-05-03T12:51:08.63Z</time></trkpt><trkpt lat="45.0858783" lon="9.3233383"><ele>68.0</ele><time>2026-05-03T12:51:09.628Z</time></trkpt><trkpt lat="45.0861317" lon="9.323555"><ele>68.0</ele><time>2026-05-03T12:51:10.629Z</time></trkpt><trkpt lat="45.0863867" lon="9.32377"><ele>68.0</ele><time>2026-05-03T12:51:11.628Z</time></trkpt><trkpt lat="45.0866433" lon="9.323985"><ele>68.5</ele><time>2026-05-03T12:51:12.629Z</time></trkpt><trkpt lat="45.0869017" lon="9.3241917"><ele>69.0</ele><time>2026-05-03T12:51:13.629Z</time></trkpt><trkpt lat="45.087165" lon="9.324395"><ele>67.5</ele><time>2026-05-03T12:51:14.63Z</time></trkpt><trkpt lat="45.08743" lon="9.3245983"><ele>66.0</ele><time>2026-05-03T12:51:15.628Z</time></trkpt><trkpt lat="45.0876967" lon="9.3248"><ele>66.0</ele><time>2026-05-03T12:51:16.629Z</time></trkpt><trkpt lat="45.0879617" lon="9.325"><ele>66.0</ele><time>2026-05-03T12:51:17.63Z</time></trkpt><trkpt lat="45.0882267" lon="9.3252"><ele>66.0</ele><time>2026-05-03T12:51:18.629Z</time></trkpt><trkpt lat="45.08849" lon="9.3254"><ele>66.0</ele><time>2026-05-03T12:51:19.629Z</time></trkpt><trkpt lat="45.0887517" lon="9.3255983"><ele>66.0</ele><time>2026-05-03T12:51:20.63Z</time></trkpt><trkpt lat="45.089015" lon="9.3257933"><ele>66.0</ele><time>2026-05-03T12:51:21.63Z</time></trkpt><trkpt lat="45.0892733" lon="9.325985"><ele>66.0</ele><time>2026-05-03T12:51:22.63Z</time></trkpt><trkpt lat="45.0895317" lon="9.3261783"><ele>66.0</ele><time>2026-05-03T12:51:23.631Z</time></trkpt><trkpt lat="45.0897883" lon="9.3263733"><ele>65.5</ele><time>2026-05-03T12:51:24.63Z</time></trkpt><trkpt lat="45.0900417" lon="9.32657"><ele>65.0</ele><time>2026-05-03T12:51:25.63Z</time></trkpt><trkpt lat="45.0902867" lon="9.3267817"><ele>65.0</ele><time>2026-05-03T12:51:26.63Z</time></trkpt><trkpt lat="45.0905183" lon="9.3270183"><ele>65.0</ele><time>2026-05-03T12:51:27.629Z</time></trkpt><trkpt lat="45.0907317" lon="9.327275"><ele>64.5</ele><time>2026-05-03T12:51:28.629Z</time></trkpt><trkpt lat="45.09092" lon="9.3275367"><ele>64.0</ele><time>2026-05-03T12:51:29.629Z</time></trkpt><trkpt lat="45.091085" lon="9.3278017"><ele>63.33333333333333</ele><time>2026-05-03T12:51:30.629Z</time></trkpt><trkpt lat="45.091225" lon="9.328065"><ele>62.66666666666667</ele><time>2026-05-03T12:51:31.63Z</time></trkpt><trkpt lat="45.091345" lon="9.3283183"><ele>62.0</ele><time>2026-05-03T12:51:32.628Z</time></trkpt><trkpt lat="45.0914533" lon="9.3285583"><ele>62.0</ele><time>2026-05-03T12:51:33.63Z</time></trkpt><trkpt lat="45.0915533" lon="9.3288017"><ele>62.0</ele><time>2026-05-03T12:51:34.629Z</time></trkpt><trkpt lat="45.091655" lon="9.3290083"><ele>62.0</ele><time>2026-05-03T12:51:35.628Z</time></trkpt><trkpt lat="45.0917417" lon="9.3292117"><ele>62.0</ele><time>2026-05-03T12:51:36.629Z</time></trkpt><trkpt lat="45.0918317" lon="9.3294067"><ele>62.0</ele><time>2026-05-03T12:51:37.632Z</time></trkpt><trkpt lat="45.09192" lon="9.3295967"><ele>62.0</ele><time>2026-05-03T12:51:38.629Z</time></trkpt><trkpt lat="45.092015" lon="9.329785"><ele>62.0</ele><time>2026-05-03T12:51:39.628Z</time></trkpt><trkpt lat="45.09212" lon="9.3299733"><ele>62.0</ele><time>2026-05-03T12:51:40.628Z</time></trkpt><trkpt lat="45.0922367" lon="9.3301533"><ele>62.0</ele><time>2026-05-03T12:51:41.628Z</time></trkpt><trkpt lat="45.09236" lon="9.330325"><ele>61.66666666666667</ele><time>2026-05-03T12:51:42.629Z</time></trkpt><trkpt lat="45.09249" lon="9.3304867"><ele>61.33333333333333</ele><time>2026-05-03T12:51:43.63Z</time></trkpt><trkpt lat="45.0926267" lon="9.3306483"><ele>61.0</ele><time>2026-05-03T12:51:44.629Z</time></trkpt><trkpt lat="45.092765" lon="9.3308"><ele>61.666666666666664</ele><time>2026-05-03T12:51:45.629Z</time></trkpt><trkpt lat="45.0929067" lon="9.330935"><ele>62.33333333333333</ele><time>2026-05-03T12:51:46.629Z</time></trkpt><trkpt lat="45.0930617" lon="9.3310567"><ele>63.0</ele><time>2026-05-03T12:51:47.629Z</time></trkpt><trkpt lat="45.093235" lon="9.3311667"><ele>62.66666666666667</ele><time>2026-05-03T12:51:48.629Z</time></trkpt><trkpt lat="45.093425" lon="9.3312683"><ele>62.333333333333336</ele><time>2026-05-03T12:51:49.63Z</time></trkpt><trkpt lat="45.09363" lon="9.3313683"><ele>62.0</ele><time>2026-05-03T12:51:50.63Z</time></trkpt><trkpt lat="45.0938467" lon="9.3314717"><ele>62.0</ele><time>2026-05-03T12:51:51.631Z</time></trkpt><trkpt lat="45.0940683" lon="9.3315817"><ele>62.0</ele><time>2026-05-03T12:51:52.631Z</time></trkpt><trkpt lat="45.0942967" lon="9.3316933"><ele>61.5</ele><time>2026-05-03T12:51:53.631Z</time></trkpt><trkpt lat="45.0945267" lon="9.3318083"><ele>61.0</ele><time>2026-05-03T12:51:54.63Z</time></trkpt><trkpt lat="45.0947617" lon="9.33192"><ele>60.5</ele><time>2026-05-03T12:51:55.631Z</time></trkpt><trkpt lat="45.0949983" lon="9.33203"><ele>60.0</ele><time>2026-05-03T12:51:56.63Z</time></trkpt><trkpt lat="45.0952333" lon="9.33214"><ele>61.0</ele><time>2026-05-03T12:51:57.631Z</time></trkpt><trkpt lat="45.09547" lon="9.33225"><ele>62.0</ele><time>2026-05-03T12:51:58.63Z</time></trkpt><trkpt lat="45.0957083" lon="9.33236"><ele>61.5</ele><time>2026-05-03T12:51:59.629Z</time></trkpt><trkpt lat="45.095945" lon="9.3324683"><ele>61.0</ele><time>2026-05-03T12:52:00.629Z</time></trkpt><trkpt lat="45.0961833" lon="9.332575"><ele>61.0</ele><time>2026-05-03T12:52:01.629Z</time></trkpt><trkpt lat="45.0964183" lon="9.3326783"><ele>61.0</ele><time>2026-05-03T12:52:02.629Z</time></trkpt><trkpt lat="45.0966533" lon="9.3327817"><ele>60.5</ele><time>2026-05-03T12:52:03.629Z</time></trkpt><trkpt lat="45.0968867" lon="9.3328867"><ele>60.0</ele><time>2026-05-03T12:52:04.629Z</time></trkpt><trkpt lat="45.0971186" lon="9.3329911"><ele>60.0</ele><time>2026-05-03T12:52:05.628Z</time></trkpt><trkpt lat="45.097349" lon="9.3330991"><ele>60.0</ele><time>2026-05-03T12:52:06.629Z</time></trkpt><trkpt lat="45.0975777" lon="9.3332021"><ele>59.5</ele><time>2026-05-03T12:52:07.628Z</time></trkpt><trkpt lat="45.0978054" lon="9.3333068"><ele>59.0</ele><time>2026-05-03T12:52:08.629Z</time></trkpt><trkpt lat="45.0980295" lon="9.3334063"><ele>59.0</ele><time>2026-05-03T12:52:09.629Z</time></trkpt><trkpt lat="45.0982493" lon="9.3335006"><ele>59.0</ele><time>2026-05-03T12:52:10.629Z</time></trkpt><trkpt lat="45.0984608" lon="9.3335934"><ele>58.66666666666667</ele><time>2026-05-03T12:52:11.629Z</time></trkpt><trkpt lat="45.0986516" lon="9.3337073"><ele>58.33333333333333</ele><time>2026-05-03T12:52:12.629Z</time></trkpt><trkpt lat="45.0988117" lon="9.3338579"><ele>58.0</ele><time>2026-05-03T12:52:13.629Z</time></trkpt><trkpt lat="45.0989366" lon="9.3340362"><ele>58.0</ele><time>2026-05-03T12:52:14.629Z</time></trkpt><trkpt lat="45.0990276" lon="9.334238"><ele>58.0</ele><time>2026-05-03T12:52:15.629Z</time></trkpt><trkpt lat="45.0990868" lon="9.3344683"><ele>58.0</ele><time>2026-05-03T12:52:16.629Z</time></trkpt><trkpt lat="45.0991105" lon="9.3347171"><ele>58.0</ele><time>2026-05-03T12:52:17.629Z</time></trkpt><trkpt lat="45.0991008" lon="9.3349743"><ele>58.0</ele><time>2026-05-03T12:52:18.629Z</time></trkpt><trkpt lat="45.099059" lon="9.3352295"><ele>58.0</ele><time>2026-05-03T12:52:19.63Z</time></trkpt><trkpt lat="45.0989917" lon="9.3354789"><ele>58.0</ele><time>2026-05-03T12:52:20.631Z</time></trkpt><trkpt lat="45.0989094" lon="9.3357259"><ele>58.0</ele><time>2026-05-03T12:52:21.631Z</time></trkpt><trkpt lat="45.0988246" lon="9.3359768"><ele>58.0</ele><time>2026-05-03T12:52:22.629Z</time></trkpt><trkpt lat="45.0987414" lon="9.3362329"><ele>58.0</ele><time>2026-05-03T12:52:23.63Z</time></trkpt><trkpt lat="45.0986589" lon="9.3364928"><ele>58.0</ele><time>2026-05-03T12:52:24.63Z</time></trkpt><trkpt lat="45.0985766" lon="9.3367549"><ele>58.0</ele><time>2026-05-03T12:52:25.629Z</time></trkpt><trkpt lat="45.0984922" lon="9.3370189"><ele>57.666666666666664</ele><time>2026-05-03T12:52:26.631Z</time></trkpt><trkpt lat="45.0984076" lon="9.3372824"><ele>57.33333333333333</ele><time>2026-05-03T12:52:27.63Z</time></trkpt><trkpt lat="45.0983246" lon="9.337546"><ele>57.0</ele><time>2026-05-03T12:52:28.63Z</time></trkpt><trkpt lat="45.0982394" lon="9.3378091"><ele>57.66666666666667</ele><time>2026-05-03T12:52:29.629Z</time></trkpt><trkpt lat="45.098154" lon="9.3380754"><ele>58.333333333333336</ele><time>2026-05-03T12:52:30.629Z</time></trkpt><trkpt lat="45.0980685" lon="9.3383451"><ele>59.0</ele><time>2026-05-03T12:52:31.63Z</time></trkpt><trkpt lat="45.0979834" lon="9.3386155"><ele>59.0</ele><time>2026-05-03T12:52:32.629Z</time></trkpt><trkpt lat="45.0979015" lon="9.3388863"><ele>59.0</ele><time>2026-05-03T12:52:33.629Z</time></trkpt><trkpt lat="45.0978174" lon="9.3391594"><ele>59.0</ele><time>2026-05-03T12:52:34.628Z</time></trkpt><trkpt lat="45.0977336" lon="9.3394359"><ele>59.0</ele><time>2026-05-03T12:52:35.63Z</time></trkpt><trkpt lat="45.0976509" lon="9.3397146"><ele>59.0</ele><time>2026-05-03T12:52:36.629Z</time></trkpt><trkpt lat="45.0975678" lon="9.3399956"><ele>59.0</ele><time>2026-05-03T12:52:37.629Z</time></trkpt><trkpt lat="45.0974809" lon="9.3402772"><ele>58.66666666666667</ele><time>2026-05-03T12:52:38.63Z</time></trkpt><trkpt lat="45.097393" lon="9.3405623"><ele>58.33333333333333</ele><time>2026-05-03T12:52:39.629Z</time></trkpt><trkpt lat="45.0973059" lon="9.3408474"><ele>58.0</ele><time>2026-05-03T12:52:40.629Z</time></trkpt><trkpt lat="45.097219" lon="9.3411274"><ele>57.666666666666664</ele><time>2026-05-03T12:52:41.629Z</time></trkpt><trkpt lat="45.0971322" lon="9.3413983"><ele>57.33333333333333</ele><time>2026-05-03T12:52:42.629Z</time></trkpt><trkpt lat="45.097046" lon="9.3416563"><ele>57.0</ele><time>2026-05-03T12:52:43.63Z</time></trkpt><trkpt lat="45.0969637" lon="9.3418995"><ele>57.0</ele><time>2026-05-03T12:52:44.63Z</time></trkpt><trkpt lat="45.0968895" lon="9.3421273"><ele>57.0</ele><time>2026-05-03T12:52:45.629Z</time></trkpt><trkpt lat="45.0968255" lon="9.3423463"><ele>57.0</ele><time>2026-05-03T12:52:46.629Z</time></trkpt><trkpt lat="45.0967765" lon="9.3425588"><ele>57.0</ele><time>2026-05-03T12:52:47.63Z</time></trkpt><trkpt lat="45.0967371" lon="9.3427608"><ele>57.0</ele><time>2026-05-03T12:52:48.631Z</time></trkpt><trkpt lat="45.0966954" lon="9.3429489"><ele>57.0</ele><time>2026-05-03T12:52:49.631Z</time></trkpt><trkpt lat="45.0966417" lon="9.3431139"><ele>57.0</ele><time>2026-05-03T12:52:50.631Z</time></trkpt><trkpt lat="45.09658" lon="9.3432587"><ele>57.0</ele><time>2026-05-03T12:52:51.631Z</time></trkpt><trkpt lat="45.0965386" lon="9.3433934"><ele>57.0</ele><time>2026-05-03T12:52:52.631Z</time></trkpt><trkpt lat="45.0965284" lon="9.3435285"><ele>57.0</ele><time>2026-05-03T12:52:53.63Z</time></trkpt><trkpt lat="45.0965535" lon="9.3436531"><ele>57.0</ele><time>2026-05-03T12:52:54.631Z</time></trkpt><trkpt lat="45.0966056" lon="9.343754"><ele>57.0</ele><time>2026-05-03T12:52:55.63Z</time></trkpt><trkpt lat="45.0966735" lon="9.3438215"><ele>57.0</ele><time>2026-05-03T12:52:56.63Z</time></trkpt><trkpt lat="45.096754" lon="9.343847"><ele>57.0</ele><time>2026-05-03T12:52:57.631Z</time></trkpt><trkpt lat="45.0968441" lon="9.3438278"><ele>57.0</ele><time>2026-05-03T12:52:58.629Z</time></trkpt><trkpt lat="45.0969451" lon="9.3437862"><ele>57.0</ele><time>2026-05-03T12:52:59.629Z</time></trkpt><trkpt lat="45.0970548" lon="9.3437645"><ele>57.0</ele><time>2026-05-03T12:53:00.629Z</time></trkpt><trkpt lat="45.0971793" lon="9.3437868"><ele>57.0</ele><time>2026-05-03T12:53:01.629Z</time></trkpt><trkpt lat="45.0973198" lon="9.3438411"><ele>57.0</ele><time>2026-05-03T12:53:02.629Z</time></trkpt><trkpt lat="45.0974679" lon="9.3439064"><ele>57.0</ele><time>2026-05-03T12:53:03.629Z</time></trkpt><trkpt lat="45.0976205" lon="9.3439771"><ele>57.66666666666667</ele><time>2026-05-03T12:53:04.629Z</time></trkpt><trkpt lat="45.0977817" lon="9.3440502"><ele>58.333333333333336</ele><time>2026-05-03T12:53:05.629Z</time></trkpt><trkpt lat="45.0979502" lon="9.3441269"><ele>59.0</ele><time>2026-05-03T12:53:06.629Z</time></trkpt><trkpt lat="45.098128" lon="9.3442056"><ele>58.333333333333336</ele><time>2026-05-03T12:53:07.629Z</time></trkpt><trkpt lat="45.0983087" lon="9.3442903"><ele>57.66666666666667</ele><time>2026-05-03T12:53:08.63Z</time></trkpt><trkpt lat="45.0984887" lon="9.3443758"><ele>57.0</ele><time>2026-05-03T12:53:09.629Z</time></trkpt><trkpt lat="45.0986737" lon="9.3444621"><ele>57.0</ele><time>2026-05-03T12:53:10.629Z</time></trkpt><trkpt lat="45.0988615" lon="9.3445485"><ele>57.0</ele><time>2026-05-03T12:53:11.628Z</time></trkpt><trkpt lat="45.0990532" lon="9.3446379"><ele>57.0</ele><time>2026-05-03T12:53:12.627Z</time></trkpt><trkpt lat="45.0992483" lon="9.3447305"><ele>56.33333333333333</ele><time>2026-05-03T12:53:13.628Z</time></trkpt><trkpt lat="45.0994467" lon="9.3448265"><ele>55.666666666666664</ele><time>2026-05-03T12:53:14.629Z</time></trkpt><trkpt lat="45.0996469" lon="9.3449234"><ele>55.0</ele><time>2026-05-03T12:53:15.629Z</time></trkpt><trkpt lat="45.0998456" lon="9.3450201"><ele>55.33333333333333</ele><time>2026-05-03T12:53:16.629Z</time></trkpt><trkpt lat="45.1000439" lon="9.3451165"><ele>55.66666666666667</ele><time>2026-05-03T12:53:17.631Z</time></trkpt><trkpt lat="45.1002406" lon="9.345212"><ele>56.0</ele><time>2026-05-03T12:53:18.629Z</time></trkpt><trkpt lat="45.1004382" lon="9.3453079"><ele>56.0</ele><time>2026-05-03T12:53:19.629Z</time></trkpt><trkpt lat="45.1006339" lon="9.3453986"><ele>56.0</ele><time>2026-05-03T12:53:20.632Z</time></trkpt><trkpt lat="45.1008245" lon="9.3454883"><ele>56.0</ele><time>2026-05-03T12:53:21.631Z</time></trkpt><trkpt lat="45.1010082" lon="9.3455748"><ele>54.66666666666667</ele><time>2026-05-03T12:53:22.63Z</time></trkpt><trkpt lat="45.1011897" lon="9.3456611"><ele>53.33333333333333</ele><time>2026-05-03T12:53:23.63Z</time></trkpt><trkpt lat="45.1013736" lon="9.3457465"><ele>52.0</ele><time>2026-05-03T12:53:24.631Z</time></trkpt><trkpt lat="45.1015596" lon="9.3458327"><ele>50.33333333333333</ele><time>2026-05-03T12:53:25.629Z</time></trkpt><trkpt lat="45.1017505" lon="9.3459222"><ele>48.666666666666664</ele><time>2026-05-03T12:53:26.629Z</time></trkpt><trkpt lat="45.1019428" lon="9.3460111"><ele>47.0</ele><time>2026-05-03T12:53:27.629Z</time></trkpt><trkpt lat="45.1021379" lon="9.3460988"><ele>47.0</ele><time>2026-05-03T12:53:28.629Z</time></trkpt><trkpt lat="45.1023334" lon="9.3461872"><ele>47.0</ele><time>2026-05-03T12:53:29.628Z</time></trkpt><trkpt lat="45.1025315" lon="9.3462756"><ele>47.0</ele><time>2026-05-03T12:53:30.628Z</time></trkpt><trkpt lat="45.1027341" lon="9.3463684"><ele>47.0</ele><time>2026-05-03T12:53:31.628Z</time></trkpt><trkpt lat="45.1029405" lon="9.3464652"><ele>47.0</ele><time>2026-05-03T12:53:32.629Z</time></trkpt><trkpt lat="45.1031519" lon="9.3465638"><ele>47.0</ele><time>2026-05-03T12:53:33.629Z</time></trkpt><trkpt lat="45.1033715" lon="9.3466668"><ele>47.0</ele><time>2026-05-03T12:53:34.628Z</time></trkpt><trkpt lat="45.1036057" lon="9.3467764"><ele>47.0</ele><time>2026-05-03T12:53:35.63Z</time></trkpt><trkpt lat="45.1038592" lon="9.3468959"><ele>49.0</ele><time>2026-05-03T12:53:36.629Z</time></trkpt><trkpt lat="45.1041305" lon="9.347024"><ele>51.0</ele><time>2026-05-03T12:53:37.628Z</time></trkpt><trkpt lat="45.104409" lon="9.3471576"><ele>50.5</ele><time>2026-05-03T12:53:38.629Z</time></trkpt><trkpt lat="45.1046791" lon="9.3472872"><ele>50.0</ele><time>2026-05-03T12:53:39.629Z</time></trkpt><trkpt lat="45.1049287" lon="9.3474143"><ele>53.5</ele><time>2026-05-03T12:53:40.629Z</time></trkpt><trkpt lat="45.1051623" lon="9.3475392"><ele>57.0</ele><time>2026-05-03T12:53:41.629Z</time></trkpt><trkpt lat="45.1053883" lon="9.3476568"><ele>57.0</ele><time>2026-05-03T12:53:42.629Z</time></trkpt><trkpt lat="45.1056106" lon="9.3477671"><ele>57.0</ele><time>2026-05-03T12:53:43.628Z</time></trkpt><trkpt lat="45.1058297" lon="9.3478724"><ele>57.66666666666667</ele><time>2026-05-03T12:53:44.63Z</time></trkpt><trkpt lat="45.106043" lon="9.347973"><ele>58.333333333333336</ele><time>2026-05-03T12:53:45.629Z</time></trkpt><trkpt lat="45.106255" lon="9.3480733"><ele>59.0</ele><time>2026-05-03T12:53:46.628Z</time></trkpt><trkpt lat="45.1064667" lon="9.348175"><ele>57.333333333333336</ele><time>2026-05-03T12:53:47.629Z</time></trkpt><trkpt lat="45.1066767" lon="9.348275"><ele>55.66666666666667</ele><time>2026-05-03T12:53:48.629Z</time></trkpt><trkpt lat="45.106885" lon="9.3483733"><ele>54.0</ele><time>2026-05-03T12:53:49.63Z</time></trkpt><trkpt lat="45.1070933" lon="9.3484717"><ele>54.0</ele><time>2026-05-03T12:53:50.629Z</time></trkpt><trkpt lat="45.1072983" lon="9.3485683"><ele>54.0</ele><time>2026-05-03T12:53:51.63Z</time></trkpt><trkpt lat="45.1075" lon="9.348665"><ele>54.0</ele><time>2026-05-03T12:53:52.629Z</time></trkpt><trkpt lat="45.1077" lon="9.3487583"><ele>54.66666666666667</ele><time>2026-05-03T12:53:53.629Z</time></trkpt><trkpt lat="45.1078933" lon="9.348845"><ele>55.333333333333336</ele><time>2026-05-03T12:53:54.629Z</time></trkpt><trkpt lat="45.1080817" lon="9.3489317"><ele>56.0</ele><time>2026-05-03T12:53:55.628Z</time></trkpt><trkpt lat="45.108265" lon="9.3490183"><ele>56.66666666666667</ele><time>2026-05-03T12:53:56.63Z</time></trkpt><trkpt lat="45.1084467" lon="9.349105"><ele>57.33333333333333</ele><time>2026-05-03T12:53:57.63Z</time></trkpt><trkpt lat="45.10863" lon="9.3491917"><ele>58.0</ele><time>2026-05-03T12:53:58.629Z</time></trkpt><trkpt lat="45.108815" lon="9.3492783"><ele>58.0</ele><time>2026-05-03T12:53:59.629Z</time></trkpt><trkpt lat="45.109" lon="9.3493667"><ele>58.0</ele><time>2026-05-03T12:54:00.629Z</time></trkpt><trkpt lat="45.109185" lon="9.3494533"><ele>58.0</ele><time>2026-05-03T12:54:01.629Z</time></trkpt><trkpt lat="45.1093683" lon="9.3495417"><ele>57.666666666666664</ele><time>2026-05-03T12:54:02.629Z</time></trkpt><trkpt lat="45.109555" lon="9.34963"><ele>57.33333333333333</ele><time>2026-05-03T12:54:03.63Z</time></trkpt><trkpt lat="45.10974" lon="9.3497217"><ele>57.0</ele><time>2026-05-03T12:54:04.629Z</time></trkpt><trkpt lat="45.1099217" lon="9.3498117"><ele>56.33333333333333</ele><time>2026-05-03T12:54:05.629Z</time></trkpt><trkpt lat="45.1101017" lon="9.3498967"><ele>55.666666666666664</ele><time>2026-05-03T12:54:06.629Z</time></trkpt><trkpt lat="45.1102817" lon="9.3499783"><ele>55.0</ele><time>2026-05-03T12:54:07.629Z</time></trkpt><trkpt lat="45.1104617" lon="9.3500617"><ele>55.0</ele><time>2026-05-03T12:54:08.629Z</time></trkpt><trkpt lat="45.1106383" lon="9.3501367"><ele>55.0</ele><time>2026-05-03T12:54:09.63Z</time></trkpt><trkpt lat="45.1108067" lon="9.350205"><ele>55.0</ele><time>2026-05-03T12:54:10.628Z</time></trkpt><trkpt lat="45.110965" lon="9.3502667"><ele>55.0</ele><time>2026-05-03T12:54:11.629Z</time></trkpt><trkpt lat="45.1111133" lon="9.3503233"><ele>55.0</ele><time>2026-05-03T12:54:12.63Z</time></trkpt><trkpt lat="45.11125" lon="9.3503867"><ele>55.0</ele><time>2026-05-03T12:54:13.629Z</time></trkpt><trkpt lat="45.1113767" lon="9.35046"><ele>55.0</ele><time>2026-05-03T12:54:14.629Z</time></trkpt><trkpt lat="45.111485" lon="9.35055"><ele>55.25</ele><time>2026-05-03T12:54:15.628Z</time></trkpt><trkpt lat="45.1115833" lon="9.35064"><ele>55.5</ele><time>2026-05-03T12:54:16.629Z</time></trkpt><trkpt lat="45.111685" lon="9.3506917"><ele>55.75</ele><time>2026-05-03T12:54:17.629Z</time></trkpt><trkpt lat="45.1117983" lon="9.3506967"><ele>56.0</ele><time>2026-05-03T12:54:18.629Z</time></trkpt><trkpt lat="45.1119167" lon="9.3506817"><ele>56.0</ele><time>2026-05-03T12:54:19.629Z</time></trkpt><trkpt lat="45.1120483" lon="9.3506783"><ele>56.0</ele><time>2026-05-03T12:54:20.629Z</time></trkpt><trkpt lat="45.1121883" lon="9.3507083"><ele>56.0</ele><time>2026-05-03T12:54:21.628Z</time></trkpt><trkpt lat="45.1123317" lon="9.350755"><ele>56.0</ele><time>2026-05-03T12:54:22.628Z</time></trkpt><trkpt lat="45.1124833" lon="9.3508117"><ele>56.0</ele><time>2026-05-03T12:54:23.629Z</time></trkpt><trkpt lat="45.1126383" lon="9.3508733"><ele>56.0</ele><time>2026-05-03T12:54:24.629Z</time></trkpt><trkpt lat="45.1128" lon="9.3509317"><ele>56.0</ele><time>2026-05-03T12:54:25.629Z</time></trkpt><trkpt lat="45.112965" lon="9.3509883"><ele>56.0</ele><time>2026-05-03T12:54:26.629Z</time></trkpt><trkpt lat="45.113135" lon="9.351045"><ele>56.0</ele><time>2026-05-03T12:54:27.63Z</time></trkpt><trkpt lat="45.1133067" lon="9.3511067"><ele>56.0</ele><time>2026-05-03T12:54:28.629Z</time></trkpt><trkpt lat="45.1134817" lon="9.35117"><ele>56.66666666666667</ele><time>2026-05-03T12:54:29.629Z</time></trkpt><trkpt lat="45.1136583" lon="9.3512333"><ele>57.33333333333333</ele><time>2026-05-03T12:54:30.63Z</time></trkpt><trkpt lat="45.1138367" lon="9.3512967"><ele>58.0</ele><time>2026-05-03T12:54:31.629Z</time></trkpt><trkpt lat="45.1140167" lon="9.3513617"><ele>58.33333333333333</ele><time>2026-05-03T12:54:32.63Z</time></trkpt><trkpt lat="45.1141983" lon="9.351425"><ele>58.66666666666667</ele><time>2026-05-03T12:54:33.63Z</time></trkpt><trkpt lat="45.1143833" lon="9.35149"><ele>59.0</ele><time>2026-05-03T12:54:34.629Z</time></trkpt><trkpt lat="45.11457" lon="9.3515567"><ele>59.0</ele><time>2026-05-03T12:54:35.63Z</time></trkpt><trkpt lat="45.1147567" lon="9.351625"><ele>59.0</ele><time>2026-05-03T12:54:36.629Z</time></trkpt><trkpt lat="45.1149467" lon="9.3516917"><ele>59.0</ele><time>2026-05-03T12:54:37.63Z</time></trkpt><trkpt lat="45.1151383" lon="9.35176"><ele>59.333333333333336</ele><time>2026-05-03T12:54:38.63Z</time></trkpt><trkpt lat="45.1153317" lon="9.3518267"><ele>59.66666666666667</ele><time>2026-05-03T12:54:39.63Z</time></trkpt><trkpt lat="45.1155267" lon="9.3518967"><ele>60.0</ele><time>2026-05-03T12:54:40.629Z</time></trkpt><trkpt lat="45.1157217" lon="9.35197"><ele>59.33333333333333</ele><time>2026-05-03T12:54:41.629Z</time></trkpt><trkpt lat="45.11592" lon="9.3520417"><ele>58.666666666666664</ele><time>2026-05-03T12:54:42.629Z</time></trkpt><trkpt lat="45.1161183" lon="9.3521117"><ele>58.0</ele><time>2026-05-03T12:54:43.63Z</time></trkpt><trkpt lat="45.116315" lon="9.35218"><ele>57.666666666666664</ele><time>2026-05-03T12:54:44.63Z</time></trkpt><trkpt lat="45.116515" lon="9.3522483"><ele>57.33333333333333</ele><time>2026-05-03T12:54:45.629Z</time></trkpt><trkpt lat="45.1167133" lon="9.3523183"><ele>57.0</ele><time>2026-05-03T12:54:46.629Z</time></trkpt><trkpt lat="45.1169117" lon="9.35239"><ele>56.33333333333333</ele><time>2026-05-03T12:54:47.629Z</time></trkpt><trkpt lat="45.1171117" lon="9.35246"><ele>55.666666666666664</ele><time>2026-05-03T12:54:48.628Z</time></trkpt><trkpt lat="45.1173133" lon="9.35253"><ele>55.0</ele><time>2026-05-03T12:54:49.629Z</time></trkpt><trkpt lat="45.117515" lon="9.3526"><ele>55.0</ele><time>2026-05-03T12:54:50.629Z</time></trkpt><trkpt lat="45.1177167" lon="9.352675"><ele>55.0</ele><time>2026-05-03T12:54:51.629Z</time></trkpt><trkpt lat="45.1179183" lon="9.3527483"><ele>55.0</ele><time>2026-05-03T12:54:52.628Z</time></trkpt><trkpt lat="45.1181183" lon="9.35282"><ele>55.0</ele><time>2026-05-03T12:54:53.628Z</time></trkpt><trkpt lat="45.1183198" lon="9.3528915"><ele>55.0</ele><time>2026-05-03T12:54:54.629Z</time></trkpt><trkpt lat="45.1185203" lon="9.3529642"><ele>55.0</ele><time>2026-05-03T12:54:55.628Z</time></trkpt><trkpt lat="45.118722" lon="9.3530353"><ele>55.0</ele><time>2026-05-03T12:54:56.63Z</time></trkpt><trkpt lat="45.1189221" lon="9.3531065"><ele>55.0</ele><time>2026-05-03T12:54:57.629Z</time></trkpt><trkpt lat="45.1191239" lon="9.3531744"><ele>55.0</ele><time>2026-05-03T12:54:58.629Z</time></trkpt><trkpt lat="45.1193245" lon="9.3532449"><ele>55.0</ele><time>2026-05-03T12:54:59.628Z</time></trkpt><trkpt lat="45.1195268" lon="9.3533176"><ele>55.0</ele><time>2026-05-03T12:55:00.629Z</time></trkpt><trkpt lat="45.1197304" lon="9.3533872"><ele>55.0</ele><time>2026-05-03T12:55:01.629Z</time></trkpt><trkpt lat="45.1199339" lon="9.3534581"><ele>55.33333333333333</ele><time>2026-05-03T12:55:02.629Z</time></trkpt><trkpt lat="45.1201384" lon="9.3535296"><ele>55.66666666666667</ele><time>2026-05-03T12:55:03.629Z</time></trkpt><trkpt lat="45.1203422" lon="9.3536052"><ele>56.0</ele><time>2026-05-03T12:55:04.629Z</time></trkpt><trkpt lat="45.1205481" lon="9.3536781"><ele>56.333333333333336</ele><time>2026-05-03T12:55:05.629Z</time></trkpt><trkpt lat="45.1207535" lon="9.3537474"><ele>56.66666666666667</ele><time>2026-05-03T12:55:06.629Z</time></trkpt><trkpt lat="45.1209586" lon="9.3538184"><ele>57.0</ele><time>2026-05-03T12:55:07.629Z</time></trkpt><trkpt lat="45.1211635" lon="9.3538886"><ele>57.0</ele><time>2026-05-03T12:55:08.629Z</time></trkpt><trkpt lat="45.1213711" lon="9.3539575"><ele>57.0</ele><time>2026-05-03T12:55:09.629Z</time></trkpt><trkpt lat="45.1215784" lon="9.35402"><ele>57.0</ele><time>2026-05-03T12:55:10.627Z</time></trkpt><trkpt lat="45.1217896" lon="9.3540782"><ele>56.66666666666667</ele><time>2026-05-03T12:55:11.629Z</time></trkpt><trkpt lat="45.1220017" lon="9.3541304"><ele>56.333333333333336</ele><time>2026-05-03T12:55:12.629Z</time></trkpt><trkpt lat="45.1222149" lon="9.3541772"><ele>56.0</ele><time>2026-05-03T12:55:13.628Z</time></trkpt><trkpt lat="45.1224286" lon="9.3542211"><ele>56.0</ele><time>2026-05-03T12:55:14.63Z</time></trkpt><trkpt lat="45.1226445" lon="9.3542624"><ele>56.0</ele><time>2026-05-03T12:55:15.629Z</time></trkpt><trkpt lat="45.12286" lon="9.3543011"><ele>56.0</ele><time>2026-05-03T12:55:16.628Z</time></trkpt><trkpt lat="45.1230753" lon="9.3543333"><ele>56.0</ele><time>2026-05-03T12:55:17.629Z</time></trkpt><trkpt lat="45.1232906" lon="9.35436"><ele>56.0</ele><time>2026-05-03T12:55:18.629Z</time></trkpt><trkpt lat="45.1235067" lon="9.3543753"><ele>56.0</ele><time>2026-05-03T12:55:19.629Z</time></trkpt><trkpt lat="45.1237246" lon="9.3543803"><ele>56.0</ele><time>2026-05-03T12:55:20.629Z</time></trkpt><trkpt lat="45.1239417" lon="9.3543812"><ele>56.0</ele><time>2026-05-03T12:55:21.628Z</time></trkpt><trkpt lat="45.1241582" lon="9.3543776"><ele>56.0</ele><time>2026-05-03T12:55:22.628Z</time></trkpt><trkpt lat="45.1243764" lon="9.3543718"><ele>56.0</ele><time>2026-05-03T12:55:23.629Z</time></trkpt><trkpt lat="45.1245921" lon="9.3543592"><ele>56.0</ele><time>2026-05-03T12:55:24.629Z</time></trkpt><trkpt lat="45.1248083" lon="9.3543382"><ele>56.0</ele><time>2026-05-03T12:55:25.63Z</time></trkpt><trkpt lat="45.1250236" lon="9.3543132"><ele>56.0</ele><time>2026-05-03T12:55:26.629Z</time></trkpt><trkpt lat="45.1252384" lon="9.3542803"><ele>56.0</ele><time>2026-05-03T12:55:27.628Z</time></trkpt><trkpt lat="45.1254545" lon="9.3542445"><ele>56.0</ele><time>2026-05-03T12:55:28.628Z</time></trkpt><trkpt lat="45.1256685" lon="9.3542067"><ele>57.0</ele><time>2026-05-03T12:55:29.629Z</time></trkpt><trkpt lat="45.1258829" lon="9.3541636"><ele>58.0</ele><time>2026-05-03T12:55:30.628Z</time></trkpt><trkpt lat="45.126095" lon="9.3541176"><ele>59.0</ele><time>2026-05-03T12:55:31.628Z</time></trkpt><trkpt lat="45.1263067" lon="9.3540673"><ele>59.0</ele><time>2026-05-03T12:55:32.629Z</time></trkpt><trkpt lat="45.1265169" lon="9.3540111"><ele>59.0</ele><time>2026-05-03T12:55:33.628Z</time></trkpt><trkpt lat="45.1267281" lon="9.3539532"><ele>59.0</ele><time>2026-05-03T12:55:34.629Z</time></trkpt><trkpt lat="45.1269383" lon="9.3538923"><ele>59.333333333333336</ele><time>2026-05-03T12:55:35.629Z</time></trkpt><trkpt lat="45.1271467" lon="9.3538246"><ele>59.66666666666667</ele><time>2026-05-03T12:55:36.629Z</time></trkpt><trkpt lat="45.1273548" lon="9.3537478"><ele>60.0</ele><time>2026-05-03T12:55:37.629Z</time></trkpt><trkpt lat="45.1275617" lon="9.3536672"><ele>60.0</ele><time>2026-05-03T12:55:38.629Z</time></trkpt><trkpt lat="45.1277681" lon="9.3535844"><ele>60.0</ele><time>2026-05-03T12:55:39.629Z</time></trkpt><trkpt lat="45.1279733" lon="9.3534975"><ele>60.0</ele><time>2026-05-03T12:55:40.628Z</time></trkpt><trkpt lat="45.1281769" lon="9.3534072"><ele>61.66666666666667</ele><time>2026-05-03T12:55:41.628Z</time></trkpt><trkpt lat="45.1283815" lon="9.3533108"><ele>63.333333333333336</ele><time>2026-05-03T12:55:42.628Z</time></trkpt><trkpt lat="45.128594" lon="9.3531973"><ele>65.0</ele><time>2026-05-03T12:55:43.63Z</time></trkpt><trkpt lat="45.1288207" lon="9.3530676"><ele>63.0</ele><time>2026-05-03T12:55:44.63Z</time></trkpt><trkpt lat="45.1290616" lon="9.352933"><ele>61.0</ele><time>2026-05-03T12:55:45.628Z</time></trkpt><trkpt lat="45.1293135" lon="9.3528012"><ele>61.0</ele><time>2026-05-03T12:55:46.63Z</time></trkpt><trkpt lat="45.129571" lon="9.3526696"><ele>61.0</ele><time>2026-05-03T12:55:47.629Z</time></trkpt><trkpt lat="45.1298301" lon="9.3525288"><ele>60.0</ele><time>2026-05-03T12:55:48.629Z</time></trkpt><trkpt lat="45.1300891" lon="9.3523829"><ele>59.0</ele><time>2026-05-03T12:55:49.629Z</time></trkpt><trkpt lat="45.1303488" lon="9.3522337"><ele>59.5</ele><time>2026-05-03T12:55:50.629Z</time></trkpt><trkpt lat="45.1306062" lon="9.3520824"><ele>60.0</ele><time>2026-05-03T12:55:51.628Z</time></trkpt><trkpt lat="45.1308619" lon="9.3519291"><ele>60.0</ele><time>2026-05-03T12:55:52.628Z</time></trkpt><trkpt lat="45.1311194" lon="9.3517749"><ele>60.0</ele><time>2026-05-03T12:55:53.629Z</time></trkpt><trkpt lat="45.1313751" lon="9.3516233"><ele>61.0</ele><time>2026-05-03T12:55:54.627Z</time></trkpt><trkpt lat="45.1316315" lon="9.351468"><ele>62.0</ele><time>2026-05-03T12:55:55.628Z</time></trkpt><trkpt lat="45.1318909" lon="9.3513127"><ele>62.0</ele><time>2026-05-03T12:55:56.629Z</time></trkpt><trkpt lat="45.1321483" lon="9.3511587"><ele>62.0</ele><time>2026-05-03T12:55:57.629Z</time></trkpt><trkpt lat="45.1324047" lon="9.3510033"><ele>61.0</ele><time>2026-05-03T12:55:58.628Z</time></trkpt><trkpt lat="45.1326623" lon="9.3508481"><ele>60.0</ele><time>2026-05-03T12:55:59.629Z</time></trkpt><trkpt lat="45.1329161" lon="9.3506957"><ele>60.0</ele><time>2026-05-03T12:56:00.628Z</time></trkpt><trkpt lat="45.1331668" lon="9.3505454"><ele>60.0</ele><time>2026-05-03T12:56:01.628Z</time></trkpt><trkpt lat="45.1334165" lon="9.3503939"><ele>62.0</ele><time>2026-05-03T12:56:02.629Z</time></trkpt><trkpt lat="45.1336617" lon="9.3502436"><ele>64.0</ele><time>2026-05-03T12:56:03.629Z</time></trkpt><trkpt lat="45.1338993" lon="9.3500987"><ele>66.5</ele><time>2026-05-03T12:56:04.628Z</time></trkpt><trkpt lat="45.1341312" lon="9.3499561"><ele>69.0</ele><time>2026-05-03T12:56:05.629Z</time></trkpt><trkpt lat="45.1343579" lon="9.34982"><ele>68.5</ele><time>2026-05-03T12:56:06.629Z</time></trkpt><trkpt lat="45.134578" lon="9.3496883"><ele>68.0</ele><time>2026-05-03T12:56:07.629Z</time></trkpt><trkpt lat="45.1347898" lon="9.349558"><ele>68.33333333333334</ele><time>2026-05-03T12:56:08.629Z</time></trkpt><trkpt lat="45.1349936" lon="9.3494328"><ele>68.66666666666667</ele><time>2026-05-03T12:56:09.629Z</time></trkpt><trkpt lat="45.1351903" lon="9.349314"><ele>69.0</ele><time>2026-05-03T12:56:10.628Z</time></trkpt><trkpt lat="45.1353776" lon="9.3492014"><ele>69.0</ele><time>2026-05-03T12:56:11.629Z</time></trkpt><trkpt lat="45.1355575" lon="9.3490959"><ele>69.0</ele><time>2026-05-03T12:56:12.629Z</time></trkpt><trkpt lat="45.1357264" lon="9.3489973"><ele>69.0</ele><time>2026-05-03T12:56:13.63Z</time></trkpt><trkpt lat="45.1358919" lon="9.348907"><ele>69.33333333333333</ele><time>2026-05-03T12:56:14.63Z</time></trkpt><trkpt lat="45.1360606" lon="9.3488415"><ele>69.66666666666666</ele><time>2026-05-03T12:56:15.63Z</time></trkpt><trkpt lat="45.1362303" lon="9.3488048"><ele>70.0</ele><time>2026-05-03T12:56:16.63Z</time></trkpt><trkpt lat="45.1363988" lon="9.3487914"><ele>70.0</ele><time>2026-05-03T12:56:17.628Z</time></trkpt><trkpt lat="45.1365674" lon="9.3487965"><ele>70.0</ele><time>2026-05-03T12:56:18.63Z</time></trkpt><trkpt lat="45.136737" lon="9.3488201"><ele>70.0</ele><time>2026-05-03T12:56:19.63Z</time></trkpt><trkpt lat="45.1369071" lon="9.3488657"><ele>69.66666666666666</ele><time>2026-05-03T12:56:20.63Z</time></trkpt><trkpt lat="45.1370843" lon="9.3489358"><ele>69.33333333333333</ele><time>2026-05-03T12:56:21.629Z</time></trkpt><trkpt lat="45.1372754" lon="9.3490306"><ele>69.0</ele><time>2026-05-03T12:56:22.63Z</time></trkpt><trkpt lat="45.1374773" lon="9.3491491"><ele>68.5</ele><time>2026-05-03T12:56:23.631Z</time></trkpt><trkpt lat="45.1376916" lon="9.3492836"><ele>68.0</ele><time>2026-05-03T12:56:24.629Z</time></trkpt><trkpt lat="45.1379168" lon="9.349428"><ele>68.0</ele><time>2026-05-03T12:56:25.63Z</time></trkpt><trkpt lat="45.1381511" lon="9.3495729"><ele>68.0</ele><time>2026-05-03T12:56:26.631Z</time></trkpt><trkpt lat="45.138393" lon="9.3497187"><ele>68.0</ele><time>2026-05-03T12:56:27.63Z</time></trkpt><trkpt lat="45.138639" lon="9.3498648"><ele>68.0</ele><time>2026-05-03T12:56:28.63Z</time></trkpt><trkpt lat="45.1388878" lon="9.3500105"><ele>68.5</ele><time>2026-05-03T12:56:29.63Z</time></trkpt><trkpt lat="45.1391396" lon="9.3501585"><ele>69.0</ele><time>2026-05-03T12:56:30.629Z</time></trkpt><trkpt lat="45.1393903" lon="9.3503056"><ele>69.0</ele><time>2026-05-03T12:56:31.629Z</time></trkpt><trkpt lat="45.1396421" lon="9.3504549"><ele>69.0</ele><time>2026-05-03T12:56:32.63Z</time></trkpt><trkpt lat="45.1398938" lon="9.3506048"><ele>68.0</ele><time>2026-05-03T12:56:33.63Z</time></trkpt><trkpt lat="45.1401455" lon="9.350752"><ele>67.0</ele><time>2026-05-03T12:56:34.63Z</time></trkpt><trkpt lat="45.1403976" lon="9.3508936"><ele>67.0</ele><time>2026-05-03T12:56:35.629Z</time></trkpt><trkpt lat="45.1406519" lon="9.351034"><ele>67.0</ele><time>2026-05-03T12:56:36.629Z</time></trkpt><trkpt lat="45.1409081" lon="9.3511689"><ele>67.0</ele><time>2026-05-03T12:56:37.63Z</time></trkpt><trkpt lat="45.1411637" lon="9.3513003"><ele>67.0</ele><time>2026-05-03T12:56:38.63Z</time></trkpt><trkpt lat="45.1414229" lon="9.3514267"><ele>66.5</ele><time>2026-05-03T12:56:39.629Z</time></trkpt><trkpt lat="45.1416793" lon="9.3515532"><ele>66.0</ele><time>2026-05-03T12:56:40.629Z</time></trkpt><trkpt lat="45.1419366" lon="9.3516783"><ele>66.0</ele><time>2026-05-03T12:56:41.629Z</time></trkpt><trkpt lat="45.1421923" lon="9.3517979"><ele>66.0</ele><time>2026-05-03T12:56:42.63Z</time></trkpt><trkpt lat="45.1424454" lon="9.3519185"><ele>67.0</ele><time>2026-05-03T12:56:43.63Z</time></trkpt><trkpt lat="45.1426941" lon="9.3520447"><ele>68.0</ele><time>2026-05-03T12:56:44.63Z</time></trkpt><trkpt lat="45.1429381" lon="9.3521685"><ele>69.0</ele><time>2026-05-03T12:56:45.629Z</time></trkpt><trkpt lat="45.1431782" lon="9.3522915"><ele>70.0</ele><time>2026-05-03T12:56:46.629Z</time></trkpt><trkpt lat="45.1434187" lon="9.3524187"><ele>70.5</ele><time>2026-05-03T12:56:47.629Z</time></trkpt><trkpt lat="45.1436547" lon="9.3525477"><ele>71.0</ele><time>2026-05-03T12:56:48.63Z</time></trkpt><trkpt lat="45.1438826" lon="9.3526761"><ele>70.66666666666667</ele><time>2026-05-03T12:56:49.629Z</time></trkpt><trkpt lat="45.1440969" lon="9.3527968"><ele>70.33333333333333</ele><time>2026-05-03T12:56:50.63Z</time></trkpt><trkpt lat="45.1442983" lon="9.3529089"><ele>70.0</ele><time>2026-05-03T12:56:51.629Z</time></trkpt><trkpt lat="45.1444908" lon="9.3530176"><ele>69.66666666666666</ele><time>2026-05-03T12:56:52.629Z</time></trkpt><trkpt lat="45.1446814" lon="9.3531232"><ele>69.33333333333333</ele><time>2026-05-03T12:56:53.631Z</time></trkpt><trkpt lat="45.1448692" lon="9.3532253"><ele>69.0</ele><time>2026-05-03T12:56:54.629Z</time></trkpt><trkpt lat="45.1450584" lon="9.3533232"><ele>69.0</ele><time>2026-05-03T12:56:55.63Z</time></trkpt><trkpt lat="45.1452486" lon="9.3534118"><ele>69.0</ele><time>2026-05-03T12:56:56.63Z</time></trkpt><trkpt lat="45.145443" lon="9.3534829"><ele>69.0</ele><time>2026-05-03T12:56:57.629Z</time></trkpt><trkpt lat="45.1456443" lon="9.353541"><ele>69.0</ele><time>2026-05-03T12:56:58.629Z</time></trkpt><trkpt lat="45.145851" lon="9.3535857"><ele>69.0</ele><time>2026-05-03T12:56:59.63Z</time></trkpt><trkpt lat="45.1460626" lon="9.3536207"><ele>69.0</ele><time>2026-05-03T12:57:00.63Z</time></trkpt><trkpt lat="45.1462808" lon="9.3536446"><ele>69.0</ele><time>2026-05-03T12:57:01.63Z</time></trkpt><trkpt lat="45.1465046" lon="9.353653"><ele>69.0</ele><time>2026-05-03T12:57:02.63Z</time></trkpt><trkpt lat="45.1467352" lon="9.3536458"><ele>70.0</ele><time>2026-05-03T12:57:03.63Z</time></trkpt><trkpt lat="45.1469707" lon="9.3536348"><ele>71.0</ele><time>2026-05-03T12:57:04.63Z</time></trkpt><trkpt lat="45.1472081" lon="9.3536244"><ele>70.0</ele><time>2026-05-03T12:57:05.63Z</time></trkpt><trkpt lat="45.1474506" lon="9.3536089"><ele>69.0</ele><time>2026-05-03T12:57:06.631Z</time></trkpt><trkpt lat="45.1476987" lon="9.3535925"><ele>69.0</ele><time>2026-05-03T12:57:07.63Z</time></trkpt><trkpt lat="45.1479493" lon="9.3535783"><ele>69.0</ele><time>2026-05-03T12:57:08.629Z</time></trkpt><trkpt lat="45.1482037" lon="9.3535649"><ele>69.0</ele><time>2026-05-03T12:57:09.629Z</time></trkpt><trkpt lat="45.1484608" lon="9.3535541"><ele>69.0</ele><time>2026-05-03T12:57:10.629Z</time></trkpt><trkpt lat="45.1487182" lon="9.3535403"><ele>69.0</ele><time>2026-05-03T12:57:11.63Z</time></trkpt><trkpt lat="45.1489796" lon="9.3535204"><ele>69.0</ele><time>2026-05-03T12:57:12.631Z</time></trkpt><trkpt lat="45.1492427" lon="9.353504"><ele>69.5</ele><time>2026-05-03T12:57:13.63Z</time></trkpt><trkpt lat="45.1495077" lon="9.3534951"><ele>70.0</ele><time>2026-05-03T12:57:14.63Z</time></trkpt><trkpt lat="45.1497743" lon="9.3534844"><ele>70.0</ele><time>2026-05-03T12:57:15.63Z</time></trkpt><trkpt lat="45.1500398" lon="9.3534459"><ele>70.0</ele><time>2026-05-03T12:57:16.63Z</time></trkpt><trkpt lat="45.1503008" lon="9.3533753"><ele>70.0</ele><time>2026-05-03T12:57:17.63Z</time></trkpt><trkpt lat="45.1505603" lon="9.3532768"><ele>70.0</ele><time>2026-05-03T12:57:18.63Z</time></trkpt><trkpt lat="45.1508171" lon="9.3531579"><ele>70.0</ele><time>2026-05-03T12:57:19.63Z</time></trkpt><trkpt lat="45.1510679" lon="9.3530222"><ele>70.0</ele><time>2026-05-03T12:57:20.631Z</time></trkpt><trkpt lat="45.1513128" lon="9.3528625"><ele>70.0</ele><time>2026-05-03T12:57:21.629Z</time></trkpt><trkpt lat="45.1515525" lon="9.352682"><ele>70.0</ele><time>2026-05-03T12:57:22.628Z</time></trkpt><trkpt lat="45.1517859" lon="9.3524811"><ele>70.0</ele><time>2026-05-03T12:57:23.63Z</time></trkpt><trkpt lat="45.1520102" lon="9.3522643"><ele>70.0</ele><time>2026-05-03T12:57:24.63Z</time></trkpt><trkpt lat="45.1522295" lon="9.3520347"><ele>70.5</ele><time>2026-05-03T12:57:25.629Z</time></trkpt><trkpt lat="45.1524455" lon="9.3517964"><ele>71.0</ele><time>2026-05-03T12:57:26.63Z</time></trkpt><trkpt lat="45.1526597" lon="9.3515565"><ele>71.5</ele><time>2026-05-03T12:57:27.63Z</time></trkpt><trkpt lat="45.1528728" lon="9.3513173"><ele>72.0</ele><time>2026-05-03T12:57:28.63Z</time></trkpt><trkpt lat="45.1530859" lon="9.3510788"><ele>71.5</ele><time>2026-05-03T12:57:29.629Z</time></trkpt><trkpt lat="45.1532966" lon="9.3508416"><ele>71.0</ele><time>2026-05-03T12:57:30.629Z</time></trkpt><trkpt lat="45.1535078" lon="9.3506062"><ele>71.5</ele><time>2026-05-03T12:57:31.63Z</time></trkpt><trkpt lat="45.1537168" lon="9.3503701"><ele>72.0</ele><time>2026-05-03T12:57:32.63Z</time></trkpt><trkpt lat="45.1539275" lon="9.350135"><ele>71.5</ele><time>2026-05-03T12:57:33.63Z</time></trkpt><trkpt lat="45.1541376" lon="9.3499013"><ele>71.0</ele><time>2026-05-03T12:57:34.629Z</time></trkpt><trkpt lat="45.1543449" lon="9.3496706"><ele>70.5</ele><time>2026-05-03T12:57:35.63Z</time></trkpt><trkpt lat="45.1545511" lon="9.3494424"><ele>70.0</ele><time>2026-05-03T12:57:36.631Z</time></trkpt><trkpt lat="45.1547561" lon="9.3492162"><ele>70.0</ele><time>2026-05-03T12:57:37.629Z</time></trkpt><trkpt lat="45.154957" lon="9.3489946"><ele>70.0</ele><time>2026-05-03T12:57:38.63Z</time></trkpt><trkpt lat="45.1551493" lon="9.3487786"><ele>69.66666666666666</ele><time>2026-05-03T12:57:39.63Z</time></trkpt><trkpt lat="45.1553286" lon="9.3485728"><ele>69.33333333333333</ele><time>2026-05-03T12:57:40.628Z</time></trkpt><trkpt lat="45.1554959" lon="9.3483789"><ele>69.0</ele><time>2026-05-03T12:57:41.63Z</time></trkpt><trkpt lat="45.1556526" lon="9.3481971"><ele>69.66666666666667</ele><time>2026-05-03T12:57:42.63Z</time></trkpt><trkpt lat="45.1557995" lon="9.3480306"><ele>70.33333333333334</ele><time>2026-05-03T12:57:43.63Z</time></trkpt><trkpt lat="45.1559375" lon="9.3478731"><ele>71.0</ele><time>2026-05-03T12:57:44.63Z</time></trkpt><trkpt lat="45.1560656" lon="9.347723"><ele>71.0</ele><time>2026-05-03T12:57:45.629Z</time></trkpt><trkpt lat="45.1561824" lon="9.3475839"><ele>71.0</ele><time>2026-05-03T12:57:46.63Z</time></trkpt><trkpt lat="45.1562899" lon="9.3474677"><ele>71.0</ele><time>2026-05-03T12:57:47.629Z</time></trkpt><trkpt lat="45.156394" lon="9.3473815"><ele>71.0</ele><time>2026-05-03T12:57:48.629Z</time></trkpt><trkpt lat="45.156504" lon="9.3473362"><ele>70.8</ele><time>2026-05-03T12:57:49.629Z</time></trkpt><trkpt lat="45.15661" lon="9.3473401"><ele>70.6</ele><time>2026-05-03T12:57:50.629Z</time></trkpt><trkpt lat="45.1567022" lon="9.347395"><ele>70.4</ele><time>2026-05-03T12:57:51.629Z</time></trkpt><trkpt lat="45.1567785" lon="9.3474931"><ele>70.2</ele><time>2026-05-03T12:57:52.63Z</time></trkpt><trkpt lat="45.1568318" lon="9.3476268"><ele>70.0</ele><time>2026-05-03T12:57:53.629Z</time></trkpt><trkpt lat="45.1568518" lon="9.3477918"><ele>70.0</ele><time>2026-05-03T12:57:54.63Z</time></trkpt><trkpt lat="45.1568454" lon="9.3479762"><ele>70.0</ele><time>2026-05-03T12:57:55.63Z</time></trkpt><trkpt lat="45.1568194" lon="9.3481776"><ele>70.0</ele><time>2026-05-03T12:57:56.63Z</time></trkpt><trkpt lat="45.1567895" lon="9.3483955"><ele>70.0</ele><time>2026-05-03T12:57:57.629Z</time></trkpt><trkpt lat="45.1567645" lon="9.3486296"><ele>70.0</ele><time>2026-05-03T12:57:58.63Z</time></trkpt><trkpt lat="45.1567468" lon="9.3488735"><ele>70.0</ele><time>2026-05-03T12:57:59.629Z</time></trkpt><trkpt lat="45.1567368" lon="9.3491348"><ele>70.0</ele><time>2026-05-03T12:58:00.63Z</time></trkpt><trkpt lat="45.1567256" lon="9.3494094"><ele>70.0</ele><time>2026-05-03T12:58:01.629Z</time></trkpt><trkpt lat="45.1567173" lon="9.349694"><ele>70.0</ele><time>2026-05-03T12:58:02.63Z</time></trkpt><trkpt lat="45.1567157" lon="9.3499817"><ele>70.0</ele><time>2026-05-03T12:58:03.629Z</time></trkpt><trkpt lat="45.1567175" lon="9.3502778"><ele>71.0</ele><time>2026-05-03T12:58:04.629Z</time></trkpt><trkpt lat="45.1567169" lon="9.3505809"><ele>72.0</ele><time>2026-05-03T12:58:05.629Z</time></trkpt><trkpt lat="45.1567156" lon="9.3508903"><ele>73.0</ele><time>2026-05-03T12:58:06.63Z</time></trkpt><trkpt lat="45.1567152" lon="9.3511981"><ele>73.0</ele><time>2026-05-03T12:58:07.629Z</time></trkpt><trkpt lat="45.1567174" lon="9.351508"><ele>73.0</ele><time>2026-05-03T12:58:08.63Z</time></trkpt><trkpt lat="45.1567169" lon="9.3518216"><ele>73.0</ele><time>2026-05-03T12:58:09.629Z</time></trkpt><trkpt lat="45.1567087" lon="9.3521398"><ele>72.5</ele><time>2026-05-03T12:58:10.63Z</time></trkpt><trkpt lat="45.1566899" lon="9.3524598"><ele>72.0</ele><time>2026-05-03T12:58:11.629Z</time></trkpt><trkpt lat="45.1566597" lon="9.352783"><ele>71.5</ele><time>2026-05-03T12:58:12.63Z</time></trkpt><trkpt lat="45.156626" lon="9.3531068"><ele>71.0</ele><time>2026-05-03T12:58:13.629Z</time></trkpt><trkpt lat="45.1565983" lon="9.3534221"><ele>71.0</ele><time>2026-05-03T12:58:14.63Z</time></trkpt><trkpt lat="45.1565799" lon="9.3537228"><ele>71.0</ele><time>2026-05-03T12:58:15.629Z</time></trkpt><trkpt lat="45.1565784" lon="9.3540182"><ele>71.0</ele><time>2026-05-03T12:58:16.629Z</time></trkpt><trkpt lat="45.1565996" lon="9.3543172"><ele>68.66666666666667</ele><time>2026-05-03T12:58:17.63Z</time></trkpt><trkpt lat="45.1566484" lon="9.3546197"><ele>66.33333333333333</ele><time>2026-05-03T12:58:18.629Z</time></trkpt><trkpt lat="45.1567189" lon="9.3549189"><ele>64.0</ele><time>2026-05-03T12:58:19.629Z</time></trkpt><trkpt lat="45.1568065" lon="9.3552138"><ele>63.5</ele><time>2026-05-03T12:58:20.63Z</time></trkpt><trkpt lat="45.1569092" lon="9.3554997"><ele>63.0</ele><time>2026-05-03T12:58:21.63Z</time></trkpt><trkpt lat="45.1570373" lon="9.3558463"><ele>63.0</ele><time>2026-05-03T12:58:22.63Z</time></trkpt><trkpt lat="45.1571682" lon="9.3561423"><ele>63.0</ele><time>2026-05-03T12:58:23.63Z</time></trkpt><trkpt lat="45.1572926" lon="9.356409"><ele>62.66666666666667</ele><time>2026-05-03T12:58:24.63Z</time></trkpt><trkpt lat="45.1574155" lon="9.3566677"><ele>62.333333333333336</ele><time>2026-05-03T12:58:25.63Z</time></trkpt><trkpt lat="45.1575351" lon="9.3569205"><ele>62.0</ele><time>2026-05-03T12:58:26.631Z</time></trkpt><trkpt lat="45.1576515" lon="9.3571768"><ele>62.0</ele><time>2026-05-03T12:58:27.63Z</time></trkpt><trkpt lat="45.1577588" lon="9.3574271"><ele>62.0</ele><time>2026-05-03T12:58:28.629Z</time></trkpt><trkpt lat="45.157846" lon="9.3576836"><ele>62.0</ele><time>2026-05-03T12:58:29.629Z</time></trkpt><trkpt lat="45.1579125" lon="9.3579486"><ele>62.0</ele><time>2026-05-03T12:58:30.629Z</time></trkpt><trkpt lat="45.1579608" lon="9.3582136"><ele>62.0</ele><time>2026-05-03T12:58:31.629Z</time></trkpt><trkpt lat="45.1579995" lon="9.358467"><ele>62.0</ele><time>2026-05-03T12:58:32.63Z</time></trkpt><trkpt lat="45.1580362" lon="9.3587065"><ele>62.25</ele><time>2026-05-03T12:58:33.629Z</time></trkpt><trkpt lat="45.1580702" lon="9.3589298"><ele>62.5</ele><time>2026-05-03T12:58:34.63Z</time></trkpt><trkpt lat="45.158101" lon="9.3591352"><ele>62.75</ele><time>2026-05-03T12:58:35.628Z</time></trkpt><trkpt lat="45.158128" lon="9.3593265"><ele>63.0</ele><time>2026-05-03T12:58:36.629Z</time></trkpt><trkpt lat="45.1581554" lon="9.3595072"><ele>63.0</ele><time>2026-05-03T12:58:37.629Z</time></trkpt><trkpt lat="45.1581832" lon="9.3596885"><ele>63.0</ele><time>2026-05-03T12:58:38.63Z</time></trkpt><trkpt lat="45.1582115" lon="9.3598712"><ele>63.0</ele><time>2026-05-03T12:58:39.63Z</time></trkpt><trkpt lat="45.1582398" lon="9.3600529"><ele>63.0</ele><time>2026-05-03T12:58:40.628Z</time></trkpt><trkpt lat="45.1582656" lon="9.3602332"><ele>64.25</ele><time>2026-05-03T12:58:41.63Z</time></trkpt><trkpt lat="45.1582916" lon="9.3604129"><ele>65.5</ele><time>2026-05-03T12:58:42.629Z</time></trkpt><trkpt lat="45.1583172" lon="9.3605921"><ele>66.75</ele><time>2026-05-03T12:58:43.629Z</time></trkpt><trkpt lat="45.158344" lon="9.3607717"><ele>68.0</ele><time>2026-05-03T12:58:44.63Z</time></trkpt><trkpt lat="45.158372" lon="9.3609535"><ele>68.0</ele><time>2026-05-03T12:58:45.63Z</time></trkpt><trkpt lat="45.1583976" lon="9.3611424"><ele>68.0</ele><time>2026-05-03T12:58:46.63Z</time></trkpt><trkpt lat="45.1584251" lon="9.3613305"><ele>68.0</ele><time>2026-05-03T12:58:47.63Z</time></trkpt><trkpt lat="45.1584535" lon="9.3615175"><ele>68.0</ele><time>2026-05-03T12:58:48.63Z</time></trkpt><trkpt lat="45.1584801" lon="9.3617017"><ele>67.75</ele><time>2026-05-03T12:58:49.63Z</time></trkpt><trkpt lat="45.1585033" lon="9.361885"><ele>67.5</ele><time>2026-05-03T12:58:50.631Z</time></trkpt><trkpt lat="45.1585267" lon="9.3620683"><ele>67.25</ele><time>2026-05-03T12:58:51.631Z</time></trkpt><trkpt lat="45.1585483" lon="9.362255"><ele>67.0</ele><time>2026-05-03T12:58:52.629Z</time></trkpt><trkpt lat="45.158575" lon="9.3624517"><ele>66.66666666666666</ele><time>2026-05-03T12:58:53.63Z</time></trkpt><trkpt lat="45.1586033" lon="9.3626667"><ele>66.33333333333333</ele><time>2026-05-03T12:58:54.63Z</time></trkpt><trkpt lat="45.1586333" lon="9.3628933"><ele>66.0</ele><time>2026-05-03T12:58:55.629Z</time></trkpt><trkpt lat="45.1586667" lon="9.3631333"><ele>66.0</ele><time>2026-05-03T12:58:56.63Z</time></trkpt><trkpt lat="45.1587" lon="9.363385"><ele>66.0</ele><time>2026-05-03T12:58:57.63Z</time></trkpt><trkpt lat="45.1587333" lon="9.363645"><ele>66.0</ele><time>2026-05-03T12:58:58.63Z</time></trkpt><trkpt lat="45.1587667" lon="9.3639167"><ele>66.0</ele><time>2026-05-03T12:58:59.63Z</time></trkpt><trkpt lat="45.158805" lon="9.3641867"><ele>66.0</ele><time>2026-05-03T12:59:00.63Z</time></trkpt><trkpt lat="45.1588417" lon="9.3644617"><ele>66.0</ele><time>2026-05-03T12:59:01.629Z</time></trkpt><trkpt lat="45.1588717" lon="9.3647367"><ele>66.0</ele><time>2026-05-03T12:59:02.63Z</time></trkpt><trkpt lat="45.1588917" lon="9.36501"><ele>66.0</ele><time>2026-05-03T12:59:03.631Z</time></trkpt><trkpt lat="45.1589" lon="9.36528"><ele>66.0</ele><time>2026-05-03T12:59:04.629Z</time></trkpt><trkpt lat="45.1588983" lon="9.36554"><ele>66.0</ele><time>2026-05-03T12:59:05.629Z</time></trkpt><trkpt lat="45.158895" lon="9.3657867"><ele>66.0</ele><time>2026-05-03T12:59:06.629Z</time></trkpt><trkpt lat="45.1588817" lon="9.366015"><ele>66.0</ele><time>2026-05-03T12:59:07.629Z</time></trkpt><trkpt lat="45.1588633" lon="9.3662233"><ele>66.5</ele><time>2026-05-03T12:59:08.63Z</time></trkpt><trkpt lat="45.1588433" lon="9.3664067"><ele>67.0</ele><time>2026-05-03T12:59:09.629Z</time></trkpt><trkpt lat="45.1588267" lon="9.36657"><ele>67.5</ele><time>2026-05-03T12:59:10.629Z</time></trkpt><trkpt lat="45.1588083" lon="9.3667233"><ele>68.0</ele><time>2026-05-03T12:59:11.629Z</time></trkpt><trkpt lat="45.1587917" lon="9.36687"><ele>68.0</ele><time>2026-05-03T12:59:12.629Z</time></trkpt><trkpt lat="45.158775" lon="9.3670117"><ele>68.0</ele><time>2026-05-03T12:59:13.629Z</time></trkpt><trkpt lat="45.1587583" lon="9.3671483"><ele>68.0</ele><time>2026-05-03T12:59:14.63Z</time></trkpt><trkpt lat="45.1587417" lon="9.3672833"><ele>68.0</ele><time>2026-05-03T12:59:15.63Z</time></trkpt><trkpt lat="45.1587267" lon="9.3674233"><ele>68.0</ele><time>2026-05-03T12:59:16.629Z</time></trkpt><trkpt lat="45.1587133" lon="9.367565"><ele>68.0</ele><time>2026-05-03T12:59:17.63Z</time></trkpt><trkpt lat="45.1587017" lon="9.3677"><ele>68.0</ele><time>2026-05-03T12:59:18.631Z</time></trkpt><trkpt lat="45.1586933" lon="9.3678283"><ele>68.0</ele><time>2026-05-03T12:59:19.63Z</time></trkpt><trkpt lat="45.158685" lon="9.3679467"><ele>68.0</ele><time>2026-05-03T12:59:20.63Z</time></trkpt><trkpt lat="45.1586767" lon="9.368055"><ele>68.0</ele><time>2026-05-03T12:59:21.63Z</time></trkpt><trkpt lat="45.1586717" lon="9.368145"><ele>68.0</ele><time>2026-05-03T12:59:22.63Z</time></trkpt><trkpt lat="45.1586683" lon="9.3682717"><ele>68.0</ele><time>2026-05-03T12:59:24.631Z</time></trkpt><trkpt lat="45.1586617" lon="9.3683617"><ele>68.0</ele><time>2026-05-03T12:59:27.629Z</time></trkpt><trkpt lat="45.1586617" lon="9.3684667"><ele>68.0</ele><time>2026-05-03T13:00:46.629Z</time></trkpt><trkpt lat="45.15865" lon="9.3685983"><ele>68.0</ele><time>2026-05-03T13:00:48.63Z</time></trkpt><trkpt lat="45.1586383" lon="9.3687517"><ele>68.0</ele><time>2026-05-03T13:00:50.63Z</time></trkpt><trkpt lat="45.15866" lon="9.3688817"><ele>68.0</ele><time>2026-05-03T13:00:52.629Z</time></trkpt><trkpt lat="45.1587367" lon="9.36898"><ele>68.0</ele><time>2026-05-03T13:00:54.631Z</time></trkpt><trkpt lat="45.15885" lon="9.3690467"><ele>68.0</ele><time>2026-05-03T13:00:56.63Z</time></trkpt><trkpt lat="45.15892" lon="9.3690867"><ele>68.0</ele><time>2026-05-03T13:00:57.63Z</time></trkpt><trkpt lat="45.1589967" lon="9.3691167"><ele>68.0</ele><time>2026-05-03T13:00:58.63Z</time></trkpt><trkpt lat="45.1590783" lon="9.3691517"><ele>68.0</ele><time>2026-05-03T13:00:59.631Z</time></trkpt><trkpt lat="45.1591667" lon="9.3691917"><ele>68.0</ele><time>2026-05-03T13:01:00.63Z</time></trkpt><trkpt lat="45.15925" lon="9.36923"><ele>68.0</ele><time>2026-05-03T13:01:01.629Z</time></trkpt><trkpt lat="45.1593233" lon="9.3692633"><ele>68.0</ele><time>2026-05-03T13:01:02.63Z</time></trkpt><trkpt lat="45.1593833" lon="9.3692917"><ele>68.0</ele><time>2026-05-03T13:01:03.629Z</time></trkpt><trkpt lat="45.159485" lon="9.3693433"><ele>68.0</ele><time>2026-05-03T13:01:05.629Z</time></trkpt><trkpt lat="45.1595867" lon="9.3693933"><ele>68.0</ele><time>2026-05-03T13:01:07.63Z</time></trkpt><trkpt lat="45.1596583" lon="9.3694333"><ele>68.0</ele><time>2026-05-03T13:01:08.631Z</time></trkpt><trkpt lat="45.1597433" lon="9.3694867"><ele>68.0</ele><time>2026-05-03T13:01:09.63Z</time></trkpt><trkpt lat="45.1598367" lon="9.36955"><ele>68.0</ele><time>2026-05-03T13:01:10.63Z</time></trkpt><trkpt lat="45.1599417" lon="9.36962"><ele>68.0</ele><time>2026-05-03T13:01:11.629Z</time></trkpt><trkpt lat="45.160055" lon="9.3696967"><ele>68.0</ele><time>2026-05-03T13:01:12.63Z</time></trkpt><trkpt lat="45.160175" lon="9.3697817"><ele>68.66666666666667</ele><time>2026-05-03T13:01:13.63Z</time></trkpt><trkpt lat="45.1603017" lon="9.3698683"><ele>69.33333333333333</ele><time>2026-05-03T13:01:14.629Z</time></trkpt><trkpt lat="45.1604383" lon="9.3699583"><ele>70.0</ele><time>2026-05-03T13:01:15.629Z</time></trkpt><trkpt lat="45.160585" lon="9.3700433"><ele>69.33333333333333</ele><time>2026-05-03T13:01:16.629Z</time></trkpt><trkpt lat="45.160745" lon="9.3701217"><ele>68.66666666666667</ele><time>2026-05-03T13:01:17.63Z</time></trkpt><trkpt lat="45.1609233" lon="9.370195"><ele>68.0</ele><time>2026-05-03T13:01:18.63Z</time></trkpt><trkpt lat="45.1611133" lon="9.3702767"><ele>68.0</ele><time>2026-05-03T13:01:19.631Z</time></trkpt><trkpt lat="45.161305" lon="9.3703683"><ele>68.0</ele><time>2026-05-03T13:01:20.632Z</time></trkpt><trkpt lat="45.1614983" lon="9.3704633"><ele>68.0</ele><time>2026-05-03T13:01:21.631Z</time></trkpt><trkpt lat="45.1616967" lon="9.37055"><ele>68.0</ele><time>2026-05-03T13:01:22.632Z</time></trkpt><trkpt lat="45.1619017" lon="9.37062"><ele>68.0</ele><time>2026-05-03T13:01:23.631Z</time></trkpt><trkpt lat="45.1621167" lon="9.370675"><ele>68.0</ele><time>2026-05-03T13:01:24.63Z</time></trkpt><trkpt lat="45.162335" lon="9.370725"><ele>68.0</ele><time>2026-05-03T13:01:25.629Z</time></trkpt><trkpt lat="45.1625567" lon="9.3707783"><ele>68.0</ele><time>2026-05-03T13:01:26.631Z</time></trkpt><trkpt lat="45.1627783" lon="9.370835"><ele>68.0</ele><time>2026-05-03T13:01:27.629Z</time></trkpt><trkpt lat="45.163" lon="9.3708883"><ele>68.0</ele><time>2026-05-03T13:01:28.63Z</time></trkpt><trkpt lat="45.16322" lon="9.3709467"><ele>68.0</ele><time>2026-05-03T13:01:29.63Z</time></trkpt><trkpt lat="45.1634417" lon="9.3710083"><ele>68.5</ele><time>2026-05-03T13:01:30.63Z</time></trkpt><trkpt lat="45.1636683" lon="9.37107"><ele>69.0</ele><time>2026-05-03T13:01:31.628Z</time></trkpt><trkpt lat="45.1638967" lon="9.3711333"><ele>69.0</ele><time>2026-05-03T13:01:32.629Z</time></trkpt><trkpt lat="45.1641267" lon="9.3712033"><ele>69.0</ele><time>2026-05-03T13:01:33.629Z</time></trkpt><trkpt lat="45.164355" lon="9.37128"><ele>68.5</ele><time>2026-05-03T13:01:34.63Z</time></trkpt><trkpt lat="45.1645817" lon="9.37136"><ele>68.0</ele><time>2026-05-03T13:01:35.629Z</time></trkpt><trkpt lat="45.1648117" lon="9.37144"><ele>69.5</ele><time>2026-05-03T13:01:36.63Z</time></trkpt><trkpt lat="45.16504" lon="9.3715183"><ele>71.0</ele><time>2026-05-03T13:01:37.63Z</time></trkpt><trkpt lat="45.1652667" lon="9.3715967"><ele>71.0</ele><time>2026-05-03T13:01:38.63Z</time></trkpt><trkpt lat="45.16549" lon="9.3716767"><ele>71.0</ele><time>2026-05-03T13:01:39.629Z</time></trkpt><trkpt lat="45.1657083" lon="9.3717583"><ele>70.66666666666667</ele><time>2026-05-03T13:01:40.63Z</time></trkpt><trkpt lat="45.1659133" lon="9.37184"><ele>70.33333333333333</ele><time>2026-05-03T13:01:41.629Z</time></trkpt><trkpt lat="45.1661017" lon="9.3719183"><ele>70.0</ele><time>2026-05-03T13:01:42.629Z</time></trkpt><trkpt lat="45.1662783" lon="9.371985"><ele>70.0</ele><time>2026-05-03T13:01:43.63Z</time></trkpt><trkpt lat="45.1664367" lon="9.3720533"><ele>70.0</ele><time>2026-05-03T13:01:44.63Z</time></trkpt><trkpt lat="45.1665717" lon="9.37214"><ele>70.0</ele><time>2026-05-03T13:01:45.629Z</time></trkpt><trkpt lat="45.1666867" lon="9.37224"><ele>70.0</ele><time>2026-05-03T13:01:46.629Z</time></trkpt><trkpt lat="45.1667967" lon="9.372325"><ele>70.25</ele><time>2026-05-03T13:01:47.629Z</time></trkpt><trkpt lat="45.166905" lon="9.37237"><ele>70.5</ele><time>2026-05-03T13:01:48.629Z</time></trkpt><trkpt lat="45.1670133" lon="9.3723683"><ele>70.75</ele><time>2026-05-03T13:01:49.628Z</time></trkpt><trkpt lat="45.16713" lon="9.3723433"><ele>71.0</ele><time>2026-05-03T13:01:50.63Z</time></trkpt><trkpt lat="45.1672483" lon="9.3723433"><ele>70.75</ele><time>2026-05-03T13:01:51.63Z</time></trkpt><trkpt lat="45.167375" lon="9.3723867"><ele>70.5</ele><time>2026-05-03T13:01:52.63Z</time></trkpt><trkpt lat="45.167505" lon="9.3724567"><ele>70.25</ele><time>2026-05-03T13:01:53.63Z</time></trkpt><trkpt lat="45.1676483" lon="9.3725333"><ele>70.0</ele><time>2026-05-03T13:01:54.629Z</time></trkpt><trkpt lat="45.1678033" lon="9.3725983"><ele>70.0</ele><time>2026-05-03T13:01:55.63Z</time></trkpt><trkpt lat="45.1679683" lon="9.3726633"><ele>70.0</ele><time>2026-05-03T13:01:56.63Z</time></trkpt><trkpt lat="45.168135" lon="9.3727283"><ele>70.0</ele><time>2026-05-03T13:01:57.629Z</time></trkpt><trkpt lat="45.16831" lon="9.3728"><ele>70.0</ele><time>2026-05-03T13:01:58.629Z</time></trkpt><trkpt lat="45.1684883" lon="9.3728833"><ele>70.0</ele><time>2026-05-03T13:01:59.629Z</time></trkpt><trkpt lat="45.1686633" lon="9.37298"><ele>70.0</ele><time>2026-05-03T13:02:00.63Z</time></trkpt><trkpt lat="45.1688433" lon="9.3730933"><ele>70.0</ele><time>2026-05-03T13:02:01.628Z</time></trkpt><trkpt lat="45.1690217" lon="9.3732317"><ele>70.0</ele><time>2026-05-03T13:02:02.631Z</time></trkpt><trkpt lat="45.1692" lon="9.37339"><ele>70.0</ele><time>2026-05-03T13:02:03.63Z</time></trkpt><trkpt lat="45.1693767" lon="9.37356"><ele>70.0</ele><time>2026-05-03T13:02:04.63Z</time></trkpt><trkpt lat="45.16955" lon="9.3737383"><ele>70.0</ele><time>2026-05-03T13:02:05.63Z</time></trkpt><trkpt lat="45.1697217" lon="9.3739283"><ele>70.0</ele><time>2026-05-03T13:02:06.629Z</time></trkpt><trkpt lat="45.169895" lon="9.3741217"><ele>70.33333333333333</ele><time>2026-05-03T13:02:07.63Z</time></trkpt><trkpt lat="45.17007" lon="9.37432"><ele>70.66666666666667</ele><time>2026-05-03T13:02:08.631Z</time></trkpt><trkpt lat="45.1702417" lon="9.3745217"><ele>71.0</ele><time>2026-05-03T13:02:09.628Z</time></trkpt><trkpt lat="45.1704217" lon="9.3747217"><ele>71.0</ele><time>2026-05-03T13:02:10.629Z</time></trkpt><trkpt lat="45.170605" lon="9.3749217"><ele>71.0</ele><time>2026-05-03T13:02:11.629Z</time></trkpt><trkpt lat="45.1707883" lon="9.3751217"><ele>71.5</ele><time>2026-05-03T13:02:12.629Z</time></trkpt><trkpt lat="45.1709733" lon="9.375325"><ele>72.0</ele><time>2026-05-03T13:02:13.63Z</time></trkpt><trkpt lat="45.1711617" lon="9.3755267"><ele>72.5</ele><time>2026-05-03T13:02:14.629Z</time></trkpt><trkpt lat="45.1713517" lon="9.3757233"><ele>73.0</ele><time>2026-05-03T13:02:15.629Z</time></trkpt><trkpt lat="45.17155" lon="9.3759117"><ele>73.5</ele><time>2026-05-03T13:02:16.629Z</time></trkpt><trkpt lat="45.171755" lon="9.376085"><ele>74.0</ele><time>2026-05-03T13:02:17.629Z</time></trkpt><trkpt lat="45.1719683" lon="9.3762433"><ele>74.0</ele><time>2026-05-03T13:02:18.629Z</time></trkpt><trkpt lat="45.17219" lon="9.3763817"><ele>74.0</ele><time>2026-05-03T13:02:19.629Z</time></trkpt><trkpt lat="45.1724233" lon="9.3765033"><ele>73.5</ele><time>2026-05-03T13:02:20.631Z</time></trkpt><trkpt lat="45.17266" lon="9.3766117"><ele>73.0</ele><time>2026-05-03T13:02:21.63Z</time></trkpt><trkpt lat="45.1729033" lon="9.3767133"><ele>73.0</ele><time>2026-05-03T13:02:22.631Z</time></trkpt><trkpt lat="45.1731467" lon="9.37682"><ele>73.0</ele><time>2026-05-03T13:02:23.629Z</time></trkpt><trkpt lat="45.17339" lon="9.3769283"><ele>73.0</ele><time>2026-05-03T13:02:24.629Z</time></trkpt><trkpt lat="45.1736333" lon="9.3770383"><ele>73.0</ele><time>2026-05-03T13:02:25.629Z</time></trkpt><trkpt lat="45.1738733" lon="9.37715"><ele>74.0</ele><time>2026-05-03T13:02:26.63Z</time></trkpt><trkpt lat="45.1741133" lon="9.3772633"><ele>75.0</ele><time>2026-05-03T13:02:27.629Z</time></trkpt><trkpt lat="45.1743517" lon="9.3773867"><ele>75.0</ele><time>2026-05-03T13:02:28.629Z</time></trkpt><trkpt lat="45.1745817" lon="9.37753"><ele>75.0</ele><time>2026-05-03T13:02:29.629Z</time></trkpt><trkpt lat="45.1748067" lon="9.377685"><ele>75.5</ele><time>2026-05-03T13:02:30.63Z</time></trkpt><trkpt lat="45.17503" lon="9.3778283"><ele>76.0</ele><time>2026-05-03T13:02:31.629Z</time></trkpt><trkpt lat="45.17526" lon="9.3779467"><ele>76.0</ele><time>2026-05-03T13:02:32.63Z</time></trkpt><trkpt lat="45.1754817" lon="9.378045"><ele>76.0</ele><time>2026-05-03T13:02:33.63Z</time></trkpt><trkpt lat="45.17569" lon="9.378125"><ele>76.0</ele><time>2026-05-03T13:02:34.63Z</time></trkpt><trkpt lat="45.175885" lon="9.3782083"><ele>75.33333333333333</ele><time>2026-05-03T13:02:35.629Z</time></trkpt><trkpt lat="45.176065" lon="9.3783133"><ele>74.66666666666667</ele><time>2026-05-03T13:02:36.629Z</time></trkpt><trkpt lat="45.17623" lon="9.378455"><ele>74.0</ele><time>2026-05-03T13:02:37.629Z</time></trkpt><trkpt lat="45.17638" lon="9.3786467"><ele>73.33333333333334</ele><time>2026-05-03T13:02:38.629Z</time></trkpt><trkpt lat="45.176525" lon="9.378865"><ele>72.66666666666667</ele><time>2026-05-03T13:02:39.63Z</time></trkpt><trkpt lat="45.17667" lon="9.3790983"><ele>72.0</ele><time>2026-05-03T13:02:40.629Z</time></trkpt><trkpt lat="45.17682" lon="9.3793367"><ele>72.0</ele><time>2026-05-03T13:02:41.629Z</time></trkpt><trkpt lat="45.1769733" lon="9.3795767"><ele>72.0</ele><time>2026-05-03T13:02:42.629Z</time></trkpt><trkpt lat="45.1771267" lon="9.3798183"><ele>72.0</ele><time>2026-05-03T13:02:43.629Z</time></trkpt><trkpt lat="45.1772733" lon="9.380055"><ele>72.0</ele><time>2026-05-03T13:02:44.629Z</time></trkpt><trkpt lat="45.17742" lon="9.3802767"><ele>72.0</ele><time>2026-05-03T13:02:45.63Z</time></trkpt><trkpt lat="45.17757" lon="9.3804867"><ele>71.0</ele><time>2026-05-03T13:02:46.628Z</time></trkpt><trkpt lat="45.1777317" lon="9.3806733"><ele>70.0</ele><time>2026-05-03T13:02:47.628Z</time></trkpt><trkpt lat="45.17791" lon="9.380835"><ele>69.0</ele><time>2026-05-03T13:02:48.629Z</time></trkpt><trkpt lat="45.178095" lon="9.38098"><ele>68.66666666666667</ele><time>2026-05-03T13:02:49.629Z</time></trkpt><trkpt lat="45.17828" lon="9.3811233"><ele>68.33333333333334</ele><time>2026-05-03T13:02:50.63Z</time></trkpt><trkpt lat="45.1784717" lon="9.3812567"><ele>68.0</ele><time>2026-05-03T13:02:51.629Z</time></trkpt><trkpt lat="45.178665" lon="9.381375"><ele>68.0</ele><time>2026-05-03T13:02:52.629Z</time></trkpt><trkpt lat="45.178865" lon="9.3814717"><ele>68.0</ele><time>2026-05-03T13:02:53.629Z</time></trkpt><trkpt lat="45.1790683" lon="9.38154"><ele>68.0</ele><time>2026-05-03T13:02:54.629Z</time></trkpt><trkpt lat="45.179275" lon="9.3815667"><ele>68.0</ele><time>2026-05-03T13:02:55.63Z</time></trkpt><trkpt lat="45.17948" lon="9.38155"><ele>68.0</ele><time>2026-05-03T13:02:56.63Z</time></trkpt><trkpt lat="45.1796867" lon="9.3814967"><ele>68.0</ele><time>2026-05-03T13:02:57.629Z</time></trkpt><trkpt lat="45.1798883" lon="9.3814067"><ele>68.33333333333334</ele><time>2026-05-03T13:02:58.629Z</time></trkpt><trkpt lat="45.180085" lon="9.3812967"><ele>68.66666666666667</ele><time>2026-05-03T13:02:59.629Z</time></trkpt><trkpt lat="45.1802833" lon="9.3812033"><ele>69.0</ele><time>2026-05-03T13:03:00.63Z</time></trkpt><trkpt lat="45.180485" lon="9.38115"><ele>69.33333333333333</ele><time>2026-05-03T13:03:01.63Z</time></trkpt><trkpt lat="45.18069" lon="9.38114"><ele>69.66666666666666</ele><time>2026-05-03T13:03:02.63Z</time></trkpt><trkpt lat="45.180895" lon="9.38117"><ele>70.0</ele><time>2026-05-03T13:03:03.63Z</time></trkpt><trkpt lat="45.1811017" lon="9.3812467"><ele>70.0</ele><time>2026-05-03T13:03:04.63Z</time></trkpt><trkpt lat="45.1813083" lon="9.3813633"><ele>70.0</ele><time>2026-05-03T13:03:05.629Z</time></trkpt><trkpt lat="45.1815217" lon="9.3815033"><ele>69.5</ele><time>2026-05-03T13:03:06.63Z</time></trkpt><trkpt lat="45.1817383" lon="9.3816617"><ele>69.0</ele><time>2026-05-03T13:03:07.628Z</time></trkpt><trkpt lat="45.1819483" lon="9.3818417"><ele>69.0</ele><time>2026-05-03T13:03:08.63Z</time></trkpt><trkpt lat="45.1821567" lon="9.3820483"><ele>69.0</ele><time>2026-05-03T13:03:09.629Z</time></trkpt><trkpt lat="45.1823717" lon="9.382255"><ele>69.0</ele><time>2026-05-03T13:03:10.629Z</time></trkpt><trkpt lat="45.1826017" lon="9.382445"><ele>69.0</ele><time>2026-05-03T13:03:11.63Z</time></trkpt><trkpt lat="45.1828367" lon="9.382625"><ele>69.0</ele><time>2026-05-03T13:03:12.629Z</time></trkpt><trkpt lat="45.1830783" lon="9.3828"><ele>69.0</ele><time>2026-05-03T13:03:13.63Z</time></trkpt><trkpt lat="45.1833233" lon="9.3829717"><ele>68.0</ele><time>2026-05-03T13:03:14.63Z</time></trkpt><trkpt lat="45.1835667" lon="9.3831433"><ele>67.0</ele><time>2026-05-03T13:03:15.629Z</time></trkpt><trkpt lat="45.1838083" lon="9.3833217"><ele>67.5</ele><time>2026-05-03T13:03:16.629Z</time></trkpt><trkpt lat="45.1840383" lon="9.3835083"><ele>68.0</ele><time>2026-05-03T13:03:17.629Z</time></trkpt><trkpt lat="45.184255" lon="9.3836917"><ele>68.0</ele><time>2026-05-03T13:03:18.629Z</time></trkpt><trkpt lat="45.18446" lon="9.383865"><ele>68.0</ele><time>2026-05-03T13:03:19.63Z</time></trkpt><trkpt lat="45.184655" lon="9.3840383"><ele>69.0</ele><time>2026-05-03T13:03:20.63Z</time></trkpt><trkpt lat="45.1848467" lon="9.3842117"><ele>70.0</ele><time>2026-05-03T13:03:21.63Z</time></trkpt><trkpt lat="45.1850417" lon="9.38438"><ele>70.0</ele><time>2026-05-03T13:03:22.63Z</time></trkpt><trkpt lat="45.1852517" lon="9.38454"><ele>70.0</ele><time>2026-05-03T13:03:23.63Z</time></trkpt><trkpt lat="45.18547" lon="9.3847033"><ele>70.5</ele><time>2026-05-03T13:03:24.63Z</time></trkpt><trkpt lat="45.1856933" lon="9.384865"><ele>71.0</ele><time>2026-05-03T13:03:25.629Z</time></trkpt><trkpt lat="45.185915" lon="9.385025"><ele>71.0</ele><time>2026-05-03T13:03:26.63Z</time></trkpt><trkpt lat="45.1861283" lon="9.385175"><ele>71.0</ele><time>2026-05-03T13:03:27.63Z</time></trkpt><trkpt lat="45.1863283" lon="9.385305"><ele>71.33333333333334</ele><time>2026-05-03T13:03:28.629Z</time></trkpt><trkpt lat="45.1865117" lon="9.385415"><ele>71.66666666666667</ele><time>2026-05-03T13:03:29.629Z</time></trkpt><trkpt lat="45.1866817" lon="9.3855067"><ele>72.0</ele><time>2026-05-03T13:03:30.629Z</time></trkpt><trkpt lat="45.1868383" lon="9.3855917"><ele>72.0</ele><time>2026-05-03T13:03:31.63Z</time></trkpt><trkpt lat="45.1869767" lon="9.3856817"><ele>72.0</ele><time>2026-05-03T13:03:32.63Z</time></trkpt><trkpt lat="45.187095" lon="9.3857833"><ele>72.0</ele><time>2026-05-03T13:03:33.629Z</time></trkpt><trkpt lat="45.1871933" lon="9.3859083"><ele>72.0</ele><time>2026-05-03T13:03:34.629Z</time></trkpt><trkpt lat="45.187285" lon="9.3860667"><ele>71.66666666666667</ele><time>2026-05-03T13:03:35.631Z</time></trkpt><trkpt lat="45.1873667" lon="9.3862517"><ele>71.33333333333334</ele><time>2026-05-03T13:03:36.628Z</time></trkpt><trkpt lat="45.1874433" lon="9.3864783"><ele>71.0</ele><time>2026-05-03T13:03:37.628Z</time></trkpt><trkpt lat="45.1875167" lon="9.3867333"><ele>71.66666666666667</ele><time>2026-05-03T13:03:38.63Z</time></trkpt><trkpt lat="45.1875967" lon="9.3870017"><ele>72.33333333333333</ele><time>2026-05-03T13:03:39.628Z</time></trkpt><trkpt lat="45.1876783" lon="9.3872833"><ele>73.0</ele><time>2026-05-03T13:03:40.629Z</time></trkpt><trkpt lat="45.1877633" lon="9.387575"><ele>73.0</ele><time>2026-05-03T13:03:41.629Z</time></trkpt><trkpt lat="45.1878533" lon="9.3878767"><ele>73.0</ele><time>2026-05-03T13:03:42.629Z</time></trkpt><trkpt lat="45.1879467" lon="9.388185"><ele>73.5</ele><time>2026-05-03T13:03:43.63Z</time></trkpt><trkpt lat="45.1880417" lon="9.3885017"><ele>74.0</ele><time>2026-05-03T13:03:44.63Z</time></trkpt><trkpt lat="45.18814" lon="9.3888217"><ele>73.5</ele><time>2026-05-03T13:03:45.629Z</time></trkpt><trkpt lat="45.1882367" lon="9.3891333"><ele>73.0</ele><time>2026-05-03T13:03:46.628Z</time></trkpt><trkpt lat="45.1883267" lon="9.3894267"><ele>73.33333333333333</ele><time>2026-05-03T13:03:47.628Z</time></trkpt><trkpt lat="45.1884067" lon="9.389695"><ele>73.66666666666667</ele><time>2026-05-03T13:03:48.629Z</time></trkpt><trkpt lat="45.188475" lon="9.3899333"><ele>74.0</ele><time>2026-05-03T13:03:49.631Z</time></trkpt><trkpt lat="45.1885283" lon="9.3901483"><ele>74.0</ele><time>2026-05-03T13:03:50.629Z</time></trkpt><trkpt lat="45.1885567" lon="9.3903383"><ele>74.0</ele><time>2026-05-03T13:03:51.63Z</time></trkpt><trkpt lat="45.188565" lon="9.39051"><ele>74.0</ele><time>2026-05-03T13:03:52.629Z</time></trkpt><trkpt lat="45.1885633" lon="9.3906817"><ele>74.0</ele><time>2026-05-03T13:03:53.629Z</time></trkpt><trkpt lat="45.1885583" lon="9.39086"><ele>74.5</ele><time>2026-05-03T13:03:54.629Z</time></trkpt><trkpt lat="45.1885517" lon="9.391035"><ele>75.0</ele><time>2026-05-03T13:03:55.63Z</time></trkpt><trkpt lat="45.1885333" lon="9.3912"><ele>75.5</ele><time>2026-05-03T13:03:56.629Z</time></trkpt><trkpt lat="45.1884967" lon="9.391345"><ele>76.0</ele><time>2026-05-03T13:03:57.63Z</time></trkpt><trkpt lat="45.1884533" lon="9.3914767"><ele>76.16666666666666</ele><time>2026-05-03T13:03:58.63Z</time></trkpt><trkpt lat="45.1884267" lon="9.39159"><ele>76.33333333333333</ele><time>2026-05-03T13:03:59.63Z</time></trkpt><trkpt lat="45.1884283" lon="9.39169"><ele>76.5</ele><time>2026-05-03T13:04:00.629Z</time></trkpt><trkpt lat="45.1885117" lon="9.3918067"><ele>76.66666666666667</ele><time>2026-05-03T13:04:02.629Z</time></trkpt><trkpt lat="45.18858" lon="9.3918083"><ele>76.83333333333334</ele><time>2026-05-03T13:04:03.629Z</time></trkpt><trkpt lat="45.188655" lon="9.3917733"><ele>77.0</ele><time>2026-05-03T13:04:04.629Z</time></trkpt><trkpt lat="45.18871" lon="9.3916967"><ele>77.0</ele><time>2026-05-03T13:04:05.63Z</time></trkpt><trkpt lat="45.18875" lon="9.3915917"><ele>77.0</ele><time>2026-05-03T13:04:06.63Z</time></trkpt><trkpt lat="45.1887833" lon="9.3914717"><ele>77.0</ele><time>2026-05-03T13:04:07.63Z</time></trkpt><trkpt lat="45.188825" lon="9.3913567"><ele>77.0</ele><time>2026-05-03T13:04:08.629Z</time></trkpt><trkpt lat="45.1888933" lon="9.3912467"><ele>77.0</ele><time>2026-05-03T13:04:09.629Z</time></trkpt><trkpt lat="45.1889833" lon="9.39113"><ele>77.0</ele><time>2026-05-03T13:04:10.629Z</time></trkpt><trkpt lat="45.189085" lon="9.3910017"><ele>77.0</ele><time>2026-05-03T13:04:11.63Z</time></trkpt><trkpt lat="45.1891983" lon="9.3908633"><ele>77.0</ele><time>2026-05-03T13:04:12.629Z</time></trkpt><trkpt lat="45.1893167" lon="9.39071"><ele>77.0</ele><time>2026-05-03T13:04:13.629Z</time></trkpt><trkpt lat="45.1894433" lon="9.3905417"><ele>76.33333333333334</ele><time>2026-05-03T13:04:14.63Z</time></trkpt><trkpt lat="45.1895783" lon="9.3903617"><ele>75.66666666666667</ele><time>2026-05-03T13:04:15.629Z</time></trkpt><trkpt lat="45.1897233" lon="9.39018"><ele>75.0</ele><time>2026-05-03T13:04:16.629Z</time></trkpt><trkpt lat="45.189875" lon="9.3899967"><ele>74.66666666666667</ele><time>2026-05-03T13:04:17.628Z</time></trkpt><trkpt lat="45.190035" lon="9.389815"><ele>74.33333333333334</ele><time>2026-05-03T13:04:18.628Z</time></trkpt><trkpt lat="45.1902017" lon="9.3896317"><ele>74.0</ele><time>2026-05-03T13:04:19.63Z</time></trkpt><trkpt lat="45.1903717" lon="9.3894417"><ele>74.0</ele><time>2026-05-03T13:04:20.63Z</time></trkpt><trkpt lat="45.1905433" lon="9.3892417"><ele>74.0</ele><time>2026-05-03T13:04:21.631Z</time></trkpt><trkpt lat="45.1907167" lon="9.3890367"><ele>74.0</ele><time>2026-05-03T13:04:22.628Z</time></trkpt><trkpt lat="45.1908933" lon="9.38883"><ele>73.0</ele><time>2026-05-03T13:04:23.63Z</time></trkpt><trkpt lat="45.1910717" lon="9.38862"><ele>72.0</ele><time>2026-05-03T13:04:24.63Z</time></trkpt><trkpt lat="45.1912517" lon="9.3884067"><ele>72.0</ele><time>2026-05-03T13:04:25.631Z</time></trkpt><trkpt lat="45.1914317" lon="9.3881933"><ele>72.0</ele><time>2026-05-03T13:04:26.629Z</time></trkpt><trkpt lat="45.1916133" lon="9.3879783"><ele>72.0</ele><time>2026-05-03T13:04:27.63Z</time></trkpt><trkpt lat="45.1917933" lon="9.3877617"><ele>72.0</ele><time>2026-05-03T13:04:28.629Z</time></trkpt><trkpt lat="45.19197" lon="9.387545"><ele>72.0</ele><time>2026-05-03T13:04:29.629Z</time></trkpt><trkpt lat="45.1921476" lon="9.387331"><ele>72.0</ele><time>2026-05-03T13:04:30.63Z</time></trkpt><trkpt lat="45.1923241" lon="9.3871211"><ele>72.0</ele><time>2026-05-03T13:04:31.629Z</time></trkpt><trkpt lat="45.1924997" lon="9.3869138"><ele>72.0</ele><time>2026-05-03T13:04:32.63Z</time></trkpt><trkpt lat="45.1926715" lon="9.3867066"><ele>72.0</ele><time>2026-05-03T13:04:33.629Z</time></trkpt><trkpt lat="45.1928417" lon="9.3865002"><ele>72.0</ele><time>2026-05-03T13:04:34.629Z</time></trkpt><trkpt lat="45.1930087" lon="9.3862978"><ele>72.0</ele><time>2026-05-03T13:04:35.629Z</time></trkpt><trkpt lat="45.1931691" lon="9.3861038"><ele>72.33333333333333</ele><time>2026-05-03T13:04:36.63Z</time></trkpt><trkpt lat="45.1933163" lon="9.3859214"><ele>72.66666666666666</ele><time>2026-05-03T13:04:37.629Z</time></trkpt><trkpt lat="45.1934547" lon="9.3857558"><ele>73.0</ele><time>2026-05-03T13:04:38.629Z</time></trkpt><trkpt lat="45.1935844" lon="9.3856037"><ele>72.66666666666666</ele><time>2026-05-03T13:04:39.629Z</time></trkpt><trkpt lat="45.1937144" lon="9.3854788"><ele>72.33333333333333</ele><time>2026-05-03T13:04:40.63Z</time></trkpt><trkpt lat="45.193856" lon="9.3853888"><ele>72.0</ele><time>2026-05-03T13:04:41.63Z</time></trkpt><trkpt lat="45.1940119" lon="9.3853405"><ele>72.66666666666667</ele><time>2026-05-03T13:04:42.629Z</time></trkpt><trkpt lat="45.1941775" lon="9.3853271"><ele>73.33333333333334</ele><time>2026-05-03T13:04:43.629Z</time></trkpt><trkpt lat="45.1943484" lon="9.3853313"><ele>74.0</ele><time>2026-05-03T13:04:44.63Z</time></trkpt><trkpt lat="45.194525" lon="9.3853315"><ele>74.0</ele><time>2026-05-03T13:04:45.631Z</time></trkpt><trkpt lat="45.1947041" lon="9.3853125"><ele>74.0</ele><time>2026-05-03T13:04:46.629Z</time></trkpt><trkpt lat="45.1948873" lon="9.3852865"><ele>74.0</ele><time>2026-05-03T13:04:47.629Z</time></trkpt><trkpt lat="45.1950712" lon="9.3852585"><ele>73.33333333333334</ele><time>2026-05-03T13:04:48.63Z</time></trkpt><trkpt lat="45.195252" lon="9.3852302"><ele>72.66666666666667</ele><time>2026-05-03T13:04:49.63Z</time></trkpt><trkpt lat="45.1954305" lon="9.3852067"><ele>72.0</ele><time>2026-05-03T13:04:50.631Z</time></trkpt><trkpt lat="45.1956058" lon="9.3851835"><ele>72.66666666666667</ele><time>2026-05-03T13:04:51.631Z</time></trkpt><trkpt lat="45.1957804" lon="9.3851603"><ele>73.33333333333334</ele><time>2026-05-03T13:04:52.63Z</time></trkpt><trkpt lat="45.1959566" lon="9.385137"><ele>74.0</ele><time>2026-05-03T13:04:53.63Z</time></trkpt><trkpt lat="45.1961364" lon="9.3851123"><ele>74.0</ele><time>2026-05-03T13:04:54.632Z</time></trkpt><trkpt lat="45.1963153" lon="9.3850886"><ele>74.0</ele><time>2026-05-03T13:04:55.631Z</time></trkpt><trkpt lat="45.1964932" lon="9.3850642"><ele>74.0</ele><time>2026-05-03T13:04:56.63Z</time></trkpt><trkpt lat="45.20135" lon="9.38209"><ele>74.0</ele><time>2026-05-03T13:06:06.629Z</time></trkpt><trkpt lat="45.2013183" lon="9.3819733"><ele>74.0</ele><time>2026-05-03T13:06:08.631Z</time></trkpt><trkpt lat="45.2013033" lon="9.3818617"><ele>74.0</ele><time>2026-05-03T13:06:10.629Z</time></trkpt><trkpt lat="45.2012267" lon="9.3818167"><ele>74.0</ele><time>2026-05-03T13:06:13.629Z</time></trkpt><trkpt lat="45.2011517" lon="9.3818617"><ele>74.0</ele><time>2026-05-03T13:06:16.628Z</time></trkpt><trkpt lat="45.2010767" lon="9.3817917"><ele>74.0</ele><time>2026-05-03T13:06:53.63Z</time></trkpt></trkseg></trk></gpx>